<?xml version='1.0' encoding='UTF-8'?>
<gpx xmlns="http://www.topografix.com/GPX/1/1" creator="www.balnam.be" version="1.1" xmlns:xsi="http://www.w3.org/2001/XMLSchema-instance" xsi:schemaLocation="http://www.topografix.com/GPX/1/1 http://www.topografix.com/GPX/1/1/gpx.xsd">
<trk>
<name>nvvdr1</name>
<cmt>r</cmt>
<desc>Dourbes Chemin n°1 Rue de Givet / Rue des Florins</desc>
<link href="https://chemins.be/dourbes/chemin/1"/><trkseg>
<trkpt lat="50.091437" lon="4.591542"><time>2026-05-06T18:41:11Z</time></trkpt>
<trkpt lat="50.092500" lon="4.595125"><time>2026-05-06T18:51:11Z</time></trkpt>
<trkpt lat="50.093413" lon="4.597240"><time>2026-05-06T19:01:11Z</time></trkpt>
<trkpt lat="50.094467" lon="4.601018"><time>2026-05-06T19:11:11Z</time></trkpt>
<trkpt lat="50.094508" lon="4.602919"><time>2026-05-06T19:21:11Z</time></trkpt>
</trkseg></trk>
<trk>
<name>nvvdr1</name>
<cmt>v</cmt>
<desc>Dourbes Chemin n°1 Rue de Givet / Rue des Florins</desc>
<link href="https://chemins.be/dourbes/chemin/1"/><trkseg>
<trkpt lat="50.094508" lon="4.602919"><time>2026-05-06T19:21:11Z</time></trkpt>
<trkpt lat="50.094854" lon="4.604877"><time>2026-05-06T19:31:11Z</time></trkpt>
<trkpt lat="50.094697" lon="4.607183"><time>2026-05-06T19:41:11Z</time></trkpt>
<trkpt lat="50.094976" lon="4.611195"><time>2026-05-06T19:51:11Z</time></trkpt>
<trkpt lat="50.095015" lon="4.614088"><time>2026-05-06T20:01:11Z</time></trkpt>
<trkpt lat="50.094965" lon="4.616576"><time>2026-05-06T20:11:11Z</time></trkpt>
<trkpt lat="50.095750" lon="4.619431"><time>2026-05-06T20:21:11Z</time></trkpt>
</trkseg>
</trk>
<trk>
<name>nvvdr10</name>
<cmt>r</cmt>
<desc>Dourbes Chemin n°10 Rue de Fays / Rue des Florins</desc>
<link href="https://chemins.be/dourbes/chemin/10"/><trkseg>
<trkpt lat="50.089268" lon="4.593139"><time>2026-05-06T18:41:11Z</time></trkpt>
<trkpt lat="50.089117" lon="4.596464"><time>2026-05-06T18:51:11Z</time></trkpt>
<trkpt lat="50.088649" lon="4.596937"><time>2026-05-06T19:01:11Z</time></trkpt>
</trkseg></trk>
<trk>
<name>nvvdr10</name>
<cmt>v</cmt>
<desc>Dourbes Chemin n°10 Rue de Fays / Rue des Florins</desc>
<link href="https://chemins.be/dourbes/chemin/10"/><trkseg>
<trkpt lat="50.088649" lon="4.596937"><time>2026-05-06T19:01:11Z</time></trkpt>
<trkpt lat="50.088701" lon="4.597664"><time>2026-05-06T19:11:11Z</time></trkpt>
<trkpt lat="50.088977" lon="4.599203"><time>2026-05-06T19:21:11Z</time></trkpt>
<trkpt lat="50.088903" lon="4.600138"><time>2026-05-06T19:31:11Z</time></trkpt>
<trkpt lat="50.089472" lon="4.603299"><time>2026-05-06T19:41:11Z</time></trkpt>
<trkpt lat="50.089656" lon="4.605942"><time>2026-05-06T19:51:11Z</time></trkpt>
</trkseg></trk>
<trk>
<name>nvvdr10</name>
<cmt>r</cmt>
<desc>Dourbes Chemin n°10 Rue de Fays / Rue des Florins</desc>
<link href="https://chemins.be/dourbes/chemin/10"/><trkseg>
<trkpt lat="50.089656" lon="4.605942"><time>2026-05-06T19:51:11Z</time></trkpt>
<trkpt lat="50.089285" lon="4.607086"><time>2026-05-06T20:01:11Z</time></trkpt>
<trkpt lat="50.088519" lon="4.607655"><time>2026-05-06T20:11:11Z</time></trkpt>
<trkpt lat="50.088228" lon="4.609344"><time>2026-05-06T20:21:11Z</time></trkpt>
<trkpt lat="50.087745" lon="4.612374"><time>2026-05-06T20:31:11Z</time></trkpt>
<trkpt lat="50.087428" lon="4.613392"><time>2026-05-06T20:41:11Z</time></trkpt>
<trkpt lat="50.087174" lon="4.614760"><time>2026-05-06T20:51:11Z</time></trkpt>
</trkseg>
</trk>
<trk>
<name>nvvdr11</name>
<cmt>r</cmt>
<desc>Dourbes Chemin n°11 Rue des Florins</desc>
<link href="https://chemins.be/dourbes/chemin/11"/><trkseg>
<trkpt lat="50.088435" lon="4.609219"><time>2026-05-06T18:41:11Z</time></trkpt>
<trkpt lat="50.088928" lon="4.614001"><time>2026-05-06T18:51:11Z</time></trkpt>
<trkpt lat="50.088828" lon="4.614909"><time>2026-05-06T19:01:11Z</time></trkpt>
<trkpt lat="50.089532" lon="4.617791"><time>2026-05-06T19:11:11Z</time></trkpt>
<trkpt lat="50.089993" lon="4.620616"><time>2026-05-06T19:21:11Z</time></trkpt>
</trkseg>
</trk>
<trk>
<name>nvvdr13</name>
<cmt>v</cmt>
<desc>Dourbes Chemin n°13 </desc>
<link href="https://chemins.be/dourbes/chemin/13"/><trkseg>
<trkpt lat="50.095033" lon="4.614158"><time>2026-05-06T18:41:11Z</time></trkpt>
<trkpt lat="50.095552" lon="4.615251"><time>2026-05-06T18:51:11Z</time></trkpt>
<trkpt lat="50.096278" lon="4.616401"><time>2026-05-06T19:01:11Z</time></trkpt>
</trkseg>
</trk>
<trk>
<name>nvvdr14</name>
<cmt>r</cmt>
<desc>Dourbes Chemin n°14 Rue des Florins</desc>
<link href="https://chemins.be/dourbes/chemin/14"/><trkseg>
<trkpt lat="50.089916" lon="4.592807"><time>2026-05-06T18:41:11Z</time></trkpt>
<trkpt lat="50.090346" lon="4.593522"><time>2026-05-06T18:51:11Z</time></trkpt>
<trkpt lat="50.090812" lon="4.594264"><time>2026-05-06T19:01:11Z</time></trkpt>
<trkpt lat="50.091377" lon="4.594840"><time>2026-05-06T19:11:11Z</time></trkpt>
<trkpt lat="50.091780" lon="4.595834"><time>2026-05-06T19:21:11Z</time></trkpt>
<trkpt lat="50.092587" lon="4.597012"><time>2026-05-06T19:31:11Z</time></trkpt>
<trkpt lat="50.093089" lon="4.597490"><time>2026-05-06T19:41:11Z</time></trkpt>
<trkpt lat="50.093582" lon="4.598219"><time>2026-05-06T19:51:11Z</time></trkpt>
</trkseg>
</trk>
<trk>
<name>nvvdr14bis</name>
<cmt>b</cmt>
<desc>Dourbes Chemin n°14bis </desc>
<link href="https://chemins.be/dourbes/chemin/14bis"/><trkseg>
<trkpt lat="50.093819" lon="4.596571"><time>2026-05-06T18:41:11Z</time></trkpt>
<trkpt lat="50.093158" lon="4.594784"><time>2026-05-06T18:51:11Z</time></trkpt>
<trkpt lat="50.092695" lon="4.592289"><time>2026-05-06T19:01:11Z</time></trkpt>
</trkseg>
</trk>
<trk>
<name>nvvdr16</name>
<cmt>r</cmt>
<desc>Dourbes Chemin n°16 Rue Roche à Lomme</desc>
<link href="https://chemins.be/dourbes/chemin/16"/><trkseg>
<trkpt lat="50.084269" lon="4.568510"><time>2026-05-06T18:41:11Z</time></trkpt>
<trkpt lat="50.084270" lon="4.568160"><time>2026-05-06T18:51:11Z</time></trkpt>
<trkpt lat="50.084335" lon="4.566931"><time>2026-05-06T19:01:11Z</time></trkpt>
<trkpt lat="50.085454" lon="4.564700"><time>2026-05-06T19:11:11Z</time></trkpt>
<trkpt lat="50.086002" lon="4.564632"><time>2026-05-06T19:21:11Z</time></trkpt>
<trkpt lat="50.086237" lon="4.564214"><time>2026-05-06T19:31:11Z</time></trkpt>
</trkseg>
</trk>
<trk>
<name>nvvdr17</name>
<cmt>v</cmt>
<desc>Dourbes Chemin n°17 Rue de Fagnolle</desc>
<link href="https://chemins.be/dourbes/chemin/17"/><trkseg>
<trkpt lat="50.088565" lon="4.593597"><time>2026-05-06T18:41:11Z</time></trkpt>
<trkpt lat="50.088403" lon="4.593904"><time>2026-05-06T18:51:11Z</time></trkpt>
<trkpt lat="50.087872" lon="4.594237"><time>2026-05-06T19:01:11Z</time></trkpt>
<trkpt lat="50.088254" lon="4.596502"><time>2026-05-06T19:11:11Z</time></trkpt>
<trkpt lat="50.088281" lon="4.596740"><time>2026-05-06T19:21:11Z</time></trkpt>
</trkseg>
</trk>
<trk>
<name>nvvdr17bis</name>
<cmt>d</cmt>
<desc>Dourbes Chemin n°17bis </desc>
<link href="https://chemins.be/dourbes/chemin/17bis"/><trkseg>
<trkpt lat="50.097807" lon="4.610664"><time>2026-05-06T18:41:11Z</time></trkpt>
<trkpt lat="50.096921" lon="4.608329"><time>2026-05-06T18:51:11Z</time></trkpt>
<trkpt lat="50.096970" lon="4.607739"><time>2026-05-06T19:01:11Z</time></trkpt>
<trkpt lat="50.097089" lon="4.606901"><time>2026-05-06T19:11:11Z</time></trkpt>
<trkpt lat="50.097383" lon="4.605920"><time>2026-05-06T19:21:11Z</time></trkpt>
<trkpt lat="50.097272" lon="4.605534"><time>2026-05-06T19:31:11Z</time></trkpt>
<trkpt lat="50.097294" lon="4.605135"><time>2026-05-06T19:41:11Z</time></trkpt>
</trkseg>
</trk>
<trk>
<name>nvvdr18</name>
<cmt>v</cmt>
<desc>Dourbes Chemin n°18 </desc>
<link href="https://chemins.be/dourbes/chemin/18"/><trkseg>
<trkpt lat="50.088637" lon="4.596987"><time>2026-05-06T18:41:11Z</time></trkpt>
<trkpt lat="50.088447" lon="4.596954"><time>2026-05-06T18:51:11Z</time></trkpt>
<trkpt lat="50.088234" lon="4.596812"><time>2026-05-06T19:01:11Z</time></trkpt>
<trkpt lat="50.088119" lon="4.596543"><time>2026-05-06T19:11:11Z</time></trkpt>
<trkpt lat="50.087657" lon="4.596522"><time>2026-05-06T19:21:11Z</time></trkpt>
<trkpt lat="50.087605" lon="4.596004"><time>2026-05-06T19:31:11Z</time></trkpt>
</trkseg>
</trk>
<trk>
<name>nvvdr19</name>
<cmt>v</cmt>
<desc>Dourbes Chemin n°19 </desc>
<link href="https://chemins.be/dourbes/chemin/19"/><trkseg>
<trkpt lat="50.088648" lon="4.592955"><time>2026-05-06T18:41:11Z</time></trkpt>
<trkpt lat="50.088387" lon="4.592786"><time>2026-05-06T18:51:11Z</time></trkpt>
<trkpt lat="50.088253" lon="4.592561"><time>2026-05-06T19:01:11Z</time></trkpt>
<trkpt lat="50.088019" lon="4.592532"><time>2026-05-06T19:11:11Z</time></trkpt>
</trkseg>
</trk>
<trk>
<name>nvvdr2</name>
<cmt>b</cmt>
<desc>Dourbes Chemin n°2 </desc>
<link href="https://chemins.be/dourbes/chemin/2"/><trkseg>
<trkpt lat="50.095836" lon="4.599457"><time>2026-05-06T18:41:11Z</time></trkpt>
<trkpt lat="50.095574" lon="4.598735"><time>2026-05-06T18:51:11Z</time></trkpt>
<trkpt lat="50.094892" lon="4.598010"><time>2026-05-06T19:01:11Z</time></trkpt>
<trkpt lat="50.094143" lon="4.596904"><time>2026-05-06T19:11:11Z</time></trkpt>
<trkpt lat="50.093854" lon="4.596668"><time>2026-05-06T19:21:11Z</time></trkpt>
<trkpt lat="50.092679" lon="4.595574"><time>2026-05-06T19:31:11Z</time></trkpt>
</trkseg>
</trk>
<trk>
<name>nvvdr20</name>
<cmt>b</cmt>
<desc>Dourbes Chemin n°20 </desc>
<link href="https://chemins.be/dourbes/chemin/20"/><trkseg>
<trkpt lat="50.093596" lon="4.590951"><time>2026-05-06T18:41:11Z</time></trkpt>
<trkpt lat="50.093874" lon="4.591330"><time>2026-05-06T18:51:11Z</time></trkpt>
<trkpt lat="50.094090" lon="4.591387"><time>2026-05-06T19:01:11Z</time></trkpt>
<trkpt lat="50.094630" lon="4.591236"><time>2026-05-06T19:11:11Z</time></trkpt>
</trkseg>
</trk>
<trk>
<name>nvvdr22</name>
<cmt>v</cmt>
<desc>Dourbes Chemin n°22 </desc>
<link href="https://chemins.be/dourbes/chemin/22"/><trkseg>
<trkpt lat="50.082499" lon="4.596852"><time>2026-05-06T18:41:11Z</time></trkpt>
<trkpt lat="50.081770" lon="4.597412"><time>2026-05-06T18:51:11Z</time></trkpt>
<trkpt lat="50.081274" lon="4.598229"><time>2026-05-06T19:01:11Z</time></trkpt>
<trkpt lat="50.080031" lon="4.599117"><time>2026-05-06T19:11:11Z</time></trkpt>
</trkseg>
</trk>
<trk>
<name>nvvdr23</name>
<cmt>d</cmt>
<desc>Dourbes Sentier n°23 </desc>
<link href="https://chemins.be/dourbes/sentier/23"/><trkseg>
<trkpt lat="50.091528" lon="4.621798"><time>2026-05-06T18:41:11Z</time></trkpt>
<trkpt lat="50.092498" lon="4.618100"><time>2026-05-06T18:51:11Z</time></trkpt>
<trkpt lat="50.092963" lon="4.615154"><time>2026-05-06T19:01:11Z</time></trkpt>
<trkpt lat="50.093002" lon="4.613379"><time>2026-05-06T19:11:11Z</time></trkpt>
<trkpt lat="50.093625" lon="4.609414"><time>2026-05-06T19:21:11Z</time></trkpt>
</trkseg></trk>
<trk>
<name>nvvdr23</name>
<cmt>v</cmt>
<desc>Dourbes Sentier n°23 </desc>
<link href="https://chemins.be/dourbes/sentier/23"/><trkseg>
<trkpt lat="50.093625" lon="4.609414"><time>2026-05-06T19:21:11Z</time></trkpt>
<trkpt lat="50.094004" lon="4.608035"><time>2026-05-06T19:31:11Z</time></trkpt>
<trkpt lat="50.094715" lon="4.607280"><time>2026-05-06T19:41:11Z</time></trkpt>
</trkseg></trk>
<trk>
<name>nvvdr23</name>
<cmt>d</cmt>
<desc>Dourbes Sentier n°23 </desc>
<link href="https://chemins.be/dourbes/sentier/23"/><trkseg>
<trkpt lat="50.094715" lon="4.607280"><time>2026-05-06T19:41:11Z</time></trkpt>
<trkpt lat="50.096982" lon="4.606271"><time>2026-05-06T19:51:11Z</time></trkpt>
<trkpt lat="50.097847" lon="4.605633"><time>2026-05-06T20:01:11Z</time></trkpt>
<trkpt lat="50.099426" lon="4.602546"><time>2026-05-06T20:11:11Z</time></trkpt>
<trkpt lat="50.099591" lon="4.601293"><time>2026-05-06T20:21:11Z</time></trkpt>
</trkseg></trk>
<trk>
<name>nvvdr23</name>
<cmt>v</cmt>
<desc>Dourbes Sentier n°23 </desc>
<link href="https://chemins.be/dourbes/sentier/23"/><trkseg>
<trkpt lat="50.099591" lon="4.601293"><time>2026-05-06T20:21:11Z</time></trkpt>
<trkpt lat="50.099420" lon="4.598821"><time>2026-05-06T20:31:11Z</time></trkpt>
<trkpt lat="50.100031" lon="4.597048"><time>2026-05-06T20:41:11Z</time></trkpt>
</trkseg></trk>
<trk>
<name>nvvdr23</name>
<cmt>d</cmt>
<desc>Dourbes Sentier n°23 </desc>
<link href="https://chemins.be/dourbes/sentier/23"/><trkseg>
<trkpt lat="50.100031" lon="4.597048"><time>2026-05-06T20:41:11Z</time></trkpt>
<trkpt lat="50.100792" lon="4.593767"><time>2026-05-06T20:51:11Z</time></trkpt>
<trkpt lat="50.102880" lon="4.588241"><time>2026-05-06T21:01:11Z</time></trkpt>
</trkseg>
</trk>
<trk>
<name>nvvdr24</name>
<cmt>d</cmt>
<desc>Dourbes Sentier n°24 </desc>
<link href="https://chemins.be/dourbes/sentier/24"/><trkseg>
<trkpt lat="50.093642" lon="4.604410"><time>2026-05-06T18:41:11Z</time></trkpt>
<trkpt lat="50.093037" lon="4.605707"><time>2026-05-06T18:51:11Z</time></trkpt>
<trkpt lat="50.091113" lon="4.609778"><time>2026-05-06T19:01:11Z</time></trkpt>
<trkpt lat="50.090200" lon="4.612177"><time>2026-05-06T19:11:11Z</time></trkpt>
<trkpt lat="50.088965" lon="4.613806"><time>2026-05-06T19:21:11Z</time></trkpt>
</trkseg></trk>
<trk>
<name>nvvdr24</name>
<cmt>s</cmt>
<desc>Dourbes Sentier n°24 </desc>
<link href="https://chemins.be/dourbes/sentier/24"/><trkseg>
<trkpt lat="50.088965" lon="4.613806"><time>2026-05-06T19:21:11Z</time></trkpt>
<trkpt lat="50.088080" lon="4.615394"><time>2026-05-06T19:31:11Z</time></trkpt>
</trkseg>
</trk>
<trk>
<name>nvvdr25</name>
<cmt>r</cmt>
<desc>Dourbes Sentier n°25 Rue de Fays</desc>
<link href="https://chemins.be/dourbes/sentier/25"/><trkseg>
<trkpt lat="50.088406" lon="4.597104"><time>2026-05-06T18:41:11Z</time></trkpt>
<trkpt lat="50.086758" lon="4.598493"><time>2026-05-06T18:51:11Z</time></trkpt>
</trkseg></trk>
<trk>
<name>nvvdr25</name>
<cmt>v</cmt>
<desc>Dourbes Sentier n°25 Rue de Fays</desc>
<link href="https://chemins.be/dourbes/sentier/25"/><trkseg>
<trkpt lat="50.086758" lon="4.598493"><time>2026-05-06T18:51:11Z</time></trkpt>
<trkpt lat="50.085256" lon="4.598458"><time>2026-05-06T19:01:11Z</time></trkpt>
<trkpt lat="50.084295" lon="4.598034"><time>2026-05-06T19:11:11Z</time></trkpt>
<trkpt lat="50.083308" lon="4.597205"><time>2026-05-06T19:21:11Z</time></trkpt>
<trkpt lat="50.082990" lon="4.597635"><time>2026-05-06T19:31:11Z</time></trkpt>
<trkpt lat="50.082050" lon="4.597496"><time>2026-05-06T19:41:11Z</time></trkpt>
<trkpt lat="50.081645" lon="4.597601"><time>2026-05-06T19:51:11Z</time></trkpt>
</trkseg>
</trk>
<trk>
<name>nvvdr26</name>
<cmt>d</cmt>
<desc>Dourbes Sentier n°26 </desc>
<link href="https://chemins.be/dourbes/sentier/26"/><trkseg>
<trkpt lat="50.087483" lon="4.596211"><time>2026-05-06T18:41:11Z</time></trkpt>
<trkpt lat="50.087430" lon="4.596290"><time>2026-05-06T18:51:11Z</time></trkpt>
<trkpt lat="50.087086" lon="4.596175"><time>2026-05-06T19:01:11Z</time></trkpt>
</trkseg></trk>
<trk>
<name>nvvdr26</name>
<cmt>v</cmt>
<desc>Dourbes Sentier n°26 </desc>
<link href="https://chemins.be/dourbes/sentier/26"/><trkseg>
<trkpt lat="50.087086" lon="4.596175"><time>2026-05-06T19:01:11Z</time></trkpt>
<trkpt lat="50.086499" lon="4.592693"><time>2026-05-06T19:11:11Z</time></trkpt>
<trkpt lat="50.085277" lon="4.587615"><time>2026-05-06T19:21:11Z</time></trkpt>
<trkpt lat="50.083907" lon="4.580273"><time>2026-05-06T19:31:11Z</time></trkpt>
<trkpt lat="50.082824" lon="4.577418"><time>2026-05-06T19:41:11Z</time></trkpt>
<trkpt lat="50.082199" lon="4.574886"><time>2026-05-06T19:51:11Z</time></trkpt>
<trkpt lat="50.081193" lon="4.572646"><time>2026-05-06T20:01:11Z</time></trkpt>
<trkpt lat="50.080381" lon="4.570039"><time>2026-05-06T20:11:11Z</time></trkpt>
</trkseg>
</trk>
<trk>
<name>nvvdr27</name>
<cmt>v</cmt>
<desc>Dourbes Sentier n°27 </desc>
<link href="https://chemins.be/dourbes/sentier/27"/><trkseg>
<trkpt lat="50.088010" lon="4.592535"><time>2026-05-06T18:41:11Z</time></trkpt>
<trkpt lat="50.087698" lon="4.592575"><time>2026-05-06T18:51:11Z</time></trkpt>
<trkpt lat="50.087201" lon="4.592501"><time>2026-05-06T19:01:11Z</time></trkpt>
<trkpt lat="50.086769" lon="4.592652"><time>2026-05-06T19:11:11Z</time></trkpt>
</trkseg></trk>
<trk>
<name>nvvdr27</name>
<cmt>d</cmt>
<desc>Dourbes Sentier n°27 </desc>
<link href="https://chemins.be/dourbes/sentier/27"/><trkseg>
<trkpt lat="50.086769" lon="4.592652"><time>2026-05-06T19:11:11Z</time></trkpt>
<trkpt lat="50.086517" lon="4.592735"><time>2026-05-06T19:21:11Z</time></trkpt>
</trkseg>
</trk>
<trk>
<name>nvvdr28</name>
<cmt>r</cmt>
<desc>Dourbes Sentier n°28 Rue de la Station</desc>
<link href="https://chemins.be/dourbes/sentier/28"/><trkseg>
<trkpt lat="50.085397" lon="4.560913"><time>2026-05-06T18:41:11Z</time></trkpt>
<trkpt lat="50.086103" lon="4.563724"><time>2026-05-06T18:51:11Z</time></trkpt>
<trkpt lat="50.086273" lon="4.564158"><time>2026-05-06T19:01:11Z</time></trkpt>
</trkseg></trk>
<trk>
<name>nvvdr28</name>
<cmt>v</cmt>
<desc>Dourbes Sentier n°28 Rue de la Station</desc>
<link href="https://chemins.be/dourbes/sentier/28"/><trkseg>
<trkpt lat="50.086273" lon="4.564158"><time>2026-05-06T19:01:11Z</time></trkpt>
<trkpt lat="50.086272" lon="4.564410"><time>2026-05-06T19:11:11Z</time></trkpt>
<trkpt lat="50.087349" lon="4.565560"><time>2026-05-06T19:21:11Z</time></trkpt>
<trkpt lat="50.087849" lon="4.567644"><time>2026-05-06T19:31:11Z</time></trkpt>
<trkpt lat="50.088220" lon="4.569009"><time>2026-05-06T19:41:11Z</time></trkpt>
<trkpt lat="50.088482" lon="4.569445"><time>2026-05-06T19:51:11Z</time></trkpt>
<trkpt lat="50.090574" lon="4.572393"><time>2026-05-06T20:01:11Z</time></trkpt>
</trkseg></trk>
<trk>
<name>nvvdr28</name>
<cmt>d</cmt>
<desc>Dourbes Sentier n°28 Rue de la Station</desc>
<link href="https://chemins.be/dourbes/sentier/28"/><trkseg>
<trkpt lat="50.090574" lon="4.572393"><time>2026-05-06T20:01:11Z</time></trkpt>
<trkpt lat="50.092107" lon="4.574775"><time>2026-05-06T20:11:11Z</time></trkpt>
</trkseg>
</trk>
<trk>
<name>nvvdr29</name>
<cmt>d</cmt>
<desc>Dourbes Sentier n°29 </desc>
<link href="https://chemins.be/dourbes/sentier/29"/><trkseg>
<trkpt lat="50.090538" lon="4.572281"><time>2026-05-06T18:41:11Z</time></trkpt>
<trkpt lat="50.092311" lon="4.571548"><time>2026-05-06T18:51:11Z</time></trkpt>
<trkpt lat="50.093975" lon="4.570842"><time>2026-05-06T19:01:11Z</time></trkpt>
</trkseg>
</trk>
<trk>
<name>nvvdr3</name>
<cmt>v</cmt>
<desc>Dourbes Chemin n°3 Chemin de Nismes</desc>
<link href="https://chemins.be/dourbes/chemin/3"/><trkseg>
<trkpt lat="50.083954" lon="4.563304"><time>2026-05-06T18:41:11Z</time></trkpt>
<trkpt lat="50.083940" lon="4.564672"><time>2026-05-06T18:51:11Z</time></trkpt>
<trkpt lat="50.082767" lon="4.569062"><time>2026-05-06T19:01:11Z</time></trkpt>
</trkseg></trk>
<trk>
<name>nvvdr3</name>
<cmt>d</cmt>
<desc>Dourbes Chemin n°3 Chemin de Nismes</desc>
<link href="https://chemins.be/dourbes/chemin/3"/><trkseg>
<trkpt lat="50.082767" lon="4.569062"><time>2026-05-06T19:01:11Z</time></trkpt>
<trkpt lat="50.082739" lon="4.569700"><time>2026-05-06T19:11:11Z</time></trkpt>
<trkpt lat="50.082894" lon="4.569749"><time>2026-05-06T19:21:11Z</time></trkpt>
</trkseg></trk>
<trk>
<name>nvvdr3</name>
<cmt>v</cmt>
<desc>Dourbes Chemin n°3 Chemin de Nismes</desc>
<link href="https://chemins.be/dourbes/chemin/3"/><trkseg>
<trkpt lat="50.082894" lon="4.569749"><time>2026-05-06T19:21:11Z</time></trkpt>
<trkpt lat="50.083982" lon="4.568550"><time>2026-05-06T19:31:11Z</time></trkpt>
<trkpt lat="50.084287" lon="4.568552"><time>2026-05-06T19:41:11Z</time></trkpt>
</trkseg></trk>
<trk>
<name>nvvdr3</name>
<cmt>r</cmt>
<desc>Dourbes Chemin n°3 Chemin de Nismes</desc>
<link href="https://chemins.be/dourbes/chemin/3"/><trkseg>
<trkpt lat="50.084287" lon="4.568552"><time>2026-05-06T19:41:11Z</time></trkpt>
<trkpt lat="50.084260" lon="4.568719"><time>2026-05-06T19:51:11Z</time></trkpt>
<trkpt lat="50.084858" lon="4.571209"><time>2026-05-06T20:01:11Z</time></trkpt>
<trkpt lat="50.085630" lon="4.571967"><time>2026-05-06T20:11:11Z</time></trkpt>
<trkpt lat="50.085989" lon="4.572331"><time>2026-05-06T20:21:11Z</time></trkpt>
<trkpt lat="50.087742" lon="4.576374"><time>2026-05-06T20:31:11Z</time></trkpt>
<trkpt lat="50.088132" lon="4.577087"><time>2026-05-06T20:41:11Z</time></trkpt>
<trkpt lat="50.088175" lon="4.577772"><time>2026-05-06T20:51:11Z</time></trkpt>
<trkpt lat="50.090203" lon="4.588308"><time>2026-05-06T21:01:11Z</time></trkpt>
</trkseg>
</trk>
<trk>
<name>nvvdr30</name>
<cmt>d</cmt>
<desc>Dourbes Sentier n°30 </desc>
<link href="https://chemins.be/dourbes/sentier/30"/><trkseg>
<trkpt lat="50.115379" lon="4.572387"><time>2026-05-06T18:41:11Z</time></trkpt>
<trkpt lat="50.117949" lon="4.573461"><time>2026-05-06T18:51:11Z</time></trkpt>
<trkpt lat="50.120357" lon="4.573793"><time>2026-05-06T19:01:11Z</time></trkpt>
<trkpt lat="50.122537" lon="4.576445"><time>2026-05-06T19:11:11Z</time></trkpt>
</trkseg></trk>
<trk>
<name>nvvdr30</name>
<cmt>v</cmt>
<desc>Dourbes Sentier n°30 </desc>
<link href="https://chemins.be/dourbes/sentier/30"/><trkseg>
<trkpt lat="50.122537" lon="4.576445"><time>2026-05-06T19:11:11Z</time></trkpt>
<trkpt lat="50.123032" lon="4.576503"><time>2026-05-06T19:21:11Z</time></trkpt>
</trkseg></trk>
<trk>
<name>nvvdr30</name>
<cmt>d</cmt>
<desc>Dourbes Sentier n°30 </desc>
<link href="https://chemins.be/dourbes/sentier/30"/><trkseg>
<trkpt lat="50.123032" lon="4.576503"><time>2026-05-06T19:21:11Z</time></trkpt>
<trkpt lat="50.126412" lon="4.576658"><time>2026-05-06T19:31:11Z</time></trkpt>
</trkseg>
</trk>
<trk>
<name>nvvdr32</name>
<cmt>v</cmt>
<desc>Dourbes Sentier n°32 </desc>
<link href="https://chemins.be/dourbes/sentier/32"/><trkseg>
<trkpt lat="50.091033" lon="4.591526"><time>2026-05-06T18:41:11Z</time></trkpt>
<trkpt lat="50.090720" lon="4.590840"><time>2026-05-06T18:51:11Z</time></trkpt>
<trkpt lat="50.090279" lon="4.590964"><time>2026-05-06T19:01:11Z</time></trkpt>
</trkseg>
</trk>
<trk>
<name>nvvdr4</name>
<cmt>r</cmt>
<desc>Dourbes Chemin n°4 Chemin de Mariembourg</desc>
<link href="https://chemins.be/dourbes/chemin/4"/><trkseg>
<trkpt lat="50.091366" lon="4.591193"><time>2026-05-06T18:41:11Z</time></trkpt>
<trkpt lat="50.090355" lon="4.588589"><time>2026-05-06T18:51:11Z</time></trkpt>
<trkpt lat="50.091231" lon="4.581996"><time>2026-05-06T19:01:11Z</time></trkpt>
<trkpt lat="50.091207" lon="4.580557"><time>2026-05-06T19:11:11Z</time></trkpt>
<trkpt lat="50.091541" lon="4.579301"><time>2026-05-06T19:21:11Z</time></trkpt>
</trkseg></trk>
<trk>
<name>nvvdr4</name>
<cmt>v</cmt>
<desc>Dourbes Chemin n°4 Chemin de Mariembourg</desc>
<link href="https://chemins.be/dourbes/chemin/4"/><trkseg>
<trkpt lat="50.091541" lon="4.579301"><time>2026-05-06T19:21:11Z</time></trkpt>
<trkpt lat="50.091962" lon="4.577262"><time>2026-05-06T19:31:11Z</time></trkpt>
<trkpt lat="50.091984" lon="4.575408"><time>2026-05-06T19:41:11Z</time></trkpt>
<trkpt lat="50.092387" lon="4.573966"><time>2026-05-06T19:51:11Z</time></trkpt>
<trkpt lat="50.092467" lon="4.571863"><time>2026-05-06T20:01:11Z</time></trkpt>
<trkpt lat="50.092177" lon="4.570625"><time>2026-05-06T20:11:11Z</time></trkpt>
<trkpt lat="50.092010" lon="4.568808"><time>2026-05-06T20:21:11Z</time></trkpt>
<trkpt lat="50.092013" lon="4.567047"><time>2026-05-06T20:31:11Z</time></trkpt>
<trkpt lat="50.093247" lon="4.560497"><time>2026-05-06T20:41:11Z</time></trkpt>
<trkpt lat="50.093520" lon="4.558276"><time>2026-05-06T20:51:11Z</time></trkpt>
</trkseg>
</trk>
<trk>
<name>nvvdr6</name>
<cmt>v</cmt>
<desc>Dourbes Chemin n°6 </desc>
<link href="https://chemins.be/dourbes/chemin/6"/><trkseg>
<trkpt lat="50.107500" lon="4.584292"><time>2026-05-06T18:41:11Z</time></trkpt>
<trkpt lat="50.107909" lon="4.586419"><time>2026-05-06T18:51:11Z</time></trkpt>
<trkpt lat="50.108479" lon="4.589567"><time>2026-05-06T19:01:11Z</time></trkpt>
<trkpt lat="50.108810" lon="4.590379"><time>2026-05-06T19:11:11Z</time></trkpt>
<trkpt lat="50.108906" lon="4.591554"><time>2026-05-06T19:21:11Z</time></trkpt>
</trkseg>
</trk>
<trk>
<name>nvvdr7</name>
<cmt>d</cmt>
<desc>Dourbes Chemin n°7 </desc>
<link href="https://chemins.be/dourbes/chemin/7"/><trkseg>
<trkpt lat="50.104232" lon="4.586178"><time>2026-05-06T18:41:11Z</time></trkpt>
<trkpt lat="50.106132" lon="4.584999"><time>2026-05-06T18:51:11Z</time></trkpt>
</trkseg></trk>
<trk>
<name>nvvdr7</name>
<cmt>v</cmt>
<desc>Dourbes Chemin n°7 </desc>
<link href="https://chemins.be/dourbes/chemin/7"/><trkseg>
<trkpt lat="50.106132" lon="4.584999"><time>2026-05-06T18:51:11Z</time></trkpt>
<trkpt lat="50.107149" lon="4.584430"><time>2026-05-06T19:01:11Z</time></trkpt>
<trkpt lat="50.107572" lon="4.584195"><time>2026-05-06T19:11:11Z</time></trkpt>
<trkpt lat="50.108526" lon="4.583752"><time>2026-05-06T19:21:11Z</time></trkpt>
<trkpt lat="50.109290" lon="4.583867"><time>2026-05-06T19:31:11Z</time></trkpt>
<trkpt lat="50.110564" lon="4.584795"><time>2026-05-06T19:41:11Z</time></trkpt>
<trkpt lat="50.111515" lon="4.586072"><time>2026-05-06T19:51:11Z</time></trkpt>
</trkseg>
</trk>
<trk>
<name>nvvdr8</name>
<cmt>r</cmt>
<desc>Dourbes Chemin n°8 Rue du Bois du Mont</desc>
<link href="https://chemins.be/dourbes/chemin/8"/><trkseg>
<trkpt lat="50.112341" lon="4.589666"><time>2026-05-06T18:41:11Z</time></trkpt>
<trkpt lat="50.111442" lon="4.585610"><time>2026-05-06T18:51:11Z</time></trkpt>
<trkpt lat="50.110791" lon="4.583672"><time>2026-05-06T19:01:11Z</time></trkpt>
</trkseg>
</trk>
<trk>
<name>nvvdr9</name>
<cmt>v</cmt>
<desc>Dourbes Chemin n°9 </desc>
<link href="https://chemins.be/dourbes/chemin/9"/><trkseg>
<trkpt lat="50.112015" lon="4.583166"><time>2026-05-06T18:41:11Z</time></trkpt>
<trkpt lat="50.116254" lon="4.580948"><time>2026-05-06T18:51:11Z</time></trkpt>
<trkpt lat="50.117586" lon="4.580003"><time>2026-05-06T19:01:11Z</time></trkpt>
<trkpt lat="50.118684" lon="4.579197"><time>2026-05-06T19:11:11Z</time></trkpt>
<trkpt lat="50.119648" lon="4.578432"><time>2026-05-06T19:21:11Z</time></trkpt>
<trkpt lat="50.120512" lon="4.577695"><time>2026-05-06T19:31:11Z</time></trkpt>
<trkpt lat="50.120816" lon="4.579011"><time>2026-05-06T19:41:11Z</time></trkpt>
<trkpt lat="50.122146" lon="4.579338"><time>2026-05-06T19:51:11Z</time></trkpt>
<trkpt lat="50.122936" lon="4.579705"><time>2026-05-06T20:01:11Z</time></trkpt>
</trkseg></trk>
<trk>
<name>nvvdr9</name>
<cmt>d</cmt>
<desc>Dourbes Chemin n°9 </desc>
<link href="https://chemins.be/dourbes/chemin/9"/><trkseg>
<trkpt lat="50.122936" lon="4.579705"><time>2026-05-06T20:01:11Z</time></trkpt>
<trkpt lat="50.123377" lon="4.579679"><time>2026-05-06T20:11:11Z</time></trkpt>
<trkpt lat="50.124449" lon="4.578495"><time>2026-05-06T20:21:11Z</time></trkpt>
<trkpt lat="50.125771" lon="4.577900"><time>2026-05-06T20:31:11Z</time></trkpt>
<trkpt lat="50.126376" lon="4.576504"><time>2026-05-06T20:41:11Z</time></trkpt>
<trkpt lat="50.126503" lon="4.576211"><time>2026-05-06T20:51:11Z</time></trkpt>
<trkpt lat="50.126718" lon="4.576352"><time>2026-05-06T21:01:11Z</time></trkpt>
</trkseg>
</trk>
<trk>
<name>nvvdri1</name>
<cmt>v</cmt>
<desc>Dourbes Sentier n°i1 </desc>
<link href="https://chemins.be/dourbes/sentier/i1"/><trkseg>
<trkpt lat="50.088681" lon="4.597549"><time>2026-05-06T18:41:11Z</time></trkpt>
<trkpt lat="50.088654" lon="4.597620"><time>2026-05-06T18:51:11Z</time></trkpt>
<trkpt lat="50.088477" lon="4.597978"><time>2026-05-06T19:01:11Z</time></trkpt>
<trkpt lat="50.088156" lon="4.598836"><time>2026-05-06T19:11:11Z</time></trkpt>
<trkpt lat="50.087908" lon="4.599675"><time>2026-05-06T19:21:11Z</time></trkpt>
<trkpt lat="50.087528" lon="4.599911"><time>2026-05-06T19:31:11Z</time></trkpt>
<trkpt lat="50.087528" lon="4.600054"><time>2026-05-06T19:41:11Z</time></trkpt>
<trkpt lat="50.086933" lon="4.600967"><time>2026-05-06T19:51:11Z</time></trkpt>
<trkpt lat="50.086583" lon="4.600379"><time>2026-05-06T20:01:11Z</time></trkpt>
<trkpt lat="50.086314" lon="4.600056"><time>2026-05-06T20:11:11Z</time></trkpt>
<trkpt lat="50.085990" lon="4.600460"><time>2026-05-06T20:21:11Z</time></trkpt>
<trkpt lat="50.085025" lon="4.600520"><time>2026-05-06T20:31:11Z</time></trkpt>
<trkpt lat="50.086371" lon="4.607253"><time>2026-05-06T20:41:11Z</time></trkpt>
<trkpt lat="50.086912" lon="4.611112"><time>2026-05-06T20:51:11Z</time></trkpt>
<trkpt lat="50.086695" lon="4.611362"><time>2026-05-06T21:01:11Z</time></trkpt>
<trkpt lat="50.087393" lon="4.613280"><time>2026-05-06T21:11:11Z</time></trkpt>
</trkseg>
</trk>
<trk>
<name>nvvdri10</name>
<cmt>v</cmt>
<desc>Dourbes Chemin n°i10 </desc>
<link href="https://chemins.be/dourbes/chemin/i10"/><trkseg>
<trkpt lat="50.082668" lon="4.569285"><time>2026-05-06T18:41:11Z</time></trkpt>
<trkpt lat="50.082253" lon="4.569968"><time>2026-05-06T18:51:11Z</time></trkpt>
<trkpt lat="50.081765" lon="4.571084"><time>2026-05-06T19:01:11Z</time></trkpt>
<trkpt lat="50.081414" lon="4.571659"><time>2026-05-06T19:11:11Z</time></trkpt>
<trkpt lat="50.081469" lon="4.572013"><time>2026-05-06T19:21:11Z</time></trkpt>
<trkpt lat="50.081277" lon="4.572507"><time>2026-05-06T19:31:11Z</time></trkpt>
<trkpt lat="50.081277" lon="4.572856"><time>2026-05-06T19:41:11Z</time></trkpt>
</trkseg>
</trk>
<trk>
<name>nvvdri11</name>
<cmt>v</cmt>
<desc>Dourbes Sentier n°i11 </desc>
<link href="https://chemins.be/dourbes/sentier/i11"/><trkseg>
<trkpt lat="50.076478" lon="4.581095"><time>2026-05-06T18:41:11Z</time></trkpt>
<trkpt lat="50.077560" lon="4.579261"><time>2026-05-06T18:51:11Z</time></trkpt>
<trkpt lat="50.077485" lon="4.579089"><time>2026-05-06T19:01:11Z</time></trkpt>
</trkseg>
</trk>
<trk>
<name>nvvdri12</name>
<cmt>v</cmt>
<desc>Dourbes Chemin n°i12 </desc>
<link href="https://chemins.be/dourbes/chemin/i12"/><trkseg>
<trkpt lat="50.082343" lon="4.594043"><time>2026-05-06T18:41:11Z</time></trkpt>
<trkpt lat="50.082803" lon="4.593374"><time>2026-05-06T18:51:11Z</time></trkpt>
<trkpt lat="50.084383" lon="4.592611"><time>2026-05-06T19:01:11Z</time></trkpt>
</trkseg>
</trk>
<trk>
<name>nvvdri13</name>
<cmt>v</cmt>
<desc>Dourbes Sentier n°i13 </desc>
<link href="https://chemins.be/dourbes/sentier/i13"/><trkseg>
<trkpt lat="50.087804" lon="4.567714"><time>2026-05-06T18:41:11Z</time></trkpt>
<trkpt lat="50.087443" lon="4.568257"><time>2026-05-06T18:51:11Z</time></trkpt>
<trkpt lat="50.086905" lon="4.568458"><time>2026-05-06T19:01:11Z</time></trkpt>
<trkpt lat="50.086510" lon="4.567541"><time>2026-05-06T19:11:11Z</time></trkpt>
<trkpt lat="50.086376" lon="4.567179"><time>2026-05-06T19:21:11Z</time></trkpt>
<trkpt lat="50.085992" lon="4.566500"><time>2026-05-06T19:31:11Z</time></trkpt>
<trkpt lat="50.085845" lon="4.565873"><time>2026-05-06T19:41:11Z</time></trkpt>
</trkseg>
</trk>
<trk>
<name>nvvdri14</name>
<cmt>v</cmt>
<desc>Dourbes Sentier n°i14 </desc>
<link href="https://chemins.be/dourbes/sentier/i14"/><trkseg>
<trkpt lat="50.090184" lon="4.593283"><time>2026-05-06T18:41:11Z</time></trkpt>
<trkpt lat="50.089923" lon="4.593534"><time>2026-05-06T18:51:11Z</time></trkpt>
<trkpt lat="50.090811" lon="4.596530"><time>2026-05-06T19:01:11Z</time></trkpt>
<trkpt lat="50.091263" lon="4.598054"><time>2026-05-06T19:11:11Z</time></trkpt>
<trkpt lat="50.092068" lon="4.599916"><time>2026-05-06T19:21:11Z</time></trkpt>
<trkpt lat="50.092760" lon="4.600101"><time>2026-05-06T19:31:11Z</time></trkpt>
<trkpt lat="50.093485" lon="4.601614"><time>2026-05-06T19:41:11Z</time></trkpt>
<trkpt lat="50.093536" lon="4.603096"><time>2026-05-06T19:51:11Z</time></trkpt>
<trkpt lat="50.093490" lon="4.603641"><time>2026-05-06T20:01:11Z</time></trkpt>
<trkpt lat="50.093624" lon="4.604200"><time>2026-05-06T20:11:11Z</time></trkpt>
</trkseg>
</trk>
<trk>
<name>nvvdri15</name>
<cmt>v</cmt>
<desc>Dourbes Sentier n°i15 </desc>
<link href="https://chemins.be/dourbes/sentier/i15"/><trkseg>
<trkpt lat="50.088591" lon="4.607893"><time>2026-05-06T18:41:11Z</time></trkpt>
<trkpt lat="50.088393" lon="4.607668"><time>2026-05-06T18:51:11Z</time></trkpt>
<trkpt lat="50.088169" lon="4.607415"><time>2026-05-06T19:01:11Z</time></trkpt>
<trkpt lat="50.087972" lon="4.607289"><time>2026-05-06T19:11:11Z</time></trkpt>
<trkpt lat="50.087774" lon="4.607204"><time>2026-05-06T19:21:11Z</time></trkpt>
<trkpt lat="50.087630" lon="4.607189"><time>2026-05-06T19:31:11Z</time></trkpt>
<trkpt lat="50.087306" lon="4.607229"><time>2026-05-06T19:41:11Z</time></trkpt>
<trkpt lat="50.086623" lon="4.607324"><time>2026-05-06T19:51:11Z</time></trkpt>
<trkpt lat="50.086272" lon="4.607420"><time>2026-05-06T20:01:11Z</time></trkpt>
<trkpt lat="50.086038" lon="4.607475"><time>2026-05-06T20:11:11Z</time></trkpt>
</trkseg>
</trk>
<trk>
<name>nvvdri16</name>
<cmt>v</cmt>
<desc>Dourbes Sentier n°i16 </desc>
<link href="https://chemins.be/dourbes/sentier/i16"/><trkseg>
<trkpt lat="50.088417" lon="4.609010"><time>2026-05-06T18:41:11Z</time></trkpt>
<trkpt lat="50.088093" lon="4.609218"><time>2026-05-06T18:51:11Z</time></trkpt>
<trkpt lat="50.087481" lon="4.609662"><time>2026-05-06T19:01:11Z</time></trkpt>
<trkpt lat="50.086769" lon="4.610622"><time>2026-05-06T19:11:11Z</time></trkpt>
</trkseg>
</trk>
<trk>
<name>nvvdri17</name>
<cmt>v</cmt>
<desc>Dourbes Chemin n°i17 </desc>
<link href="https://chemins.be/dourbes/chemin/i17"/><trkseg>
<trkpt lat="50.086695" lon="4.611362"><time>2026-05-06T18:41:11Z</time></trkpt>
<trkpt lat="50.086226" lon="4.612143"><time>2026-05-06T18:51:11Z</time></trkpt>
<trkpt lat="50.086090" lon="4.612715"><time>2026-05-06T19:01:11Z</time></trkpt>
<trkpt lat="50.085496" lon="4.613061"><time>2026-05-06T19:11:11Z</time></trkpt>
</trkseg>
</trk>
<trk>
<name>nvvdri18</name>
<cmt>v</cmt>
<desc>Dourbes Sentier n°i18 Rue de Fays</desc>
<link href="https://chemins.be/dourbes/sentier/i18"/><trkseg>
<trkpt lat="50.076488" lon="4.581092"><time>2026-05-06T18:41:11Z</time></trkpt>
<trkpt lat="50.077090" lon="4.581123"><time>2026-05-06T18:51:11Z</time></trkpt>
<trkpt lat="50.078168" lon="4.581714"><time>2026-05-06T19:01:11Z</time></trkpt>
<trkpt lat="50.078957" lon="4.582933"><time>2026-05-06T19:11:11Z</time></trkpt>
<trkpt lat="50.079404" lon="4.584151"><time>2026-05-06T19:21:11Z</time></trkpt>
<trkpt lat="50.079457" lon="4.584836"><time>2026-05-06T19:31:11Z</time></trkpt>
<trkpt lat="50.079200" lon="4.587601"><time>2026-05-06T19:41:11Z</time></trkpt>
<trkpt lat="50.078698" lon="4.591497"><time>2026-05-06T19:51:11Z</time></trkpt>
<trkpt lat="50.078883" lon="4.593537"><time>2026-05-06T20:01:11Z</time></trkpt>
<trkpt lat="50.079013" lon="4.595648"><time>2026-05-06T20:11:11Z</time></trkpt>
<trkpt lat="50.079999" lon="4.597511"><time>2026-05-06T20:21:11Z</time></trkpt>
<trkpt lat="50.080986" lon="4.598395"><time>2026-05-06T20:31:11Z</time></trkpt>
</trkseg>
</trk>
<trk>
<name>nvvdri19</name>
<cmt>q</cmt>
<desc>Dourbes Sentier n°i19 </desc>
<link href="https://chemins.be/dourbes/sentier/i19"/><trkseg>
<trkpt lat="50.083923" lon="4.564689"><time>2026-05-06T18:41:11Z</time></trkpt>
<trkpt lat="50.084049" lon="4.564740"><time>2026-05-06T18:51:11Z</time></trkpt>
</trkseg>
</trk>
<trk>
<name>nvvdri2</name>
<cmt>v</cmt>
<desc>Dourbes Chemin n°i2 </desc>
<link href="https://chemins.be/dourbes/chemin/i2"/><trkseg>
<trkpt lat="50.087095" lon="4.596189"><time>2026-05-06T18:41:11Z</time></trkpt>
<trkpt lat="50.087015" lon="4.596983"><time>2026-05-06T18:51:11Z</time></trkpt>
<trkpt lat="50.086352" lon="4.596908"><time>2026-05-06T19:01:11Z</time></trkpt>
<trkpt lat="50.085897" lon="4.594799"><time>2026-05-06T19:11:11Z</time></trkpt>
<trkpt lat="50.085512" lon="4.593769"><time>2026-05-06T19:21:11Z</time></trkpt>
<trkpt lat="50.085059" lon="4.593664"><time>2026-05-06T19:31:11Z</time></trkpt>
<trkpt lat="50.084420" lon="4.592568"><time>2026-05-06T19:41:11Z</time></trkpt>
<trkpt lat="50.082828" lon="4.584795"><time>2026-05-06T19:51:11Z</time></trkpt>
<trkpt lat="50.081309" lon="4.579731"><time>2026-05-06T20:01:11Z</time></trkpt>
<trkpt lat="50.079672" lon="4.575127"><time>2026-05-06T20:11:11Z</time></trkpt>
</trkseg>
</trk>
<trk>
<name>nvvdri20</name>
<cmt>v</cmt>
<desc>Dourbes Sentier n°i20 </desc>
<link href="https://chemins.be/dourbes/sentier/i20"/><trkseg>
<trkpt lat="50.081696" lon="4.573880"><time>2026-05-06T18:41:11Z</time></trkpt>
<trkpt lat="50.080904" lon="4.573612"><time>2026-05-06T18:51:11Z</time></trkpt>
<trkpt lat="50.079837" lon="4.575307"><time>2026-05-06T19:01:11Z</time></trkpt>
<trkpt lat="50.079034" lon="4.576693"><time>2026-05-06T19:11:11Z</time></trkpt>
<trkpt lat="50.078625" lon="4.577399"><time>2026-05-06T19:21:11Z</time></trkpt>
<trkpt lat="50.077893" lon="4.577619"><time>2026-05-06T19:31:11Z</time></trkpt>
</trkseg>
</trk>
<trk>
<name>nvvdri21</name>
<cmt>v</cmt>
<desc>Dourbes Chemin n°i21 </desc>
<link href="https://chemins.be/dourbes/chemin/i21"/><trkseg>
<trkpt lat="50.099563" lon="4.588573"><time>2026-05-06T18:41:11Z</time></trkpt>
<trkpt lat="50.099492" lon="4.588959"><time>2026-05-06T18:51:11Z</time></trkpt>
<trkpt lat="50.098633" lon="4.589929"><time>2026-05-06T19:01:11Z</time></trkpt>
<trkpt lat="50.098534" lon="4.590298"><time>2026-05-06T19:11:11Z</time></trkpt>
<trkpt lat="50.099025" lon="4.592053"><time>2026-05-06T19:21:11Z</time></trkpt>
<trkpt lat="50.099822" lon="4.593620"><time>2026-05-06T19:31:11Z</time></trkpt>
<trkpt lat="50.099580" lon="4.595311"><time>2026-05-06T19:41:11Z</time></trkpt>
<trkpt lat="50.100031" lon="4.596950"><time>2026-05-06T19:51:11Z</time></trkpt>
</trkseg>
</trk>
<trk>
<name>nvvdri22</name>
<cmt>v</cmt>
<desc>Dourbes Chemin n°i22 Tienne-Du-Loret</desc>
<link href="https://chemins.be/dourbes/chemin/i22"/><trkseg>
<trkpt lat="50.091308" lon="4.580596"><time>2026-05-06T18:41:11Z</time></trkpt>
<trkpt lat="50.091718" lon="4.580615"><time>2026-05-06T18:51:11Z</time></trkpt>
</trkseg>
</trk>
<trk>
<name>nvvdri23</name>
<cmt>v</cmt>
<desc>Dourbes Sentier n°i23 </desc>
<link href="https://chemins.be/dourbes/sentier/i23"/><trkseg>
<trkpt lat="50.088093" lon="4.560451"><time>2026-05-06T18:41:11Z</time></trkpt>
<trkpt lat="50.087680" lon="4.561588"><time>2026-05-06T18:51:11Z</time></trkpt>
<trkpt lat="50.087359" lon="4.563619"><time>2026-05-06T19:01:11Z</time></trkpt>
</trkseg></trk>
<trk>
<name>nvvdri23</name>
<cmt>b</cmt>
<desc>Dourbes Sentier n°i23 </desc>
<link href="https://chemins.be/dourbes/sentier/i23"/><trkseg>
<trkpt lat="50.087359" lon="4.563619"><time>2026-05-06T19:01:11Z</time></trkpt>
<trkpt lat="50.087442" lon="4.565293"><time>2026-05-06T19:11:11Z</time></trkpt>
<trkpt lat="50.087299" lon="4.565515"><time>2026-05-06T19:21:11Z</time></trkpt>
</trkseg>
</trk>
<trk>
<name>nvvdri24</name>
<cmt>v</cmt>
<desc>Dourbes Chemin n°i24 </desc>
<link href="https://chemins.be/dourbes/chemin/i24"/><trkseg>
<trkpt lat="50.088314" lon="4.559772"><time>2026-05-06T18:41:11Z</time></trkpt>
<trkpt lat="50.089461" lon="4.561070"><time>2026-05-06T18:51:11Z</time></trkpt>
<trkpt lat="50.090292" lon="4.561756"><time>2026-05-06T19:01:11Z</time></trkpt>
<trkpt lat="50.090415" lon="4.561925"><time>2026-05-06T19:11:11Z</time></trkpt>
<trkpt lat="50.092870" lon="4.562484"><time>2026-05-06T19:21:11Z</time></trkpt>
</trkseg>
</trk>
<trk>
<name>nvvdri25</name>
<cmt>v</cmt>
<desc>Dourbes Chemin n°i25 </desc>
<link href="https://chemins.be/dourbes/chemin/i25"/><trkseg>
<trkpt lat="50.093274" lon="4.556791"><time>2026-05-06T18:41:11Z</time></trkpt>
<trkpt lat="50.089888" lon="4.558693"><time>2026-05-06T18:51:11Z</time></trkpt>
<trkpt lat="50.089860" lon="4.560009"><time>2026-05-06T19:01:11Z</time></trkpt>
<trkpt lat="50.090351" lon="4.560962"><time>2026-05-06T19:11:11Z</time></trkpt>
<trkpt lat="50.090397" lon="4.561928"><time>2026-05-06T19:21:11Z</time></trkpt>
<trkpt lat="50.089521" lon="4.562641"><time>2026-05-06T19:31:11Z</time></trkpt>
<trkpt lat="50.089346" lon="4.563886"><time>2026-05-06T19:41:11Z</time></trkpt>
<trkpt lat="50.089484" lon="4.564387"><time>2026-05-06T19:51:11Z</time></trkpt>
<trkpt lat="50.089282" lon="4.565239"><time>2026-05-06T20:01:11Z</time></trkpt>
<trkpt lat="50.089456" lon="4.566315"><time>2026-05-06T20:11:11Z</time></trkpt>
<trkpt lat="50.089585" lon="4.566933"><time>2026-05-06T20:21:11Z</time></trkpt>
<trkpt lat="50.089842" lon="4.568692"><time>2026-05-06T20:31:11Z</time></trkpt>
<trkpt lat="50.090466" lon="4.569551"><time>2026-05-06T20:41:11Z</time></trkpt>
<trkpt lat="50.091989" lon="4.569079"><time>2026-05-06T20:51:11Z</time></trkpt>
</trkseg>
</trk>
<trk>
<name>nvvdri26</name>
<cmt>v</cmt>
<desc>Dourbes Sentier n°i26 </desc>
<link href="https://chemins.be/dourbes/sentier/i26"/><trkseg>
<trkpt lat="50.089514" lon="4.562665"><time>2026-05-06T18:41:11Z</time></trkpt>
<trkpt lat="50.089032" lon="4.563137"><time>2026-05-06T18:51:11Z</time></trkpt>
<trkpt lat="50.088917" lon="4.564853"><time>2026-05-06T19:01:11Z</time></trkpt>
<trkpt lat="50.089165" lon="4.565175"><time>2026-05-06T19:11:11Z</time></trkpt>
<trkpt lat="50.089106" lon="4.565991"><time>2026-05-06T19:21:11Z</time></trkpt>
<trkpt lat="50.089418" lon="4.567822"><time>2026-05-06T19:31:11Z</time></trkpt>
<trkpt lat="50.089372" lon="4.568415"><time>2026-05-06T19:41:11Z</time></trkpt>
<trkpt lat="50.089496" lon="4.568823"><time>2026-05-06T19:51:11Z</time></trkpt>
<trkpt lat="50.090019" lon="4.570261"><time>2026-05-06T20:01:11Z</time></trkpt>
<trkpt lat="50.090239" lon="4.570490"><time>2026-05-06T20:11:11Z</time></trkpt>
<trkpt lat="50.090556" lon="4.570075"><time>2026-05-06T20:21:11Z</time></trkpt>
<trkpt lat="50.090785" lon="4.569903"><time>2026-05-06T20:31:11Z</time></trkpt>
</trkseg>
</trk>
<trk>
<name>nvvdri27</name>
<cmt>v</cmt>
<desc>Dourbes Sentier n°i27 </desc>
<link href="https://chemins.be/dourbes/sentier/i27"/><trkseg>
<trkpt lat="50.090524" lon="4.569517"><time>2026-05-06T18:41:11Z</time></trkpt>
<trkpt lat="50.091763" lon="4.571448"><time>2026-05-06T18:51:11Z</time></trkpt>
<trkpt lat="50.092009" lon="4.575311"><time>2026-05-06T19:01:11Z</time></trkpt>
</trkseg>
</trk>
<trk>
<name>nvvdri28</name>
<cmt>v</cmt>
<desc>Dourbes Sentier n°i28 </desc>
<link href="https://chemins.be/dourbes/sentier/i28"/><trkseg>
<trkpt lat="50.089459" lon="4.568737"><time>2026-05-06T18:41:11Z</time></trkpt>
<trkpt lat="50.088582" lon="4.569152"><time>2026-05-06T18:51:11Z</time></trkpt>
<trkpt lat="50.088454" lon="4.569381"><time>2026-05-06T19:01:11Z</time></trkpt>
</trkseg>
</trk>
<trk>
<name>nvvdri29</name>
<cmt>v</cmt>
<desc>Dourbes Sentier n°i29 </desc>
<link href="https://chemins.be/dourbes/sentier/i29"/><trkseg>
<trkpt lat="50.090028" lon="4.570168"><time>2026-05-06T18:41:11Z</time></trkpt>
<trkpt lat="50.089491" lon="4.570847"><time>2026-05-06T18:51:11Z</time></trkpt>
</trkseg>
</trk>
<trk>
<name>nvvdri3</name>
<cmt>v</cmt>
<desc>Dourbes Sentier n°i3 </desc>
<link href="https://chemins.be/dourbes/sentier/i3"/><trkseg>
<trkpt lat="50.092108" lon="4.589044"><time>2026-05-06T18:41:11Z</time></trkpt>
<trkpt lat="50.092000" lon="4.588792"><time>2026-05-06T18:51:11Z</time></trkpt>
<trkpt lat="50.091867" lon="4.588023"><time>2026-05-06T19:01:11Z</time></trkpt>
</trkseg></trk>
<trk>
<name>nvvdri3</name>
<cmt>q</cmt>
<desc>Dourbes Sentier n°i3 </desc>
<link href="https://chemins.be/dourbes/sentier/i3"/><trkseg>
<trkpt lat="50.091867" lon="4.588023"><time>2026-05-06T19:01:11Z</time></trkpt>
<trkpt lat="50.090535" lon="4.588827"><time>2026-05-06T19:11:11Z</time></trkpt>
</trkseg>
</trk>
<trk>
<name>nvvdri30</name>
<cmt>v</cmt>
<desc>Dourbes Chemin n°i30 </desc>
<link href="https://chemins.be/dourbes/chemin/i30"/><trkseg>
<trkpt lat="50.087711" lon="4.592590"><time>2026-05-06T18:41:11Z</time></trkpt>
<trkpt lat="50.087291" lon="4.592075"><time>2026-05-06T18:51:11Z</time></trkpt>
</trkseg>
</trk>
<trk>
<name>nvvdri31</name>
<cmt>v</cmt>
<desc>Dourbes Sentier n°i31 </desc>
<link href="https://chemins.be/dourbes/sentier/i31"/><trkseg>
<trkpt lat="50.085013" lon="4.600491"><time>2026-05-06T18:41:11Z</time></trkpt>
<trkpt lat="50.083637" lon="4.599740"><time>2026-05-06T18:51:11Z</time></trkpt>
<trkpt lat="50.083246" lon="4.598817"><time>2026-05-06T19:01:11Z</time></trkpt>
<trkpt lat="50.083168" lon="4.597337"><time>2026-05-06T19:11:11Z</time></trkpt>
</trkseg>
</trk>
<trk>
<name>nvvdri32</name>
<cmt>v</cmt>
<desc>Dourbes Chemin n°i32 </desc>
<link href="https://chemins.be/dourbes/chemin/i32"/><trkseg>
<trkpt lat="50.087027" lon="4.596966"><time>2026-05-06T18:41:11Z</time></trkpt>
<trkpt lat="50.087475" lon="4.596738"><time>2026-05-06T18:51:11Z</time></trkpt>
<trkpt lat="50.087654" lon="4.596553"><time>2026-05-06T19:01:11Z</time></trkpt>
</trkseg>
</trk>
<trk>
<name>nvvdri33</name>
<cmt>v</cmt>
<desc>Dourbes Chemin n°i33 </desc>
<link href="https://chemins.be/dourbes/chemin/i33"/><trkseg>
<trkpt lat="50.120590" lon="4.577848"><time>2026-05-06T18:41:11Z</time></trkpt>
<trkpt lat="50.122590" lon="4.576452"><time>2026-05-06T18:51:11Z</time></trkpt>
</trkseg>
</trk>
<trk>
<name>nvvdri34</name>
<cmt>v</cmt>
<desc>Dourbes Sentier n°i34 </desc>
<link href="https://chemins.be/dourbes/sentier/i34"/><trkseg>
<trkpt lat="50.122589" lon="4.576560"><time>2026-05-06T18:41:11Z</time></trkpt>
<trkpt lat="50.123121" lon="4.584843"><time>2026-05-06T18:51:11Z</time></trkpt>
<trkpt lat="50.120361" lon="4.586002"><time>2026-05-06T19:01:11Z</time></trkpt>
<trkpt lat="50.117308" lon="4.587445"><time>2026-05-06T19:11:11Z</time></trkpt>
<trkpt lat="50.112344" lon="4.589792"><time>2026-05-06T19:21:11Z</time></trkpt>
<trkpt lat="50.110591" lon="4.590207"><time>2026-05-06T19:31:11Z</time></trkpt>
</trkseg>
</trk>
<trk>
<name>nvvdri35</name>
<cmt>q</cmt>
<desc>Dourbes Sentier n°i35 </desc>
<link href="https://chemins.be/dourbes/sentier/i35"/><trkseg>
<trkpt lat="50.084952" lon="4.565720"><time>2026-05-06T18:41:11Z</time></trkpt>
<trkpt lat="50.085228" lon="4.566388"><time>2026-05-06T18:51:11Z</time></trkpt>
<trkpt lat="50.085843" lon="4.566474"><time>2026-05-06T19:01:11Z</time></trkpt>
<trkpt lat="50.085994" lon="4.566499"><time>2026-05-06T19:11:11Z</time></trkpt>
</trkseg>
</trk>
<trk>
<name>nvvdri36</name>
<cmt>v</cmt>
<desc>Dourbes Chemin n°i36 </desc>
<link href="https://chemins.be/dourbes/chemin/i36"/><trkseg>
<trkpt lat="50.092341" lon="4.572747"><time>2026-05-06T18:41:11Z</time></trkpt>
<trkpt lat="50.091808" lon="4.572644"><time>2026-05-06T18:51:11Z</time></trkpt>
<trkpt lat="50.091485" lon="4.572579"><time>2026-05-06T19:01:11Z</time></trkpt>
<trkpt lat="50.091102" lon="4.572679"><time>2026-05-06T19:11:11Z</time></trkpt>
<trkpt lat="50.090565" lon="4.572339"><time>2026-05-06T19:21:11Z</time></trkpt>
</trkseg>
</trk>
<trk>
<name>nvvdri4</name>
<cmt>v</cmt>
<desc>Dourbes Chemin n°i4 </desc>
<link href="https://chemins.be/dourbes/chemin/i4"/><trkseg>
<trkpt lat="50.083209" lon="4.597191"><time>2026-05-06T18:41:11Z</time></trkpt>
<trkpt lat="50.082877" lon="4.596868"><time>2026-05-06T18:51:11Z</time></trkpt>
<trkpt lat="50.082661" lon="4.596881"><time>2026-05-06T19:01:11Z</time></trkpt>
<trkpt lat="50.081449" lon="4.595925"><time>2026-05-06T19:11:11Z</time></trkpt>
</trkseg>
</trk>
<trk>
<name>nvvdri5</name>
<cmt>v</cmt>
<desc>Dourbes Chemin n°i5 Rue de Loret</desc>
<link href="https://chemins.be/dourbes/chemin/i5"/><trkseg>
<trkpt lat="50.092464" lon="4.590974"><time>2026-05-06T18:41:11Z</time></trkpt>
<trkpt lat="50.092563" lon="4.590709"><time>2026-05-06T18:51:11Z</time></trkpt>
<trkpt lat="50.092171" lon="4.589016"><time>2026-05-06T19:01:11Z</time></trkpt>
<trkpt lat="50.092015" lon="4.585787"><time>2026-05-06T19:11:11Z</time></trkpt>
<trkpt lat="50.092124" lon="4.584949"><time>2026-05-06T19:21:11Z</time></trkpt>
<trkpt lat="50.091734" lon="4.580620"><time>2026-05-06T19:31:11Z</time></trkpt>
<trkpt lat="50.091606" lon="4.579074"><time>2026-05-06T19:41:11Z</time></trkpt>
</trkseg>
</trk>
<trk>
<name>nvvdri6</name>
<cmt>v</cmt>
<desc>Dourbes Chemin n°i6 </desc>
<link href="https://chemins.be/dourbes/chemin/i6"/><trkseg>
<trkpt lat="50.094283" lon="4.589068"><time>2026-05-06T18:41:11Z</time></trkpt>
<trkpt lat="50.094176" lon="4.588522"><time>2026-05-06T18:51:11Z</time></trkpt>
<trkpt lat="50.094201" lon="4.585280"><time>2026-05-06T19:01:11Z</time></trkpt>
<trkpt lat="50.094140" lon="4.583924"><time>2026-05-06T19:11:11Z</time></trkpt>
<trkpt lat="50.094145" lon="4.581423"><time>2026-05-06T19:21:11Z</time></trkpt>
<trkpt lat="50.094442" lon="4.581214"><time>2026-05-06T19:31:11Z</time></trkpt>
<trkpt lat="50.095115" lon="4.581902"><time>2026-05-06T19:41:11Z</time></trkpt>
<trkpt lat="50.095888" lon="4.581906"><time>2026-05-06T19:51:11Z</time></trkpt>
<trkpt lat="50.097953" lon="4.580542"><time>2026-05-06T20:01:11Z</time></trkpt>
</trkseg>
</trk>
<trk>
<name>nvvdri7</name>
<cmt>v</cmt>
<desc>Dourbes Chemin n°i7 </desc>
<link href="https://chemins.be/dourbes/chemin/i7"/><trkseg>
<trkpt lat="50.090146" lon="4.589692"><time>2026-05-06T18:41:11Z</time></trkpt>
<trkpt lat="50.090228" lon="4.589273"><time>2026-05-06T18:51:11Z</time></trkpt>
<trkpt lat="50.090292" lon="4.588686"><time>2026-05-06T19:01:11Z</time></trkpt>
</trkseg>
</trk>
<trk>
<name>nvvdri8</name>
<cmt>v</cmt>
<desc>Dourbes Chemin n°i8 </desc>
<link href="https://chemins.be/dourbes/chemin/i8"/><trkseg>
<trkpt lat="50.084080" lon="4.597879"><time>2026-05-06T18:41:11Z</time></trkpt>
<trkpt lat="50.084316" lon="4.596763"><time>2026-05-06T18:51:11Z</time></trkpt>
</trkseg>
</trk>
<trk>
<name>nvvdri9</name>
<cmt>v</cmt>
<desc>Dourbes Sentier n°i9 </desc>
<link href="https://chemins.be/dourbes/sentier/i9"/><trkseg>
<trkpt lat="50.086343" lon="4.596937"><time>2026-05-06T18:41:11Z</time></trkpt>
<trkpt lat="50.086313" lon="4.597506"><time>2026-05-06T18:51:11Z</time></trkpt>
<trkpt lat="50.085950" lon="4.597513"><time>2026-05-06T19:01:11Z</time></trkpt>
<trkpt lat="50.084288" lon="4.596902"><time>2026-05-06T19:11:11Z</time></trkpt>
<trkpt lat="50.083355" lon="4.595976"><time>2026-05-06T19:21:11Z</time></trkpt>
<trkpt lat="50.083202" lon="4.595975"><time>2026-05-06T19:31:11Z</time></trkpt>
<trkpt lat="50.082240" lon="4.593937"><time>2026-05-06T19:41:11Z</time></trkpt>
<trkpt lat="50.081745" lon="4.591581"><time>2026-05-06T19:51:11Z</time></trkpt>
<trkpt lat="50.080868" lon="4.586018"><time>2026-05-06T20:01:11Z</time></trkpt>
<trkpt lat="50.079923" lon="4.582091"><time>2026-05-06T20:11:11Z</time></trkpt>
<trkpt lat="50.078936" lon="4.579917"><time>2026-05-06T20:21:11Z</time></trkpt>
<trkpt lat="50.077885" lon="4.578891"><time>2026-05-06T20:31:11Z</time></trkpt>
<trkpt lat="50.077562" lon="4.578694"><time>2026-05-06T20:41:11Z</time></trkpt>
<trkpt lat="50.077545" lon="4.578387"><time>2026-05-06T20:51:11Z</time></trkpt>
</trkseg>
</trk>
<trk>
<name>nvvdrL156</name>
<cmt>v</cmt>
<desc>Dourbes Chemin n°L156 Tronçon de la ligne L156 à Dourbes / Ligne 156</desc>
<link href="https://chemins.be/dourbes/chemin/L156"/><trkseg>
<trkpt lat="50.114721" lon="4.573433"><time>2026-05-06T18:41:11Z</time></trkpt>
<trkpt lat="50.116191" lon="4.581032"><time>2026-05-06T18:51:11Z</time></trkpt>
<trkpt lat="50.117330" lon="4.587329"><time>2026-05-06T19:01:11Z</time></trkpt>
</trkseg>
</trk>
<trk>
<name>nvvms1</name>
<cmt>v</cmt>
<desc>Le Mesnil Chemin n°1 Chemin 1</desc>
<link href="https://chemins.be/lemesnil/chemin/1"/><trkseg>
<trkpt lat="50.034236" lon="4.671646"><time>2026-05-06T18:41:11Z</time></trkpt>
<trkpt lat="50.034589" lon="4.670434"><time>2026-05-06T18:51:11Z</time></trkpt>
<trkpt lat="50.034783" lon="4.668495"><time>2026-05-06T19:01:11Z</time></trkpt>
<trkpt lat="50.035702" lon="4.667650"><time>2026-05-06T19:11:11Z</time></trkpt>
<trkpt lat="50.036344" lon="4.666537"><time>2026-05-06T19:21:11Z</time></trkpt>
<trkpt lat="50.037012" lon="4.665243"><time>2026-05-06T19:31:11Z</time></trkpt>
<trkpt lat="50.037393" lon="4.663905"><time>2026-05-06T19:41:11Z</time></trkpt>
<trkpt lat="50.038144" lon="4.662123"><time>2026-05-06T19:51:11Z</time></trkpt>
<trkpt lat="50.038174" lon="4.661062"><time>2026-05-06T20:01:11Z</time></trkpt>
</trkseg></trk>
<trk>
<name>nvvms1</name>
<cmt>d</cmt>
<desc>Le Mesnil Chemin n°1 Chemin 1</desc>
<link href="https://chemins.be/lemesnil/chemin/1"/><trkseg>
<trkpt lat="50.038174" lon="4.661062"><time>2026-05-06T20:01:11Z</time></trkpt>
<trkpt lat="50.038275" lon="4.660295"><time>2026-05-06T20:11:11Z</time></trkpt>
<trkpt lat="50.038223" lon="4.659276"><time>2026-05-06T20:21:11Z</time></trkpt>
<trkpt lat="50.038290" lon="4.657992"><time>2026-05-06T20:31:11Z</time></trkpt>
<trkpt lat="50.038660" lon="4.657436"><time>2026-05-06T20:41:11Z</time></trkpt>
</trkseg></trk>
<trk>
<name>nvvms1</name>
<cmt>v</cmt>
<desc>Le Mesnil Chemin n°1 Chemin 1</desc>
<link href="https://chemins.be/lemesnil/chemin/1"/><trkseg>
<trkpt lat="50.038660" lon="4.657436"><time>2026-05-06T20:41:11Z</time></trkpt>
<trkpt lat="50.040030" lon="4.655713"><time>2026-05-06T20:51:11Z</time></trkpt>
<trkpt lat="50.042968" lon="4.653134"><time>2026-05-06T21:01:11Z</time></trkpt>
<trkpt lat="50.043337" lon="4.652913"><time>2026-05-06T21:11:11Z</time></trkpt>
</trkseg>
</trk>
<trk>
<name>nvvms10</name>
<cmt>d</cmt>
<desc>Le Mesnil Chemin n°10 </desc>
<link href="https://chemins.be/lemesnil/chemin/10"/><trkseg>
<trkpt lat="50.023597" lon="4.675947"><time>2026-05-06T18:41:11Z</time></trkpt>
<trkpt lat="50.023599" lon="4.675347"><time>2026-05-06T18:51:11Z</time></trkpt>
<trkpt lat="50.023323" lon="4.674131"><time>2026-05-06T19:01:11Z</time></trkpt>
<trkpt lat="50.023344" lon="4.673098"><time>2026-05-06T19:11:11Z</time></trkpt>
<trkpt lat="50.023345" lon="4.672652"><time>2026-05-06T19:21:11Z</time></trkpt>
</trkseg>
</trk>
<trk>
<name>nvvms11</name>
<cmt>v</cmt>
<desc>Le Mesnil Chemin n°11 </desc>
<link href="https://chemins.be/lemesnil/chemin/11"/><trkseg>
<trkpt lat="50.024138" lon="4.678797"><time>2026-05-06T18:41:11Z</time></trkpt>
<trkpt lat="50.023451" lon="4.680230"><time>2026-05-06T18:51:11Z</time></trkpt>
<trkpt lat="50.023150" lon="4.681847"><time>2026-05-06T19:01:11Z</time></trkpt>
<trkpt lat="50.022570" lon="4.683420"><time>2026-05-06T19:11:11Z</time></trkpt>
<trkpt lat="50.020662" lon="4.684189"><time>2026-05-06T19:21:11Z</time></trkpt>
<trkpt lat="50.019147" lon="4.684632"><time>2026-05-06T19:31:11Z</time></trkpt>
<trkpt lat="50.017496" lon="4.684447"><time>2026-05-06T19:41:11Z</time></trkpt>
<trkpt lat="50.015407" lon="4.685828"><time>2026-05-06T19:51:11Z</time></trkpt>
<trkpt lat="50.012946" lon="4.684891"><time>2026-05-06T20:01:11Z</time></trkpt>
<trkpt lat="50.011815" lon="4.684298"><time>2026-05-06T20:11:11Z</time></trkpt>
<trkpt lat="50.010887" lon="4.684616"><time>2026-05-06T20:21:11Z</time></trkpt>
<trkpt lat="50.008545" lon="4.682706"><time>2026-05-06T20:31:11Z</time></trkpt>
</trkseg>
</trk>
<trk>
<name>nvvms12</name>
<cmt>v</cmt>
<desc>Le Mesnil Chemin n°12 Rue de la Folie</desc>
<link href="https://chemins.be/lemesnil/chemin/12"/><trkseg>
<trkpt lat="50.024434" lon="4.672100"><time>2026-05-06T18:41:11Z</time></trkpt>
<trkpt lat="50.024244" lon="4.672727"><time>2026-05-06T18:51:11Z</time></trkpt>
<trkpt lat="50.024285" lon="4.674346"><time>2026-05-06T19:01:11Z</time></trkpt>
<trkpt lat="50.023814" lon="4.675557"><time>2026-05-06T19:11:11Z</time></trkpt>
</trkseg>
</trk>
<trk>
<name>nvvms13</name>
<cmt>d</cmt>
<desc>Le Mesnil Chemin n°13 </desc>
<link href="https://chemins.be/lemesnil/chemin/13"/><trkseg>
<trkpt lat="50.038483" lon="4.673739"><time>2026-05-06T18:41:11Z</time></trkpt>
<trkpt lat="50.037807" lon="4.674251"><time>2026-05-06T18:51:11Z</time></trkpt>
<trkpt lat="50.037175" lon="4.675280"><time>2026-05-06T19:01:11Z</time></trkpt>
</trkseg></trk>
<trk>
<name>nvvms13</name>
<cmt>v</cmt>
<desc>Le Mesnil Chemin n°13 </desc>
<link href="https://chemins.be/lemesnil/chemin/13"/><trkseg>
<trkpt lat="50.037175" lon="4.675280"><time>2026-05-06T19:01:11Z</time></trkpt>
<trkpt lat="50.036081" lon="4.677577"><time>2026-05-06T19:11:11Z</time></trkpt>
<trkpt lat="50.035477" lon="4.678103"><time>2026-05-06T19:21:11Z</time></trkpt>
<trkpt lat="50.035080" lon="4.678631"><time>2026-05-06T19:31:11Z</time></trkpt>
</trkseg></trk>
<trk>
<name>nvvms13</name>
<cmt>d</cmt>
<desc>Le Mesnil Chemin n°13 </desc>
<link href="https://chemins.be/lemesnil/chemin/13"/><trkseg>
<trkpt lat="50.035080" lon="4.678631"><time>2026-05-06T19:31:11Z</time></trkpt>
<trkpt lat="50.033664" lon="4.680297"><time>2026-05-06T19:41:11Z</time></trkpt>
</trkseg></trk>
<trk>
<name>nvvms13</name>
<cmt>v</cmt>
<desc>Le Mesnil Chemin n°13 </desc>
<link href="https://chemins.be/lemesnil/chemin/13"/><trkseg>
<trkpt lat="50.033664" lon="4.680297"><time>2026-05-06T19:41:11Z</time></trkpt>
<trkpt lat="50.033275" lon="4.681229"><time>2026-05-06T19:51:11Z</time></trkpt>
<trkpt lat="50.031871" lon="4.681723"><time>2026-05-06T20:01:11Z</time></trkpt>
<trkpt lat="50.031429" lon="4.682334"><time>2026-05-06T20:11:11Z</time></trkpt>
<trkpt lat="50.030609" lon="4.682915"><time>2026-05-06T20:21:11Z</time></trkpt>
<trkpt lat="50.029538" lon="4.683382"><time>2026-05-06T20:31:11Z</time></trkpt>
<trkpt lat="50.027772" lon="4.684710"><time>2026-05-06T20:41:11Z</time></trkpt>
</trkseg>
</trk>
<trk>
<name>nvvms14</name>
<cmt>v</cmt>
<desc>Le Mesnil Chemin n°14 </desc>
<link href="https://chemins.be/lemesnil/chemin/14"/><trkseg>
<trkpt lat="50.037202" lon="4.675322"><time>2026-05-06T18:41:11Z</time></trkpt>
<trkpt lat="50.037983" lon="4.675635"><time>2026-05-06T18:51:11Z</time></trkpt>
<trkpt lat="50.038897" lon="4.676757"><time>2026-05-06T19:01:11Z</time></trkpt>
<trkpt lat="50.039317" lon="4.677584"><time>2026-05-06T19:11:11Z</time></trkpt>
<trkpt lat="50.040241" lon="4.678441"><time>2026-05-06T19:21:11Z</time></trkpt>
<trkpt lat="50.041347" lon="4.678574"><time>2026-05-06T19:31:11Z</time></trkpt>
<trkpt lat="50.041741" lon="4.679247"><time>2026-05-06T19:41:11Z</time></trkpt>
<trkpt lat="50.042171" lon="4.679529"><time>2026-05-06T19:51:11Z</time></trkpt>
</trkseg>
</trk>
<trk>
<name>nvvms15</name>
<cmt>v</cmt>
<desc>Le Mesnil Chemin n°15 </desc>
<link href="https://chemins.be/lemesnil/chemin/15"/><trkseg>
<trkpt lat="50.040241" lon="4.678483"><time>2026-05-06T18:41:11Z</time></trkpt>
<trkpt lat="50.040456" lon="4.678833"><time>2026-05-06T18:51:11Z</time></trkpt>
<trkpt lat="50.040652" lon="4.679575"><time>2026-05-06T19:01:11Z</time></trkpt>
<trkpt lat="50.040967" lon="4.682829"><time>2026-05-06T19:11:11Z</time></trkpt>
<trkpt lat="50.040826" lon="4.684783"><time>2026-05-06T19:21:11Z</time></trkpt>
<trkpt lat="50.040740" lon="4.686639"><time>2026-05-06T19:31:11Z</time></trkpt>
<trkpt lat="50.040581" lon="4.688844"><time>2026-05-06T19:41:11Z</time></trkpt>
<trkpt lat="50.039783" lon="4.691393"><time>2026-05-06T19:51:11Z</time></trkpt>
<trkpt lat="50.039727" lon="4.692258"><time>2026-05-06T20:01:11Z</time></trkpt>
<trkpt lat="50.040084" lon="4.693154"><time>2026-05-06T20:11:11Z</time></trkpt>
<trkpt lat="50.040064" lon="4.693726"><time>2026-05-06T20:21:11Z</time></trkpt>
</trkseg>
</trk>
<trk>
<name>nvvms16</name>
<cmt>v</cmt>
<desc>Le Mesnil Chemin n°16 </desc>
<link href="https://chemins.be/lemesnil/chemin/16"/><trkseg>
<trkpt lat="50.035441" lon="4.678131"><time>2026-05-06T18:41:11Z</time></trkpt>
<trkpt lat="50.036232" lon="4.678066"><time>2026-05-06T18:51:11Z</time></trkpt>
<trkpt lat="50.037732" lon="4.678774"><time>2026-05-06T19:01:11Z</time></trkpt>
<trkpt lat="50.038448" lon="4.679867"><time>2026-05-06T19:11:11Z</time></trkpt>
<trkpt lat="50.038984" lon="4.681267"><time>2026-05-06T19:21:11Z</time></trkpt>
<trkpt lat="50.040541" lon="4.683929"><time>2026-05-06T19:31:11Z</time></trkpt>
<trkpt lat="50.040808" lon="4.684839"><time>2026-05-06T19:41:11Z</time></trkpt>
</trkseg>
</trk>
<trk>
<name>nvvms17</name>
<cmt>v</cmt>
<desc>Le Mesnil Chemin n°17 </desc>
<link href="https://chemins.be/lemesnil/chemin/17"/><trkseg>
<trkpt lat="50.031946" lon="4.667096"><time>2026-05-06T18:41:11Z</time></trkpt>
<trkpt lat="50.032451" lon="4.666457"><time>2026-05-06T18:51:11Z</time></trkpt>
<trkpt lat="50.032732" lon="4.665747"><time>2026-05-06T19:01:11Z</time></trkpt>
<trkpt lat="50.033061" lon="4.663613"><time>2026-05-06T19:11:11Z</time></trkpt>
<trkpt lat="50.033111" lon="4.661394"><time>2026-05-06T19:21:11Z</time></trkpt>
<trkpt lat="50.033313" lon="4.659748"><time>2026-05-06T19:31:11Z</time></trkpt>
<trkpt lat="50.033300" lon="4.658045"><time>2026-05-06T19:41:11Z</time></trkpt>
<trkpt lat="50.032997" lon="4.656969"><time>2026-05-06T19:51:11Z</time></trkpt>
</trkseg>
</trk>
<trk>
<name>nvvms18</name>
<cmt>v</cmt>
<desc>Le Mesnil Chemin n°18 </desc>
<link href="https://chemins.be/lemesnil/chemin/18"/><trkseg>
<trkpt lat="50.027791" lon="4.656909"><time>2026-05-06T18:41:11Z</time></trkpt>
<trkpt lat="50.027046" lon="4.659864"><time>2026-05-06T18:51:11Z</time></trkpt>
<trkpt lat="50.026500" lon="4.662526"><time>2026-05-06T19:01:11Z</time></trkpt>
<trkpt lat="50.026061" lon="4.665579"><time>2026-05-06T19:11:11Z</time></trkpt>
<trkpt lat="50.025355" lon="4.667222"><time>2026-05-06T19:21:11Z</time></trkpt>
</trkseg>
</trk>
<trk>
<name>nvvms19</name>
<cmt>v</cmt>
<desc>Le Mesnil Chemin n°19 </desc>
<link href="https://chemins.be/lemesnil/chemin/19"/><trkseg>
<trkpt lat="50.038235" lon="4.661747"><time>2026-05-06T18:41:11Z</time></trkpt>
<trkpt lat="50.039498" lon="4.660051"><time>2026-05-06T18:51:11Z</time></trkpt>
<trkpt lat="50.042550" lon="4.658395"><time>2026-05-06T19:01:11Z</time></trkpt>
<trkpt lat="50.043271" lon="4.657910"><time>2026-05-06T19:11:11Z</time></trkpt>
<trkpt lat="50.044153" lon="4.657190"><time>2026-05-06T19:21:11Z</time></trkpt>
</trkseg>
</trk>
<trk>
<name>nvvms2</name>
<cmt>v</cmt>
<desc>Le Mesnil Chemin n°2 Chemin 2</desc>
<link href="https://chemins.be/lemesnil/chemin/2"/><trkseg>
<trkpt lat="50.032389" lon="4.655290"><time>2026-05-06T18:41:11Z</time></trkpt>
<trkpt lat="50.032683" lon="4.656534"><time>2026-05-06T18:51:11Z</time></trkpt>
<trkpt lat="50.033006" lon="4.656913"><time>2026-05-06T19:01:11Z</time></trkpt>
</trkseg></trk>
<trk>
<name>nvvms2</name>
<cmt>d</cmt>
<desc>Le Mesnil Chemin n°2 Chemin 2</desc>
<link href="https://chemins.be/lemesnil/chemin/2"/><trkseg>
<trkpt lat="50.033006" lon="4.656913"><time>2026-05-06T19:01:11Z</time></trkpt>
<trkpt lat="50.033365" lon="4.657180"><time>2026-05-06T19:11:11Z</time></trkpt>
<trkpt lat="50.033920" lon="4.657951"><time>2026-05-06T19:21:11Z</time></trkpt>
</trkseg></trk>
<trk>
<name>nvvms2</name>
<cmt>v</cmt>
<desc>Le Mesnil Chemin n°2 Chemin 2</desc>
<link href="https://chemins.be/lemesnil/chemin/2"/><trkseg>
<trkpt lat="50.033920" lon="4.657951"><time>2026-05-06T19:21:11Z</time></trkpt>
<trkpt lat="50.036209" lon="4.659333"><time>2026-05-06T19:31:11Z</time></trkpt>
<trkpt lat="50.036999" lon="4.660078"><time>2026-05-06T19:41:11Z</time></trkpt>
<trkpt lat="50.038246" lon="4.661132"><time>2026-05-06T19:51:11Z</time></trkpt>
<trkpt lat="50.041835" lon="4.663877"><time>2026-05-06T20:01:11Z</time></trkpt>
<trkpt lat="50.043341" lon="4.665701"><time>2026-05-06T20:11:11Z</time></trkpt>
<trkpt lat="50.044525" lon="4.666574"><time>2026-05-06T20:21:11Z</time></trkpt>
<trkpt lat="50.045075" lon="4.666973"><time>2026-05-06T20:31:11Z</time></trkpt>
<trkpt lat="50.045776" lon="4.669430"><time>2026-05-06T20:41:11Z</time></trkpt>
</trkseg>
</trk>
<trk>
<name>nvvms20</name>
<cmt>v</cmt>
<desc>Le Mesnil Chemin n°20 </desc>
<link href="https://chemins.be/lemesnil/chemin/20"/><trkseg>
<trkpt lat="50.045073" lon="4.666934"><time>2026-05-06T18:41:11Z</time></trkpt>
<trkpt lat="50.044664" lon="4.664560"><time>2026-05-06T18:51:11Z</time></trkpt>
<trkpt lat="50.043623" lon="4.660816"><time>2026-05-06T19:01:11Z</time></trkpt>
<trkpt lat="50.043262" lon="4.657896"><time>2026-05-06T19:11:11Z</time></trkpt>
<trkpt lat="50.042965" lon="4.654335"><time>2026-05-06T19:21:11Z</time></trkpt>
<trkpt lat="50.043058" lon="4.653093"><time>2026-05-06T19:31:11Z</time></trkpt>
</trkseg>
</trk>
<trk>
<name>nvvms22</name>
<cmt>v</cmt>
<desc>Le Mesnil Chemin n°22 </desc>
<link href="https://chemins.be/lemesnil/chemin/22"/><trkseg>
<trkpt lat="50.025058" lon="4.671002"><time>2026-05-06T18:41:11Z</time></trkpt>
<trkpt lat="50.024184" lon="4.671527"><time>2026-05-06T18:51:11Z</time></trkpt>
<trkpt lat="50.023700" lon="4.671189"><time>2026-05-06T19:01:11Z</time></trkpt>
<trkpt lat="50.023183" lon="4.669357"><time>2026-05-06T19:11:11Z</time></trkpt>
<trkpt lat="50.023166" lon="4.668980"><time>2026-05-06T19:21:11Z</time></trkpt>
<trkpt lat="50.022824" lon="4.669020"><time>2026-05-06T19:31:11Z</time></trkpt>
<trkpt lat="50.022194" lon="4.669491"><time>2026-05-06T19:41:11Z</time></trkpt>
<trkpt lat="50.021596" lon="4.670980"><time>2026-05-06T19:51:11Z</time></trkpt>
<trkpt lat="50.020935" lon="4.672971"><time>2026-05-06T20:01:11Z</time></trkpt>
<trkpt lat="50.020215" lon="4.673274"><time>2026-05-06T20:11:11Z</time></trkpt>
<trkpt lat="50.018695" lon="4.673264"><time>2026-05-06T20:21:11Z</time></trkpt>
<trkpt lat="50.017864" lon="4.671556"><time>2026-05-06T20:31:11Z</time></trkpt>
<trkpt lat="50.017155" lon="4.671050"><time>2026-05-06T20:41:11Z</time></trkpt>
<trkpt lat="50.016390" lon="4.671338"><time>2026-05-06T20:51:11Z</time></trkpt>
<trkpt lat="50.015433" lon="4.672741"><time>2026-05-06T21:01:11Z</time></trkpt>
<trkpt lat="50.015065" lon="4.673393"><time>2026-05-06T21:11:11Z</time></trkpt>
<trkpt lat="50.013084" lon="4.674252"><time>2026-05-06T21:21:11Z</time></trkpt>
<trkpt lat="50.012730" lon="4.672735"><time>2026-05-06T21:31:11Z</time></trkpt>
<trkpt lat="50.012895" lon="4.671605"><time>2026-05-06T21:41:11Z</time></trkpt>
<trkpt lat="50.012739" lon="4.668064"><time>2026-05-06T21:51:11Z</time></trkpt>
<trkpt lat="50.012982" lon="4.664452"><time>2026-05-06T22:01:11Z</time></trkpt>
</trkseg>
</trk>
<trk>
<name>nvvms23</name>
<cmt>v</cmt>
<desc>Le Mesnil Chemin n°23 </desc>
<link href="https://chemins.be/lemesnil/chemin/23"/><trkseg>
<trkpt lat="50.020890" lon="4.672999"><time>2026-05-06T18:41:11Z</time></trkpt>
<trkpt lat="50.020787" lon="4.674491"><time>2026-05-06T18:51:11Z</time></trkpt>
<trkpt lat="50.020892" lon="4.675884"><time>2026-05-06T19:01:11Z</time></trkpt>
<trkpt lat="50.020987" lon="4.677144"><time>2026-05-06T19:11:11Z</time></trkpt>
<trkpt lat="50.020688" lon="4.677937"><time>2026-05-06T19:21:11Z</time></trkpt>
<trkpt lat="50.020512" lon="4.679834"><time>2026-05-06T19:31:11Z</time></trkpt>
<trkpt lat="50.020509" lon="4.680727"><time>2026-05-06T19:41:11Z</time></trkpt>
<trkpt lat="50.020451" lon="4.682234"><time>2026-05-06T19:51:11Z</time></trkpt>
<trkpt lat="50.020430" lon="4.684097"><time>2026-05-06T20:01:11Z</time></trkpt>
<trkpt lat="50.020326" lon="4.685929"><time>2026-05-06T20:11:11Z</time></trkpt>
</trkseg>
</trk>
<trk>
<name>nvvms24</name>
<cmt>v</cmt>
<desc>Le Mesnil Chemin n°24 </desc>
<link href="https://chemins.be/lemesnil/chemin/24"/><trkseg>
<trkpt lat="50.012976" lon="4.673632"><time>2026-05-06T18:41:11Z</time></trkpt>
<trkpt lat="50.013189" lon="4.674722"><time>2026-05-06T18:51:11Z</time></trkpt>
<trkpt lat="50.013263" lon="4.677359"><time>2026-05-06T19:01:11Z</time></trkpt>
<trkpt lat="50.012922" lon="4.680454"><time>2026-05-06T19:11:11Z</time></trkpt>
<trkpt lat="50.012817" lon="4.682588"><time>2026-05-06T19:21:11Z</time></trkpt>
<trkpt lat="50.012937" lon="4.684933"><time>2026-05-06T19:31:11Z</time></trkpt>
<trkpt lat="50.012590" lon="4.686940"><time>2026-05-06T19:41:11Z</time></trkpt>
</trkseg>
</trk>
<trk>
<name>nvvms27</name>
<cmt>r</cmt>
<desc>Le Mesnil Chemin n°27 Rue de Oignies</desc>
<link href="https://chemins.be/lemesnil/chemin/27"/><trkseg>
<trkpt lat="50.031365" lon="4.669203"><time>2026-05-06T18:41:11Z</time></trkpt>
<trkpt lat="50.031588" lon="4.668412"><time>2026-05-06T18:51:11Z</time></trkpt>
</trkseg>
</trk>
<trk>
<name>nvvms28</name>
<cmt>v</cmt>
<desc>Le Mesnil Chemin n°28 </desc>
<link href="https://chemins.be/lemesnil/chemin/28"/><trkseg>
<trkpt lat="50.024380" lon="4.672114"><time>2026-05-06T18:41:11Z</time></trkpt>
<trkpt lat="50.024074" lon="4.672280"><time>2026-05-06T18:51:11Z</time></trkpt>
<trkpt lat="50.023525" lon="4.672569"><time>2026-05-06T19:01:11Z</time></trkpt>
</trkseg>
</trk>
<trk>
<name>nvvms3</name>
<cmt>v</cmt>
<desc>Le Mesnil Chemin n°3 rue de Vierves</desc>
<link href="https://chemins.be/lemesnil/chemin/3"/><trkseg>
<trkpt lat="50.041866" lon="4.647753"><time>2026-05-06T18:41:11Z</time></trkpt>
<trkpt lat="50.038495" lon="4.647775"><time>2026-05-06T18:51:11Z</time></trkpt>
</trkseg>
</trk>
<trk>
<name>nvvms30</name>
<cmt>v</cmt>
<desc>Le Mesnil Chemin n°30 </desc>
<link href="https://chemins.be/lemesnil/chemin/30"/><trkseg>
<trkpt lat="50.032337" lon="4.672137"><time>2026-05-06T18:41:11Z</time></trkpt>
<trkpt lat="50.032659" lon="4.672725"><time>2026-05-06T18:51:11Z</time></trkpt>
<trkpt lat="50.032786" lon="4.672530"><time>2026-05-06T19:01:11Z</time></trkpt>
<trkpt lat="50.033081" lon="4.673216"><time>2026-05-06T19:11:11Z</time></trkpt>
</trkseg>
</trk>
<trk>
<name>nvvms31</name>
<cmt>v</cmt>
<desc>Le Mesnil Sentier n°31 </desc>
<link href="https://chemins.be/lemesnil/sentier/31"/><trkseg>
<trkpt lat="50.030482" lon="4.673242"><time>2026-05-06T18:41:11Z</time></trkpt>
<trkpt lat="50.031115" lon="4.675269"><time>2026-05-06T18:51:11Z</time></trkpt>
<trkpt lat="50.031346" lon="4.676332"><time>2026-05-06T19:01:11Z</time></trkpt>
</trkseg></trk>
<trk>
<name>nvvms31</name>
<cmt>d</cmt>
<desc>Le Mesnil Sentier n°31 </desc>
<link href="https://chemins.be/lemesnil/sentier/31"/><trkseg>
<trkpt lat="50.031346" lon="4.676332"><time>2026-05-06T19:01:11Z</time></trkpt>
<trkpt lat="50.031604" lon="4.677478"><time>2026-05-06T19:11:11Z</time></trkpt>
<trkpt lat="50.031825" lon="4.678735"><time>2026-05-06T19:21:11Z</time></trkpt>
<trkpt lat="50.031880" lon="4.681792"><time>2026-05-06T19:31:11Z</time></trkpt>
</trkseg>
</trk>
<trk>
<name>nvvms32</name>
<cmt>v</cmt>
<desc>Le Mesnil Sentier n°32 </desc>
<link href="https://chemins.be/lemesnil/sentier/32"/><trkseg>
<trkpt lat="50.028502" lon="4.674038"><time>2026-05-06T18:41:11Z</time></trkpt>
<trkpt lat="50.025991" lon="4.674902"><time>2026-05-06T18:51:11Z</time></trkpt>
</trkseg>
</trk>
<trk>
<name>nvvms33</name>
<cmt>d</cmt>
<desc>Le Mesnil Sentier n°33 </desc>
<link href="https://chemins.be/lemesnil/sentier/33"/><trkseg>
<trkpt lat="50.030049" lon="4.670503"><time>2026-05-06T18:41:11Z</time></trkpt>
<trkpt lat="50.029099" lon="4.669143"><time>2026-05-06T18:51:11Z</time></trkpt>
<trkpt lat="50.028714" lon="4.668694"><time>2026-05-06T19:01:11Z</time></trkpt>
<trkpt lat="50.028069" lon="4.667685"><time>2026-05-06T19:11:11Z</time></trkpt>
<trkpt lat="50.027782" lon="4.667377"><time>2026-05-06T19:21:11Z</time></trkpt>
<trkpt lat="50.026949" lon="4.666464"><time>2026-05-06T19:31:11Z</time></trkpt>
</trkseg></trk>
<trk>
<name>nvvms33</name>
<cmt>v</cmt>
<desc>Le Mesnil Sentier n°33 </desc>
<link href="https://chemins.be/lemesnil/sentier/33"/><trkseg>
<trkpt lat="50.026949" lon="4.666464"><time>2026-05-06T19:31:11Z</time></trkpt>
<trkpt lat="50.026043" lon="4.665510"><time>2026-05-06T19:41:11Z</time></trkpt>
<trkpt lat="50.025024" lon="4.663173"><time>2026-05-06T19:51:11Z</time></trkpt>
</trkseg>
</trk>
<trk>
<name>nvvms34</name>
<cmt>v</cmt>
<desc>Le Mesnil Sentier n°34 Route de la Carrière / rue de la Carrière</desc>
<link href="https://chemins.be/lemesnil/sentier/34"/><trkseg>
<trkpt lat="50.023336" lon="4.672694"><time>2026-05-06T18:41:11Z</time></trkpt>
<trkpt lat="50.023017" lon="4.672429"><time>2026-05-06T18:51:11Z</time></trkpt>
<trkpt lat="50.021322" lon="4.672778"><time>2026-05-06T19:01:11Z</time></trkpt>
<trkpt lat="50.020467" lon="4.673192"><time>2026-05-06T19:11:11Z</time></trkpt>
<trkpt lat="50.018530" lon="4.674658"><time>2026-05-06T19:21:11Z</time></trkpt>
<trkpt lat="50.016511" lon="4.676487"><time>2026-05-06T19:31:11Z</time></trkpt>
<trkpt lat="50.013079" lon="4.679088"><time>2026-05-06T19:41:11Z</time></trkpt>
<trkpt lat="50.011403" lon="4.680472"><time>2026-05-06T19:51:11Z</time></trkpt>
<trkpt lat="50.009664" lon="4.681842"><time>2026-05-06T20:01:11Z</time></trkpt>
<trkpt lat="50.008175" lon="4.682937"><time>2026-05-06T20:11:11Z</time></trkpt>
</trkseg>
</trk>
<trk>
<name>nvvms35</name>
<cmt>d</cmt>
<desc>Le Mesnil Sentier n°35 Sentier de la Fontaine de la Maroie</desc>
<link href="https://chemins.be/lemesnil/sentier/35"/><trkseg>
<trkpt lat="50.033086" lon="4.671220"><time>2026-05-06T18:41:11Z</time></trkpt>
<trkpt lat="50.033224" lon="4.670063"><time>2026-05-06T18:51:11Z</time></trkpt>
<trkpt lat="50.033867" lon="4.668071"><time>2026-05-06T19:01:11Z</time></trkpt>
<trkpt lat="50.034446" lon="4.666902"><time>2026-05-06T19:11:11Z</time></trkpt>
</trkseg>
</trk>
<trk>
<name>nvvms36</name>
<cmt>d</cmt>
<desc>Le Mesnil Sentier n°36 </desc>
<link href="https://chemins.be/lemesnil/sentier/36"/><trkseg>
<trkpt lat="50.033090" lon="4.673216"><time>2026-05-06T18:41:11Z</time></trkpt>
<trkpt lat="50.033189" lon="4.673203"><time>2026-05-06T18:51:11Z</time></trkpt>
<trkpt lat="50.033590" lon="4.674434"><time>2026-05-06T19:01:11Z</time></trkpt>
<trkpt lat="50.033751" lon="4.674714"><time>2026-05-06T19:11:11Z</time></trkpt>
<trkpt lat="50.034097" lon="4.676349"><time>2026-05-06T19:21:11Z</time></trkpt>
<trkpt lat="50.034869" lon="4.677038"><time>2026-05-06T19:31:11Z</time></trkpt>
<trkpt lat="50.035065" lon="4.677375"><time>2026-05-06T19:41:11Z</time></trkpt>
<trkpt lat="50.035432" lon="4.678089"><time>2026-05-06T19:51:11Z</time></trkpt>
</trkseg>
</trk>
<trk>
<name>nvvms37</name>
<cmt>d</cmt>
<desc>Le Mesnil Sentier n°37 </desc>
<link href="https://chemins.be/lemesnil/sentier/37"/><trkseg>
<trkpt lat="50.033242" lon="4.673329"><time>2026-05-06T18:41:11Z</time></trkpt>
<trkpt lat="50.034967" lon="4.673870"><time>2026-05-06T18:51:11Z</time></trkpt>
<trkpt lat="50.036793" lon="4.673421"><time>2026-05-06T19:01:11Z</time></trkpt>
</trkseg>
</trk>
<trk>
<name>nvvms38</name>
<cmt>d</cmt>
<desc>Le Mesnil Sentier n°38 </desc>
<link href="https://chemins.be/lemesnil/sentier/38"/><trkseg>
<trkpt lat="50.032563" lon="4.675139"><time>2026-05-06T18:41:11Z</time></trkpt>
<trkpt lat="50.034097" lon="4.676447"><time>2026-05-06T18:51:11Z</time></trkpt>
</trkseg>
</trk>
<trk>
<name>nvvms39</name>
<cmt>v</cmt>
<desc>Le Mesnil Sentier n°39 </desc>
<link href="https://chemins.be/lemesnil/sentier/39"/><trkseg>
<trkpt lat="50.027163" lon="4.677058"><time>2026-05-06T18:41:11Z</time></trkpt>
<trkpt lat="50.026549" lon="4.678213"><time>2026-05-06T18:51:11Z</time></trkpt>
<trkpt lat="50.026402" lon="4.679524"><time>2026-05-06T19:01:11Z</time></trkpt>
<trkpt lat="50.027317" lon="4.683395"><time>2026-05-06T19:11:11Z</time></trkpt>
<trkpt lat="50.027378" lon="4.683996"><time>2026-05-06T19:21:11Z</time></trkpt>
<trkpt lat="50.027610" lon="4.684695"><time>2026-05-06T19:31:11Z</time></trkpt>
</trkseg>
</trk>
<trk>
<name>nvvms5</name>
<cmt>r</cmt>
<desc>Le Mesnil Chemin n°5 Rue du Cimetière / Rue de la Folie</desc>
<link href="https://chemins.be/lemesnil/chemin/5"/><trkseg>
<trkpt lat="50.031366" lon="4.672354"><time>2026-05-06T18:41:11Z</time></trkpt>
<trkpt lat="50.030509" lon="4.673172"><time>2026-05-06T18:51:11Z</time></trkpt>
</trkseg></trk>
<trk>
<name>nvvms5</name>
<cmt>v</cmt>
<desc>Le Mesnil Chemin n°5 Rue du Cimetière / Rue de la Folie</desc>
<link href="https://chemins.be/lemesnil/chemin/5"/><trkseg>
<trkpt lat="50.030509" lon="4.673172"><time>2026-05-06T18:51:11Z</time></trkpt>
<trkpt lat="50.028764" lon="4.673719"><time>2026-05-06T19:01:11Z</time></trkpt>
<trkpt lat="50.028412" lon="4.674191"><time>2026-05-06T19:11:11Z</time></trkpt>
<trkpt lat="50.027118" lon="4.677072"><time>2026-05-06T19:21:11Z</time></trkpt>
<trkpt lat="50.026223" lon="4.675838"><time>2026-05-06T19:31:11Z</time></trkpt>
<trkpt lat="50.025901" lon="4.674943"><time>2026-05-06T19:41:11Z</time></trkpt>
<trkpt lat="50.025271" lon="4.675413"><time>2026-05-06T19:51:11Z</time></trkpt>
<trkpt lat="50.024128" lon="4.675894"><time>2026-05-06T20:01:11Z</time></trkpt>
<trkpt lat="50.023777" lon="4.675794"><time>2026-05-06T20:11:11Z</time></trkpt>
<trkpt lat="50.023460" lon="4.676727"><time>2026-05-06T20:21:11Z</time></trkpt>
<trkpt lat="50.023717" lon="4.678083"><time>2026-05-06T20:31:11Z</time></trkpt>
<trkpt lat="50.024344" lon="4.679105"><time>2026-05-06T20:41:11Z</time></trkpt>
<trkpt lat="50.024367" lon="4.680445"><time>2026-05-06T20:51:11Z</time></trkpt>
<trkpt lat="50.024481" lon="4.681535"><time>2026-05-06T21:01:11Z</time></trkpt>
<trkpt lat="50.025061" lon="4.683032"><time>2026-05-06T21:11:11Z</time></trkpt>
<trkpt lat="50.025311" lon="4.683968"><time>2026-05-06T21:21:11Z</time></trkpt>
<trkpt lat="50.025012" lon="4.684664"><time>2026-05-06T21:31:11Z</time></trkpt>
<trkpt lat="50.023820" lon="4.686498"><time>2026-05-06T21:41:11Z</time></trkpt>
<trkpt lat="50.023396" lon="4.686970"><time>2026-05-06T21:51:11Z</time></trkpt>
</trkseg>
</trk>
<trk>
<name>nvvms6</name>
<cmt>v</cmt>
<desc>Le Mesnil Chemin n°6 </desc>
<link href="https://chemins.be/lemesnil/chemin/6"/><trkseg>
<trkpt lat="50.031706" lon="4.672970"><time>2026-05-06T18:41:11Z</time></trkpt>
<trkpt lat="50.032269" lon="4.674188"><time>2026-05-06T18:51:11Z</time></trkpt>
<trkpt lat="50.033131" lon="4.678046"><time>2026-05-06T19:01:11Z</time></trkpt>
<trkpt lat="50.033352" lon="4.679429"><time>2026-05-06T19:11:11Z</time></trkpt>
<trkpt lat="50.033736" lon="4.680144"><time>2026-05-06T19:21:11Z</time></trkpt>
<trkpt lat="50.034515" lon="4.681489"><time>2026-05-06T19:31:11Z</time></trkpt>
<trkpt lat="50.034868" lon="4.683976"><time>2026-05-06T19:41:11Z</time></trkpt>
<trkpt lat="50.035431" lon="4.685250"><time>2026-05-06T19:51:11Z</time></trkpt>
<trkpt lat="50.036049" lon="4.685980"><time>2026-05-06T20:01:11Z</time></trkpt>
<trkpt lat="50.036309" lon="4.686358"><time>2026-05-06T20:11:11Z</time></trkpt>
<trkpt lat="50.037740" lon="4.689062"><time>2026-05-06T20:21:11Z</time></trkpt>
<trkpt lat="50.038364" lon="4.690825"><time>2026-05-06T20:31:11Z</time></trkpt>
<trkpt lat="50.038908" lon="4.692392"><time>2026-05-06T20:41:11Z</time></trkpt>
<trkpt lat="50.040064" lon="4.693754"><time>2026-05-06T20:51:11Z</time></trkpt>
</trkseg>
</trk>
<trk>
<name>nvvms8</name>
<cmt>r</cmt>
<desc>Le Mesnil Chemin n°8 Rue de la Folie</desc>
<link href="https://chemins.be/lemesnil/chemin/8"/><trkseg>
<trkpt lat="50.031134" lon="4.671431"><time>2026-05-06T18:41:11Z</time></trkpt>
<trkpt lat="50.030309" lon="4.670714"><time>2026-05-06T18:51:11Z</time></trkpt>
<trkpt lat="50.029365" lon="4.670652"><time>2026-05-06T19:01:11Z</time></trkpt>
<trkpt lat="50.028460" lon="4.669586"><time>2026-05-06T19:11:11Z</time></trkpt>
</trkseg></trk>
<trk>
<name>nvvms8</name>
<cmt>v</cmt>
<desc>Le Mesnil Chemin n°8 Rue de la Folie</desc>
<link href="https://chemins.be/lemesnil/chemin/8"/><trkseg>
<trkpt lat="50.028460" lon="4.669586"><time>2026-05-06T19:11:11Z</time></trkpt>
<trkpt lat="50.026357" lon="4.669210"><time>2026-05-06T19:21:11Z</time></trkpt>
<trkpt lat="50.025148" lon="4.670793"><time>2026-05-06T19:31:11Z</time></trkpt>
<trkpt lat="50.024443" lon="4.672087"><time>2026-05-06T19:41:11Z</time></trkpt>
</trkseg>
</trk>
<trk>
<name>nvvms9</name>
<cmt>v</cmt>
<desc>Le Mesnil Chemin n°9 </desc>
<link href="https://chemins.be/lemesnil/chemin/9"/><trkseg>
<trkpt lat="50.025094" lon="4.670807"><time>2026-05-06T18:41:11Z</time></trkpt>
<trkpt lat="50.024844" lon="4.670149"><time>2026-05-06T18:51:11Z</time></trkpt>
<trkpt lat="50.024757" lon="4.669228"><time>2026-05-06T19:01:11Z</time></trkpt>
<trkpt lat="50.024858" lon="4.668224"><time>2026-05-06T19:11:11Z</time></trkpt>
<trkpt lat="50.025165" lon="4.667695"><time>2026-05-06T19:21:11Z</time></trkpt>
<trkpt lat="50.025283" lon="4.667221"><time>2026-05-06T19:31:11Z</time></trkpt>
<trkpt lat="50.025333" lon="4.665505"><time>2026-05-06T19:41:11Z</time></trkpt>
<trkpt lat="50.025095" lon="4.663648"><time>2026-05-06T19:51:11Z</time></trkpt>
<trkpt lat="50.024697" lon="4.661119"><time>2026-05-06T20:01:11Z</time></trkpt>
<trkpt lat="50.024681" lon="4.660198"><time>2026-05-06T20:11:11Z</time></trkpt>
<trkpt lat="50.024585" lon="4.659221"><time>2026-05-06T20:21:11Z</time></trkpt>
</trkseg>
</trk>
<trk>
<name>nvvmsi1</name>
<cmt>v</cmt>
<desc>Le Mesnil Chemin n°i1 Voye des Cravates</desc>
<link href="https://chemins.be/lemesnil/chemin/i1"/><trkseg>
<trkpt lat="50.041432" lon="4.673563"><time>2026-05-06T18:41:11Z</time></trkpt>
<trkpt lat="50.042570" lon="4.674896"><time>2026-05-06T18:51:11Z</time></trkpt>
<trkpt lat="50.043239" lon="4.677078"><time>2026-05-06T19:01:11Z</time></trkpt>
</trkseg>
</trk>
<trk>
<name>nvvmsi10</name>
<cmt>v</cmt>
<desc>Le Mesnil Chemin n°i10 </desc>
<link href="https://chemins.be/lemesnil/chemin/i10"/><trkseg>
<trkpt lat="50.012626" lon="4.687115"><time>2026-05-06T18:41:11Z</time></trkpt>
<trkpt lat="50.010972" lon="4.684635"><time>2026-05-06T18:51:11Z</time></trkpt>
</trkseg>
</trk>
<trk>
<name>nvvmsi11</name>
<cmt>v</cmt>
<desc>Le Mesnil Sentier n°i11 </desc>
<link href="https://chemins.be/lemesnil/sentier/i11"/><trkseg>
<trkpt lat="50.008181" lon="4.682970"><time>2026-05-06T18:41:11Z</time></trkpt>
<trkpt lat="50.008081" lon="4.684429"><time>2026-05-06T18:51:11Z</time></trkpt>
<trkpt lat="50.008142" lon="4.685072"><time>2026-05-06T19:01:11Z</time></trkpt>
</trkseg>
</trk>
<trk>
<name>nvvmsi12</name>
<cmt>v</cmt>
<desc>Le Mesnil Chemin n°i12 </desc>
<link href="https://chemins.be/lemesnil/chemin/i12"/><trkseg>
<trkpt lat="50.038063" lon="4.662293"><time>2026-05-06T18:41:11Z</time></trkpt>
<trkpt lat="50.036360" lon="4.659465"><time>2026-05-06T18:51:11Z</time></trkpt>
<trkpt lat="50.033361" lon="4.656169"><time>2026-05-06T19:01:11Z</time></trkpt>
<trkpt lat="50.032788" lon="4.655300"><time>2026-05-06T19:11:11Z</time></trkpt>
</trkseg>
</trk>
<trk>
<name>nvvmsi2</name>
<cmt>v</cmt>
<desc>Le Mesnil Chemin n°i2 </desc>
<link href="https://chemins.be/lemesnil/chemin/i2"/><trkseg>
<trkpt lat="50.034406" lon="4.671689"><time>2026-05-06T18:41:11Z</time></trkpt>
<trkpt lat="50.035913" lon="4.669800"><time>2026-05-06T18:51:11Z</time></trkpt>
<trkpt lat="50.036031" lon="4.669341"><time>2026-05-06T19:01:11Z</time></trkpt>
<trkpt lat="50.036325" lon="4.666774"><time>2026-05-06T19:11:11Z</time></trkpt>
<trkpt lat="50.036416" lon="4.666454"><time>2026-05-06T19:21:11Z</time></trkpt>
</trkseg>
</trk>
<trk>
<name>nvvmsi3</name>
<cmt>v</cmt>
<desc>Le Mesnil Chemin n°i3 </desc>
<link href="https://chemins.be/lemesnil/chemin/i3"/><trkseg>
<trkpt lat="50.024091" lon="4.676048"><time>2026-05-06T18:41:11Z</time></trkpt>
<trkpt lat="50.024708" lon="4.677601"><time>2026-05-06T18:51:11Z</time></trkpt>
<trkpt lat="50.025424" lon="4.678764"><time>2026-05-06T19:01:11Z</time></trkpt>
<trkpt lat="50.025527" lon="4.680272"><time>2026-05-06T19:11:11Z</time></trkpt>
<trkpt lat="50.025831" lon="4.680999"><time>2026-05-06T19:21:11Z</time></trkpt>
<trkpt lat="50.026852" lon="4.682639"><time>2026-05-06T19:31:11Z</time></trkpt>
</trkseg>
</trk>
<trk>
<name>nvvmsi4</name>
<cmt>v</cmt>
<desc>Le Mesnil Chemin n°i4 Sentier frontalier</desc>
<link href="https://chemins.be/lemesnil/chemin/i4"/><trkseg>
<trkpt lat="50.023100" lon="4.686856"><time>2026-05-06T18:41:11Z</time></trkpt>
<trkpt lat="50.022084" lon="4.686249"><time>2026-05-06T18:51:11Z</time></trkpt>
<trkpt lat="50.021798" lon="4.686192"><time>2026-05-06T19:01:11Z</time></trkpt>
<trkpt lat="50.020999" lon="4.685880"><time>2026-05-06T19:11:11Z</time></trkpt>
<trkpt lat="50.020513" lon="4.686016"><time>2026-05-06T19:21:11Z</time></trkpt>
<trkpt lat="50.018902" lon="4.686466"><time>2026-05-06T19:31:11Z</time></trkpt>
<trkpt lat="50.017353" lon="4.686186"><time>2026-05-06T19:41:11Z</time></trkpt>
</trkseg></trk>
<trk>
<name>nvvmsi4</name>
<cmt>d</cmt>
<desc>Le Mesnil Chemin n°i4 Sentier frontalier</desc>
<link href="https://chemins.be/lemesnil/chemin/i4"/><trkseg>
<trkpt lat="50.017353" lon="4.686186"><time>2026-05-06T19:41:11Z</time></trkpt>
<trkpt lat="50.015541" lon="4.686150"><time>2026-05-06T19:51:11Z</time></trkpt>
</trkseg></trk>
<trk>
<name>nvvmsi4</name>
<cmt>v</cmt>
<desc>Le Mesnil Chemin n°i4 Sentier frontalier</desc>
<link href="https://chemins.be/lemesnil/chemin/i4"/><trkseg>
<trkpt lat="50.015541" lon="4.686150"><time>2026-05-06T19:51:11Z</time></trkpt>
<trkpt lat="50.013587" lon="4.686235"><time>2026-05-06T20:01:11Z</time></trkpt>
<trkpt lat="50.012661" lon="4.687136"><time>2026-05-06T20:11:11Z</time></trkpt>
<trkpt lat="50.011262" lon="4.688888"><time>2026-05-06T20:21:11Z</time></trkpt>
<trkpt lat="50.008062" lon="4.684974"><time>2026-05-06T20:31:11Z</time></trkpt>
</trkseg>
</trk>
<trk>
<name>nvvmsi5</name>
<cmt>v</cmt>
<desc>Le Mesnil Chemin n°i5 </desc>
<link href="https://chemins.be/lemesnil/chemin/i5"/><trkseg>
<trkpt lat="50.026051" lon="4.669515"><time>2026-05-06T18:41:11Z</time></trkpt>
<trkpt lat="50.025264" lon="4.667584"><time>2026-05-06T18:51:11Z</time></trkpt>
</trkseg>
</trk>
<trk>
<name>nvvmsi6</name>
<cmt>v</cmt>
<desc>Le Mesnil Sentier n°i6 </desc>
<link href="https://chemins.be/lemesnil/sentier/i6"/><trkseg>
<trkpt lat="50.036293" lon="4.685674"><time>2026-05-06T18:41:11Z</time></trkpt>
<trkpt lat="50.036878" lon="4.685203"><time>2026-05-06T18:51:11Z</time></trkpt>
<trkpt lat="50.037500" lon="4.684593"><time>2026-05-06T19:01:11Z</time></trkpt>
<trkpt lat="50.037915" lon="4.684373"><time>2026-05-06T19:11:11Z</time></trkpt>
<trkpt lat="50.038346" lon="4.684250"><time>2026-05-06T19:21:11Z</time></trkpt>
<trkpt lat="50.038670" lon="4.684210"><time>2026-05-06T19:31:11Z</time></trkpt>
<trkpt lat="50.039191" lon="4.684381"><time>2026-05-06T19:41:11Z</time></trkpt>
<trkpt lat="50.039281" lon="4.684479"><time>2026-05-06T19:51:11Z</time></trkpt>
<trkpt lat="50.039244" lon="4.684689"><time>2026-05-06T20:01:11Z</time></trkpt>
<trkpt lat="50.038816" lon="4.686640"><time>2026-05-06T20:11:11Z</time></trkpt>
<trkpt lat="50.038524" lon="4.688481"><time>2026-05-06T20:21:11Z</time></trkpt>
<trkpt lat="50.038998" lon="4.692281"><time>2026-05-06T20:31:11Z</time></trkpt>
<trkpt lat="50.039258" lon="4.692618"><time>2026-05-06T20:41:11Z</time></trkpt>
</trkseg>
</trk>
<trk>
<name>nvvmsi7</name>
<cmt>v</cmt>
<desc>Le Mesnil Chemin n°i7 </desc>
<link href="https://chemins.be/lemesnil/chemin/i7"/><trkseg>
<trkpt lat="50.024607" lon="4.659197"><time>2026-05-06T18:41:11Z</time></trkpt>
<trkpt lat="50.025725" lon="4.658939"><time>2026-05-06T18:51:11Z</time></trkpt>
<trkpt lat="50.026045" lon="4.658683"><time>2026-05-06T19:01:11Z</time></trkpt>
<trkpt lat="50.026457" lon="4.658269"><time>2026-05-06T19:11:11Z</time></trkpt>
<trkpt lat="50.027052" lon="4.658013"><time>2026-05-06T19:21:11Z</time></trkpt>
<trkpt lat="50.027920" lon="4.657682"><time>2026-05-06T19:31:11Z</time></trkpt>
<trkpt lat="50.030254" lon="4.656409"><time>2026-05-06T19:41:11Z</time></trkpt>
<trkpt lat="50.030510" lon="4.656096"><time>2026-05-06T19:51:11Z</time></trkpt>
<trkpt lat="50.030849" lon="4.655783"><time>2026-05-06T20:01:11Z</time></trkpt>
<trkpt lat="50.032881" lon="4.655373"><time>2026-05-06T20:11:11Z</time></trkpt>
</trkseg>
</trk>
<trk>
<name>nvvmsi8</name>
<cmt>v</cmt>
<desc>Le Mesnil Chemin n°i8 Rue de la Carrière</desc>
<link href="https://chemins.be/lemesnil/chemin/i8"/><trkseg>
<trkpt lat="50.017644" lon="4.662980"><time>2026-05-06T18:41:11Z</time></trkpt>
<trkpt lat="50.017779" lon="4.663747"><time>2026-05-06T18:51:11Z</time></trkpt>
<trkpt lat="50.017983" lon="4.667124"><time>2026-05-06T19:01:11Z</time></trkpt>
<trkpt lat="50.016559" lon="4.670843"><time>2026-05-06T19:11:11Z</time></trkpt>
<trkpt lat="50.016365" lon="4.672640"><time>2026-05-06T19:21:11Z</time></trkpt>
<trkpt lat="50.016459" lon="4.674035"><time>2026-05-06T19:31:11Z</time></trkpt>
<trkpt lat="50.016276" lon="4.674842"><time>2026-05-06T19:41:11Z</time></trkpt>
<trkpt lat="50.016439" lon="4.675394"><time>2026-05-06T19:51:11Z</time></trkpt>
<trkpt lat="50.016546" lon="4.676332"><time>2026-05-06T20:01:11Z</time></trkpt>
<trkpt lat="50.016773" lon="4.677590"><time>2026-05-06T20:11:11Z</time></trkpt>
<trkpt lat="50.016719" lon="4.678091"><time>2026-05-06T20:21:11Z</time></trkpt>
<trkpt lat="50.018267" lon="4.683575"><time>2026-05-06T20:31:11Z</time></trkpt>
<trkpt lat="50.019125" lon="4.684624"><time>2026-05-06T20:41:11Z</time></trkpt>
</trkseg>
</trk>
<trk>
<name>nvvmsi9</name>
<cmt>v</cmt>
<desc>Le Mesnil Chemin n°i9 </desc>
<link href="https://chemins.be/lemesnil/chemin/i9"/><trkseg>
<trkpt lat="50.022044" lon="4.686318"><time>2026-05-06T18:41:11Z</time></trkpt>
<trkpt lat="50.020803" lon="4.684143"><time>2026-05-06T18:51:11Z</time></trkpt>
<trkpt lat="50.020402" lon="4.683632"><time>2026-05-06T19:01:11Z</time></trkpt>
</trkseg>
</trk>
<trk>
<name>nvvmz10</name>
<cmt>r</cmt>
<desc>Mazée Chemin n°10 Rue André Renard</desc>
<link href="https://chemins.be/mazee/chemin/10"/><trkseg>
<trkpt lat="50.100681" lon="4.693147"><time>2026-05-06T18:41:11Z</time></trkpt>
<trkpt lat="50.100403" lon="4.692866"><time>2026-05-06T18:51:11Z</time></trkpt>
<trkpt lat="50.099702" lon="4.692875"><time>2026-05-06T19:01:11Z</time></trkpt>
<trkpt lat="50.098327" lon="4.692782"><time>2026-05-06T19:11:11Z</time></trkpt>
<trkpt lat="50.097320" lon="4.692635"><time>2026-05-06T19:21:11Z</time></trkpt>
<trkpt lat="50.096987" lon="4.692870"><time>2026-05-06T19:31:11Z</time></trkpt>
<trkpt lat="50.095801" lon="4.692708"><time>2026-05-06T19:41:11Z</time></trkpt>
</trkseg>
</trk>
<trk>
<name>nvvmz11</name>
<cmt>v</cmt>
<desc>Mazée Chemin n°11 </desc>
<link href="https://chemins.be/mazee/chemin/11"/><trkseg>
<trkpt lat="50.056175" lon="4.675584"><time>2026-05-06T18:41:11Z</time></trkpt>
<trkpt lat="50.058255" lon="4.679393"><time>2026-05-06T18:51:11Z</time></trkpt>
<trkpt lat="50.059158" lon="4.682472"><time>2026-05-06T19:01:11Z</time></trkpt>
<trkpt lat="50.060439" lon="4.684532"><time>2026-05-06T19:11:11Z</time></trkpt>
<trkpt lat="50.060755" lon="4.685605"><time>2026-05-06T19:21:11Z</time></trkpt>
</trkseg>
</trk>
<trk>
<name>nvvmz12</name>
<cmt>v</cmt>
<desc>Mazée Chemin n°12 </desc>
<link href="https://chemins.be/mazee/chemin/12"/><trkseg>
<trkpt lat="50.074873" lon="4.678722"><time>2026-05-06T18:41:11Z</time></trkpt>
<trkpt lat="50.076119" lon="4.683159"><time>2026-05-06T18:51:11Z</time></trkpt>
<trkpt lat="50.076242" lon="4.684277"><time>2026-05-06T19:01:11Z</time></trkpt>
<trkpt lat="50.075990" lon="4.687642"><time>2026-05-06T19:11:11Z</time></trkpt>
</trkseg>
</trk>
<trk>
<name>nvvmz13</name>
<cmt>v</cmt>
<desc>Mazée Chemin n°13 </desc>
<link href="https://chemins.be/mazee/chemin/13"/><trkseg>
<trkpt lat="50.110084" lon="4.706325"><time>2026-05-06T18:41:11Z</time></trkpt>
<trkpt lat="50.109732" lon="4.706546"><time>2026-05-06T18:51:11Z</time></trkpt>
</trkseg>
</trk>
<trk>
<name>nvvmz14</name>
<cmt>r</cmt>
<desc>Mazée Chemin n°14 Rue du Château</desc>
<link href="https://chemins.be/mazee/chemin/14"/><trkseg>
<trkpt lat="50.099675" lon="4.692958"><time>2026-05-06T18:41:11Z</time></trkpt>
<trkpt lat="50.099584" lon="4.693209"><time>2026-05-06T18:51:11Z</time></trkpt>
<trkpt lat="50.099592" lon="4.693741"><time>2026-05-06T19:01:11Z</time></trkpt>
</trkseg>
</trk>
<trk>
<name>nvvmz15</name>
<cmt>r</cmt>
<desc>Mazée Chemin n°15 Rue du Château</desc>
<link href="https://chemins.be/mazee/chemin/15"/><trkseg>
<trkpt lat="50.100980" lon="4.695707"><time>2026-05-06T18:41:11Z</time></trkpt>
<trkpt lat="50.100506" lon="4.694739"><time>2026-05-06T18:51:11Z</time></trkpt>
<trkpt lat="50.099968" lon="4.694260"><time>2026-05-06T19:01:11Z</time></trkpt>
<trkpt lat="50.099789" lon="4.693952"><time>2026-05-06T19:11:11Z</time></trkpt>
<trkpt lat="50.099601" lon="4.693783"><time>2026-05-06T19:21:11Z</time></trkpt>
</trkseg>
</trk>
<trk>
<name>nvvmz16</name>
<cmt>r</cmt>
<desc>Mazée Chemin n°16 Rue du Château</desc>
<link href="https://chemins.be/mazee/chemin/16"/><trkseg>
<trkpt lat="50.100718" lon="4.696208"><time>2026-05-06T18:41:11Z</time></trkpt>
<trkpt lat="50.100360" lon="4.695605"><time>2026-05-06T18:51:11Z</time></trkpt>
</trkseg></trk>
<trk>
<name>nvvmz16</name>
<cmt>v</cmt>
<desc>Mazée Chemin n°16 Rue du Château</desc>
<link href="https://chemins.be/mazee/chemin/16"/><trkseg>
<trkpt lat="50.100360" lon="4.695605"><time>2026-05-06T18:51:11Z</time></trkpt>
<trkpt lat="50.099695" lon="4.695251"><time>2026-05-06T19:01:11Z</time></trkpt>
<trkpt lat="50.099023" lon="4.694408"><time>2026-05-06T19:11:11Z</time></trkpt>
</trkseg>
</trk>
<trk>
<name>nvvmz17</name>
<cmt>r</cmt>
<desc>Mazée Chemin n°17 Rue des Casernes</desc>
<link href="https://chemins.be/mazee/chemin/17"/><trkseg>
<trkpt lat="50.100848" lon="4.697621"><time>2026-05-06T18:41:11Z</time></trkpt>
<trkpt lat="50.100751" lon="4.697257"><time>2026-05-06T18:51:11Z</time></trkpt>
<trkpt lat="50.100582" lon="4.696375"><time>2026-05-06T19:01:11Z</time></trkpt>
</trkseg>
</trk>
<trk>
<name>nvvmz18</name>
<cmt>r</cmt>
<desc>Mazée Chemin n°18 Ruelle des Jardiniers</desc>
<link href="https://chemins.be/mazee/chemin/18"/><trkseg>
<trkpt lat="50.100736" lon="4.696167"><time>2026-05-06T18:41:11Z</time></trkpt>
<trkpt lat="50.101128" lon="4.697315"><time>2026-05-06T18:51:11Z</time></trkpt>
</trkseg>
</trk>
<trk>
<name>nvvmz19</name>
<cmt>r</cmt>
<desc>Mazée Chemin n°19 Rue du Château</desc>
<link href="https://chemins.be/mazee/chemin/19"/><trkseg>
<trkpt lat="50.100622" lon="4.695048"><time>2026-05-06T18:41:11Z</time></trkpt>
<trkpt lat="50.100360" lon="4.695507"><time>2026-05-06T18:51:11Z</time></trkpt>
</trkseg>
</trk>
<trk>
<name>nvvmz20</name>
<cmt>r</cmt>
<desc>Mazée Chemin n°20 Rue des Casernes</desc>
<link href="https://chemins.be/mazee/chemin/20"/><trkseg>
<trkpt lat="50.101060" lon="4.695833"><time>2026-05-06T18:41:11Z</time></trkpt>
<trkpt lat="50.100582" lon="4.696375"><time>2026-05-06T18:51:11Z</time></trkpt>
</trkseg></trk>
<trk>
<name>nvvmz20</name>
<cmt>v</cmt>
<desc>Mazée Chemin n°20 Rue des Casernes</desc>
<link href="https://chemins.be/mazee/chemin/20"/><trkseg>
<trkpt lat="50.100582" lon="4.696375"><time>2026-05-06T18:51:11Z</time></trkpt>
<trkpt lat="50.100303" lon="4.696639"><time>2026-05-06T19:01:11Z</time></trkpt>
<trkpt lat="50.100059" lon="4.696861"><time>2026-05-06T19:11:11Z</time></trkpt>
<trkpt lat="50.099744" lon="4.697026"><time>2026-05-06T19:21:11Z</time></trkpt>
</trkseg>
</trk>
<trk>
<name>nvvmz21</name>
<cmt>v</cmt>
<desc>Mazée Chemin n°21 </desc>
<link href="https://chemins.be/mazee/chemin/21"/><trkseg>
<trkpt lat="50.099565" lon="4.696676"><time>2026-05-06T18:41:11Z</time></trkpt>
<trkpt lat="50.099827" lon="4.696244"><time>2026-05-06T18:51:11Z</time></trkpt>
</trkseg>
</trk>
<trk>
<name>nvvmz22</name>
<cmt>v</cmt>
<desc>Mazée Chemin n°22 </desc>
<link href="https://chemins.be/mazee/chemin/22"/><trkseg>
<trkpt lat="50.100610" lon="4.695942"><time>2026-05-06T18:41:11Z</time></trkpt>
<trkpt lat="50.100800" lon="4.695692"><time>2026-05-06T18:51:11Z</time></trkpt>
</trkseg>
</trk>
<trk>
<name>nvvmz23</name>
<cmt>r</cmt>
<desc>Mazée Chemin n°23 Voye à Toine</desc>
<link href="https://chemins.be/mazee/chemin/23"/><trkseg>
<trkpt lat="50.101633" lon="4.696732"><time>2026-05-06T18:41:11Z</time></trkpt>
<trkpt lat="50.101453" lon="4.697010"><time>2026-05-06T18:51:11Z</time></trkpt>
<trkpt lat="50.101326" lon="4.697079"><time>2026-05-06T19:01:11Z</time></trkpt>
</trkseg>
</trk>
<trk>
<name>nvvmz24</name>
<cmt>d</cmt>
<desc>Mazée Sentier n°24 </desc>
<link href="https://chemins.be/mazee/sentier/24"/><trkseg>
<trkpt lat="50.102448" lon="4.697758"><time>2026-05-06T18:41:11Z</time></trkpt>
<trkpt lat="50.103082" lon="4.697669"><time>2026-05-06T18:51:11Z</time></trkpt>
<trkpt lat="50.103690" lon="4.697585"><time>2026-05-06T19:01:11Z</time></trkpt>
<trkpt lat="50.104676" lon="4.698472"><time>2026-05-06T19:11:11Z</time></trkpt>
<trkpt lat="50.105562" lon="4.699974"><time>2026-05-06T19:21:11Z</time></trkpt>
<trkpt lat="50.106399" lon="4.699560"><time>2026-05-06T19:31:11Z</time></trkpt>
</trkseg></trk>
<trk>
<name>nvvmz24</name>
<cmt>v</cmt>
<desc>Mazée Sentier n°24 </desc>
<link href="https://chemins.be/mazee/sentier/24"/><trkseg>
<trkpt lat="50.106399" lon="4.699560"><time>2026-05-06T19:31:11Z</time></trkpt>
<trkpt lat="50.108699" lon="4.700066"><time>2026-05-06T19:41:11Z</time></trkpt>
</trkseg></trk>
<trk>
<name>nvvmz24</name>
<cmt>s</cmt>
<desc>Mazée Sentier n°24 </desc>
<link href="https://chemins.be/mazee/sentier/24"/><trkseg>
<trkpt lat="50.108699" lon="4.700066"><time>2026-05-06T19:41:11Z</time></trkpt>
<trkpt lat="50.111536" lon="4.701651"><time>2026-05-06T19:51:11Z</time></trkpt>
</trkseg>
</trk>
<trk>
<name>nvvmz25</name>
<cmt>v</cmt>
<desc>Mazée Sentier n°25 </desc>
<link href="https://chemins.be/mazee/sentier/25"/><trkseg>
<trkpt lat="50.100565" lon="4.699198"><time>2026-05-06T18:41:11Z</time></trkpt>
<trkpt lat="50.100483" lon="4.699533"><time>2026-05-06T18:51:11Z</time></trkpt>
<trkpt lat="50.100428" lon="4.700022"><time>2026-05-06T19:01:11Z</time></trkpt>
<trkpt lat="50.100564" lon="4.702749"><time>2026-05-06T19:11:11Z</time></trkpt>
<trkpt lat="50.100142" lon="4.705485"><time>2026-05-06T19:21:11Z</time></trkpt>
<trkpt lat="50.100114" lon="4.705891"><time>2026-05-06T19:31:11Z</time></trkpt>
</trkseg></trk>
<trk>
<name>nvvmz25</name>
<cmt>q</cmt>
<desc>Mazée Sentier n°25 </desc>
<link href="https://chemins.be/mazee/sentier/25"/><trkseg>
<trkpt lat="50.100114" lon="4.705891"><time>2026-05-06T19:31:11Z</time></trkpt>
<trkpt lat="50.099462" lon="4.710485"><time>2026-05-06T19:41:11Z</time></trkpt>
<trkpt lat="50.099944" lon="4.714821"><time>2026-05-06T19:51:11Z</time></trkpt>
</trkseg>
</trk>
<trk>
<name>nvvmz26</name>
<cmt>v</cmt>
<desc>Mazée Sentier n°26 </desc>
<link href="https://chemins.be/mazee/sentier/26"/><trkseg>
<trkpt lat="50.100907" lon="4.699019"><time>2026-05-06T18:41:11Z</time></trkpt>
<trkpt lat="50.100682" lon="4.699255"><time>2026-05-06T18:51:11Z</time></trkpt>
<trkpt lat="50.098743" lon="4.698110"><time>2026-05-06T19:01:11Z</time></trkpt>
<trkpt lat="50.097860" lon="4.698914"><time>2026-05-06T19:11:11Z</time></trkpt>
<trkpt lat="50.097527" lon="4.698856"><time>2026-05-06T19:21:11Z</time></trkpt>
<trkpt lat="50.097204" lon="4.698868"><time>2026-05-06T19:31:11Z</time></trkpt>
<trkpt lat="50.096573" lon="4.699185"><time>2026-05-06T19:41:11Z</time></trkpt>
<trkpt lat="50.096052" lon="4.699251"><time>2026-05-06T19:51:11Z</time></trkpt>
<trkpt lat="50.095778" lon="4.700521"><time>2026-05-06T20:01:11Z</time></trkpt>
<trkpt lat="50.095540" lon="4.702057"><time>2026-05-06T20:11:11Z</time></trkpt>
</trkseg>
</trk>
<trk>
<name>nvvmz27</name>
<cmt>v</cmt>
<desc>Mazée Sentier n°27 </desc>
<link href="https://chemins.be/mazee/sentier/27"/><trkseg>
<trkpt lat="50.099690" lon="4.696998"><time>2026-05-06T18:41:11Z</time></trkpt>
<trkpt lat="50.098618" lon="4.697843"><time>2026-05-06T18:51:11Z</time></trkpt>
</trkseg>
</trk>
<trk>
<name>nvvmz28</name>
<cmt>s</cmt>
<desc>Mazée Sentier n°28 </desc>
<link href="https://chemins.be/mazee/sentier/28"/><trkseg>
<trkpt lat="50.107719" lon="4.688721"><time>2026-05-06T18:41:11Z</time></trkpt>
<trkpt lat="50.106554" lon="4.689022"><time>2026-05-06T18:51:11Z</time></trkpt>
</trkseg></trk>
<trk>
<name>nvvmz28</name>
<cmt>q</cmt>
<desc>Mazée Sentier n°28 </desc>
<link href="https://chemins.be/mazee/sentier/28"/><trkseg>
<trkpt lat="50.106554" lon="4.689022"><time>2026-05-06T18:51:11Z</time></trkpt>
<trkpt lat="50.105889" lon="4.689866"><time>2026-05-06T19:01:11Z</time></trkpt>
<trkpt lat="50.104985" lon="4.690772"><time>2026-05-06T19:11:11Z</time></trkpt>
<trkpt lat="50.103759" lon="4.692161"><time>2026-05-06T19:21:11Z</time></trkpt>
</trkseg>
</trk>
<trk>
<name>nvvmz29</name>
<cmt>v</cmt>
<desc>Mazée Sentier n°29 </desc>
<link href="https://chemins.be/mazee/sentier/29"/><trkseg>
<trkpt lat="50.099050" lon="4.694394"><time>2026-05-06T18:41:11Z</time></trkpt>
<trkpt lat="50.098143" lon="4.694136"><time>2026-05-06T18:51:11Z</time></trkpt>
<trkpt lat="50.095935" lon="4.692751"><time>2026-05-06T19:01:11Z</time></trkpt>
</trkseg>
</trk>
<trk>
<name>nvvmz30</name>
<cmt>q</cmt>
<desc>Mazée Sentier n°30 </desc>
<link href="https://chemins.be/mazee/sentier/30"/><trkseg>
<trkpt lat="50.101818" lon="4.685145"><time>2026-05-06T18:41:11Z</time></trkpt>
<trkpt lat="50.102670" lon="4.685934"><time>2026-05-06T18:51:11Z</time></trkpt>
<trkpt lat="50.103728" lon="4.686947"><time>2026-05-06T19:01:11Z</time></trkpt>
<trkpt lat="50.105381" lon="4.687629"><time>2026-05-06T19:11:11Z</time></trkpt>
</trkseg></trk>
<trk>
<name>nvvmz30</name>
<cmt>r</cmt>
<desc>Mazée Sentier n°30 </desc>
<link href="https://chemins.be/mazee/sentier/30"/><trkseg>
<trkpt lat="50.105381" lon="4.687629"><time>2026-05-06T19:11:11Z</time></trkpt>
<trkpt lat="50.107279" lon="4.688242"><time>2026-05-06T19:21:11Z</time></trkpt>
<trkpt lat="50.108612" lon="4.689566"><time>2026-05-06T19:31:11Z</time></trkpt>
<trkpt lat="50.110142" lon="4.692247"><time>2026-05-06T19:41:11Z</time></trkpt>
<trkpt lat="50.110582" lon="4.692445"><time>2026-05-06T19:51:11Z</time></trkpt>
</trkseg>
</trk>
<trk>
<name>nvvmz31</name>
<cmt>v</cmt>
<desc>Mazée Sentier n°31 </desc>
<link href="https://chemins.be/mazee/sentier/31"/><trkseg>
<trkpt lat="50.099702" lon="4.692861"><time>2026-05-06T18:41:11Z</time></trkpt>
<trkpt lat="50.099722" lon="4.692288"><time>2026-05-06T18:51:11Z</time></trkpt>
<trkpt lat="50.099912" lon="4.691674"><time>2026-05-06T19:01:11Z</time></trkpt>
</trkseg>
</trk>
<trk>
<name>nvvmz4</name>
<cmt>r</cmt>
<desc>Mazée Chemin n°4 Rue du Moulin</desc>
<link href="https://chemins.be/mazee/chemin/4"/><trkseg>
<trkpt lat="50.100655" lon="4.699087"><time>2026-05-06T18:41:11Z</time></trkpt>
<trkpt lat="50.099672" lon="4.697068"><time>2026-05-06T18:51:11Z</time></trkpt>
<trkpt lat="50.099047" lon="4.695582"><time>2026-05-06T19:01:11Z</time></trkpt>
<trkpt lat="50.095942" lon="4.693394"><time>2026-05-06T19:11:11Z</time></trkpt>
<trkpt lat="50.095487" lon="4.692147"><time>2026-05-06T19:21:11Z</time></trkpt>
<trkpt lat="50.094591" lon="4.691219"><time>2026-05-06T19:31:11Z</time></trkpt>
</trkseg>
</trk>
<trk>
<name>nvvmz5</name>
<cmt>r</cmt>
<desc>Mazée Chemin n°5 Rue de Niémont / Rue de la Saute</desc>
<link href="https://chemins.be/mazee/chemin/5"/><trkseg>
<trkpt lat="50.105183" lon="4.713626"><time>2026-05-06T18:41:11Z</time></trkpt>
<trkpt lat="50.105776" lon="4.712872"><time>2026-05-06T18:51:11Z</time></trkpt>
<trkpt lat="50.106840" lon="4.711754"><time>2026-05-06T19:01:11Z</time></trkpt>
<trkpt lat="50.107438" lon="4.710052"><time>2026-05-06T19:11:11Z</time></trkpt>
<trkpt lat="50.107265" lon="4.707940"><time>2026-05-06T19:21:11Z</time></trkpt>
<trkpt lat="50.106501" lon="4.704720"><time>2026-05-06T19:31:11Z</time></trkpt>
<trkpt lat="50.106558" lon="4.703839"><time>2026-05-06T19:41:11Z</time></trkpt>
<trkpt lat="50.106453" lon="4.702734"><time>2026-05-06T19:51:11Z</time></trkpt>
<trkpt lat="50.106429" lon="4.701588"><time>2026-05-06T20:01:11Z</time></trkpt>
<trkpt lat="50.106272" lon="4.696792"><time>2026-05-06T20:11:11Z</time></trkpt>
</trkseg></trk>
<trk>
<name>nvvmz5</name>
<cmt>v</cmt>
<desc>Mazée Chemin n°5 Rue de Niémont / Rue de la Saute</desc>
<link href="https://chemins.be/mazee/chemin/5"/><trkseg>
<trkpt lat="50.106272" lon="4.696792"><time>2026-05-06T20:11:11Z</time></trkpt>
<trkpt lat="50.106494" lon="4.691299"><time>2026-05-06T20:21:11Z</time></trkpt>
<trkpt lat="50.106683" lon="4.688099"><time>2026-05-06T20:31:11Z</time></trkpt>
</trkseg></trk>
<trk>
<name>nvvmz5</name>
<cmt>s</cmt>
<desc>Mazée Chemin n°5 Rue de Niémont / Rue de la Saute</desc>
<link href="https://chemins.be/mazee/chemin/5"/><trkseg>
<trkpt lat="50.106683" lon="4.688099"><time>2026-05-06T20:31:11Z</time></trkpt>
<trkpt lat="50.106803" lon="4.687149"><time>2026-05-06T20:41:11Z</time></trkpt>
<trkpt lat="50.106762" lon="4.685765"><time>2026-05-06T20:51:11Z</time></trkpt>
</trkseg>
</trk>
<trk>
<name>nvvmz6</name>
<cmt>v</cmt>
<desc>Mazée Chemin n°6 </desc>
<link href="https://chemins.be/mazee/chemin/6"/><trkseg>
<trkpt lat="50.107367" lon="4.709828"><time>2026-05-06T18:41:11Z</time></trkpt>
<trkpt lat="50.107785" lon="4.708391"><time>2026-05-06T18:51:11Z</time></trkpt>
<trkpt lat="50.108281" lon="4.707947"><time>2026-05-06T19:01:11Z</time></trkpt>
<trkpt lat="50.109336" lon="4.706865"><time>2026-05-06T19:11:11Z</time></trkpt>
<trkpt lat="50.109723" lon="4.706560"><time>2026-05-06T19:21:11Z</time></trkpt>
</trkseg></trk>
<trk>
<name>nvvmz6</name>
<cmt>s</cmt>
<desc>Mazée Chemin n°6 </desc>
<link href="https://chemins.be/mazee/chemin/6"/><trkseg>
<trkpt lat="50.109723" lon="4.706560"><time>2026-05-06T19:21:11Z</time></trkpt>
<trkpt lat="50.110128" lon="4.706632"><time>2026-05-06T19:31:11Z</time></trkpt>
</trkseg>
</trk>
<trk>
<name>nvvmz7</name>
<cmt>r</cmt>
<desc>Mazée Chemin n°7 Rue de Treignes / Rue Grands-Champs</desc>
<link href="https://chemins.be/mazee/chemin/7"/><trkseg>
<trkpt lat="50.101387" lon="4.694899"><time>2026-05-06T18:41:11Z</time></trkpt>
<trkpt lat="50.102154" lon="4.693730"><time>2026-05-06T18:51:11Z</time></trkpt>
<trkpt lat="50.103317" lon="4.692801"><time>2026-05-06T19:01:11Z</time></trkpt>
<trkpt lat="50.103706" lon="4.691686"><time>2026-05-06T19:11:11Z</time></trkpt>
<trkpt lat="50.104771" lon="4.690169"><time>2026-05-06T19:21:11Z</time></trkpt>
<trkpt lat="50.105384" lon="4.687405"><time>2026-05-06T19:31:11Z</time></trkpt>
</trkseg></trk>
<trk>
<name>nvvmz7</name>
<cmt>v</cmt>
<desc>Mazée Chemin n°7 Rue de Treignes / Rue Grands-Champs</desc>
<link href="https://chemins.be/mazee/chemin/7"/><trkseg>
<trkpt lat="50.105384" lon="4.687405"><time>2026-05-06T19:31:11Z</time></trkpt>
<trkpt lat="50.106096" lon="4.685803"><time>2026-05-06T19:41:11Z</time></trkpt>
</trkseg>
</trk>
<trk>
<name>nvvmz8</name>
<cmt>s</cmt>
<desc>Mazée Chemin n°8 </desc>
<link href="https://chemins.be/mazee/chemin/8"/><trkseg>
<trkpt lat="50.106576" lon="4.691006"><time>2026-05-06T18:41:11Z</time></trkpt>
<trkpt lat="50.107815" lon="4.688624"><time>2026-05-06T18:51:11Z</time></trkpt>
</trkseg></trk>
<trk>
<name>nvvmz8</name>
<cmt>r</cmt>
<desc>Mazée Chemin n°8 </desc>
<link href="https://chemins.be/mazee/chemin/8"/><trkseg>
<trkpt lat="50.107815" lon="4.688624"><time>2026-05-06T18:51:11Z</time></trkpt>
<trkpt lat="50.108401" lon="4.687957"><time>2026-05-06T19:01:11Z</time></trkpt>
<trkpt lat="50.110681" lon="4.686001"><time>2026-05-06T19:11:11Z</time></trkpt>
<trkpt lat="50.111752" lon="4.685477"><time>2026-05-06T19:21:11Z</time></trkpt>
</trkseg>
</trk>
<trk>
<name>nvvmz9</name>
<cmt>r</cmt>
<desc>Mazée Chemin n°9 Rue de la Gare / Rue de Najauge</desc>
<link href="https://chemins.be/mazee/chemin/9"/><trkseg>
<trkpt lat="50.093693" lon="4.687523"><time>2026-05-06T18:41:11Z</time></trkpt>
<trkpt lat="50.094192" lon="4.689287"><time>2026-05-06T18:51:11Z</time></trkpt>
<trkpt lat="50.094439" lon="4.691078"><time>2026-05-06T19:01:11Z</time></trkpt>
<trkpt lat="50.094473" lon="4.694684"><time>2026-05-06T19:11:11Z</time></trkpt>
<trkpt lat="50.093990" lon="4.696973"><time>2026-05-06T19:21:11Z</time></trkpt>
<trkpt lat="50.093799" lon="4.700885"><time>2026-05-06T19:31:11Z</time></trkpt>
</trkseg>
</trk>
<trk>
<name>nvvmzi1</name>
<cmt>r</cmt>
<desc>Mazée Chemin n°i1 Sentiers des Crêtes et des Fraudeurs / Rue du Tienne d'Aulne</desc>
<link href="https://chemins.be/mazee/chemin/i1"/><trkseg>
<trkpt lat="50.093817" lon="4.700899"><time>2026-05-06T18:41:11Z</time></trkpt>
<trkpt lat="50.093988" lon="4.700900"><time>2026-05-06T18:51:11Z</time></trkpt>
<trkpt lat="50.094391" lon="4.701308"><time>2026-05-06T19:01:11Z</time></trkpt>
<trkpt lat="50.094822" lon="4.701604"><time>2026-05-06T19:11:11Z</time></trkpt>
</trkseg></trk>
<trk>
<name>nvvmzi1</name>
<cmt>v</cmt>
<desc>Mazée Chemin n°i1 Sentiers des Crêtes et des Fraudeurs / Rue du Tienne d'Aulne</desc>
<link href="https://chemins.be/mazee/chemin/i1"/><trkseg>
<trkpt lat="50.094822" lon="4.701604"><time>2026-05-06T19:11:11Z</time></trkpt>
<trkpt lat="50.095549" lon="4.702085"><time>2026-05-06T19:21:11Z</time></trkpt>
<trkpt lat="50.096353" lon="4.704005"><time>2026-05-06T19:31:11Z</time></trkpt>
<trkpt lat="50.096450" lon="4.707724"><time>2026-05-06T19:41:11Z</time></trkpt>
<trkpt lat="50.096865" lon="4.710103"><time>2026-05-06T19:51:11Z</time></trkpt>
<trkpt lat="50.096772" lon="4.711080"><time>2026-05-06T20:01:11Z</time></trkpt>
<trkpt lat="50.096938" lon="4.712717"><time>2026-05-06T20:11:11Z</time></trkpt>
<trkpt lat="50.099082" lon="4.714409"><time>2026-05-06T20:21:11Z</time></trkpt>
</trkseg>
</trk>
<trk>
<name>nvvmzi10</name>
<cmt>v</cmt>
<desc>Mazée Chemin n°i10 </desc>
<link href="https://chemins.be/mazee/chemin/i10"/><trkseg>
<trkpt lat="50.093927" lon="4.696972"><time>2026-05-06T18:41:11Z</time></trkpt>
<trkpt lat="50.093685" lon="4.696915"><time>2026-05-06T18:51:11Z</time></trkpt>
<trkpt lat="50.093278" lon="4.697282"><time>2026-05-06T19:01:11Z</time></trkpt>
<trkpt lat="50.092022" lon="4.697732"><time>2026-05-06T19:11:11Z</time></trkpt>
<trkpt lat="50.090389" lon="4.697474"><time>2026-05-06T19:21:11Z</time></trkpt>
<trkpt lat="50.089413" lon="4.696950"><time>2026-05-06T19:31:11Z</time></trkpt>
<trkpt lat="50.088596" lon="4.696857"><time>2026-05-06T19:41:11Z</time></trkpt>
</trkseg>
</trk>
<trk>
<name>nvvmzi11</name>
<cmt>v</cmt>
<desc>Mazée Chemin n°i11 </desc>
<link href="https://chemins.be/mazee/chemin/i11"/><trkseg>
<trkpt lat="50.090501" lon="4.690459"><time>2026-05-06T18:41:11Z</time></trkpt>
<trkpt lat="50.090646" lon="4.690609"><time>2026-05-06T18:51:11Z</time></trkpt>
<trkpt lat="50.091513" lon="4.690850"><time>2026-05-06T19:01:11Z</time></trkpt>
<trkpt lat="50.092289" lon="4.691190"><time>2026-05-06T19:11:11Z</time></trkpt>
<trkpt lat="50.092429" lon="4.691670"><time>2026-05-06T19:21:11Z</time></trkpt>
<trkpt lat="50.092439" lon="4.692590"><time>2026-05-06T19:31:11Z</time></trkpt>
</trkseg>
</trk>
<trk>
<name>nvvmzi12</name>
<cmt>v</cmt>
<desc>Mazée Chemin n°i12 </desc>
<link href="https://chemins.be/mazee/chemin/i12"/><trkseg>
<trkpt lat="50.090008" lon="4.690335"><time>2026-05-06T18:41:11Z</time></trkpt>
<trkpt lat="50.091483" lon="4.690233"><time>2026-05-06T18:51:11Z</time></trkpt>
<trkpt lat="50.092094" lon="4.690489"><time>2026-05-06T19:01:11Z</time></trkpt>
</trkseg></trk>
<trk>
<name>nvvmzi12</name>
<cmt>q</cmt>
<desc>Mazée Chemin n°i12 </desc>
<link href="https://chemins.be/mazee/chemin/i12"/><trkseg>
<trkpt lat="50.092094" lon="4.690489"><time>2026-05-06T19:01:11Z</time></trkpt>
<trkpt lat="50.092391" lon="4.690309"><time>2026-05-06T19:11:11Z</time></trkpt>
<trkpt lat="50.092652" lon="4.690241"><time>2026-05-06T19:21:11Z</time></trkpt>
<trkpt lat="50.092902" lon="4.690788"><time>2026-05-06T19:31:11Z</time></trkpt>
</trkseg>
</trk>
<trk>
<name>nvvmzi13</name>
<cmt>v</cmt>
<desc>Mazée Sentier n°i13 </desc>
<link href="https://chemins.be/mazee/sentier/i13"/><trkseg>
<trkpt lat="50.100294" lon="4.696639"><time>2026-05-06T18:41:11Z</time></trkpt>
<trkpt lat="50.099971" lon="4.696217"><time>2026-05-06T18:51:11Z</time></trkpt>
<trkpt lat="50.099827" lon="4.696230"><time>2026-05-06T19:01:11Z</time></trkpt>
</trkseg>
</trk>
<trk>
<name>nvvmzi14</name>
<cmt>v</cmt>
<desc>Mazée Sentier n°i14 </desc>
<link href="https://chemins.be/mazee/sentier/i14"/><trkseg>
<trkpt lat="50.101609" lon="4.698730"><time>2026-05-06T18:41:11Z</time></trkpt>
<trkpt lat="50.102349" lon="4.697855"><time>2026-05-06T18:51:11Z</time></trkpt>
<trkpt lat="50.102511" lon="4.697856"><time>2026-05-06T19:01:11Z</time></trkpt>
<trkpt lat="50.102601" lon="4.697829"><time>2026-05-06T19:11:11Z</time></trkpt>
<trkpt lat="50.102816" lon="4.698110"><time>2026-05-06T19:21:11Z</time></trkpt>
<trkpt lat="50.103157" lon="4.698238"><time>2026-05-06T19:31:11Z</time></trkpt>
<trkpt lat="50.103759" lon="4.698396"><time>2026-05-06T19:41:11Z</time></trkpt>
<trkpt lat="50.104396" lon="4.699085"><time>2026-05-06T19:51:11Z</time></trkpt>
<trkpt lat="50.105784" lon="4.697669"><time>2026-05-06T20:01:11Z</time></trkpt>
<trkpt lat="50.106242" lon="4.697233"><time>2026-05-06T20:11:11Z</time></trkpt>
</trkseg>
</trk>
<trk>
<name>nvvmzi15</name>
<cmt>v</cmt>
<desc>Mazée Chemin n°i15 </desc>
<link href="https://chemins.be/mazee/chemin/i15"/><trkseg>
<trkpt lat="50.099904" lon="4.684979"><time>2026-05-06T18:41:11Z</time></trkpt>
<trkpt lat="50.100047" lon="4.685357"><time>2026-05-06T18:51:11Z</time></trkpt>
<trkpt lat="50.100874" lon="4.688466"><time>2026-05-06T19:01:11Z</time></trkpt>
<trkpt lat="50.100214" lon="4.689691"><time>2026-05-06T19:11:11Z</time></trkpt>
<trkpt lat="50.099503" lon="4.690064"><time>2026-05-06T19:21:11Z</time></trkpt>
</trkseg>
</trk>
<trk>
<name>nvvmzi16</name>
<cmt>v</cmt>
<desc>Mazée Sentier n°i16 </desc>
<link href="https://chemins.be/mazee/sentier/i16"/><trkseg>
<trkpt lat="50.099590" lon="4.694467"><time>2026-05-06T18:41:11Z</time></trkpt>
<trkpt lat="50.099491" lon="4.694299"><time>2026-05-06T18:51:11Z</time></trkpt>
<trkpt lat="50.099735" lon="4.693979"><time>2026-05-06T19:01:11Z</time></trkpt>
</trkseg>
</trk>
<trk>
<name>nvvmzi17</name>
<cmt>v</cmt>
<desc>Mazée Sentier n°i17 </desc>
<link href="https://chemins.be/mazee/sentier/i17"/><trkseg>
<trkpt lat="50.099733" lon="4.694678"><time>2026-05-06T18:41:11Z</time></trkpt>
<trkpt lat="50.099679" lon="4.694608"><time>2026-05-06T18:51:11Z</time></trkpt>
<trkpt lat="50.099590" lon="4.694481"><time>2026-05-06T19:01:11Z</time></trkpt>
<trkpt lat="50.099508" lon="4.694607"><time>2026-05-06T19:11:11Z</time></trkpt>
<trkpt lat="50.099140" lon="4.694534"><time>2026-05-06T19:21:11Z</time></trkpt>
</trkseg>
</trk>
<trk>
<name>nvvmzi18</name>
<cmt>v</cmt>
<desc>Mazée Sentier n°i18 </desc>
<link href="https://chemins.be/mazee/sentier/i18"/><trkseg>
<trkpt lat="50.101522" lon="4.694830"><time>2026-05-06T18:41:11Z</time></trkpt>
<trkpt lat="50.101999" lon="4.694442"><time>2026-05-06T18:51:11Z</time></trkpt>
<trkpt lat="50.102467" lon="4.694529"><time>2026-05-06T19:01:11Z</time></trkpt>
<trkpt lat="50.102121" lon="4.695855"><time>2026-05-06T19:11:11Z</time></trkpt>
<trkpt lat="50.102525" lon="4.695941"><time>2026-05-06T19:21:11Z</time></trkpt>
<trkpt lat="50.102980" lon="4.697356"><time>2026-05-06T19:31:11Z</time></trkpt>
<trkpt lat="50.103060" lon="4.697650"><time>2026-05-06T19:41:11Z</time></trkpt>
<trkpt lat="50.103184" lon="4.698238"><time>2026-05-06T19:51:11Z</time></trkpt>
<trkpt lat="50.103291" lon="4.698504"><time>2026-05-06T20:01:11Z</time></trkpt>
<trkpt lat="50.104089" lon="4.699433"><time>2026-05-06T20:11:11Z</time></trkpt>
<trkpt lat="50.104186" lon="4.699964"><time>2026-05-06T20:21:11Z</time></trkpt>
</trkseg>
</trk>
<trk>
<name>nvvmzi19</name>
<cmt>v</cmt>
<desc>Mazée Chemin n°i19 </desc>
<link href="https://chemins.be/mazee/chemin/i19"/><trkseg>
<trkpt lat="50.103491" lon="4.698739"><time>2026-05-06T18:41:11Z</time></trkpt>
<trkpt lat="50.103529" lon="4.698353"><time>2026-05-06T18:51:11Z</time></trkpt>
</trkseg>
</trk>
<trk>
<name>nvvmzi2</name>
<cmt>v</cmt>
<desc>Mazée Chemin n°i2 </desc>
<link href="https://chemins.be/mazee/chemin/i2"/><trkseg>
<trkpt lat="50.103253" lon="4.705563"><time>2026-05-06T18:41:11Z</time></trkpt>
<trkpt lat="50.103107" lon="4.706415"><time>2026-05-06T18:51:11Z</time></trkpt>
<trkpt lat="50.102907" lon="4.707154"><time>2026-05-06T19:01:11Z</time></trkpt>
<trkpt lat="50.102816" lon="4.707447"><time>2026-05-06T19:11:11Z</time></trkpt>
<trkpt lat="50.102149" lon="4.707890"><time>2026-05-06T19:21:11Z</time></trkpt>
<trkpt lat="50.101889" lon="4.707832"><time>2026-05-06T19:31:11Z</time></trkpt>
<trkpt lat="50.100697" lon="4.706314"><time>2026-05-06T19:41:11Z</time></trkpt>
<trkpt lat="50.100312" lon="4.706004"><time>2026-05-06T19:51:11Z</time></trkpt>
<trkpt lat="50.098933" lon="4.704107"><time>2026-05-06T20:01:11Z</time></trkpt>
<trkpt lat="50.098345" lon="4.702286"><time>2026-05-06T20:11:11Z</time></trkpt>
</trkseg>
</trk>
<trk>
<name>nvvmzi3</name>
<cmt>v</cmt>
<desc>Mazée Sentier n°i3 </desc>
<link href="https://chemins.be/mazee/sentier/i3"/><trkseg>
<trkpt lat="50.101924" lon="4.707958"><time>2026-05-06T18:41:11Z</time></trkpt>
<trkpt lat="50.101014" lon="4.708581"><time>2026-05-06T18:51:11Z</time></trkpt>
<trkpt lat="50.101733" lon="4.711703"><time>2026-05-06T19:01:11Z</time></trkpt>
<trkpt lat="50.098906" lon="4.713234"><time>2026-05-06T19:11:11Z</time></trkpt>
<trkpt lat="50.099100" lon="4.714410"><time>2026-05-06T19:21:11Z</time></trkpt>
</trkseg>
</trk>
<trk>
<name>nvvmzi4</name>
<cmt>v</cmt>
<desc>Mazée Chemin n°i4 </desc>
<link href="https://chemins.be/mazee/chemin/i4"/><trkseg>
<trkpt lat="50.098636" lon="4.697997"><time>2026-05-06T18:41:11Z</time></trkpt>
<trkpt lat="50.098333" lon="4.699910"><time>2026-05-06T18:51:11Z</time></trkpt>
<trkpt lat="50.099092" lon="4.701956"><time>2026-05-06T19:01:11Z</time></trkpt>
<trkpt lat="50.099563" lon="4.703804"><time>2026-05-06T19:11:11Z</time></trkpt>
<trkpt lat="50.100160" lon="4.705527"><time>2026-05-06T19:21:11Z</time></trkpt>
</trkseg>
</trk>
<trk>
<name>nvvmzi5</name>
<cmt>v</cmt>
<desc>Mazée Sentier n°i5 </desc>
<link href="https://chemins.be/mazee/sentier/i5"/><trkseg>
<trkpt lat="50.096534" lon="4.693999"><time>2026-05-06T18:41:11Z</time></trkpt>
<trkpt lat="50.096291" lon="4.694040"><time>2026-05-06T18:51:11Z</time></trkpt>
<trkpt lat="50.096048" lon="4.694150"><time>2026-05-06T19:01:11Z</time></trkpt>
<trkpt lat="50.095152" lon="4.693221"><time>2026-05-06T19:11:11Z</time></trkpt>
<trkpt lat="50.095168" lon="4.693794"><time>2026-05-06T19:21:11Z</time></trkpt>
<trkpt lat="50.095567" lon="4.695726"><time>2026-05-06T19:31:11Z</time></trkpt>
<trkpt lat="50.095715" lon="4.697572"><time>2026-05-06T19:41:11Z</time></trkpt>
<trkpt lat="50.096070" lon="4.699223"><time>2026-05-06T19:51:11Z</time></trkpt>
<trkpt lat="50.096237" lon="4.700342"><time>2026-05-06T20:01:11Z</time></trkpt>
<trkpt lat="50.096477" lon="4.701378"><time>2026-05-06T20:11:11Z</time></trkpt>
<trkpt lat="50.097054" lon="4.703982"><time>2026-05-06T20:21:11Z</time></trkpt>
<trkpt lat="50.096774" lon="4.704316"><time>2026-05-06T20:31:11Z</time></trkpt>
<trkpt lat="50.096766" lon="4.707013"><time>2026-05-06T20:41:11Z</time></trkpt>
</trkseg>
</trk>
<trk>
<name>nvvmzi6</name>
<cmt>q</cmt>
<desc>Mazée Chemin n°i6 </desc>
<link href="https://chemins.be/mazee/chemin/i6"/><trkseg>
<trkpt lat="50.095979" lon="4.699390"><time>2026-05-06T18:41:11Z</time></trkpt>
<trkpt lat="50.095169" lon="4.699916"><time>2026-05-06T18:51:11Z</time></trkpt>
<trkpt lat="50.095125" lon="4.699594"><time>2026-05-06T19:01:11Z</time></trkpt>
<trkpt lat="50.094621" lon="4.699479"><time>2026-05-06T19:11:11Z</time></trkpt>
</trkseg>
</trk>
<trk>
<name>nvvmzi7</name>
<cmt>v</cmt>
<desc>Mazée Chemin n°i7 </desc>
<link href="https://chemins.be/mazee/chemin/i7"/><trkseg>
<trkpt lat="50.093916" lon="4.697978"><time>2026-05-06T18:41:11Z</time></trkpt>
<trkpt lat="50.094535" lon="4.698192"><time>2026-05-06T18:51:11Z</time></trkpt>
</trkseg>
</trk>
<trk>
<name>nvvmzi8</name>
<cmt>v</cmt>
<desc>Mazée Chemin n°i8 </desc>
<link href="https://chemins.be/mazee/chemin/i8"/><trkseg>
<trkpt lat="50.099528" lon="4.697346"><time>2026-05-06T18:41:11Z</time></trkpt>
<trkpt lat="50.099551" lon="4.698493"><time>2026-05-06T18:51:11Z</time></trkpt>
<trkpt lat="50.099321" lon="4.700448"><time>2026-05-06T19:01:11Z</time></trkpt>
<trkpt lat="50.099173" lon="4.701872"><time>2026-05-06T19:11:11Z</time></trkpt>
</trkseg>
</trk>
<trk>
<name>nvvmzi9</name>
<cmt>q</cmt>
<desc>Mazée Sentier n°i9 </desc>
<link href="https://chemins.be/mazee/sentier/i9"/><trkseg>
<trkpt lat="50.102135" lon="4.697183"><time>2026-05-06T18:41:11Z</time></trkpt>
<trkpt lat="50.102243" lon="4.697113"><time>2026-05-06T18:51:11Z</time></trkpt>
<trkpt lat="50.102342" lon="4.697226"><time>2026-05-06T19:01:11Z</time></trkpt>
<trkpt lat="50.102522" lon="4.697199"><time>2026-05-06T19:11:11Z</time></trkpt>
<trkpt lat="50.102603" lon="4.697270"><time>2026-05-06T19:21:11Z</time></trkpt>
<trkpt lat="50.103007" lon="4.697426"><time>2026-05-06T19:31:11Z</time></trkpt>
</trkseg>
</trk>
<trk>
<name>nvvmzL132</name>
<cmt>v</cmt>
<desc>Mazée Chemin n°L132 </desc>
<link href="https://chemins.be/mazee/chemin/L132"/><trkseg>
<trkpt lat="50.091261" lon="4.685858"><time>2026-05-06T18:41:11Z</time></trkpt>
<trkpt lat="50.092283" lon="4.690351"><time>2026-05-06T18:51:11Z</time></trkpt>
</trkseg></trk>
<trk>
<name>nvvmzL132</name>
<cmt>q</cmt>
<desc>Mazée Chemin n°L132 </desc>
<link href="https://chemins.be/mazee/chemin/L132"/><trkseg>
<trkpt lat="50.092283" lon="4.690351"><time>2026-05-06T18:51:11Z</time></trkpt>
<trkpt lat="50.092425" lon="4.690897"><time>2026-05-06T19:01:11Z</time></trkpt>
</trkseg></trk>
<trk>
<name>nvvmzL132</name>
<cmt>v</cmt>
<desc>Mazée Chemin n°L132 </desc>
<link href="https://chemins.be/mazee/chemin/L132"/><trkseg>
<trkpt lat="50.092425" lon="4.690897"><time>2026-05-06T19:01:11Z</time></trkpt>
<trkpt lat="50.093062" lon="4.694674"><time>2026-05-06T19:11:11Z</time></trkpt>
<trkpt lat="50.093263" lon="4.696660"><time>2026-05-06T19:21:11Z</time></trkpt>
<trkpt lat="50.093269" lon="4.700727"><time>2026-05-06T19:31:11Z</time></trkpt>
</trkseg>
</trk>
<trk>
<name>nvvns1</name>
<cmt>r</cmt>
<desc>Nismes Chemin n°1 Rue Saint-Joseph</desc>
<link href="https://chemins.be/nismes/chemin/1"/><trkseg>
<trkpt lat="50.062634" lon="4.543056"><time>2026-05-06T18:41:11Z</time></trkpt>
<trkpt lat="50.062559" lon="4.545206"><time>2026-05-06T18:51:11Z</time></trkpt>
<trkpt lat="50.063683" lon="4.551049"><time>2026-05-06T19:01:11Z</time></trkpt>
<trkpt lat="50.063660" lon="4.553730"><time>2026-05-06T19:11:11Z</time></trkpt>
<trkpt lat="50.063442" lon="4.555280"><time>2026-05-06T19:21:11Z</time></trkpt>
<trkpt lat="50.064247" lon="4.557908"><time>2026-05-06T19:31:11Z</time></trkpt>
<trkpt lat="50.064647" lon="4.560592"><time>2026-05-06T19:41:11Z</time></trkpt>
<trkpt lat="50.066435" lon="4.566759"><time>2026-05-06T19:51:11Z</time></trkpt>
<trkpt lat="50.066998" lon="4.568619"><time>2026-05-06T20:01:11Z</time></trkpt>
<trkpt lat="50.067605" lon="4.571080"><time>2026-05-06T20:11:11Z</time></trkpt>
<trkpt lat="50.067755" lon="4.572980"><time>2026-05-06T20:21:11Z</time></trkpt>
<trkpt lat="50.068049" lon="4.574476"><time>2026-05-06T20:31:11Z</time></trkpt>
<trkpt lat="50.069076" lon="4.578070"><time>2026-05-06T20:41:11Z</time></trkpt>
</trkseg>
</trk>
<trk>
<name>nvvns10</name>
<cmt>d</cmt>
<desc>Nismes Chemin n°10 </desc>
<link href="https://chemins.be/nismes/chemin/10"/><trkseg>
<trkpt lat="50.018496" lon="4.591453"><time>2026-05-06T18:41:11Z</time></trkpt>
<trkpt lat="50.018363" lon="4.595373"><time>2026-05-06T18:51:11Z</time></trkpt>
</trkseg></trk>
<trk>
<name>nvvns10</name>
<cmt>v</cmt>
<desc>Nismes Chemin n°10 </desc>
<link href="https://chemins.be/nismes/chemin/10"/><trkseg>
<trkpt lat="50.018363" lon="4.595373"><time>2026-05-06T18:51:11Z</time></trkpt>
<trkpt lat="50.018904" lon="4.598836"><time>2026-05-06T19:01:11Z</time></trkpt>
<trkpt lat="50.018829" lon="4.600775"><time>2026-05-06T19:11:11Z</time></trkpt>
<trkpt lat="50.019069" lon="4.601725"><time>2026-05-06T19:21:11Z</time></trkpt>
</trkseg>
</trk>
<trk>
<name>nvvns11</name>
<cmt>d</cmt>
<desc>Nismes Chemin n°11 Rue de Regniessart</desc>
<link href="https://chemins.be/nismes/chemin/11"/><trkseg>
<trkpt lat="50.063972" lon="4.555882"><time>2026-05-06T18:41:11Z</time></trkpt>
<trkpt lat="50.063665" lon="4.556551"><time>2026-05-06T18:51:11Z</time></trkpt>
</trkseg></trk>
<trk>
<name>nvvns11</name>
<cmt>r</cmt>
<desc>Nismes Chemin n°11 Rue de Regniessart</desc>
<link href="https://chemins.be/nismes/chemin/11"/><trkseg>
<trkpt lat="50.063665" lon="4.556551"><time>2026-05-06T18:51:11Z</time></trkpt>
<trkpt lat="50.063169" lon="4.557583"><time>2026-05-06T19:01:11Z</time></trkpt>
<trkpt lat="50.062791" lon="4.557847"><time>2026-05-06T19:11:11Z</time></trkpt>
<trkpt lat="50.061532" lon="4.558009"><time>2026-05-06T19:21:11Z</time></trkpt>
<trkpt lat="50.060813" lon="4.557643"><time>2026-05-06T19:31:11Z</time></trkpt>
<trkpt lat="50.058873" lon="4.556546"><time>2026-05-06T19:41:11Z</time></trkpt>
<trkpt lat="50.056996" lon="4.555254"><time>2026-05-06T19:51:11Z</time></trkpt>
<trkpt lat="50.056287" lon="4.554344"><time>2026-05-06T20:01:11Z</time></trkpt>
</trkseg>
</trk>
<trk>
<name>nvvns11bis</name>
<cmt>r</cmt>
<desc>Nismes Chemin n°11bis Rue Saint-Joseph / ?</desc>
<link href="https://chemins.be/nismes/chemin/11bis"/><trkseg>
<trkpt lat="50.067278" lon="4.551551"><time>2026-05-06T18:41:11Z</time></trkpt>
<trkpt lat="50.065100" lon="4.552912"><time>2026-05-06T18:51:11Z</time></trkpt>
</trkseg></trk>
<trk>
<name>nvvns11bis</name>
<cmt>v</cmt>
<desc>Nismes Chemin n°11bis Rue Saint-Joseph / ?</desc>
<link href="https://chemins.be/nismes/chemin/11bis"/><trkseg>
<trkpt lat="50.065100" lon="4.552912"><time>2026-05-06T18:51:11Z</time></trkpt>
<trkpt lat="50.064803" lon="4.553441"><time>2026-05-06T19:01:11Z</time></trkpt>
<trkpt lat="50.064460" lon="4.553985"><time>2026-05-06T19:11:11Z</time></trkpt>
<trkpt lat="50.064136" lon="4.554402"><time>2026-05-06T19:21:11Z</time></trkpt>
<trkpt lat="50.063892" lon="4.554904"><time>2026-05-06T19:31:11Z</time></trkpt>
<trkpt lat="50.063989" lon="4.556064"><time>2026-05-06T19:41:11Z</time></trkpt>
<trkpt lat="50.064203" lon="4.557196"><time>2026-05-06T19:51:11Z</time></trkpt>
<trkpt lat="50.064409" lon="4.557951"><time>2026-05-06T20:01:11Z</time></trkpt>
<trkpt lat="50.064372" lon="4.558272"><time>2026-05-06T20:11:11Z</time></trkpt>
</trkseg>
</trk>
<trk>
<name>nvvns12</name>
<cmt>v</cmt>
<desc>Nismes Chemin n°12 </desc>
<link href="https://chemins.be/nismes/chemin/12"/><trkseg>
<trkpt lat="50.060840" lon="4.557671"><time>2026-05-06T18:41:11Z</time></trkpt>
<trkpt lat="50.059778" lon="4.558380"><time>2026-05-06T18:51:11Z</time></trkpt>
<trkpt lat="50.059095" lon="4.558070"><time>2026-05-06T19:01:11Z</time></trkpt>
<trkpt lat="50.057547" lon="4.559055"><time>2026-05-06T19:11:11Z</time></trkpt>
<trkpt lat="50.055369" lon="4.560205"><time>2026-05-06T19:21:11Z</time></trkpt>
<trkpt lat="50.054156" lon="4.561461"><time>2026-05-06T19:31:11Z</time></trkpt>
<trkpt lat="50.053440" lon="4.561568"><time>2026-05-06T19:41:11Z</time></trkpt>
<trkpt lat="50.050660" lon="4.564236"><time>2026-05-06T19:51:11Z</time></trkpt>
<trkpt lat="50.048940" lon="4.567841"><time>2026-05-06T20:01:11Z</time></trkpt>
<trkpt lat="50.047750" lon="4.568132"><time>2026-05-06T20:11:11Z</time></trkpt>
</trkseg>
</trk>
<trk>
<name>nvvns13</name>
<cmt>v</cmt>
<desc>Nismes Chemin n°13 </desc>
<link href="https://chemins.be/nismes/chemin/13"/><trkseg>
<trkpt lat="50.062745" lon="4.558014"><time>2026-05-06T18:41:11Z</time></trkpt>
<trkpt lat="50.060584" lon="4.562050"><time>2026-05-06T18:51:11Z</time></trkpt>
<trkpt lat="50.060382" lon="4.563391"><time>2026-05-06T19:01:11Z</time></trkpt>
<trkpt lat="50.059992" lon="4.564858"><time>2026-05-06T19:11:11Z</time></trkpt>
<trkpt lat="50.059099" lon="4.566491"><time>2026-05-06T19:21:11Z</time></trkpt>
<trkpt lat="50.058808" lon="4.567147"><time>2026-05-06T19:31:11Z</time></trkpt>
<trkpt lat="50.058133" lon="4.568637"><time>2026-05-06T19:41:11Z</time></trkpt>
<trkpt lat="50.057001" lon="4.570018"><time>2026-05-06T19:51:11Z</time></trkpt>
</trkseg>
</trk>
<trk>
<name>nvvns14</name>
<cmt>r</cmt>
<desc>Nismes Chemin n°14 Rue des Juifs / ?</desc>
<link href="https://chemins.be/nismes/chemin/14"/><trkseg>
<trkpt lat="50.074374" lon="4.549888"><time>2026-05-06T18:41:11Z</time></trkpt>
<trkpt lat="50.075576" lon="4.552156"><time>2026-05-06T18:51:11Z</time></trkpt>
<trkpt lat="50.075853" lon="4.552841"><time>2026-05-06T19:01:11Z</time></trkpt>
<trkpt lat="50.076525" lon="4.554576"><time>2026-05-06T19:11:11Z</time></trkpt>
<trkpt lat="50.077377" lon="4.555851"><time>2026-05-06T19:21:11Z</time></trkpt>
<trkpt lat="50.078408" lon="4.557769"><time>2026-05-06T19:31:11Z</time></trkpt>
</trkseg></trk>
<trk>
<name>nvvns14</name>
<cmt>v</cmt>
<desc>Nismes Chemin n°14 Rue des Juifs / ?</desc>
<link href="https://chemins.be/nismes/chemin/14"/><trkseg>
<trkpt lat="50.078408" lon="4.557769"><time>2026-05-06T19:31:11Z</time></trkpt>
<trkpt lat="50.078514" lon="4.558594"><time>2026-05-06T19:41:11Z</time></trkpt>
<trkpt lat="50.078986" lon="4.561055"><time>2026-05-06T19:51:11Z</time></trkpt>
<trkpt lat="50.078453" lon="4.562869"><time>2026-05-06T20:01:11Z</time></trkpt>
<trkpt lat="50.077984" lon="4.563887"><time>2026-05-06T20:11:11Z</time></trkpt>
<trkpt lat="50.077371" lon="4.564443"><time>2026-05-06T20:21:11Z</time></trkpt>
<trkpt lat="50.077119" lon="4.564610"><time>2026-05-06T20:31:11Z</time></trkpt>
</trkseg>
</trk>
<trk>
<name>nvvns14bis</name>
<cmt>v</cmt>
<desc>Nismes Chemin n°14bis Chemin du Circuit</desc>
<link href="https://chemins.be/nismes/chemin/14bis"/><trkseg>
<trkpt lat="50.065696" lon="4.551545"><time>2026-05-06T18:41:11Z</time></trkpt>
<trkpt lat="50.064518" lon="4.551443"><time>2026-05-06T18:51:11Z</time></trkpt>
<trkpt lat="50.063888" lon="4.551804"><time>2026-05-06T19:01:11Z</time></trkpt>
</trkseg>
</trk>
<trk>
<name>nvvns15</name>
<cmt>r</cmt>
<desc>Nismes Chemin n°15 Rue Orgeveau / ?</desc>
<link href="https://chemins.be/nismes/chemin/15"/><trkseg>
<trkpt lat="50.071281" lon="4.550407"><time>2026-05-06T18:41:11Z</time></trkpt>
<trkpt lat="50.071296" lon="4.552070"><time>2026-05-06T18:51:11Z</time></trkpt>
<trkpt lat="50.071367" lon="4.552698"><time>2026-05-06T19:01:11Z</time></trkpt>
<trkpt lat="50.072333" lon="4.556013"><time>2026-05-06T19:11:11Z</time></trkpt>
</trkseg></trk>
<trk>
<name>nvvns15</name>
<cmt>v</cmt>
<desc>Nismes Chemin n°15 Rue Orgeveau / ?</desc>
<link href="https://chemins.be/nismes/chemin/15"/><trkseg>
<trkpt lat="50.072333" lon="4.556013"><time>2026-05-06T19:11:11Z</time></trkpt>
<trkpt lat="50.073124" lon="4.556184"><time>2026-05-06T19:21:11Z</time></trkpt>
<trkpt lat="50.073445" lon="4.557302"><time>2026-05-06T19:31:11Z</time></trkpt>
<trkpt lat="50.074755" lon="4.559208"><time>2026-05-06T19:41:11Z</time></trkpt>
<trkpt lat="50.075426" lon="4.561348"><time>2026-05-06T19:51:11Z</time></trkpt>
<trkpt lat="50.076600" lon="4.563560"><time>2026-05-06T20:01:11Z</time></trkpt>
<trkpt lat="50.077399" lon="4.564387"><time>2026-05-06T20:11:11Z</time></trkpt>
</trkseg>
</trk>
<trk>
<name>nvvns16</name>
<cmt>v</cmt>
<desc>Nismes Chemin n°16 </desc>
<link href="https://chemins.be/nismes/chemin/16"/><trkseg>
<trkpt lat="50.077110" lon="4.564652"><time>2026-05-06T18:41:11Z</time></trkpt>
<trkpt lat="50.075931" lon="4.565415"><time>2026-05-06T18:51:11Z</time></trkpt>
<trkpt lat="50.075867" lon="4.566253"><time>2026-05-06T19:01:11Z</time></trkpt>
<trkpt lat="50.076054" lon="4.567316"><time>2026-05-06T19:11:11Z</time></trkpt>
</trkseg>
</trk>
<trk>
<name>nvvns17</name>
<cmt>r</cmt>
<desc>Nismes Chemin n°17 Rue du Fourneau</desc>
<link href="https://chemins.be/nismes/chemin/17"/><trkseg>
<trkpt lat="50.078323" lon="4.554723"><time>2026-05-06T18:41:11Z</time></trkpt>
<trkpt lat="50.078572" lon="4.556065"><time>2026-05-06T18:51:11Z</time></trkpt>
<trkpt lat="50.078400" lon="4.556777"><time>2026-05-06T19:01:11Z</time></trkpt>
<trkpt lat="50.078444" lon="4.557741"><time>2026-05-06T19:11:11Z</time></trkpt>
</trkseg>
</trk>
<trk>
<name>nvvns18</name>
<cmt>v</cmt>
<desc>Nismes Chemin n°18 </desc>
<link href="https://chemins.be/nismes/chemin/18"/><trkseg>
<trkpt lat="50.092143" lon="4.548139"><time>2026-05-06T18:41:11Z</time></trkpt>
<trkpt lat="50.091188" lon="4.543356"><time>2026-05-06T18:51:11Z</time></trkpt>
<trkpt lat="50.091487" lon="4.542015"><time>2026-05-06T19:01:11Z</time></trkpt>
<trkpt lat="50.091776" lon="4.541038"><time>2026-05-06T19:11:11Z</time></trkpt>
<trkpt lat="50.091822" lon="4.540172"><time>2026-05-06T19:21:11Z</time></trkpt>
<trkpt lat="50.091868" lon="4.539431"><time>2026-05-06T19:31:11Z</time></trkpt>
</trkseg>
</trk>
<trk>
<name>nvvns19</name>
<cmt>r</cmt>
<desc>Nismes Chemin n°19 Rue Saint-Antoine / ?</desc>
<link href="https://chemins.be/nismes/chemin/19"/><trkseg>
<trkpt lat="50.075109" lon="4.545993"><time>2026-05-06T18:41:11Z</time></trkpt>
<trkpt lat="50.074327" lon="4.545934"><time>2026-05-06T18:51:11Z</time></trkpt>
<trkpt lat="50.073601" lon="4.544437"><time>2026-05-06T19:01:11Z</time></trkpt>
</trkseg></trk>
<trk>
<name>nvvns19</name>
<cmt>v</cmt>
<desc>Nismes Chemin n°19 Rue Saint-Antoine / ?</desc>
<link href="https://chemins.be/nismes/chemin/19"/><trkseg>
<trkpt lat="50.073601" lon="4.544437"><time>2026-05-06T19:01:11Z</time></trkpt>
<trkpt lat="50.072714" lon="4.542394"><time>2026-05-06T19:11:11Z</time></trkpt>
<trkpt lat="50.071629" lon="4.540379"><time>2026-05-06T19:21:11Z</time></trkpt>
</trkseg></trk>
<trk>
<name>nvvns19</name>
<cmt>d</cmt>
<desc>Nismes Chemin n°19 Rue Saint-Antoine / ?</desc>
<link href="https://chemins.be/nismes/chemin/19"/><trkseg>
<trkpt lat="50.071629" lon="4.540379"><time>2026-05-06T19:21:11Z</time></trkpt>
<trkpt lat="50.071185" lon="4.540679"><time>2026-05-06T19:31:11Z</time></trkpt>
<trkpt lat="50.070563" lon="4.540945"><time>2026-05-06T19:41:11Z</time></trkpt>
<trkpt lat="50.069086" lon="4.540194"><time>2026-05-06T19:51:11Z</time></trkpt>
<trkpt lat="50.067874" lon="4.539014"><time>2026-05-06T20:01:11Z</time></trkpt>
</trkseg></trk>
<trk>
<name>nvvns19</name>
<cmt>v</cmt>
<desc>Nismes Chemin n°19 Rue Saint-Antoine / ?</desc>
<link href="https://chemins.be/nismes/chemin/19"/><trkseg>
<trkpt lat="50.067874" lon="4.539014"><time>2026-05-06T20:01:11Z</time></trkpt>
<trkpt lat="50.067585" lon="4.537801"><time>2026-05-06T20:11:11Z</time></trkpt>
<trkpt lat="50.067194" lon="4.536312"><time>2026-05-06T20:21:11Z</time></trkpt>
<trkpt lat="50.066201" lon="4.532831"><time>2026-05-06T20:31:11Z</time></trkpt>
</trkseg>
</trk>
<trk>
<name>nvvns2</name>
<cmt>r</cmt>
<desc>Nismes Chemin n°2 Unnamed Road / Rue de Regniessart</desc>
<link href="https://chemins.be/nismes/chemin/2"/><trkseg>
<trkpt lat="50.070472" lon="4.550418"><time>2026-05-06T18:41:11Z</time></trkpt>
<trkpt lat="50.069464" lon="4.550987"><time>2026-05-06T18:51:11Z</time></trkpt>
<trkpt lat="50.068404" lon="4.550438"><time>2026-05-06T19:01:11Z</time></trkpt>
<trkpt lat="50.067422" lon="4.551272"><time>2026-05-06T19:11:11Z</time></trkpt>
<trkpt lat="50.066470" lon="4.551115"><time>2026-05-06T19:21:11Z</time></trkpt>
<trkpt lat="50.065714" lon="4.551545"><time>2026-05-06T19:31:11Z</time></trkpt>
<trkpt lat="50.065406" lon="4.552661"><time>2026-05-06T19:41:11Z</time></trkpt>
<trkpt lat="50.063717" lon="4.553524"><time>2026-05-06T19:51:11Z</time></trkpt>
<trkpt lat="50.063579" lon="4.553452"><time>2026-05-06T20:01:11Z</time></trkpt>
<trkpt lat="50.063009" lon="4.552415"><time>2026-05-06T20:11:11Z</time></trkpt>
</trkseg></trk>
<trk>
<name>nvvns2</name>
<cmt>v</cmt>
<desc>Nismes Chemin n°2 Unnamed Road / Rue de Regniessart</desc>
<link href="https://chemins.be/nismes/chemin/2"/><trkseg>
<trkpt lat="50.063009" lon="4.552415"><time>2026-05-06T20:11:11Z</time></trkpt>
<trkpt lat="50.062546" lon="4.552544"><time>2026-05-06T20:21:11Z</time></trkpt>
<trkpt lat="50.060749" lon="4.553076"><time>2026-05-06T20:31:11Z</time></trkpt>
<trkpt lat="50.058753" lon="4.552524"><time>2026-05-06T20:41:11Z</time></trkpt>
<trkpt lat="50.056449" lon="4.554093"><time>2026-05-06T20:51:11Z</time></trkpt>
</trkseg></trk>
<trk>
<name>nvvns2</name>
<cmt>r</cmt>
<desc>Nismes Chemin n°2 Unnamed Road / Rue de Regniessart</desc>
<link href="https://chemins.be/nismes/chemin/2"/><trkseg>
<trkpt lat="50.056449" lon="4.554093"><time>2026-05-06T20:51:11Z</time></trkpt>
<trkpt lat="50.052579" lon="4.556759"><time>2026-05-06T21:01:11Z</time></trkpt>
<trkpt lat="50.051722" lon="4.558473"><time>2026-05-06T21:11:11Z</time></trkpt>
<trkpt lat="50.049724" lon="4.559736"><time>2026-05-06T21:21:11Z</time></trkpt>
<trkpt lat="50.048798" lon="4.559732"><time>2026-05-06T21:31:11Z</time></trkpt>
<trkpt lat="50.047799" lon="4.560677"><time>2026-05-06T21:41:11Z</time></trkpt>
<trkpt lat="50.044430" lon="4.562872"><time>2026-05-06T21:51:11Z</time></trkpt>
<trkpt lat="50.040880" lon="4.563246"><time>2026-05-06T22:01:11Z</time></trkpt>
<trkpt lat="50.040180" lon="4.562950"><time>2026-05-06T22:11:11Z</time></trkpt>
<trkpt lat="50.039298" lon="4.563282"><time>2026-05-06T22:21:11Z</time></trkpt>
<trkpt lat="50.038444" lon="4.563278"><time>2026-05-06T22:31:11Z</time></trkpt>
<trkpt lat="50.037587" lon="4.564685"><time>2026-05-06T22:41:11Z</time></trkpt>
<trkpt lat="50.037235" lon="4.565632"><time>2026-05-06T22:51:11Z</time></trkpt>
<trkpt lat="50.036099" lon="4.567275"><time>2026-05-06T23:01:11Z</time></trkpt>
<trkpt lat="50.034640" lon="4.569111"><time>2026-05-06T23:11:11Z</time></trkpt>
<trkpt lat="50.033917" lon="4.571062"><time>2026-05-06T23:21:11Z</time></trkpt>
<trkpt lat="50.032575" lon="4.572508"><time>2026-05-06T23:31:11Z</time></trkpt>
<trkpt lat="50.029604" lon="4.574575"><time>2026-05-06T23:41:11Z</time></trkpt>
<trkpt lat="50.026977" lon="4.575931"><time>2026-05-06T23:51:11Z</time></trkpt>
</trkseg></trk>
<trk>
<name>nvvns2</name>
<cmt>v</cmt>
<desc>Nismes Chemin n°2 Unnamed Road / Rue de Regniessart</desc>
<link href="https://chemins.be/nismes/chemin/2"/><trkseg>
<trkpt lat="50.026977" lon="4.575931"><time>2026-05-06T23:51:11Z</time></trkpt>
<trkpt lat="50.024893" lon="4.579760"><time>2026-05-07T00:01:11Z</time></trkpt>
<trkpt lat="50.025084" lon="4.583082"><time>2026-05-07T00:11:11Z</time></trkpt>
<trkpt lat="50.023143" lon="4.587539"><time>2026-05-07T00:21:11Z</time></trkpt>
<trkpt lat="50.023031" lon="4.589967"><time>2026-05-07T00:31:11Z</time></trkpt>
<trkpt lat="50.021991" lon="4.592781"><time>2026-05-07T00:41:11Z</time></trkpt>
<trkpt lat="50.021616" lon="4.595891"><time>2026-05-07T00:51:11Z</time></trkpt>
<trkpt lat="50.019078" lon="4.601851"><time>2026-05-07T01:01:11Z</time></trkpt>
<trkpt lat="50.019944" lon="4.604660"><time>2026-05-07T01:11:11Z</time></trkpt>
</trkseg>
</trk>
<trk>
<name>nvvns30</name>
<cmt>v</cmt>
<desc>Nismes Chemin n°30 </desc>
<link href="https://chemins.be/nismes/chemin/30"/><trkseg>
<trkpt lat="50.072360" lon="4.556041"><time>2026-05-06T18:41:11Z</time></trkpt>
<trkpt lat="50.073476" lon="4.560446"><time>2026-05-06T18:51:11Z</time></trkpt>
</trkseg>
</trk>
<trk>
<name>nvvns31</name>
<cmt>r</cmt>
<desc>Nismes Chemin n°31 Rue Orgeveau</desc>
<link href="https://chemins.be/nismes/chemin/31"/><trkseg>
<trkpt lat="50.072494" lon="4.556558"><time>2026-05-06T18:41:11Z</time></trkpt>
<trkpt lat="50.071846" lon="4.558446"><time>2026-05-06T18:51:11Z</time></trkpt>
<trkpt lat="50.071753" lon="4.559097"><time>2026-05-06T19:01:11Z</time></trkpt>
</trkseg></trk>
<trk>
<name>nvvns31</name>
<cmt>v</cmt>
<desc>Nismes Chemin n°31 Rue Orgeveau</desc>
<link href="https://chemins.be/nismes/chemin/31"/><trkseg>
<trkpt lat="50.071753" lon="4.559097"><time>2026-05-06T19:01:11Z</time></trkpt>
<trkpt lat="50.071864" lon="4.559841"><time>2026-05-06T19:11:11Z</time></trkpt>
<trkpt lat="50.072322" lon="4.562341"><time>2026-05-06T19:21:11Z</time></trkpt>
<trkpt lat="50.072280" lon="4.565712"><time>2026-05-06T19:31:11Z</time></trkpt>
<trkpt lat="50.072153" lon="4.566964"><time>2026-05-06T19:41:11Z</time></trkpt>
<trkpt lat="50.071674" lon="4.567898"><time>2026-05-06T19:51:11Z</time></trkpt>
</trkseg>
</trk>
<trk>
<name>nvvns32</name>
<cmt>v</cmt>
<desc>Nismes Sentier n°32 </desc>
<link href="https://chemins.be/nismes/sentier/32"/><trkseg>
<trkpt lat="50.074383" lon="4.550084"><time>2026-05-06T18:41:11Z</time></trkpt>
<trkpt lat="50.074266" lon="4.550321"><time>2026-05-06T18:51:11Z</time></trkpt>
<trkpt lat="50.074418" lon="4.550615"><time>2026-05-06T19:01:11Z</time></trkpt>
<trkpt lat="50.074621" lon="4.552114"><time>2026-05-06T19:11:11Z</time></trkpt>
<trkpt lat="50.074942" lon="4.553047"><time>2026-05-06T19:21:11Z</time></trkpt>
<trkpt lat="50.074797" lon="4.553251"><time>2026-05-06T19:31:11Z</time></trkpt>
<trkpt lat="50.075282" lon="4.555618"><time>2026-05-06T19:41:11Z</time></trkpt>
<trkpt lat="50.075488" lon="4.556502"><time>2026-05-06T19:51:11Z</time></trkpt>
<trkpt lat="50.076232" lon="4.559129"><time>2026-05-06T20:01:11Z</time></trkpt>
<trkpt lat="50.077087" lon="4.562514"><time>2026-05-06T20:11:11Z</time></trkpt>
<trkpt lat="50.077247" lon="4.563520"><time>2026-05-06T20:21:11Z</time></trkpt>
<trkpt lat="50.077255" lon="4.564205"><time>2026-05-06T20:31:11Z</time></trkpt>
</trkseg>
</trk>
<trk>
<name>nvvns33</name>
<cmt>d</cmt>
<desc>Nismes Sentier n°33 </desc>
<link href="https://chemins.be/nismes/sentier/33"/><trkseg>
<trkpt lat="50.076122" lon="4.553639"><time>2026-05-06T18:41:11Z</time></trkpt>
<trkpt lat="50.076470" lon="4.554758"><time>2026-05-06T18:51:11Z</time></trkpt>
<trkpt lat="50.076980" lon="4.556590"><time>2026-05-06T19:01:11Z</time></trkpt>
<trkpt lat="50.077186" lon="4.556954"><time>2026-05-06T19:11:11Z</time></trkpt>
<trkpt lat="50.077463" lon="4.557975"><time>2026-05-06T19:21:11Z</time></trkpt>
<trkpt lat="50.077416" lon="4.559274"><time>2026-05-06T19:31:11Z</time></trkpt>
<trkpt lat="50.077360" lon="4.560741"><time>2026-05-06T19:41:11Z</time></trkpt>
<trkpt lat="50.077069" lon="4.562444"><time>2026-05-06T19:51:11Z</time></trkpt>
<trkpt lat="50.076824" lon="4.563896"><time>2026-05-06T20:01:11Z</time></trkpt>
<trkpt lat="50.076039" lon="4.565374"><time>2026-05-06T20:11:11Z</time></trkpt>
</trkseg>
</trk>
<trk>
<name>nvvns34</name>
<cmt>v</cmt>
<desc>Nismes Sentier n°34 </desc>
<link href="https://chemins.be/nismes/sentier/34"/><trkseg>
<trkpt lat="50.073413" lon="4.560445"><time>2026-05-06T18:41:11Z</time></trkpt>
<trkpt lat="50.073891" lon="4.561364"><time>2026-05-06T18:51:11Z</time></trkpt>
<trkpt lat="50.075093" lon="4.566196"><time>2026-05-06T19:01:11Z</time></trkpt>
<trkpt lat="50.075092" lon="4.566199"><time>2026-05-06T19:11:11Z</time></trkpt>
<trkpt lat="50.075632" lon="4.568643"><time>2026-05-06T19:21:11Z</time></trkpt>
</trkseg></trk>
<trk>
<name>nvvns34</name>
<cmt>d</cmt>
<desc>Nismes Sentier n°34 </desc>
<link href="https://chemins.be/nismes/sentier/34"/><trkseg>
<trkpt lat="50.075632" lon="4.568643"><time>2026-05-06T19:21:11Z</time></trkpt>
<trkpt lat="50.075173" lon="4.572495"><time>2026-05-06T19:31:11Z</time></trkpt>
<trkpt lat="50.074674" lon="4.575021"><time>2026-05-06T19:41:11Z</time></trkpt>
<trkpt lat="50.074033" lon="4.579211"><time>2026-05-06T19:51:11Z</time></trkpt>
</trkseg></trk>
<trk>
<name>nvvns34</name>
<cmt>v</cmt>
<desc>Nismes Sentier n°34 </desc>
<link href="https://chemins.be/nismes/sentier/34"/><trkseg>
<trkpt lat="50.074033" lon="4.579211"><time>2026-05-06T19:51:11Z</time></trkpt>
<trkpt lat="50.074377" lon="4.580824"><time>2026-05-06T20:01:11Z</time></trkpt>
</trkseg>
</trk>
<trk>
<name>nvvns36</name>
<cmt>d</cmt>
<desc>Nismes Sentier n°36 </desc>
<link href="https://chemins.be/nismes/sentier/36"/><trkseg>
<trkpt lat="50.071612" lon="4.567828"><time>2026-05-06T18:41:11Z</time></trkpt>
<trkpt lat="50.071287" lon="4.568232"><time>2026-05-06T18:51:11Z</time></trkpt>
<trkpt lat="50.070485" lon="4.569457"><time>2026-05-06T19:01:11Z</time></trkpt>
<trkpt lat="50.070600" lon="4.570338"><time>2026-05-06T19:11:11Z</time></trkpt>
<trkpt lat="50.070425" lon="4.572991"><time>2026-05-06T19:21:11Z</time></trkpt>
<trkpt lat="50.070636" lon="4.575311"><time>2026-05-06T19:31:11Z</time></trkpt>
</trkseg></trk>
<trk>
<name>nvvns36</name>
<cmt>v</cmt>
<desc>Nismes Sentier n°36 </desc>
<link href="https://chemins.be/nismes/sentier/36"/><trkseg>
<trkpt lat="50.070636" lon="4.575311"><time>2026-05-06T19:31:11Z</time></trkpt>
<trkpt lat="50.070922" lon="4.576751"><time>2026-05-06T19:41:11Z</time></trkpt>
<trkpt lat="50.071570" lon="4.580959"><time>2026-05-06T19:51:11Z</time></trkpt>
<trkpt lat="50.071963" lon="4.582413"><time>2026-05-06T20:01:11Z</time></trkpt>
<trkpt lat="50.072393" lon="4.583477"><time>2026-05-06T20:11:11Z</time></trkpt>
<trkpt lat="50.072427" lon="4.584315"><time>2026-05-06T20:21:11Z</time></trkpt>
<trkpt lat="50.072066" lon="4.584998"><time>2026-05-06T20:31:11Z</time></trkpt>
</trkseg>
</trk>
<trk>
<name>nvvns37</name>
<cmt>v</cmt>
<desc>Nismes Sentier n°37 </desc>
<link href="https://chemins.be/nismes/sentier/37"/><trkseg>
<trkpt lat="50.067827" lon="4.551218"><time>2026-05-06T18:41:11Z</time></trkpt>
<trkpt lat="50.067610" lon="4.552251"><time>2026-05-06T18:51:11Z</time></trkpt>
<trkpt lat="50.066771" lon="4.554133"><time>2026-05-06T19:01:11Z</time></trkpt>
<trkpt lat="50.066536" lon="4.554733"><time>2026-05-06T19:11:11Z</time></trkpt>
</trkseg></trk>
<trk>
<name>nvvns37</name>
<cmt>d</cmt>
<desc>Nismes Sentier n°37 </desc>
<link href="https://chemins.be/nismes/sentier/37"/><trkseg>
<trkpt lat="50.066536" lon="4.554733"><time>2026-05-06T19:11:11Z</time></trkpt>
<trkpt lat="50.066130" lon="4.555528"><time>2026-05-06T19:21:11Z</time></trkpt>
<trkpt lat="50.065895" lon="4.556001"><time>2026-05-06T19:31:11Z</time></trkpt>
<trkpt lat="50.065840" lon="4.557035"><time>2026-05-06T19:41:11Z</time></trkpt>
</trkseg></trk>
<trk>
<name>nvvns37</name>
<cmt>v</cmt>
<desc>Nismes Sentier n°37 </desc>
<link href="https://chemins.be/nismes/sentier/37"/><trkseg>
<trkpt lat="50.065840" lon="4.557035"><time>2026-05-06T19:41:11Z</time></trkpt>
<trkpt lat="50.065784" lon="4.558166"><time>2026-05-06T19:51:11Z</time></trkpt>
<trkpt lat="50.065484" lon="4.559925"><time>2026-05-06T20:01:11Z</time></trkpt>
<trkpt lat="50.064683" lon="4.560592"><time>2026-05-06T20:11:11Z</time></trkpt>
</trkseg></trk>
<trk>
<name>nvvns37</name>
<cmt>d</cmt>
<desc>Nismes Sentier n°37 </desc>
<link href="https://chemins.be/nismes/sentier/37"/><trkseg>
<trkpt lat="50.064683" lon="4.560592"><time>2026-05-06T20:11:11Z</time></trkpt>
<trkpt lat="50.064817" lon="4.561472"><time>2026-05-06T20:21:11Z</time></trkpt>
<trkpt lat="50.063665" lon="4.561957"><time>2026-05-06T20:31:11Z</time></trkpt>
<trkpt lat="50.062853" lon="4.563867"><time>2026-05-06T20:41:11Z</time></trkpt>
<trkpt lat="50.061349" lon="4.564880"><time>2026-05-06T20:51:11Z</time></trkpt>
<trkpt lat="50.060890" lon="4.565297"><time>2026-05-06T21:01:11Z</time></trkpt>
</trkseg></trk>
<trk>
<name>nvvns37</name>
<cmt>s</cmt>
<desc>Nismes Sentier n°37 </desc>
<link href="https://chemins.be/nismes/sentier/37"/><trkseg>
<trkpt lat="50.060890" lon="4.565297"><time>2026-05-06T21:01:11Z</time></trkpt>
<trkpt lat="50.059233" lon="4.566854"><time>2026-05-06T21:11:11Z</time></trkpt>
<trkpt lat="50.058837" lon="4.567160"><time>2026-05-06T21:21:11Z</time></trkpt>
</trkseg></trk>
<trk>
<name>nvvns37</name>
<cmt>v</cmt>
<desc>Nismes Sentier n°37 </desc>
<link href="https://chemins.be/nismes/sentier/37"/><trkseg>
<trkpt lat="50.058837" lon="4.567160"><time>2026-05-06T21:21:11Z</time></trkpt>
<trkpt lat="50.058151" lon="4.568596"><time>2026-05-06T21:31:11Z</time></trkpt>
</trkseg></trk>
<trk>
<name>nvvns37</name>
<cmt>d</cmt>
<desc>Nismes Sentier n°37 </desc>
<link href="https://chemins.be/nismes/sentier/37"/><trkseg>
<trkpt lat="50.058151" lon="4.568596"><time>2026-05-06T21:31:11Z</time></trkpt>
<trkpt lat="50.057321" lon="4.570505"><time>2026-05-06T21:41:11Z</time></trkpt>
</trkseg>
</trk>
<trk>
<name>nvvns38</name>
<cmt>d</cmt>
<desc>Nismes Sentier n°38 </desc>
<link href="https://chemins.be/nismes/sentier/38"/><trkseg>
<trkpt lat="50.063398" lon="4.554791"><time>2026-05-06T18:41:11Z</time></trkpt>
<trkpt lat="50.062974" lon="4.555753"><time>2026-05-06T18:51:11Z</time></trkpt>
<trkpt lat="50.062748" lon="4.556506"><time>2026-05-06T19:01:11Z</time></trkpt>
<trkpt lat="50.062881" lon="4.557735"><time>2026-05-06T19:11:11Z</time></trkpt>
</trkseg>
</trk>
<trk>
<name>nvvns39</name>
<cmt>b</cmt>
<desc>Nismes Sentier n°39 Rue des Crayas</desc>
<link href="https://chemins.be/nismes/sentier/39"/><trkseg>
<trkpt lat="50.063699" lon="4.552389"><time>2026-05-06T18:41:11Z</time></trkpt>
<trkpt lat="50.063321" lon="4.552220"><time>2026-05-06T18:51:11Z</time></trkpt>
<trkpt lat="50.062988" lon="4.552130"><time>2026-05-06T19:01:11Z</time></trkpt>
</trkseg></trk>
<trk>
<name>nvvns39</name>
<cmt>r</cmt>
<desc>Nismes Sentier n°39 Rue des Crayas</desc>
<link href="https://chemins.be/nismes/sentier/39"/><trkseg>
<trkpt lat="50.062988" lon="4.552130"><time>2026-05-06T19:01:11Z</time></trkpt>
<trkpt lat="50.062488" lon="4.550094"><time>2026-05-06T19:11:11Z</time></trkpt>
</trkseg></trk>
<trk>
<name>nvvns39</name>
<cmt>v</cmt>
<desc>Nismes Sentier n°39 Rue des Crayas</desc>
<link href="https://chemins.be/nismes/sentier/39"/><trkseg>
<trkpt lat="50.062488" lon="4.550094"><time>2026-05-06T19:11:11Z</time></trkpt>
<trkpt lat="50.061125" lon="4.547994"><time>2026-05-06T19:21:11Z</time></trkpt>
<trkpt lat="50.060562" lon="4.546149"><time>2026-05-06T19:31:11Z</time></trkpt>
</trkseg></trk>
<trk>
<name>nvvns39</name>
<cmt>d</cmt>
<desc>Nismes Sentier n°39 Rue des Crayas</desc>
<link href="https://chemins.be/nismes/sentier/39"/><trkseg>
<trkpt lat="50.060562" lon="4.546149"><time>2026-05-06T19:31:11Z</time></trkpt>
<trkpt lat="50.058574" lon="4.546448"><time>2026-05-06T19:41:11Z</time></trkpt>
<trkpt lat="50.057791" lon="4.545919"><time>2026-05-06T19:51:11Z</time></trkpt>
</trkseg></trk>
<trk>
<name>nvvns39</name>
<cmt>v</cmt>
<desc>Nismes Sentier n°39 Rue des Crayas</desc>
<link href="https://chemins.be/nismes/sentier/39"/><trkseg>
<trkpt lat="50.057791" lon="4.545919"><time>2026-05-06T19:51:11Z</time></trkpt>
<trkpt lat="50.056865" lon="4.545696"><time>2026-05-06T20:01:11Z</time></trkpt>
<trkpt lat="50.055565" lon="4.546503"><time>2026-05-06T20:11:11Z</time></trkpt>
<trkpt lat="50.053486" lon="4.547799"><time>2026-05-06T20:21:11Z</time></trkpt>
</trkseg>
</trk>
<trk>
<name>nvvns4</name>
<cmt>r</cmt>
<desc>Nismes Chemin n°4 Rue de l'Aurzière</desc>
<link href="https://chemins.be/nismes/chemin/4"/><trkseg>
<trkpt lat="50.078340" lon="4.549288"><time>2026-05-06T18:41:11Z</time></trkpt>
<trkpt lat="50.079115" lon="4.549118"><time>2026-05-06T18:51:11Z</time></trkpt>
<trkpt lat="50.083448" lon="4.542685"><time>2026-05-06T19:01:11Z</time></trkpt>
<trkpt lat="50.084979" lon="4.535257"><time>2026-05-06T19:11:11Z</time></trkpt>
<trkpt lat="50.085017" lon="4.533664"><time>2026-05-06T19:21:11Z</time></trkpt>
<trkpt lat="50.084347" lon="4.530518"><time>2026-05-06T19:31:11Z</time></trkpt>
</trkseg>
</trk>
<trk>
<name>nvvns40</name>
<cmt>d</cmt>
<desc>Nismes Sentier n°40 </desc>
<link href="https://chemins.be/nismes/sentier/40"/><trkseg>
<trkpt lat="50.060883" lon="4.553147"><time>2026-05-06T18:41:11Z</time></trkpt>
<trkpt lat="50.057103" lon="4.555436"><time>2026-05-06T18:51:11Z</time></trkpt>
</trkseg>
</trk>
<trk>
<name>nvvns41</name>
<cmt>v</cmt>
<desc>Nismes Sentier n°41 </desc>
<link href="https://chemins.be/nismes/sentier/41"/><trkseg>
<trkpt lat="50.062874" lon="4.556087"><time>2026-05-06T18:41:11Z</time></trkpt>
<trkpt lat="50.062686" lon="4.556115"><time>2026-05-06T18:51:11Z</time></trkpt>
<trkpt lat="50.061623" lon="4.557004"><time>2026-05-06T19:01:11Z</time></trkpt>
<trkpt lat="50.060957" lon="4.557686"><time>2026-05-06T19:11:11Z</time></trkpt>
</trkseg>
</trk>
<trk>
<name>nvvns42</name>
<cmt>s</cmt>
<desc>Nismes Sentier n°42 </desc>
<link href="https://chemins.be/nismes/sentier/42"/><trkseg>
<trkpt lat="50.060489" lon="4.563480"><time>2026-05-06T18:41:11Z</time></trkpt>
<trkpt lat="50.060926" lon="4.565241"><time>2026-05-06T18:51:11Z</time></trkpt>
</trkseg></trk>
<trk>
<name>nvvns42</name>
<cmt>v</cmt>
<desc>Nismes Sentier n°42 </desc>
<link href="https://chemins.be/nismes/sentier/42"/><trkseg>
<trkpt lat="50.060926" lon="4.565241"><time>2026-05-06T18:51:11Z</time></trkpt>
<trkpt lat="50.061355" lon="4.566961"><time>2026-05-06T19:01:11Z</time></trkpt>
</trkseg>
</trk>
<trk>
<name>nvvns43</name>
<cmt>d</cmt>
<desc>Nismes Sentier n°43 </desc>
<link href="https://chemins.be/nismes/sentier/43"/><trkseg>
<trkpt lat="50.068645" lon="4.539921"><time>2026-05-06T18:41:11Z</time></trkpt>
<trkpt lat="50.067432" lon="4.539302"><time>2026-05-06T18:51:11Z</time></trkpt>
<trkpt lat="50.066939" lon="4.538295"><time>2026-05-06T19:01:11Z</time></trkpt>
<trkpt lat="50.065124" lon="4.537185"><time>2026-05-06T19:11:11Z</time></trkpt>
</trkseg>
</trk>
<trk>
<name>nvvns44</name>
<cmt>d</cmt>
<desc>Nismes Sentier n°44 </desc>
<link href="https://chemins.be/nismes/sentier/44"/><trkseg>
<trkpt lat="50.063103" lon="4.548002"><time>2026-05-06T18:41:11Z</time></trkpt>
<trkpt lat="50.062772" lon="4.547274"><time>2026-05-06T18:51:11Z</time></trkpt>
<trkpt lat="50.061617" lon="4.544127"><time>2026-05-06T19:01:11Z</time></trkpt>
<trkpt lat="50.061545" lon="4.543750"><time>2026-05-06T19:11:11Z</time></trkpt>
</trkseg>
</trk>
<trk>
<name>nvvns45</name>
<cmt>v</cmt>
<desc>Nismes Sentier n°45 Regniessart / Rue du Hestreux</desc>
<link href="https://chemins.be/nismes/sentier/45"/><trkseg>
<trkpt lat="50.017121" lon="4.591516"><time>2026-05-06T18:41:11Z</time></trkpt>
<trkpt lat="50.017231" lon="4.590149"><time>2026-05-06T18:51:11Z</time></trkpt>
<trkpt lat="50.016527" lon="4.586797"><time>2026-05-06T19:01:11Z</time></trkpt>
<trkpt lat="50.016318" lon="4.584997"><time>2026-05-06T19:11:11Z</time></trkpt>
<trkpt lat="50.015835" lon="4.583065"><time>2026-05-06T19:21:11Z</time></trkpt>
<trkpt lat="50.015015" lon="4.581302"><time>2026-05-06T19:31:11Z</time></trkpt>
<trkpt lat="50.014731" lon="4.581585"><time>2026-05-06T19:41:11Z</time></trkpt>
<trkpt lat="50.014372" lon="4.580927"><time>2026-05-06T19:51:11Z</time></trkpt>
<trkpt lat="50.013610" lon="4.579459"><time>2026-05-06T20:01:11Z</time></trkpt>
<trkpt lat="50.012626" lon="4.576650"><time>2026-05-06T20:11:11Z</time></trkpt>
</trkseg></trk>
<trk>
<name>nvvns45</name>
<cmt>d</cmt>
<desc>Nismes Sentier n°45 Regniessart / Rue du Hestreux</desc>
<link href="https://chemins.be/nismes/sentier/45"/><trkseg>
<trkpt lat="50.012626" lon="4.576650"><time>2026-05-06T20:11:11Z</time></trkpt>
<trkpt lat="50.018432" lon="4.567494"><time>2026-05-06T20:21:11Z</time></trkpt>
<trkpt lat="50.020341" lon="4.566107"><time>2026-05-06T20:31:11Z</time></trkpt>
</trkseg></trk>
<trk>
<name>nvvns45</name>
<cmt>r</cmt>
<desc>Nismes Sentier n°45 Regniessart / Rue du Hestreux</desc>
<link href="https://chemins.be/nismes/sentier/45"/><trkseg>
<trkpt lat="50.020341" lon="4.566107"><time>2026-05-06T20:31:11Z</time></trkpt>
<trkpt lat="50.023321" lon="4.563858"><time>2026-05-06T20:41:11Z</time></trkpt>
</trkseg>
</trk>
<trk>
<name>nvvns46</name>
<cmt>d</cmt>
<desc>Nismes Sentier n°46 </desc>
<link href="https://chemins.be/nismes/sentier/46"/><trkseg>
<trkpt lat="50.018406" lon="4.591522"><time>2026-05-06T18:41:11Z</time></trkpt>
<trkpt lat="50.018919" lon="4.587046"><time>2026-05-06T18:51:11Z</time></trkpt>
<trkpt lat="50.018891" lon="4.583284"><time>2026-05-06T19:01:11Z</time></trkpt>
<trkpt lat="50.018915" lon="4.579455"><time>2026-05-06T19:11:11Z</time></trkpt>
<trkpt lat="50.018946" lon="4.576748"><time>2026-05-06T19:21:11Z</time></trkpt>
<trkpt lat="50.018955" lon="4.567064"><time>2026-05-06T19:31:11Z</time></trkpt>
</trkseg>
</trk>
<trk>
<name>nvvns47</name>
<cmt>v</cmt>
<desc>Nismes Sentier n°47 </desc>
<link href="https://chemins.be/nismes/sentier/47"/><trkseg>
<trkpt lat="50.021830" lon="4.605828"><time>2026-05-06T18:41:11Z</time></trkpt>
<trkpt lat="50.023270" lon="4.605207"><time>2026-05-06T18:51:11Z</time></trkpt>
</trkseg>
</trk>
<trk>
<name>nvvns48</name>
<cmt>v</cmt>
<desc>Nismes Sentier n°48 </desc>
<link href="https://chemins.be/nismes/sentier/48"/><trkseg>
<trkpt lat="50.074227" lon="4.546186"><time>2026-05-06T18:41:11Z</time></trkpt>
<trkpt lat="50.073769" lon="4.545974"><time>2026-05-06T18:51:11Z</time></trkpt>
<trkpt lat="50.073716" lon="4.545625"><time>2026-05-06T19:01:11Z</time></trkpt>
<trkpt lat="50.073555" lon="4.544618"><time>2026-05-06T19:11:11Z</time></trkpt>
<trkpt lat="50.073601" lon="4.544465"><time>2026-05-06T19:21:11Z</time></trkpt>
</trkseg>
</trk>
<trk>
<name>nvvns49</name>
<cmt>v</cmt>
<desc>Nismes Sentier n°49 Rue d'Avignon</desc>
<link href="https://chemins.be/nismes/sentier/49"/><trkseg>
<trkpt lat="50.074287" lon="4.547219"><time>2026-05-06T18:41:11Z</time></trkpt>
<trkpt lat="50.073578" lon="4.546641"><time>2026-05-06T18:51:11Z</time></trkpt>
</trkseg></trk>
<trk>
<name>nvvns49</name>
<cmt>d</cmt>
<desc>Nismes Sentier n°49 Rue d'Avignon</desc>
<link href="https://chemins.be/nismes/sentier/49"/><trkseg>
<trkpt lat="50.073578" lon="4.546641"><time>2026-05-06T18:51:11Z</time></trkpt>
<trkpt lat="50.073555" lon="4.546459"><time>2026-05-06T19:01:11Z</time></trkpt>
<trkpt lat="50.073957" lon="4.546436"><time>2026-05-06T19:11:11Z</time></trkpt>
</trkseg></trk>
<trk>
<name>nvvns49</name>
<cmt>s</cmt>
<desc>Nismes Sentier n°49 Rue d'Avignon</desc>
<link href="https://chemins.be/nismes/sentier/49"/><trkseg>
<trkpt lat="50.073957" lon="4.546436"><time>2026-05-06T19:11:11Z</time></trkpt>
<trkpt lat="50.073715" lon="4.546212"><time>2026-05-06T19:21:11Z</time></trkpt>
<trkpt lat="50.073769" lon="4.545974"><time>2026-05-06T19:31:11Z</time></trkpt>
</trkseg>
</trk>
<trk>
<name>nvvns5</name>
<cmt>v</cmt>
<desc>Nismes Chemin n°5 </desc>
<link href="https://chemins.be/nismes/chemin/5"/><trkseg>
<trkpt lat="50.078359" lon="4.554667"><time>2026-05-06T18:41:11Z</time></trkpt>
<trkpt lat="50.079101" lon="4.557003"><time>2026-05-06T18:51:11Z</time></trkpt>
<trkpt lat="50.079532" lon="4.557648"><time>2026-05-06T19:01:11Z</time></trkpt>
<trkpt lat="50.080384" lon="4.558853"><time>2026-05-06T19:11:11Z</time></trkpt>
<trkpt lat="50.081952" lon="4.561849"><time>2026-05-06T19:21:11Z</time></trkpt>
<trkpt lat="50.083094" lon="4.561993"><time>2026-05-06T19:31:11Z</time></trkpt>
<trkpt lat="50.083946" lon="4.563296"><time>2026-05-06T19:41:11Z</time></trkpt>
</trkseg>
</trk>
<trk>
<name>nvvns50</name>
<cmt>v</cmt>
<desc>Nismes Sentier n°50 </desc>
<link href="https://chemins.be/nismes/sentier/50"/><trkseg>
<trkpt lat="50.075958" lon="4.548888"><time>2026-05-06T18:41:11Z</time></trkpt>
<trkpt lat="50.076632" lon="4.549114"><time>2026-05-06T18:51:11Z</time></trkpt>
<trkpt lat="50.076967" lon="4.548096"><time>2026-05-06T19:01:11Z</time></trkpt>
</trkseg>
</trk>
<trk>
<name>nvvns51</name>
<cmt>v</cmt>
<desc>Nismes Sentier n°51 </desc>
<link href="https://chemins.be/nismes/sentier/51"/><trkseg>
<trkpt lat="50.073739" lon="4.548056"><time>2026-05-06T18:41:11Z</time></trkpt>
<trkpt lat="50.073408" lon="4.547063"><time>2026-05-06T18:51:11Z</time></trkpt>
</trkseg></trk>
<trk>
<name>nvvns51</name>
<cmt>d</cmt>
<desc>Nismes Sentier n°51 </desc>
<link href="https://chemins.be/nismes/sentier/51"/><trkseg>
<trkpt lat="50.073408" lon="4.547063"><time>2026-05-06T18:51:11Z</time></trkpt>
<trkpt lat="50.073311" lon="4.545889"><time>2026-05-06T19:01:11Z</time></trkpt>
<trkpt lat="50.073583" lon="4.544465"><time>2026-05-06T19:11:11Z</time></trkpt>
</trkseg>
</trk>
<trk>
<name>nvvns52</name>
<cmt>v</cmt>
<desc>Nismes Sentier n°52 </desc>
<link href="https://chemins.be/nismes/sentier/52"/><trkseg>
<trkpt lat="50.075458" lon="4.546763"><time>2026-05-06T18:41:11Z</time></trkpt>
<trkpt lat="50.075827" lon="4.546331"><time>2026-05-06T18:51:11Z</time></trkpt>
<trkpt lat="50.075998" lon="4.546430"><time>2026-05-06T19:01:11Z</time></trkpt>
<trkpt lat="50.076295" lon="4.546542"><time>2026-05-06T19:11:11Z</time></trkpt>
<trkpt lat="50.076484" lon="4.546334"><time>2026-05-06T19:21:11Z</time></trkpt>
<trkpt lat="50.076799" lon="4.545944"><time>2026-05-06T19:31:11Z</time></trkpt>
</trkseg>
</trk>
<trk>
<name>nvvns53</name>
<cmt>b</cmt>
<desc>Nismes Sentier n°53 Rue du Petit Tienne</desc>
<link href="https://chemins.be/nismes/sentier/53"/><trkseg>
<trkpt lat="50.072885" lon="4.536234"><time>2026-05-06T18:41:11Z</time></trkpt>
<trkpt lat="50.072977" lon="4.534880"><time>2026-05-06T18:51:11Z</time></trkpt>
<trkpt lat="50.072952" lon="4.533441"><time>2026-05-06T19:01:11Z</time></trkpt>
</trkseg></trk>
<trk>
<name>nvvns53</name>
<cmt>r</cmt>
<desc>Nismes Sentier n°53 Rue du Petit Tienne</desc>
<link href="https://chemins.be/nismes/sentier/53"/><trkseg>
<trkpt lat="50.072952" lon="4.533441"><time>2026-05-06T19:01:11Z</time></trkpt>
<trkpt lat="50.072667" lon="4.531442"><time>2026-05-06T19:11:11Z</time></trkpt>
<trkpt lat="50.072821" lon="4.530325"><time>2026-05-06T19:21:11Z</time></trkpt>
<trkpt lat="50.073451" lon="4.529754"><time>2026-05-06T19:31:11Z</time></trkpt>
</trkseg>
</trk>
<trk>
<name>nvvns54</name>
<cmt>v</cmt>
<desc>Nismes Sentier n°54 </desc>
<link href="https://chemins.be/nismes/sentier/54"/><trkseg>
<trkpt lat="50.078420" lon="4.550323"><time>2026-05-06T18:41:11Z</time></trkpt>
<trkpt lat="50.078653" lon="4.550337"><time>2026-05-06T18:51:11Z</time></trkpt>
<trkpt lat="50.078905" lon="4.550143"><time>2026-05-06T19:01:11Z</time></trkpt>
<trkpt lat="50.079122" lon="4.549459"><time>2026-05-06T19:11:11Z</time></trkpt>
</trkseg>
</trk>
<trk>
<name>nvvns55</name>
<cmt>v</cmt>
<desc>Nismes Sentier n°55 </desc>
<link href="https://chemins.be/nismes/sentier/55"/><trkseg>
<trkpt lat="50.074240" lon="4.549860"><time>2026-05-06T18:41:11Z</time></trkpt>
<trkpt lat="50.073925" lon="4.550096"><time>2026-05-06T18:51:11Z</time></trkpt>
<trkpt lat="50.074068" lon="4.550250"><time>2026-05-06T19:01:11Z</time></trkpt>
<trkpt lat="50.074194" lon="4.550418"><time>2026-05-06T19:11:11Z</time></trkpt>
<trkpt lat="50.074266" lon="4.550349"><time>2026-05-06T19:21:11Z</time></trkpt>
</trkseg>
</trk>
<trk>
<name>nvvns57</name>
<cmt>r</cmt>
<desc>Nismes Sentier n°57 Rue du Calvaire / ?</desc>
<link href="https://chemins.be/nismes/sentier/57"/><trkseg>
<trkpt lat="50.070403" lon="4.548560"><time>2026-05-06T18:41:11Z</time></trkpt>
<trkpt lat="50.069855" lon="4.547859"><time>2026-05-06T18:51:11Z</time></trkpt>
<trkpt lat="50.069559" lon="4.547858"><time>2026-05-06T19:01:11Z</time></trkpt>
<trkpt lat="50.068661" lon="4.547101"><time>2026-05-06T19:11:11Z</time></trkpt>
<trkpt lat="50.067080" lon="4.545977"><time>2026-05-06T19:21:11Z</time></trkpt>
</trkseg></trk>
<trk>
<name>nvvns57</name>
<cmt>v</cmt>
<desc>Nismes Sentier n°57 Rue du Calvaire / ?</desc>
<link href="https://chemins.be/nismes/sentier/57"/><trkseg>
<trkpt lat="50.067080" lon="4.545977"><time>2026-05-06T19:21:11Z</time></trkpt>
<trkpt lat="50.065447" lon="4.543806"><time>2026-05-06T19:31:11Z</time></trkpt>
<trkpt lat="50.064481" lon="4.540884"><time>2026-05-06T19:41:11Z</time></trkpt>
<trkpt lat="50.064267" lon="4.539095"><time>2026-05-06T19:51:11Z</time></trkpt>
</trkseg>
</trk>
<trk>
<name>nvvns58</name>
<cmt>s</cmt>
<desc>Nismes Sentier n°58 Voye des Pauquis</desc>
<link href="https://chemins.be/nismes/sentier/58"/><trkseg>
<trkpt lat="50.083266" lon="4.555623"><time>2026-05-06T18:41:11Z</time></trkpt>
<trkpt lat="50.084533" lon="4.556242"><time>2026-05-06T18:51:11Z</time></trkpt>
<trkpt lat="50.085063" lon="4.556342"><time>2026-05-06T19:01:11Z</time></trkpt>
</trkseg></trk>
<trk>
<name>nvvns58</name>
<cmt>r</cmt>
<desc>Nismes Sentier n°58 Voye des Pauquis</desc>
<link href="https://chemins.be/nismes/sentier/58"/><trkseg>
<trkpt lat="50.085063" lon="4.556342"><time>2026-05-06T19:01:11Z</time></trkpt>
<trkpt lat="50.085773" lon="4.556429"><time>2026-05-06T19:11:11Z</time></trkpt>
</trkseg>
</trk>
<trk>
<name>nvvns59</name>
<cmt>s</cmt>
<desc>Nismes Sentier n°59 </desc>
<link href="https://chemins.be/nismes/sentier/59"/><trkseg>
<trkpt lat="50.069243" lon="4.548486"><time>2026-05-06T18:41:11Z</time></trkpt>
<trkpt lat="50.069171" lon="4.548569"><time>2026-05-06T18:51:11Z</time></trkpt>
<trkpt lat="50.068775" lon="4.548610"><time>2026-05-06T19:01:11Z</time></trkpt>
<trkpt lat="50.068613" lon="4.548707"><time>2026-05-06T19:11:11Z</time></trkpt>
</trkseg>
</trk>
<trk>
<name>nvvns6</name>
<cmt>v</cmt>
<desc>Nismes Chemin n°6 </desc>
<link href="https://chemins.be/nismes/chemin/6"/><trkseg>
<trkpt lat="50.053811" lon="4.545579"><time>2026-05-06T18:41:11Z</time></trkpt>
<trkpt lat="50.053458" lon="4.547828"><time>2026-05-06T18:51:11Z</time></trkpt>
<trkpt lat="50.052448" lon="4.548562"><time>2026-05-06T19:01:11Z</time></trkpt>
<trkpt lat="50.052125" lon="4.550362"><time>2026-05-06T19:11:11Z</time></trkpt>
<trkpt lat="50.051524" lon="4.552985"><time>2026-05-06T19:21:11Z</time></trkpt>
</trkseg></trk>
<trk>
<name>nvvns6</name>
<cmt>d</cmt>
<desc>Nismes Chemin n°6 </desc>
<link href="https://chemins.be/nismes/chemin/6"/><trkseg>
<trkpt lat="50.051524" lon="4.552985"><time>2026-05-06T19:21:11Z</time></trkpt>
<trkpt lat="50.051440" lon="4.554981"><time>2026-05-06T19:31:11Z</time></trkpt>
<trkpt lat="50.049691" lon="4.558018"><time>2026-05-06T19:41:11Z</time></trkpt>
<trkpt lat="50.048908" lon="4.558294"><time>2026-05-06T19:51:11Z</time></trkpt>
<trkpt lat="50.047762" lon="4.560943"><time>2026-05-06T20:01:11Z</time></trkpt>
</trkseg>
</trk>
<trk>
<name>nvvns7</name>
<cmt>v</cmt>
<desc>Nismes Chemin n°7 </desc>
<link href="https://chemins.be/nismes/chemin/7"/><trkseg>
<trkpt lat="50.055355" lon="4.580768"><time>2026-05-06T18:41:11Z</time></trkpt>
<trkpt lat="50.052974" lon="4.578181"><time>2026-05-06T18:51:11Z</time></trkpt>
<trkpt lat="50.050647" lon="4.573785"><time>2026-05-06T19:01:11Z</time></trkpt>
<trkpt lat="50.048754" lon="4.571382"><time>2026-05-06T19:11:11Z</time></trkpt>
<trkpt lat="50.047909" lon="4.568120"><time>2026-05-06T19:21:11Z</time></trkpt>
<trkpt lat="50.047309" lon="4.568103"><time>2026-05-06T19:31:11Z</time></trkpt>
<trkpt lat="50.043761" lon="4.566371"><time>2026-05-06T19:41:11Z</time></trkpt>
<trkpt lat="50.041705" lon="4.564646"><time>2026-05-06T19:51:11Z</time></trkpt>
<trkpt lat="50.040402" lon="4.564277"><time>2026-05-06T20:01:11Z</time></trkpt>
<trkpt lat="50.039280" lon="4.563323"><time>2026-05-06T20:11:11Z</time></trkpt>
<trkpt lat="50.037261" lon="4.560705"><time>2026-05-06T20:21:11Z</time></trkpt>
<trkpt lat="50.035746" lon="4.558437"><time>2026-05-06T20:31:11Z</time></trkpt>
<trkpt lat="50.034524" lon="4.557846"><time>2026-05-06T20:41:11Z</time></trkpt>
<trkpt lat="50.030794" lon="4.557008"><time>2026-05-06T20:51:11Z</time></trkpt>
</trkseg>
</trk>
<trk>
<name>nvvns8</name>
<cmt>v</cmt>
<desc>Nismes Chemin n°8 </desc>
<link href="https://chemins.be/nismes/chemin/8"/><trkseg>
<trkpt lat="50.024974" lon="4.579453"><time>2026-05-06T18:41:11Z</time></trkpt>
<trkpt lat="50.024378" lon="4.576269"><time>2026-05-06T18:51:11Z</time></trkpt>
<trkpt lat="50.024312" lon="4.574702"><time>2026-05-06T19:01:11Z</time></trkpt>
<trkpt lat="50.024274" lon="4.573784"><time>2026-05-06T19:11:11Z</time></trkpt>
<trkpt lat="50.023712" lon="4.571689"><time>2026-05-06T19:21:11Z</time></trkpt>
<trkpt lat="50.023491" lon="4.569553"><time>2026-05-06T19:31:11Z</time></trkpt>
<trkpt lat="50.024584" lon="4.566375"><time>2026-05-06T19:41:11Z</time></trkpt>
<trkpt lat="50.024646" lon="4.565561"><time>2026-05-06T19:51:11Z</time></trkpt>
<trkpt lat="50.024897" lon="4.562302"><time>2026-05-06T20:01:11Z</time></trkpt>
</trkseg>
</trk>
<trk>
<name>nvvns9</name>
<cmt>v</cmt>
<desc>Nismes Chemin n°9 Regniessart / Rue des Bouvreuils</desc>
<link href="https://chemins.be/nismes/chemin/9"/><trkseg>
<trkpt lat="50.023134" lon="4.587581"><time>2026-05-06T18:41:11Z</time></trkpt>
<trkpt lat="50.021476" lon="4.589555"><time>2026-05-06T18:51:11Z</time></trkpt>
<trkpt lat="50.018523" lon="4.591481"><time>2026-05-06T19:01:11Z</time></trkpt>
<trkpt lat="50.017174" lon="4.591572"><time>2026-05-06T19:11:11Z</time></trkpt>
<trkpt lat="50.016985" lon="4.591795"><time>2026-05-06T19:21:11Z</time></trkpt>
</trkseg></trk>
<trk>
<name>nvvns9</name>
<cmt>r</cmt>
<desc>Nismes Chemin n°9 Regniessart / Rue des Bouvreuils</desc>
<link href="https://chemins.be/nismes/chemin/9"/><trkseg>
<trkpt lat="50.016985" lon="4.591795"><time>2026-05-06T19:21:11Z</time></trkpt>
<trkpt lat="50.017019" lon="4.592827"><time>2026-05-06T19:31:11Z</time></trkpt>
<trkpt lat="50.017233" lon="4.593679"><time>2026-05-06T19:41:11Z</time></trkpt>
<trkpt lat="50.017385" lon="4.594461"><time>2026-05-06T19:51:11Z</time></trkpt>
<trkpt lat="50.017400" lon="4.595689"><time>2026-05-06T20:01:11Z</time></trkpt>
</trkseg></trk>
<trk>
<name>nvvns9</name>
<cmt>v</cmt>
<desc>Nismes Chemin n°9 Regniessart / Rue des Bouvreuils</desc>
<link href="https://chemins.be/nismes/chemin/9"/><trkseg>
<trkpt lat="50.017400" lon="4.595689"><time>2026-05-06T20:01:11Z</time></trkpt>
<trkpt lat="50.017256" lon="4.595884"><time>2026-05-06T20:11:11Z</time></trkpt>
</trkseg>
</trk>
<trk>
<name>nvvnsi1</name>
<cmt>v</cmt>
<desc>Nismes Sentier n°i1 </desc>
<link href="https://chemins.be/nismes/sentier/i1"/><trkseg>
<trkpt lat="50.073943" lon="4.550096"><time>2026-05-06T18:41:11Z</time></trkpt>
<trkpt lat="50.073483" lon="4.550457"><time>2026-05-06T18:51:11Z</time></trkpt>
<trkpt lat="50.072548" lon="4.550915"><time>2026-05-06T19:01:11Z</time></trkpt>
<trkpt lat="50.072519" lon="4.552270"><time>2026-05-06T19:11:11Z</time></trkpt>
<trkpt lat="50.072733" lon="4.553221"><time>2026-05-06T19:21:11Z</time></trkpt>
<trkpt lat="50.072731" lon="4.554576"><time>2026-05-06T19:31:11Z</time></trkpt>
<trkpt lat="50.073277" lon="4.556058"><time>2026-05-06T19:41:11Z</time></trkpt>
</trkseg>
</trk>
<trk>
<name>nvvnsi10</name>
<cmt>v</cmt>
<desc>Nismes Chemin n°i10 </desc>
<link href="https://chemins.be/nismes/chemin/i10"/><trkseg>
<trkpt lat="50.076099" lon="4.567358"><time>2026-05-06T18:41:11Z</time></trkpt>
<trkpt lat="50.076813" lon="4.570029"><time>2026-05-06T18:51:11Z</time></trkpt>
<trkpt lat="50.076676" lon="4.571188"><time>2026-05-06T19:01:11Z</time></trkpt>
<trkpt lat="50.076855" lon="4.571664"><time>2026-05-06T19:11:11Z</time></trkpt>
<trkpt lat="50.079494" lon="4.574567"><time>2026-05-06T19:21:11Z</time></trkpt>
<trkpt lat="50.079682" lon="4.575029"><time>2026-05-06T19:31:11Z</time></trkpt>
</trkseg>
</trk>
<trk>
<name>nvvnsi11</name>
<cmt>v</cmt>
<desc>Nismes Chemin n°i11 </desc>
<link href="https://chemins.be/nismes/chemin/i11"/><trkseg>
<trkpt lat="50.069780" lon="4.555472"><time>2026-05-06T18:41:11Z</time></trkpt>
<trkpt lat="50.069071" lon="4.555036"><time>2026-05-06T18:51:11Z</time></trkpt>
<trkpt lat="50.068332" lon="4.555927"><time>2026-05-06T19:01:11Z</time></trkpt>
<trkpt lat="50.067550" lon="4.556036"><time>2026-05-06T19:11:11Z</time></trkpt>
<trkpt lat="50.067145" lon="4.555839"><time>2026-05-06T19:21:11Z</time></trkpt>
<trkpt lat="50.066446" lon="4.554802"><time>2026-05-06T19:31:11Z</time></trkpt>
</trkseg>
</trk>
<trk>
<name>nvvnsi12</name>
<cmt>v</cmt>
<desc>Nismes Sentier n°i12 </desc>
<link href="https://chemins.be/nismes/sentier/i12"/><trkseg>
<trkpt lat="50.075971" lon="4.546430"><time>2026-05-06T18:41:11Z</time></trkpt>
<trkpt lat="50.075756" lon="4.546079"><time>2026-05-06T18:51:11Z</time></trkpt>
<trkpt lat="50.075676" lon="4.545478"><time>2026-05-06T19:01:11Z</time></trkpt>
<trkpt lat="50.075892" lon="4.545312"><time>2026-05-06T19:11:11Z</time></trkpt>
<trkpt lat="50.075857" lon="4.544781"><time>2026-05-06T19:21:11Z</time></trkpt>
<trkpt lat="50.076188" lon="4.545522"><time>2026-05-06T19:31:11Z</time></trkpt>
<trkpt lat="50.076404" lon="4.545733"><time>2026-05-06T19:41:11Z</time></trkpt>
<trkpt lat="50.076719" lon="4.545720"><time>2026-05-06T19:51:11Z</time></trkpt>
</trkseg>
</trk>
<trk>
<name>nvvnsi13</name>
<cmt>v</cmt>
<desc>Nismes Chemin n°i13 </desc>
<link href="https://chemins.be/nismes/chemin/i13"/><trkseg>
<trkpt lat="50.077441" lon="4.546717"><time>2026-05-06T18:41:11Z</time></trkpt>
<trkpt lat="50.077967" lon="4.546860"><time>2026-05-06T18:51:11Z</time></trkpt>
<trkpt lat="50.078536" lon="4.546595"><time>2026-05-06T19:01:11Z</time></trkpt>
</trkseg>
</trk>
<trk>
<name>nvvnsi14</name>
<cmt>v</cmt>
<desc>Nismes Chemin n°i14 </desc>
<link href="https://chemins.be/nismes/chemin/i14"/><trkseg>
<trkpt lat="50.073313" lon="4.555863"><time>2026-05-06T18:41:11Z</time></trkpt>
<trkpt lat="50.073396" lon="4.554299"><time>2026-05-06T18:51:11Z</time></trkpt>
<trkpt lat="50.073715" lon="4.553727"><time>2026-05-06T19:01:11Z</time></trkpt>
<trkpt lat="50.074155" lon="4.553234"><time>2026-05-06T19:11:11Z</time></trkpt>
<trkpt lat="50.074862" lon="4.553673"><time>2026-05-06T19:21:11Z</time></trkpt>
</trkseg>
</trk>
<trk>
<name>nvvnsi15</name>
<cmt>v</cmt>
<desc>Nismes Chemin n°i15 </desc>
<link href="https://chemins.be/nismes/chemin/i15"/><trkseg>
<trkpt lat="50.074012" lon="4.547955"><time>2026-05-06T18:41:11Z</time></trkpt>
<trkpt lat="50.074120" lon="4.547923"><time>2026-05-06T18:51:11Z</time></trkpt>
<trkpt lat="50.074275" lon="4.547802"><time>2026-05-06T19:01:11Z</time></trkpt>
</trkseg>
</trk>
<trk>
<name>nvvnsi16</name>
<cmt>v</cmt>
<desc>Nismes Sentier n°i16 </desc>
<link href="https://chemins.be/nismes/sentier/i16"/><trkseg>
<trkpt lat="50.085549" lon="4.556177"><time>2026-05-06T18:41:11Z</time></trkpt>
<trkpt lat="50.085506" lon="4.555017"><time>2026-05-06T18:51:11Z</time></trkpt>
<trkpt lat="50.084988" lon="4.552513"><time>2026-05-06T19:01:11Z</time></trkpt>
<trkpt lat="50.084712" lon="4.552138"><time>2026-05-06T19:11:11Z</time></trkpt>
<trkpt lat="50.084575" lon="4.551675"><time>2026-05-06T19:21:11Z</time></trkpt>
<trkpt lat="50.083767" lon="4.551768"><time>2026-05-06T19:31:11Z</time></trkpt>
<trkpt lat="50.083660" lon="4.551209"><time>2026-05-06T19:41:11Z</time></trkpt>
<trkpt lat="50.084022" lon="4.549701"><time>2026-05-06T19:51:11Z</time></trkpt>
<trkpt lat="50.083942" lon="4.549170"><time>2026-05-06T20:01:11Z</time></trkpt>
<trkpt lat="50.083306" lon="4.547351"><time>2026-05-06T20:11:11Z</time></trkpt>
<trkpt lat="50.083433" lon="4.546611"><time>2026-05-06T20:21:11Z</time></trkpt>
<trkpt lat="50.084443" lon="4.544728"><time>2026-05-06T20:31:11Z</time></trkpt>
<trkpt lat="50.084068" lon="4.542813"><time>2026-05-06T20:41:11Z</time></trkpt>
<trkpt lat="50.084258" lon="4.542478"><time>2026-05-06T20:51:11Z</time></trkpt>
<trkpt lat="50.084600" lon="4.542088"><time>2026-05-06T21:01:11Z</time></trkpt>
<trkpt lat="50.086434" lon="4.542291"><time>2026-05-06T21:11:11Z</time></trkpt>
<trkpt lat="50.086587" lon="4.541844"><time>2026-05-06T21:21:11Z</time></trkpt>
<trkpt lat="50.086866" lon="4.542055"><time>2026-05-06T21:31:11Z</time></trkpt>
</trkseg>
</trk>
<trk>
<name>nvvnsi17</name>
<cmt>s</cmt>
<desc>Nismes Chemin n°i17 Chemin de Nismes à Fagnolle</desc>
<link href="https://chemins.be/nismes/chemin/i17"/><trkseg>
<trkpt lat="50.083447" lon="4.543202"><time>2026-05-06T18:41:11Z</time></trkpt>
<trkpt lat="50.084230" lon="4.542827"><time>2026-05-06T18:51:11Z</time></trkpt>
<trkpt lat="50.084806" lon="4.542508"><time>2026-05-06T19:01:11Z</time></trkpt>
<trkpt lat="50.086496" lon="4.542640"><time>2026-05-06T19:11:11Z</time></trkpt>
<trkpt lat="50.086865" lon="4.542082"><time>2026-05-06T19:21:11Z</time></trkpt>
</trkseg></trk>
<trk>
<name>nvvnsi17</name>
<cmt>v</cmt>
<desc>Nismes Chemin n°i17 Chemin de Nismes à Fagnolle</desc>
<link href="https://chemins.be/nismes/chemin/i17"/><trkseg>
<trkpt lat="50.086865" lon="4.542082"><time>2026-05-06T19:21:11Z</time></trkpt>
<trkpt lat="50.087270" lon="4.542419"><time>2026-05-06T19:31:11Z</time></trkpt>
<trkpt lat="50.087891" lon="4.541905"><time>2026-05-06T19:41:11Z</time></trkpt>
<trkpt lat="50.088853" lon="4.541461"><time>2026-05-06T19:51:11Z</time></trkpt>
<trkpt lat="50.089869" lon="4.541534"><time>2026-05-06T20:01:11Z</time></trkpt>
<trkpt lat="50.090525" lon="4.541998"><time>2026-05-06T20:11:11Z</time></trkpt>
<trkpt lat="50.091135" lon="4.542853"><time>2026-05-06T20:21:11Z</time></trkpt>
</trkseg>
</trk>
<trk>
<name>nvvnsi18</name>
<cmt>v</cmt>
<desc>Nismes Chemin n°i18 </desc>
<link href="https://chemins.be/nismes/chemin/i18"/><trkseg>
<trkpt lat="50.075175" lon="4.566166"><time>2026-05-06T18:41:11Z</time></trkpt>
<trkpt lat="50.075904" lon="4.565624"><time>2026-05-06T18:51:11Z</time></trkpt>
</trkseg>
</trk>
<trk>
<name>nvvnsi19</name>
<cmt>v</cmt>
<desc>Nismes Chemin n°i19 </desc>
<link href="https://chemins.be/nismes/chemin/i19"/><trkseg>
<trkpt lat="50.077452" lon="4.564471"><time>2026-05-06T18:41:11Z</time></trkpt>
<trkpt lat="50.077478" lon="4.565142"><time>2026-05-06T18:51:11Z</time></trkpt>
<trkpt lat="50.078282" lon="4.568037"><time>2026-05-06T19:01:11Z</time></trkpt>
<trkpt lat="50.078324" lon="4.569700"><time>2026-05-06T19:11:11Z</time></trkpt>
<trkpt lat="50.078234" lon="4.570161"><time>2026-05-06T19:21:11Z</time></trkpt>
<trkpt lat="50.078394" lon="4.570888"><time>2026-05-06T19:31:11Z</time></trkpt>
<trkpt lat="50.078122" lon="4.572382"><time>2026-05-06T19:41:11Z</time></trkpt>
<trkpt lat="50.078166" lon="4.572773"><time>2026-05-06T19:51:11Z</time></trkpt>
<trkpt lat="50.078318" lon="4.573263"><time>2026-05-06T20:01:11Z</time></trkpt>
</trkseg>
</trk>
<trk>
<name>nvvnsi2</name>
<cmt>v</cmt>
<desc>Nismes Sentier n°i2 </desc>
<link href="https://chemins.be/nismes/sentier/i2"/><trkseg>
<trkpt lat="50.071269" lon="4.552195"><time>2026-05-06T18:41:11Z</time></trkpt>
<trkpt lat="50.070720" lon="4.552347"><time>2026-05-06T18:51:11Z</time></trkpt>
<trkpt lat="50.070944" lon="4.553172"><time>2026-05-06T19:01:11Z</time></trkpt>
<trkpt lat="50.070323" lon="4.553532"><time>2026-05-06T19:11:11Z</time></trkpt>
<trkpt lat="50.069918" lon="4.553754"><time>2026-05-06T19:21:11Z</time></trkpt>
<trkpt lat="50.069701" lon="4.554242"><time>2026-05-06T19:31:11Z</time></trkpt>
<trkpt lat="50.069762" lon="4.555430"><time>2026-05-06T19:41:11Z</time></trkpt>
<trkpt lat="50.070013" lon="4.556325"><time>2026-05-06T19:51:11Z</time></trkpt>
</trkseg>
</trk>
<trk>
<name>nvvnsi20</name>
<cmt>v</cmt>
<desc>Nismes Chemin n°i20 </desc>
<link href="https://chemins.be/nismes/chemin/i20"/><trkseg>
<trkpt lat="50.072223" lon="4.567607"><time>2026-05-06T18:41:11Z</time></trkpt>
<trkpt lat="50.072348" lon="4.568166"><time>2026-05-06T18:51:11Z</time></trkpt>
<trkpt lat="50.072465" lon="4.568167"><time>2026-05-06T19:01:11Z</time></trkpt>
<trkpt lat="50.072777" lon="4.569523"><time>2026-05-06T19:11:11Z</time></trkpt>
<trkpt lat="50.072840" lon="4.570026"><time>2026-05-06T19:21:11Z</time></trkpt>
<trkpt lat="50.073118" lon="4.570391"><time>2026-05-06T19:31:11Z</time></trkpt>
<trkpt lat="50.073466" lon="4.571929"><time>2026-05-06T19:41:11Z</time></trkpt>
<trkpt lat="50.073572" lon="4.572823"><time>2026-05-06T19:51:11Z</time></trkpt>
</trkseg>
</trk>
<trk>
<name>nvvnsi21</name>
<cmt>v</cmt>
<desc>Nismes Chemin n°i21 </desc>
<link href="https://chemins.be/nismes/chemin/i21"/><trkseg>
<trkpt lat="50.071837" lon="4.567507"><time>2026-05-06T18:41:11Z</time></trkpt>
<trkpt lat="50.071761" lon="4.569547"><time>2026-05-06T18:51:11Z</time></trkpt>
<trkpt lat="50.072501" lon="4.573112"><time>2026-05-06T19:01:11Z</time></trkpt>
<trkpt lat="50.072767" lon="4.573929"><time>2026-05-06T19:11:11Z</time></trkpt>
<trkpt lat="50.073235" lon="4.575364"><time>2026-05-06T19:21:11Z</time></trkpt>
<trkpt lat="50.073654" lon="4.577070"><time>2026-05-06T19:31:11Z</time></trkpt>
<trkpt lat="50.073877" lon="4.578343"><time>2026-05-06T19:41:11Z</time></trkpt>
<trkpt lat="50.074058" lon="4.579265"><time>2026-05-06T19:51:11Z</time></trkpt>
</trkseg>
</trk>
<trk>
<name>nvvnsi22</name>
<cmt>q</cmt>
<desc>Nismes Sentier n°i22 </desc>
<link href="https://chemins.be/nismes/sentier/i22"/><trkseg>
<trkpt lat="50.070188" lon="4.553602"><time>2026-05-06T18:41:11Z</time></trkpt>
<trkpt lat="50.070268" lon="4.554133"><time>2026-05-06T18:51:11Z</time></trkpt>
<trkpt lat="50.070554" lon="4.554846"><time>2026-05-06T19:01:11Z</time></trkpt>
<trkpt lat="50.070795" lon="4.556160"><time>2026-05-06T19:11:11Z</time></trkpt>
<trkpt lat="50.071223" lon="4.558257"><time>2026-05-06T19:21:11Z</time></trkpt>
</trkseg>
</trk>
<trk>
<name>nvvnsi23</name>
<cmt>v</cmt>
<desc>Nismes Chemin n°i23 </desc>
<link href="https://chemins.be/nismes/chemin/i23"/><trkseg>
<trkpt lat="50.076369" lon="4.572388"><time>2026-05-06T18:41:11Z</time></trkpt>
<trkpt lat="50.077048" lon="4.574403"><time>2026-05-06T18:51:11Z</time></trkpt>
<trkpt lat="50.077683" lon="4.576627"><time>2026-05-06T19:01:11Z</time></trkpt>
<trkpt lat="50.077887" lon="4.577617"><time>2026-05-06T19:11:11Z</time></trkpt>
<trkpt lat="50.077626" lon="4.578303"><time>2026-05-06T19:21:11Z</time></trkpt>
<trkpt lat="50.077093" lon="4.578311"><time>2026-05-06T19:31:11Z</time></trkpt>
<trkpt lat="50.076313" lon="4.575865"><time>2026-05-06T19:41:11Z</time></trkpt>
</trkseg>
</trk>
<trk>
<name>nvvnsi24</name>
<cmt>v</cmt>
<desc>Nismes Sentier n°i24 </desc>
<link href="https://chemins.be/nismes/sentier/i24"/><trkseg>
<trkpt lat="50.074208" lon="4.579935"><time>2026-05-06T18:41:11Z</time></trkpt>
<trkpt lat="50.074503" lon="4.580613"><time>2026-05-06T18:51:11Z</time></trkpt>
<trkpt lat="50.074760" lon="4.580265"><time>2026-05-06T19:01:11Z</time></trkpt>
<trkpt lat="50.074876" lon="4.579362"><time>2026-05-06T19:11:11Z</time></trkpt>
</trkseg>
</trk>
<trk>
<name>nvvnsi25</name>
<cmt>v</cmt>
<desc>Nismes Chemin n°i25 </desc>
<link href="https://chemins.be/nismes/chemin/i25"/><trkseg>
<trkpt lat="50.066909" lon="4.568255"><time>2026-05-06T18:41:11Z</time></trkpt>
<trkpt lat="50.067250" lon="4.568438"><time>2026-05-06T18:51:11Z</time></trkpt>
<trkpt lat="50.068535" lon="4.568904"><time>2026-05-06T19:01:11Z</time></trkpt>
<trkpt lat="50.068865" lon="4.570149"><time>2026-05-06T19:11:11Z</time></trkpt>
<trkpt lat="50.069338" lon="4.572512"><time>2026-05-06T19:21:11Z</time></trkpt>
<trkpt lat="50.069900" lon="4.574847"><time>2026-05-06T19:31:11Z</time></trkpt>
<trkpt lat="50.070430" lon="4.575031"><time>2026-05-06T19:41:11Z</time></trkpt>
<trkpt lat="50.070636" lon="4.575604"><time>2026-05-06T19:51:11Z</time></trkpt>
</trkseg>
</trk>
<trk>
<name>nvvnsi26</name>
<cmt>v</cmt>
<desc>Nismes Chemin n°i26 </desc>
<link href="https://chemins.be/nismes/chemin/i26"/><trkseg>
<trkpt lat="50.067241" lon="4.568410"><time>2026-05-06T18:41:11Z</time></trkpt>
<trkpt lat="50.067539" lon="4.567629"><time>2026-05-06T18:51:11Z</time></trkpt>
<trkpt lat="50.066969" lon="4.564875"><time>2026-05-06T19:01:11Z</time></trkpt>
<trkpt lat="50.066494" lon="4.563700"><time>2026-05-06T19:11:11Z</time></trkpt>
<trkpt lat="50.066072" lon="4.563419"><time>2026-05-06T19:21:11Z</time></trkpt>
<trkpt lat="50.065050" lon="4.561781"><time>2026-05-06T19:31:11Z</time></trkpt>
</trkseg>
</trk>
<trk>
<name>nvvnsi27</name>
<cmt>r</cmt>
<desc>Nismes Chemin n°i27 Rue Roche-Nanette / Rue Roche Nanette</desc>
<link href="https://chemins.be/nismes/chemin/i27"/><trkseg>
<trkpt lat="50.068727" lon="4.550607"><time>2026-05-06T18:41:11Z</time></trkpt>
<trkpt lat="50.068457" lon="4.550592"><time>2026-05-06T18:51:11Z</time></trkpt>
<trkpt lat="50.068322" lon="4.550843"><time>2026-05-06T19:01:11Z</time></trkpt>
<trkpt lat="50.068547" lon="4.550872"><time>2026-05-06T19:11:11Z</time></trkpt>
<trkpt lat="50.068924" lon="4.551530"><time>2026-05-06T19:21:11Z</time></trkpt>
<trkpt lat="50.069067" lon="4.551893"><time>2026-05-06T19:31:11Z</time></trkpt>
<trkpt lat="50.069309" lon="4.552188"><time>2026-05-06T19:41:11Z</time></trkpt>
<trkpt lat="50.069929" lon="4.552386"><time>2026-05-06T19:51:11Z</time></trkpt>
<trkpt lat="50.070197" lon="4.553476"><time>2026-05-06T20:01:11Z</time></trkpt>
</trkseg>
</trk>
<trk>
<name>nvvnsi28</name>
<cmt>v</cmt>
<desc>Nismes Sentier n°i28 </desc>
<link href="https://chemins.be/nismes/sentier/i28"/><trkseg>
<trkpt lat="50.071736" lon="4.568680"><time>2026-05-06T18:41:11Z</time></trkpt>
<trkpt lat="50.070440" lon="4.569499"><time>2026-05-06T18:51:11Z</time></trkpt>
<trkpt lat="50.068919" lon="4.570413"><time>2026-05-06T19:01:11Z</time></trkpt>
</trkseg>
</trk>
<trk>
<name>nvvnsi29</name>
<cmt>v</cmt>
<desc>Nismes Sentier n°i29 </desc>
<link href="https://chemins.be/nismes/sentier/i29"/><trkseg>
<trkpt lat="50.069405" lon="4.559410"><time>2026-05-06T18:41:11Z</time></trkpt>
<trkpt lat="50.068775" lon="4.559812"><time>2026-05-06T18:51:11Z</time></trkpt>
<trkpt lat="50.068659" lon="4.559267"><time>2026-05-06T19:01:11Z</time></trkpt>
<trkpt lat="50.067941" lon="4.558538"><time>2026-05-06T19:11:11Z</time></trkpt>
<trkpt lat="50.066762" lon="4.559231"><time>2026-05-06T19:21:11Z</time></trkpt>
<trkpt lat="50.066510" lon="4.559761"><time>2026-05-06T19:31:11Z</time></trkpt>
<trkpt lat="50.066141" lon="4.559983"><time>2026-05-06T19:41:11Z</time></trkpt>
<trkpt lat="50.066711" lon="4.562933"><time>2026-05-06T19:51:11Z</time></trkpt>
<trkpt lat="50.066494" lon="4.563630"><time>2026-05-06T20:01:11Z</time></trkpt>
</trkseg>
</trk>
<trk>
<name>nvvnsi3</name>
<cmt>v</cmt>
<desc>Nismes Chemin n°i3 Voye des Pauquis</desc>
<link href="https://chemins.be/nismes/chemin/i3"/><trkseg>
<trkpt lat="50.085872" lon="4.556485"><time>2026-05-06T18:41:11Z</time></trkpt>
<trkpt lat="50.086269" lon="4.555760"><time>2026-05-06T18:51:11Z</time></trkpt>
<trkpt lat="50.086556" lon="4.555985"><time>2026-05-06T19:01:11Z</time></trkpt>
<trkpt lat="50.086889" lon="4.556056"><time>2026-05-06T19:11:11Z</time></trkpt>
<trkpt lat="50.088949" lon="4.555296"><time>2026-05-06T19:21:11Z</time></trkpt>
<trkpt lat="50.089093" lon="4.555115"><time>2026-05-06T19:31:11Z</time></trkpt>
<trkpt lat="50.088745" lon="4.553534"><time>2026-05-06T19:41:11Z</time></trkpt>
<trkpt lat="50.086377" lon="4.549696"><time>2026-05-06T19:51:11Z</time></trkpt>
<trkpt lat="50.086022" lon="4.547082"><time>2026-05-06T20:01:11Z</time></trkpt>
<trkpt lat="50.086521" lon="4.544275"><time>2026-05-06T20:11:11Z</time></trkpt>
<trkpt lat="50.086864" lon="4.543228"><time>2026-05-06T20:21:11Z</time></trkpt>
<trkpt lat="50.087278" lon="4.542587"><time>2026-05-06T20:31:11Z</time></trkpt>
</trkseg>
</trk>
<trk>
<name>nvvnsi30</name>
<cmt>q</cmt>
<desc>Nismes Chemin n°i30 </desc>
<link href="https://chemins.be/nismes/chemin/i30"/><trkseg>
<trkpt lat="50.082852" lon="4.561928"><time>2026-05-06T18:41:11Z</time></trkpt>
<trkpt lat="50.082900" lon="4.562432"><time>2026-05-06T18:51:11Z</time></trkpt>
</trkseg>
</trk>
<trk>
<name>nvvnsi31</name>
<cmt>r</cmt>
<desc>Nismes Chemin n°i31 Rue Albert Grégoire</desc>
<link href="https://chemins.be/nismes/chemin/i31"/><trkseg>
<trkpt lat="50.069970" lon="4.549075"><time>2026-05-06T18:41:11Z</time></trkpt>
<trkpt lat="50.066322" lon="4.548028"><time>2026-05-06T18:51:11Z</time></trkpt>
<trkpt lat="50.065136" lon="4.547283"><time>2026-05-06T19:01:11Z</time></trkpt>
<trkpt lat="50.062769" lon="4.543196"><time>2026-05-06T19:11:11Z</time></trkpt>
</trkseg>
</trk>
<trk>
<name>nvvnsi32</name>
<cmt>v</cmt>
<desc>Nismes Chemin n°i32 </desc>
<link href="https://chemins.be/nismes/chemin/i32"/><trkseg>
<trkpt lat="50.023144" lon="4.605081"><time>2026-05-06T18:41:11Z</time></trkpt>
<trkpt lat="50.022769" lon="4.603837"><time>2026-05-06T18:51:11Z</time></trkpt>
<trkpt lat="50.023486" lon="4.600826"><time>2026-05-06T19:01:11Z</time></trkpt>
<trkpt lat="50.022941" lon="4.598702"><time>2026-05-06T19:11:11Z</time></trkpt>
<trkpt lat="50.023139" lon="4.594182"><time>2026-05-06T19:21:11Z</time></trkpt>
<trkpt lat="50.023303" lon="4.593373"><time>2026-05-06T19:31:11Z</time></trkpt>
<trkpt lat="50.023012" lon="4.590441"><time>2026-05-06T19:41:11Z</time></trkpt>
</trkseg>
</trk>
<trk>
<name>nvvnsi33</name>
<cmt>v</cmt>
<desc>Nismes Chemin n°i33 </desc>
<link href="https://chemins.be/nismes/chemin/i33"/><trkseg>
<trkpt lat="50.093431" lon="4.557927"><time>2026-05-06T18:41:11Z</time></trkpt>
<trkpt lat="50.093192" lon="4.556137"><time>2026-05-06T18:51:11Z</time></trkpt>
<trkpt lat="50.092738" lon="4.552865"><time>2026-05-06T19:01:11Z</time></trkpt>
<trkpt lat="50.092178" lon="4.548530"><time>2026-05-06T19:11:11Z</time></trkpt>
</trkseg>
</trk>
<trk>
<name>nvvnsi34</name>
<cmt>r</cmt>
<desc>Nismes Chemin n°i34 Rue de Regniessart / Rue des Bouvreuils</desc>
<link href="https://chemins.be/nismes/chemin/i34"/><trkseg>
<trkpt lat="50.026825" lon="4.575512"><time>2026-05-06T18:41:11Z</time></trkpt>
<trkpt lat="50.025387" lon="4.575227"><time>2026-05-06T18:51:11Z</time></trkpt>
<trkpt lat="50.024327" lon="4.574510"><time>2026-05-06T19:01:11Z</time></trkpt>
<trkpt lat="50.023160" lon="4.573640"><time>2026-05-06T19:11:11Z</time></trkpt>
<trkpt lat="50.021668" lon="4.573257"><time>2026-05-06T19:21:11Z</time></trkpt>
<trkpt lat="50.019563" lon="4.573708"><time>2026-05-06T19:31:11Z</time></trkpt>
<trkpt lat="50.018976" lon="4.575157"><time>2026-05-06T19:41:11Z</time></trkpt>
<trkpt lat="50.017669" lon="4.577049"><time>2026-05-06T19:51:11Z</time></trkpt>
<trkpt lat="50.016919" lon="4.579153"><time>2026-05-06T20:01:11Z</time></trkpt>
<trkpt lat="50.014306" lon="4.582071"><time>2026-05-06T20:11:11Z</time></trkpt>
</trkseg>
</trk>
<trk>
<name>nvvnsi35</name>
<cmt>v</cmt>
<desc>Nismes Sentier n°i35 </desc>
<link href="https://chemins.be/nismes/sentier/i35"/><trkseg>
<trkpt lat="50.017039" lon="4.591865"><time>2026-05-06T18:41:11Z</time></trkpt>
<trkpt lat="50.017352" lon="4.592550"><time>2026-05-06T18:51:11Z</time></trkpt>
<trkpt lat="50.018204" lon="4.594813"><time>2026-05-06T19:01:11Z</time></trkpt>
<trkpt lat="50.018353" lon="4.595481"><time>2026-05-06T19:11:11Z</time></trkpt>
</trkseg>
</trk>
<trk>
<name>nvvnsi36</name>
<cmt>v</cmt>
<desc>Nismes Chemin n°i36 </desc>
<link href="https://chemins.be/nismes/chemin/i36"/><trkseg>
<trkpt lat="50.038727" lon="4.551054"><time>2026-05-06T18:41:11Z</time></trkpt>
<trkpt lat="50.037519" lon="4.554116"><time>2026-05-06T18:51:11Z</time></trkpt>
<trkpt lat="50.037023" lon="4.558922"><time>2026-05-06T19:01:11Z</time></trkpt>
<trkpt lat="50.037500" lon="4.561082"><time>2026-05-06T19:11:11Z</time></trkpt>
</trkseg>
</trk>
<trk>
<name>nvvnsi37</name>
<cmt>v</cmt>
<desc>Nismes Chemin n°i37 Regniessart</desc>
<link href="https://chemins.be/nismes/chemin/i37"/><trkseg>
<trkpt lat="50.016974" lon="4.578818"><time>2026-05-06T18:41:11Z</time></trkpt>
<trkpt lat="50.016049" lon="4.578144"><time>2026-05-06T18:51:11Z</time></trkpt>
<trkpt lat="50.014837" lon="4.576981"><time>2026-05-06T19:01:11Z</time></trkpt>
<trkpt lat="50.013589" lon="4.576306"><time>2026-05-06T19:11:11Z</time></trkpt>
<trkpt lat="50.012905" lon="4.576456"><time>2026-05-06T19:21:11Z</time></trkpt>
<trkpt lat="50.012437" lon="4.576622"><time>2026-05-06T19:31:11Z</time></trkpt>
</trkseg>
</trk>
<trk>
<name>nvvnsi38</name>
<cmt>r</cmt>
<desc>Nismes Chemin n°i38 Rue du Hestreux</desc>
<link href="https://chemins.be/nismes/chemin/i38"/><trkseg>
<trkpt lat="50.019500" lon="4.573708"><time>2026-05-06T18:41:11Z</time></trkpt>
<trkpt lat="50.019728" lon="4.572063"><time>2026-05-06T18:51:11Z</time></trkpt>
<trkpt lat="50.019589" lon="4.569592"><time>2026-05-06T19:01:11Z</time></trkpt>
<trkpt lat="50.020287" lon="4.566232"><time>2026-05-06T19:11:11Z</time></trkpt>
</trkseg>
</trk>
<trk>
<name>nvvnsi39</name>
<cmt>v</cmt>
<desc>Nismes Chemin n°i39 </desc>
<link href="https://chemins.be/nismes/chemin/i39"/><trkseg>
<trkpt lat="50.054936" lon="4.555303"><time>2026-05-06T18:41:11Z</time></trkpt>
<trkpt lat="50.055827" lon="4.558092"><time>2026-05-06T18:51:11Z</time></trkpt>
<trkpt lat="50.056800" lon="4.559365"><time>2026-05-06T19:01:11Z</time></trkpt>
</trkseg>
</trk>
<trk>
<name>nvvnsi4</name>
<cmt>v</cmt>
<desc>Nismes Chemin n°i4 </desc>
<link href="https://chemins.be/nismes/chemin/i4"/><trkseg>
<trkpt lat="50.069058" lon="4.551795"><time>2026-05-06T18:41:11Z</time></trkpt>
<trkpt lat="50.069057" lon="4.552145"><time>2026-05-06T18:51:11Z</time></trkpt>
<trkpt lat="50.068806" lon="4.552186"><time>2026-05-06T19:01:11Z</time></trkpt>
<trkpt lat="50.068561" lon="4.553135"><time>2026-05-06T19:11:11Z</time></trkpt>
<trkpt lat="50.069214" lon="4.555288"><time>2026-05-06T19:21:11Z</time></trkpt>
<trkpt lat="50.069231" lon="4.555819"><time>2026-05-06T19:31:11Z</time></trkpt>
<trkpt lat="50.069411" lon="4.556043"><time>2026-05-06T19:41:11Z</time></trkpt>
<trkpt lat="50.069446" lon="4.556253"><time>2026-05-06T19:51:11Z</time></trkpt>
<trkpt lat="50.069941" lon="4.556269"><time>2026-05-06T20:01:11Z</time></trkpt>
<trkpt lat="50.070209" lon="4.557010"><time>2026-05-06T20:11:11Z</time></trkpt>
<trkpt lat="50.070684" lon="4.557836"><time>2026-05-06T20:21:11Z</time></trkpt>
<trkpt lat="50.071223" lon="4.558383"><time>2026-05-06T20:31:11Z</time></trkpt>
<trkpt lat="50.071599" lon="4.559125"><time>2026-05-06T20:41:11Z</time></trkpt>
<trkpt lat="50.071832" lon="4.559824"><time>2026-05-06T20:51:11Z</time></trkpt>
</trkseg>
</trk>
<trk>
<name>nvvnsi40</name>
<cmt>s</cmt>
<desc>Nismes Chemin n°i40 </desc>
<link href="https://chemins.be/nismes/chemin/i40"/><trkseg>
<trkpt lat="50.057421" lon="4.559152"><time>2026-05-06T18:41:11Z</time></trkpt>
<trkpt lat="50.057799" lon="4.559182"><time>2026-05-06T18:51:11Z</time></trkpt>
<trkpt lat="50.057877" lon="4.560690"><time>2026-05-06T19:01:11Z</time></trkpt>
<trkpt lat="50.056852" lon="4.560854"><time>2026-05-06T19:11:11Z</time></trkpt>
<trkpt lat="50.056179" lon="4.559971"><time>2026-05-06T19:21:11Z</time></trkpt>
</trkseg>
</trk>
<trk>
<name>nvvnsi41</name>
<cmt>q</cmt>
<desc>Nismes Chemin n°i41 </desc>
<link href="https://chemins.be/nismes/chemin/i41"/><trkseg>
<trkpt lat="50.053758" lon="4.555954"><time>2026-05-06T18:41:11Z</time></trkpt>
<trkpt lat="50.053739" lon="4.556624"><time>2026-05-06T18:51:11Z</time></trkpt>
<trkpt lat="50.053594" lon="4.557112"><time>2026-05-06T19:01:11Z</time></trkpt>
<trkpt lat="50.053773" lon="4.557741"><time>2026-05-06T19:11:11Z</time></trkpt>
<trkpt lat="50.054043" lon="4.557854"><time>2026-05-06T19:21:11Z</time></trkpt>
<trkpt lat="50.054302" lon="4.558833"><time>2026-05-06T19:31:11Z</time></trkpt>
<trkpt lat="50.054767" lon="4.560189"><time>2026-05-06T19:41:11Z</time></trkpt>
<trkpt lat="50.054982" lon="4.560455"><time>2026-05-06T19:51:11Z</time></trkpt>
</trkseg>
</trk>
<trk>
<name>nvvnsi42</name>
<cmt>v</cmt>
<desc>Nismes Chemin n°i42 Rue du Petit Tienne</desc>
<link href="https://chemins.be/nismes/chemin/i42"/><trkseg>
<trkpt lat="50.073299" lon="4.529782"><time>2026-05-06T18:41:11Z</time></trkpt>
<trkpt lat="50.073397" lon="4.529740"><time>2026-05-06T18:51:11Z</time></trkpt>
<trkpt lat="50.073568" lon="4.529741"><time>2026-05-06T19:01:11Z</time></trkpt>
<trkpt lat="50.073694" lon="4.529825"><time>2026-05-06T19:11:11Z</time></trkpt>
<trkpt lat="50.073801" lon="4.530342"><time>2026-05-06T19:21:11Z</time></trkpt>
<trkpt lat="50.073998" lon="4.530944"><time>2026-05-06T19:31:11Z</time></trkpt>
<trkpt lat="50.074303" lon="4.531517"><time>2026-05-06T19:41:11Z</time></trkpt>
<trkpt lat="50.074653" lon="4.532315"><time>2026-05-06T19:51:11Z</time></trkpt>
<trkpt lat="50.074912" lon="4.533098"><time>2026-05-06T20:01:11Z</time></trkpt>
<trkpt lat="50.075137" lon="4.533239"><time>2026-05-06T20:11:11Z</time></trkpt>
<trkpt lat="50.075628" lon="4.535322"><time>2026-05-06T20:21:11Z</time></trkpt>
<trkpt lat="50.075644" lon="4.537138"><time>2026-05-06T20:31:11Z</time></trkpt>
<trkpt lat="50.075553" lon="4.537417"><time>2026-05-06T20:41:11Z</time></trkpt>
<trkpt lat="50.075552" lon="4.537920"><time>2026-05-06T20:51:11Z</time></trkpt>
<trkpt lat="50.075730" lon="4.539779"><time>2026-05-06T21:01:11Z</time></trkpt>
<trkpt lat="50.075907" lon="4.541372"><time>2026-05-06T21:11:11Z</time></trkpt>
<trkpt lat="50.075996" lon="4.541680"><time>2026-05-06T21:21:11Z</time></trkpt>
</trkseg>
</trk>
<trk>
<name>nvvnsi43</name>
<cmt>v</cmt>
<desc>Nismes Sentier n°i43 </desc>
<link href="https://chemins.be/nismes/sentier/i43"/><trkseg>
<trkpt lat="50.064684" lon="4.560195"><time>2026-05-06T18:41:11Z</time></trkpt>
<trkpt lat="50.064759" lon="4.560195"><time>2026-05-06T18:51:11Z</time></trkpt>
<trkpt lat="50.064983" lon="4.560549"><time>2026-05-06T19:01:11Z</time></trkpt>
<trkpt lat="50.066143" lon="4.560017"><time>2026-05-06T19:11:11Z</time></trkpt>
</trkseg>
</trk>
<trk>
<name>nvvnsi44</name>
<cmt>v</cmt>
<desc>Nismes Sentier n°i44 </desc>
<link href="https://chemins.be/nismes/sentier/i44"/><trkseg>
<trkpt lat="50.078250" lon="4.570101"><time>2026-05-06T18:41:11Z</time></trkpt>
<trkpt lat="50.079438" lon="4.570366"><time>2026-05-06T18:51:11Z</time></trkpt>
<trkpt lat="50.080099" lon="4.570237"><time>2026-05-06T19:01:11Z</time></trkpt>
<trkpt lat="50.080347" lon="4.570023"><time>2026-05-06T19:11:11Z</time></trkpt>
</trkseg>
</trk>
<trk>
<name>nvvnsi45</name>
<cmt>v</cmt>
<desc>Nismes Chemin n°i45 </desc>
<link href="https://chemins.be/nismes/chemin/i45"/><trkseg>
<trkpt lat="50.082881" lon="4.555156"><time>2026-05-06T18:41:11Z</time></trkpt>
<trkpt lat="50.083788" lon="4.555147"><time>2026-05-06T18:51:11Z</time></trkpt>
<trkpt lat="50.084076" lon="4.554737"><time>2026-05-06T19:01:11Z</time></trkpt>
<trkpt lat="50.084126" lon="4.554220"><time>2026-05-06T19:11:11Z</time></trkpt>
<trkpt lat="50.084364" lon="4.554093"><time>2026-05-06T19:21:11Z</time></trkpt>
<trkpt lat="50.084683" lon="4.552913"><time>2026-05-06T19:31:11Z</time></trkpt>
<trkpt lat="50.084715" lon="4.552045"><time>2026-05-06T19:41:11Z</time></trkpt>
<trkpt lat="50.084727" lon="4.548973"><time>2026-05-06T19:51:11Z</time></trkpt>
<trkpt lat="50.084794" lon="4.548370"><time>2026-05-06T20:01:11Z</time></trkpt>
<trkpt lat="50.084846" lon="4.547900"><time>2026-05-06T20:11:11Z</time></trkpt>
<trkpt lat="50.085378" lon="4.545686"><time>2026-05-06T20:21:11Z</time></trkpt>
<trkpt lat="50.086035" lon="4.544164"><time>2026-05-06T20:31:11Z</time></trkpt>
<trkpt lat="50.086542" lon="4.543082"><time>2026-05-06T20:41:11Z</time></trkpt>
<trkpt lat="50.086979" lon="4.542240"><time>2026-05-06T20:51:11Z</time></trkpt>
</trkseg>
</trk>
<trk>
<name>nvvnsi46</name>
<cmt>v</cmt>
<desc>Nismes Chemin n°i46 </desc>
<link href="https://chemins.be/nismes/chemin/i46"/><trkseg>
<trkpt lat="50.089052" lon="4.555158"><time>2026-05-06T18:41:11Z</time></trkpt>
<trkpt lat="50.089157" lon="4.555818"><time>2026-05-06T18:51:11Z</time></trkpt>
<trkpt lat="50.089097" lon="4.556276"><time>2026-05-06T19:01:11Z</time></trkpt>
<trkpt lat="50.089025" lon="4.556825"><time>2026-05-06T19:11:11Z</time></trkpt>
<trkpt lat="50.089013" lon="4.557076"><time>2026-05-06T19:21:11Z</time></trkpt>
<trkpt lat="50.088933" lon="4.557889"><time>2026-05-06T19:31:11Z</time></trkpt>
<trkpt lat="50.088630" lon="4.558802"><time>2026-05-06T19:41:11Z</time></trkpt>
<trkpt lat="50.088267" lon="4.560009"><time>2026-05-06T19:51:11Z</time></trkpt>
<trkpt lat="50.088254" lon="4.560285"><time>2026-05-06T20:01:11Z</time></trkpt>
<trkpt lat="50.088093" lon="4.560429"><time>2026-05-06T20:11:11Z</time></trkpt>
</trkseg>
</trk>
<trk>
<name>nvvnsi47</name>
<cmt>v</cmt>
<desc>Nismes Chemin n°i47 </desc>
<link href="https://chemins.be/nismes/chemin/i47"/><trkseg>
<trkpt lat="50.047654" lon="4.560841"><time>2026-05-06T18:41:11Z</time></trkpt>
<trkpt lat="50.047669" lon="4.564871"><time>2026-05-06T18:51:11Z</time></trkpt>
<trkpt lat="50.047914" lon="4.568137"><time>2026-05-06T19:01:11Z</time></trkpt>
</trkseg>
</trk>
<trk>
<name>nvvnsi48</name>
<cmt>v</cmt>
<desc>Nismes Chemin n°i48 </desc>
<link href="https://chemins.be/nismes/chemin/i48"/><trkseg>
<trkpt lat="50.078415" lon="4.542612"><time>2026-05-06T18:41:11Z</time></trkpt>
<trkpt lat="50.078475" lon="4.541625"><time>2026-05-06T18:51:11Z</time></trkpt>
<trkpt lat="50.078369" lon="4.540889"><time>2026-05-06T19:01:11Z</time></trkpt>
<trkpt lat="50.078355" lon="4.540417"><time>2026-05-06T19:11:11Z</time></trkpt>
</trkseg>
</trk>
<trk>
<name>nvvnsi49</name>
<cmt>v</cmt>
<desc>Nismes Sentier n°i49 </desc>
<link href="https://chemins.be/nismes/sentier/i49"/><trkseg>
<trkpt lat="50.076524" lon="4.544637"><time>2026-05-06T18:41:11Z</time></trkpt>
<trkpt lat="50.076666" lon="4.544551"><time>2026-05-06T18:51:11Z</time></trkpt>
<trkpt lat="50.076579" lon="4.544265"><time>2026-05-06T19:01:11Z</time></trkpt>
<trkpt lat="50.078048" lon="4.545524"><time>2026-05-06T19:11:11Z</time></trkpt>
<trkpt lat="50.078305" lon="4.544865"><time>2026-05-06T19:21:11Z</time></trkpt>
<trkpt lat="50.077740" lon="4.541854"><time>2026-05-06T19:31:11Z</time></trkpt>
<trkpt lat="50.077130" lon="4.540638"><time>2026-05-06T19:41:11Z</time></trkpt>
<trkpt lat="50.076854" lon="4.540452"><time>2026-05-06T19:51:11Z</time></trkpt>
<trkpt lat="50.076671" lon="4.540467"><time>2026-05-06T20:01:11Z</time></trkpt>
<trkpt lat="50.076625" lon="4.540281"><time>2026-05-06T20:11:11Z</time></trkpt>
</trkseg>
</trk>
<trk>
<name>nvvnsi5</name>
<cmt>v</cmt>
<desc>Nismes Chemin n°i5 </desc>
<link href="https://chemins.be/nismes/chemin/i5"/><trkseg>
<trkpt lat="50.073689" lon="4.545625"><time>2026-05-06T18:41:11Z</time></trkpt>
<trkpt lat="50.073347" lon="4.545679"><time>2026-05-06T18:51:11Z</time></trkpt>
<trkpt lat="50.072789" lon="4.545873"><time>2026-05-06T19:01:11Z</time></trkpt>
<trkpt lat="50.072268" lon="4.545756"><time>2026-05-06T19:11:11Z</time></trkpt>
<trkpt lat="50.071749" lon="4.543435"><time>2026-05-06T19:21:11Z</time></trkpt>
<trkpt lat="50.071772" lon="4.542648"><time>2026-05-06T19:31:11Z</time></trkpt>
<trkpt lat="50.071345" lon="4.540960"><time>2026-05-06T19:41:11Z</time></trkpt>
</trkseg>
</trk>
<trk>
<name>nvvnsi50</name>
<cmt>v</cmt>
<desc>Nismes Sentier n°i50 </desc>
<link href="https://chemins.be/nismes/sentier/i50"/><trkseg>
<trkpt lat="50.091129" lon="4.557944"><time>2026-05-06T18:41:11Z</time></trkpt>
<trkpt lat="50.090143" lon="4.558337"><time>2026-05-06T18:51:11Z</time></trkpt>
<trkpt lat="50.088968" lon="4.557651"><time>2026-05-06T19:01:11Z</time></trkpt>
</trkseg>
</trk>
<trk>
<name>nvvnsi51</name>
<cmt>r</cmt>
<desc>Nismes Chemin n°i51 Rue Orgeveau</desc>
<link href="https://chemins.be/nismes/chemin/i51"/><trkseg>
<trkpt lat="50.071747" lon="4.559121"><time>2026-05-06T18:41:11Z</time></trkpt>
<trkpt lat="50.071622" lon="4.559416"><time>2026-05-06T18:51:11Z</time></trkpt>
</trkseg></trk>
<trk>
<name>nvvnsi51</name>
<cmt>v</cmt>
<desc>Nismes Chemin n°i51 Rue Orgeveau</desc>
<link href="https://chemins.be/nismes/chemin/i51"/><trkseg>
<trkpt lat="50.071622" lon="4.559416"><time>2026-05-06T18:51:11Z</time></trkpt>
<trkpt lat="50.071450" lon="4.559897"><time>2026-05-06T19:01:11Z</time></trkpt>
<trkpt lat="50.071066" lon="4.561717"><time>2026-05-06T19:11:11Z</time></trkpt>
<trkpt lat="50.070658" lon="4.562275"><time>2026-05-06T19:21:11Z</time></trkpt>
</trkseg></trk>
<trk>
<name>nvvnsi51</name>
<cmt>b</cmt>
<desc>Nismes Chemin n°i51 Rue Orgeveau</desc>
<link href="https://chemins.be/nismes/chemin/i51"/><trkseg>
<trkpt lat="50.070658" lon="4.562275"><time>2026-05-06T19:21:11Z</time></trkpt>
<trkpt lat="50.070772" lon="4.563097"><time>2026-05-06T19:31:11Z</time></trkpt>
<trkpt lat="50.070764" lon="4.563968"><time>2026-05-06T19:41:11Z</time></trkpt>
</trkseg></trk>
<trk>
<name>nvvnsi51</name>
<cmt>q</cmt>
<desc>Nismes Chemin n°i51 Rue Orgeveau</desc>
<link href="https://chemins.be/nismes/chemin/i51"/><trkseg>
<trkpt lat="50.070764" lon="4.563968"><time>2026-05-06T19:41:11Z</time></trkpt>
<trkpt lat="50.071545" lon="4.567451"><time>2026-05-06T19:51:11Z</time></trkpt>
<trkpt lat="50.071912" lon="4.567358"><time>2026-05-06T20:01:11Z</time></trkpt>
</trkseg>
</trk>
<trk>
<name>nvvnsi52</name>
<cmt>v</cmt>
<desc>Nismes Sentier n°i52 </desc>
<link href="https://chemins.be/nismes/sentier/i52"/><trkseg>
<trkpt lat="50.075294" lon="4.555830"><time>2026-05-06T18:41:11Z</time></trkpt>
<trkpt lat="50.075675" lon="4.555222"><time>2026-05-06T18:51:11Z</time></trkpt>
<trkpt lat="50.075969" lon="4.556002"><time>2026-05-06T19:01:11Z</time></trkpt>
<trkpt lat="50.075803" lon="4.556538"><time>2026-05-06T19:11:11Z</time></trkpt>
<trkpt lat="50.075704" lon="4.556641"><time>2026-05-06T19:21:11Z</time></trkpt>
</trkseg>
</trk>
<trk>
<name>nvvnsi53</name>
<cmt>v</cmt>
<desc>Nismes Chemin n°i53 </desc>
<link href="https://chemins.be/nismes/chemin/i53"/><trkseg>
<trkpt lat="50.075349" lon="4.567510"><time>2026-05-06T18:41:11Z</time></trkpt>
<trkpt lat="50.074285" lon="4.568113"><time>2026-05-06T18:51:11Z</time></trkpt>
<trkpt lat="50.073817" lon="4.567970"><time>2026-05-06T19:01:11Z</time></trkpt>
</trkseg></trk>
<trk>
<name>nvvnsi53</name>
<cmt>q</cmt>
<desc>Nismes Chemin n°i53 </desc>
<link href="https://chemins.be/nismes/chemin/i53"/><trkseg>
<trkpt lat="50.073817" lon="4.567970"><time>2026-05-06T19:01:11Z</time></trkpt>
<trkpt lat="50.072572" lon="4.568412"><time>2026-05-06T19:11:11Z</time></trkpt>
</trkseg>
</trk>
<trk>
<name>nvvnsi54</name>
<cmt>v</cmt>
<desc>Nismes Chemin n°i54 </desc>
<link href="https://chemins.be/nismes/chemin/i54"/><trkseg>
<trkpt lat="50.056975" lon="4.569966"><time>2026-05-06T18:41:11Z</time></trkpt>
<trkpt lat="50.056644" lon="4.570080"><time>2026-05-06T18:51:11Z</time></trkpt>
<trkpt lat="50.051231" lon="4.573529"><time>2026-05-06T19:01:11Z</time></trkpt>
<trkpt lat="50.050634" lon="4.573873"><time>2026-05-06T19:11:11Z</time></trkpt>
<trkpt lat="50.049950" lon="4.574402"><time>2026-05-06T19:21:11Z</time></trkpt>
<trkpt lat="50.048571" lon="4.575330"><time>2026-05-06T19:31:11Z</time></trkpt>
<trkpt lat="50.046136" lon="4.577067"><time>2026-05-06T19:41:11Z</time></trkpt>
<trkpt lat="50.045737" lon="4.577682"><time>2026-05-06T19:51:11Z</time></trkpt>
<trkpt lat="50.044878" lon="4.577719"><time>2026-05-06T20:01:11Z</time></trkpt>
<trkpt lat="50.033421" lon="4.584972"><time>2026-05-06T20:11:11Z</time></trkpt>
<trkpt lat="50.025316" lon="4.590179"><time>2026-05-06T20:21:11Z</time></trkpt>
<trkpt lat="50.022284" lon="4.592407"><time>2026-05-06T20:31:11Z</time></trkpt>
<trkpt lat="50.018196" lon="4.594805"><time>2026-05-06T20:41:11Z</time></trkpt>
<trkpt lat="50.017475" lon="4.595266"><time>2026-05-06T20:51:11Z</time></trkpt>
</trkseg>
</trk>
<trk>
<name>nvvnsi55</name>
<cmt>v</cmt>
<desc>Nismes Chemin n°i55 </desc>
<link href="https://chemins.be/nismes/chemin/i55"/><trkseg>
<trkpt lat="50.058492" lon="4.558469"><time>2026-05-06T18:41:11Z</time></trkpt>
<trkpt lat="50.058110" lon="4.559386"><time>2026-05-06T18:51:11Z</time></trkpt>
<trkpt lat="50.055185" lon="4.564037"><time>2026-05-06T19:01:11Z</time></trkpt>
<trkpt lat="50.055117" lon="4.564119"><time>2026-05-06T19:11:11Z</time></trkpt>
<trkpt lat="50.055065" lon="4.564368"><time>2026-05-06T19:21:11Z</time></trkpt>
<trkpt lat="50.055090" lon="4.564513"><time>2026-05-06T19:31:11Z</time></trkpt>
<trkpt lat="50.054615" lon="4.565846"><time>2026-05-06T19:41:11Z</time></trkpt>
<trkpt lat="50.054743" lon="4.566790"><time>2026-05-06T19:51:11Z</time></trkpt>
<trkpt lat="50.053691" lon="4.568408"><time>2026-05-06T20:01:11Z</time></trkpt>
<trkpt lat="50.051914" lon="4.569164"><time>2026-05-06T20:11:11Z</time></trkpt>
<trkpt lat="50.050968" lon="4.570595"><time>2026-05-06T20:21:11Z</time></trkpt>
<trkpt lat="50.050371" lon="4.570481"><time>2026-05-06T20:31:11Z</time></trkpt>
<trkpt lat="50.048773" lon="4.571410"><time>2026-05-06T20:41:11Z</time></trkpt>
</trkseg>
</trk>
<trk>
<name>nvvnsi56</name>
<cmt>v</cmt>
<desc>Nismes Chemin n°i56 </desc>
<link href="https://chemins.be/nismes/chemin/i56"/><trkseg>
<trkpt lat="50.053571" lon="4.555913"><time>2026-05-06T18:41:11Z</time></trkpt>
<trkpt lat="50.052690" lon="4.553867"><time>2026-05-06T18:51:11Z</time></trkpt>
<trkpt lat="50.052006" lon="4.552599"><time>2026-05-06T19:01:11Z</time></trkpt>
<trkpt lat="50.051954" lon="4.551754"><time>2026-05-06T19:11:11Z</time></trkpt>
<trkpt lat="50.052147" lon="4.550699"><time>2026-05-06T19:21:11Z</time></trkpt>
<trkpt lat="50.052122" lon="4.550381"><time>2026-05-06T19:31:11Z</time></trkpt>
</trkseg>
</trk>
<trk>
<name>nvvnsi57</name>
<cmt>v</cmt>
<desc>Nismes Chemin n°i57 </desc>
<link href="https://chemins.be/nismes/chemin/i57"/><trkseg>
<trkpt lat="50.055165" lon="4.543646"><time>2026-05-06T18:41:11Z</time></trkpt>
<trkpt lat="50.055165" lon="4.545713"><time>2026-05-06T18:51:11Z</time></trkpt>
<trkpt lat="50.055257" lon="4.546564"><time>2026-05-06T19:01:11Z</time></trkpt>
</trkseg>
</trk>
<trk>
<name>nvvnsi58</name>
<cmt>v</cmt>
<desc>Nismes Sentier n°i58 </desc>
<link href="https://chemins.be/nismes/sentier/i58"/><trkseg>
<trkpt lat="50.051510" lon="4.553071"><time>2026-05-06T18:41:11Z</time></trkpt>
<trkpt lat="50.052631" lon="4.556934"><time>2026-05-06T18:51:11Z</time></trkpt>
<trkpt lat="50.054054" lon="4.561468"><time>2026-05-06T19:01:11Z</time></trkpt>
<trkpt lat="50.055230" lon="4.564043"><time>2026-05-06T19:11:11Z</time></trkpt>
<trkpt lat="50.056487" lon="4.568348"><time>2026-05-06T19:21:11Z</time></trkpt>
<trkpt lat="50.056727" lon="4.570123"><time>2026-05-06T19:31:11Z</time></trkpt>
<trkpt lat="50.057186" lon="4.570881"><time>2026-05-06T19:41:11Z</time></trkpt>
<trkpt lat="50.058059" lon="4.573842"><time>2026-05-06T19:51:11Z</time></trkpt>
<trkpt lat="50.057851" lon="4.574771"><time>2026-05-06T20:01:11Z</time></trkpt>
<trkpt lat="50.057798" lon="4.575376"><time>2026-05-06T20:11:11Z</time></trkpt>
</trkseg>
</trk>
<trk>
<name>nvvnsi59</name>
<cmt>v</cmt>
<desc>Nismes Chemin n°i59 </desc>
<link href="https://chemins.be/nismes/chemin/i59"/><trkseg>
<trkpt lat="50.050614" lon="4.542342"><time>2026-05-06T18:41:11Z</time></trkpt>
<trkpt lat="50.051000" lon="4.543973"><time>2026-05-06T18:51:11Z</time></trkpt>
<trkpt lat="50.051202" lon="4.547092"><time>2026-05-06T19:01:11Z</time></trkpt>
<trkpt lat="50.051505" lon="4.548336"><time>2026-05-06T19:11:11Z</time></trkpt>
<trkpt lat="50.052222" lon="4.549581"><time>2026-05-06T19:21:11Z</time></trkpt>
</trkseg>
</trk>
<trk>
<name>nvvnsi6</name>
<cmt>v</cmt>
<desc>Nismes Sentier n°i6 </desc>
<link href="https://chemins.be/nismes/sentier/i6"/><trkseg>
<trkpt lat="50.073399" lon="4.547090"><time>2026-05-06T18:41:11Z</time></trkpt>
<trkpt lat="50.072823" lon="4.547158"><time>2026-05-06T18:51:11Z</time></trkpt>
<trkpt lat="50.072698" lon="4.547004"><time>2026-05-06T19:01:11Z</time></trkpt>
<trkpt lat="50.072437" lon="4.546905"><time>2026-05-06T19:11:11Z</time></trkpt>
<trkpt lat="50.071358" lon="4.547153"><time>2026-05-06T19:21:11Z</time></trkpt>
<trkpt lat="50.070728" lon="4.547304"><time>2026-05-06T19:31:11Z</time></trkpt>
<trkpt lat="50.070448" lon="4.548267"><time>2026-05-06T19:41:11Z</time></trkpt>
</trkseg>
</trk>
<trk>
<name>nvvnsi60</name>
<cmt>v</cmt>
<desc>Nismes Sentier n°i60 </desc>
<link href="https://chemins.be/nismes/sentier/i60"/><trkseg>
<trkpt lat="50.052798" lon="4.541902"><time>2026-05-06T18:41:11Z</time></trkpt>
<trkpt lat="50.050602" lon="4.542258"><time>2026-05-06T18:51:11Z</time></trkpt>
<trkpt lat="50.047608" lon="4.544519"><time>2026-05-06T19:01:11Z</time></trkpt>
<trkpt lat="50.046058" lon="4.545547"><time>2026-05-06T19:11:11Z</time></trkpt>
<trkpt lat="50.045415" lon="4.546233"><time>2026-05-06T19:21:11Z</time></trkpt>
<trkpt lat="50.045418" lon="4.546973"><time>2026-05-06T19:31:11Z</time></trkpt>
<trkpt lat="50.045303" lon="4.547384"><time>2026-05-06T19:41:11Z</time></trkpt>
<trkpt lat="50.045114" lon="4.547530"><time>2026-05-06T19:51:11Z</time></trkpt>
<trkpt lat="50.044875" lon="4.548917"><time>2026-05-06T20:01:11Z</time></trkpt>
<trkpt lat="50.044902" lon="4.549833"><time>2026-05-06T20:11:11Z</time></trkpt>
<trkpt lat="50.045902" lon="4.553643"><time>2026-05-06T20:21:11Z</time></trkpt>
<trkpt lat="50.046591" lon="4.557463"><time>2026-05-06T20:31:11Z</time></trkpt>
<trkpt lat="50.047225" lon="4.559594"><time>2026-05-06T20:41:11Z</time></trkpt>
<trkpt lat="50.047960" lon="4.560581"><time>2026-05-06T20:51:11Z</time></trkpt>
</trkseg>
</trk>
<trk>
<name>nvvnsi61</name>
<cmt>v</cmt>
<desc>Nismes Chemin n°i61 </desc>
<link href="https://chemins.be/nismes/chemin/i61"/><trkseg>
<trkpt lat="50.071605" lon="4.540368"><time>2026-05-06T18:41:11Z</time></trkpt>
<trkpt lat="50.070847" lon="4.541752"><time>2026-05-06T18:51:11Z</time></trkpt>
<trkpt lat="50.070668" lon="4.542418"><time>2026-05-06T19:01:11Z</time></trkpt>
<trkpt lat="50.070166" lon="4.542739"><time>2026-05-06T19:11:11Z</time></trkpt>
<trkpt lat="50.069498" lon="4.543093"><time>2026-05-06T19:21:11Z</time></trkpt>
<trkpt lat="50.068781" lon="4.543565"><time>2026-05-06T19:31:11Z</time></trkpt>
</trkseg>
</trk>
<trk>
<name>nvvnsi62</name>
<cmt>v</cmt>
<desc>Nismes Chemin n°i62 </desc>
<link href="https://chemins.be/nismes/chemin/i62"/><trkseg>
<trkpt lat="50.068733" lon="4.543533"><time>2026-05-06T18:41:11Z</time></trkpt>
<trkpt lat="50.069277" lon="4.542267"><time>2026-05-06T18:51:11Z</time></trkpt>
<trkpt lat="50.068527" lon="4.540787"><time>2026-05-06T19:01:11Z</time></trkpt>
<trkpt lat="50.067900" lon="4.538995"><time>2026-05-06T19:11:11Z</time></trkpt>
</trkseg>
</trk>
<trk>
<name>nvvnsi63</name>
<cmt>v</cmt>
<desc>Nismes Chemin n°i63 </desc>
<link href="https://chemins.be/nismes/chemin/i63"/><trkseg>
<trkpt lat="50.038865" lon="4.581671"><time>2026-05-06T18:41:11Z</time></trkpt>
<trkpt lat="50.036476" lon="4.586506"><time>2026-05-06T18:51:11Z</time></trkpt>
<trkpt lat="50.036485" lon="4.592214"><time>2026-05-06T19:01:11Z</time></trkpt>
<trkpt lat="50.033308" lon="4.596072"><time>2026-05-06T19:11:11Z</time></trkpt>
<trkpt lat="50.033039" lon="4.597024"><time>2026-05-06T19:21:11Z</time></trkpt>
<trkpt lat="50.032748" lon="4.597532"><time>2026-05-06T19:31:11Z</time></trkpt>
</trkseg>
</trk>
<trk>
<name>nvvnsi7</name>
<cmt>v</cmt>
<desc>Nismes Chemin n°i7 Parc Communal</desc>
<link href="https://chemins.be/nismes/chemin/i7"/><trkseg>
<trkpt lat="50.074573" lon="4.549218"><time>2026-05-06T18:41:11Z</time></trkpt>
<trkpt lat="50.075067" lon="4.549444"><time>2026-05-06T18:51:11Z</time></trkpt>
<trkpt lat="50.075605" lon="4.550438"><time>2026-05-06T19:01:11Z</time></trkpt>
<trkpt lat="50.075416" lon="4.550688"><time>2026-05-06T19:11:11Z</time></trkpt>
<trkpt lat="50.075442" lon="4.551247"><time>2026-05-06T19:21:11Z</time></trkpt>
<trkpt lat="50.076079" lon="4.552367"><time>2026-05-06T19:31:11Z</time></trkpt>
<trkpt lat="50.076660" lon="4.554297"><time>2026-05-06T19:41:11Z</time></trkpt>
<trkpt lat="50.077073" lon="4.554886"><time>2026-05-06T19:51:11Z</time></trkpt>
<trkpt lat="50.077522" lon="4.555013"><time>2026-05-06T20:01:11Z</time></trkpt>
<trkpt lat="50.078080" lon="4.554555"><time>2026-05-06T20:11:11Z</time></trkpt>
<trkpt lat="50.078198" lon="4.554136"><time>2026-05-06T20:21:11Z</time></trkpt>
<trkpt lat="50.077698" lon="4.551982"><time>2026-05-06T20:31:11Z</time></trkpt>
<trkpt lat="50.077009" lon="4.549772"><time>2026-05-06T20:41:11Z</time></trkpt>
<trkpt lat="50.076137" lon="4.549518"><time>2026-05-06T20:51:11Z</time></trkpt>
<trkpt lat="50.075157" lon="4.549458"><time>2026-05-06T21:01:11Z</time></trkpt>
</trkseg>
</trk>
<trk>
<name>nvvnsi8</name>
<cmt>v</cmt>
<desc>Nismes Chemin n°i8 </desc>
<link href="https://chemins.be/nismes/chemin/i8"/><trkseg>
<trkpt lat="50.073295" lon="4.556059"><time>2026-05-06T18:41:11Z</time></trkpt>
<trkpt lat="50.074967" lon="4.556138"><time>2026-05-06T18:51:11Z</time></trkpt>
<trkpt lat="50.075490" lon="4.556501"><time>2026-05-06T19:01:11Z</time></trkpt>
<trkpt lat="50.076251" lon="4.556811"><time>2026-05-06T19:11:11Z</time></trkpt>
<trkpt lat="50.077380" lon="4.559274"><time>2026-05-06T19:21:11Z</time></trkpt>
<trkpt lat="50.077495" lon="4.560685"><time>2026-05-06T19:31:11Z</time></trkpt>
<trkpt lat="50.077907" lon="4.561609"><time>2026-05-06T19:41:11Z</time></trkpt>
<trkpt lat="50.078157" lon="4.562630"><time>2026-05-06T19:51:11Z</time></trkpt>
<trkpt lat="50.078606" lon="4.562478"><time>2026-05-06T20:01:11Z</time></trkpt>
</trkseg>
</trk>
<trk>
<name>nvvnsi9</name>
<cmt>v</cmt>
<desc>Nismes Chemin n°i9 Chemin de la Roche aux Faucons</desc>
<link href="https://chemins.be/nismes/chemin/i9"/><trkseg>
<trkpt lat="50.075640" lon="4.568703"><time>2026-05-06T18:41:11Z</time></trkpt>
<trkpt lat="50.076022" lon="4.570193"><time>2026-05-06T18:51:11Z</time></trkpt>
<trkpt lat="50.076228" lon="4.570529"><time>2026-05-06T19:01:11Z</time></trkpt>
<trkpt lat="50.076388" lon="4.571466"><time>2026-05-06T19:11:11Z</time></trkpt>
<trkpt lat="50.076360" lon="4.572430"><time>2026-05-06T19:21:11Z</time></trkpt>
<trkpt lat="50.076224" lon="4.572974"><time>2026-05-06T19:31:11Z</time></trkpt>
<trkpt lat="50.076456" lon="4.573646"><time>2026-05-06T19:41:11Z</time></trkpt>
<trkpt lat="50.076598" lon="4.574820"><time>2026-05-06T19:51:11Z</time></trkpt>
<trkpt lat="50.076678" lon="4.575547"><time>2026-05-06T20:01:11Z</time></trkpt>
<trkpt lat="50.076273" lon="4.575838"><time>2026-05-06T20:11:11Z</time></trkpt>
<trkpt lat="50.076092" lon="4.576117"><time>2026-05-06T20:21:11Z</time></trkpt>
<trkpt lat="50.076333" lon="4.577180"><time>2026-05-06T20:31:11Z</time></trkpt>
<trkpt lat="50.075657" lon="4.578169"><time>2026-05-06T20:41:11Z</time></trkpt>
<trkpt lat="50.074887" lon="4.579429"><time>2026-05-06T20:51:11Z</time></trkpt>
<trkpt lat="50.074770" lon="4.578982"><time>2026-05-06T21:01:11Z</time></trkpt>
<trkpt lat="50.074373" lon="4.577069"><time>2026-05-06T21:11:11Z</time></trkpt>
<trkpt lat="50.073865" lon="4.574529"><time>2026-05-06T21:21:11Z</time></trkpt>
<trkpt lat="50.073536" lon="4.572865"><time>2026-05-06T21:31:11Z</time></trkpt>
<trkpt lat="50.073017" lon="4.571410"><time>2026-05-06T21:41:11Z</time></trkpt>
<trkpt lat="50.072303" lon="4.568320"><time>2026-05-06T21:51:11Z</time></trkpt>
<trkpt lat="50.072242" lon="4.567048"><time>2026-05-06T22:01:11Z</time></trkpt>
</trkseg>
</trk>
<trk>
<name>nvvnsL132</name>
<cmt>t</cmt>
<desc>Nismes Chemin n°L132 </desc>
<link href="https://chemins.be/nismes/chemin/L132"/><trkseg>
<trkpt lat="50.087058" lon="4.542163"><time>2026-05-06T18:41:11Z</time></trkpt>
<trkpt lat="50.085508" lon="4.545794"><time>2026-05-06T18:51:11Z</time></trkpt>
<trkpt lat="50.084878" lon="4.549204"><time>2026-05-06T19:01:11Z</time></trkpt>
<trkpt lat="50.084618" lon="4.557214"><time>2026-05-06T19:11:11Z</time></trkpt>
<trkpt lat="50.084436" lon="4.562479"><time>2026-05-06T19:21:11Z</time></trkpt>
<trkpt lat="50.083608" lon="4.567304"><time>2026-05-06T19:31:11Z</time></trkpt>
<trkpt lat="50.082452" lon="4.570149"><time>2026-05-06T19:41:11Z</time></trkpt>
<trkpt lat="50.077347" lon="4.579250"><time>2026-05-06T19:51:11Z</time></trkpt>
<trkpt lat="50.076638" lon="4.580525"><time>2026-05-06T20:01:11Z</time></trkpt>
</trkseg>
</trk>
<trk>
<name>nvvog1</name>
<cmt>r</cmt>
<desc>Oignies Chemin n°1 Rue de Rocroi</desc>
<link href="https://chemins.be/oignies/chemin/1"/><trkseg>
<trkpt lat="50.023753" lon="4.639064"><time>2026-05-06T18:41:11Z</time></trkpt>
<trkpt lat="50.023682" lon="4.638380"><time>2026-05-06T18:51:11Z</time></trkpt>
<trkpt lat="50.023632" lon="4.637040"><time>2026-05-06T19:01:11Z</time></trkpt>
<trkpt lat="50.022340" lon="4.635651"><time>2026-05-06T19:11:11Z</time></trkpt>
<trkpt lat="50.020890" lon="4.632852"><time>2026-05-06T19:21:11Z</time></trkpt>
<trkpt lat="50.019408" lon="4.632077"><time>2026-05-06T19:31:11Z</time></trkpt>
<trkpt lat="50.017538" lon="4.632415"><time>2026-05-06T19:41:11Z</time></trkpt>
</trkseg></trk>
<trk>
<name>nvvog1</name>
<cmt>v</cmt>
<desc>Oignies Chemin n°1 Rue de Rocroi</desc>
<link href="https://chemins.be/oignies/chemin/1"/><trkseg>
<trkpt lat="50.017538" lon="4.632415"><time>2026-05-06T19:41:11Z</time></trkpt>
<trkpt lat="50.016349" lon="4.633162"><time>2026-05-06T19:51:11Z</time></trkpt>
<trkpt lat="50.016043" lon="4.633272"><time>2026-05-06T20:01:11Z</time></trkpt>
<trkpt lat="50.015369" lon="4.633045"><time>2026-05-06T20:11:11Z</time></trkpt>
<trkpt lat="50.014733" lon="4.632037"><time>2026-05-06T20:21:11Z</time></trkpt>
<trkpt lat="50.013901" lon="4.630484"><time>2026-05-06T20:31:11Z</time></trkpt>
<trkpt lat="50.013248" lon="4.628764"><time>2026-05-06T20:41:11Z</time></trkpt>
<trkpt lat="50.012845" lon="4.628190"><time>2026-05-06T20:51:11Z</time></trkpt>
<trkpt lat="50.012685" lon="4.627282"><time>2026-05-06T21:01:11Z</time></trkpt>
<trkpt lat="50.011603" lon="4.624849"><time>2026-05-06T21:11:11Z</time></trkpt>
<trkpt lat="50.007012" lon="4.619007"><time>2026-05-06T21:21:11Z</time></trkpt>
<trkpt lat="50.006124" lon="4.618165"><time>2026-05-06T21:31:11Z</time></trkpt>
<trkpt lat="50.004349" lon="4.616091"><time>2026-05-06T21:41:11Z</time></trkpt>
<trkpt lat="50.003659" lon="4.614651"><time>2026-05-06T21:51:11Z</time></trkpt>
<trkpt lat="50.001784" lon="4.613093"><time>2026-05-06T22:01:11Z</time></trkpt>
<trkpt lat="50.001451" lon="4.612933"><time>2026-05-06T22:11:11Z</time></trkpt>
<trkpt lat="50.000508" lon="4.612501"><time>2026-05-06T22:21:11Z</time></trkpt>
<trkpt lat="49.999601" lon="4.612161"><time>2026-05-06T22:31:11Z</time></trkpt>
<trkpt lat="49.999386" lon="4.611616"><time>2026-05-06T22:41:11Z</time></trkpt>
<trkpt lat="49.999240" lon="4.608324"><time>2026-05-06T22:51:11Z</time></trkpt>
<trkpt lat="49.997747" lon="4.604439"><time>2026-05-06T23:01:11Z</time></trkpt>
<trkpt lat="49.997094" lon="4.602594"><time>2026-05-06T23:11:11Z</time></trkpt>
</trkseg>
</trk>
<trk>
<name>nvvog10</name>
<cmt>v</cmt>
<desc>Oignies Chemin n°10 </desc>
<link href="https://chemins.be/oignies/chemin/10"/><trkseg>
<trkpt lat="50.032478" lon="4.612915"><time>2026-05-06T18:41:11Z</time></trkpt>
<trkpt lat="50.031045" lon="4.614569"><time>2026-05-06T18:51:11Z</time></trkpt>
<trkpt lat="50.029577" lon="4.615692"><time>2026-05-06T19:01:11Z</time></trkpt>
<trkpt lat="50.027677" lon="4.617189"><time>2026-05-06T19:11:11Z</time></trkpt>
<trkpt lat="50.027263" lon="4.617536"><time>2026-05-06T19:21:11Z</time></trkpt>
</trkseg>
</trk>
<trk>
<name>nvvog100</name>
<cmt>d</cmt>
<desc>Oignies Sentier n°100 </desc>
<link href="https://chemins.be/oignies/sentier/100"/><trkseg>
<trkpt lat="50.016383" lon="4.634055"><time>2026-05-06T18:41:11Z</time></trkpt>
<trkpt lat="50.015475" lon="4.634106"><time>2026-05-06T18:51:11Z</time></trkpt>
</trkseg>
</trk>
<trk>
<name>nvvog101</name>
<cmt>s</cmt>
<desc>Oignies Sentier n°101 </desc>
<link href="https://chemins.be/oignies/sentier/101"/><trkseg>
<trkpt lat="50.023319" lon="4.635964"><time>2026-05-06T18:41:11Z</time></trkpt>
<trkpt lat="50.023509" lon="4.635742"><time>2026-05-06T18:51:11Z</time></trkpt>
<trkpt lat="50.023258" lon="4.635224"><time>2026-05-06T19:01:11Z</time></trkpt>
<trkpt lat="50.023160" lon="4.634916"><time>2026-05-06T19:11:11Z</time></trkpt>
<trkpt lat="50.023125" lon="4.634442"><time>2026-05-06T19:21:11Z</time></trkpt>
<trkpt lat="50.023192" lon="4.632726"><time>2026-05-06T19:31:11Z</time></trkpt>
</trkseg></trk>
<trk>
<name>nvvog101</name>
<cmt>d</cmt>
<desc>Oignies Sentier n°101 </desc>
<link href="https://chemins.be/oignies/sentier/101"/><trkseg>
<trkpt lat="50.023192" lon="4.632726"><time>2026-05-06T19:31:11Z</time></trkpt>
<trkpt lat="50.023023" lon="4.631734"><time>2026-05-06T19:41:11Z</time></trkpt>
<trkpt lat="50.022801" lon="4.630867"><time>2026-05-06T19:51:11Z</time></trkpt>
<trkpt lat="50.022659" lon="4.629890"><time>2026-05-06T20:01:11Z</time></trkpt>
<trkpt lat="50.022463" lon="4.629107"><time>2026-05-06T20:11:11Z</time></trkpt>
<trkpt lat="50.022401" lon="4.628479"><time>2026-05-06T20:21:11Z</time></trkpt>
<trkpt lat="50.022177" lon="4.628561"><time>2026-05-06T20:31:11Z</time></trkpt>
<trkpt lat="50.021685" lon="4.627275"><time>2026-05-06T20:41:11Z</time></trkpt>
<trkpt lat="50.020852" lon="4.625903"><time>2026-05-06T20:51:11Z</time></trkpt>
<trkpt lat="50.019687" lon="4.624124"><time>2026-05-06T21:01:11Z</time></trkpt>
<trkpt lat="50.018082" lon="4.616960"><time>2026-05-06T21:11:11Z</time></trkpt>
<trkpt lat="50.017718" lon="4.612911"><time>2026-05-06T21:21:11Z</time></trkpt>
<trkpt lat="50.017128" lon="4.610339"><time>2026-05-06T21:31:11Z</time></trkpt>
</trkseg></trk>
<trk>
<name>nvvog101</name>
<cmt>v</cmt>
<desc>Oignies Sentier n°101 </desc>
<link href="https://chemins.be/oignies/sentier/101"/><trkseg>
<trkpt lat="50.017128" lon="4.610339"><time>2026-05-06T21:31:11Z</time></trkpt>
<trkpt lat="50.016911" lon="4.602119"><time>2026-05-06T21:41:11Z</time></trkpt>
</trkseg>
</trk>
<trk>
<name>nvvog101bis</name>
<cmt>s</cmt>
<desc>Oignies Sentier n°101bis </desc>
<link href="https://chemins.be/oignies/sentier/101bis"/><trkseg>
<trkpt lat="50.023509" lon="4.635728"><time>2026-05-06T18:41:11Z</time></trkpt>
<trkpt lat="50.023573" lon="4.635128"><time>2026-05-06T18:51:11Z</time></trkpt>
</trkseg>
</trk>
<trk>
<name>nvvog102</name>
<cmt>v</cmt>
<desc>Oignies Sentier n°102 </desc>
<link href="https://chemins.be/oignies/sentier/102"/><trkseg>
<trkpt lat="50.020189" lon="4.625006"><time>2026-05-06T18:41:11Z</time></trkpt>
<trkpt lat="50.017916" lon="4.623962"><time>2026-05-06T18:51:11Z</time></trkpt>
<trkpt lat="50.011523" lon="4.620370"><time>2026-05-06T19:01:11Z</time></trkpt>
<trkpt lat="50.011074" lon="4.619893"><time>2026-05-06T19:11:11Z</time></trkpt>
<trkpt lat="50.006743" lon="4.614737"><time>2026-05-06T19:21:11Z</time></trkpt>
<trkpt lat="50.004696" lon="4.613345"><time>2026-05-06T19:31:11Z</time></trkpt>
</trkseg>
</trk>
<trk>
<name>nvvog103</name>
<cmt>v</cmt>
<desc>Oignies Sentier n°103 </desc>
<link href="https://chemins.be/oignies/sentier/103"/><trkseg>
<trkpt lat="50.019768" lon="4.624098"><time>2026-05-06T18:41:11Z</time></trkpt>
<trkpt lat="50.017732" lon="4.621993"><time>2026-05-06T18:51:11Z</time></trkpt>
</trkseg>
</trk>
<trk>
<name>nvvog104</name>
<cmt>s</cmt>
<desc>Oignies Sentier n°104 </desc>
<link href="https://chemins.be/oignies/sentier/104"/><trkseg>
<trkpt lat="50.022185" lon="4.624822"><time>2026-05-06T18:41:11Z</time></trkpt>
<trkpt lat="50.022082" lon="4.626747"><time>2026-05-06T18:51:11Z</time></trkpt>
<trkpt lat="50.022141" lon="4.628394"><time>2026-05-06T19:01:11Z</time></trkpt>
</trkseg>
</trk>
<trk>
<name>nvvog105</name>
<cmt>d</cmt>
<desc>Oignies Sentier n°105 </desc>
<link href="https://chemins.be/oignies/sentier/105"/><trkseg>
<trkpt lat="50.023470" lon="4.633243"><time>2026-05-06T18:41:11Z</time></trkpt>
<trkpt lat="50.023308" lon="4.633019"><time>2026-05-06T18:51:11Z</time></trkpt>
<trkpt lat="50.023210" lon="4.632740"><time>2026-05-06T19:01:11Z</time></trkpt>
</trkseg>
</trk>
<trk>
<name>nvvog106</name>
<cmt>d</cmt>
<desc>Oignies Sentier n°106 </desc>
<link href="https://chemins.be/oignies/sentier/106"/><trkseg>
<trkpt lat="50.023740" lon="4.628807"><time>2026-05-06T18:41:11Z</time></trkpt>
<trkpt lat="50.024176" lon="4.627037"><time>2026-05-06T18:51:11Z</time></trkpt>
<trkpt lat="50.024321" lon="4.626410"><time>2026-05-06T19:01:11Z</time></trkpt>
<trkpt lat="50.024574" lon="4.625993"><time>2026-05-06T19:11:11Z</time></trkpt>
<trkpt lat="50.024649" lon="4.625680"><time>2026-05-06T19:21:11Z</time></trkpt>
</trkseg></trk>
<trk>
<name>nvvog106</name>
<cmt>s</cmt>
<desc>Oignies Sentier n°106 </desc>
<link href="https://chemins.be/oignies/sentier/106"/><trkseg>
<trkpt lat="50.024649" lon="4.625680"><time>2026-05-06T19:21:11Z</time></trkpt>
<trkpt lat="50.024882" lon="4.624697"><time>2026-05-06T19:31:11Z</time></trkpt>
</trkseg>
</trk>
<trk>
<name>nvvog107</name>
<cmt>q</cmt>
<desc>Oignies Sentier n°107 </desc>
<link href="https://chemins.be/oignies/sentier/107"/><trkseg>
<trkpt lat="50.024044" lon="4.625767"><time>2026-05-06T18:41:11Z</time></trkpt>
<trkpt lat="50.024133" lon="4.626032"><time>2026-05-06T18:51:11Z</time></trkpt>
<trkpt lat="50.024131" lon="4.627079"><time>2026-05-06T19:01:11Z</time></trkpt>
</trkseg>
</trk>
<trk>
<name>nvvog108</name>
<cmt>s</cmt>
<desc>Oignies Sentier n°108 </desc>
<link href="https://chemins.be/oignies/sentier/108"/><trkseg>
<trkpt lat="50.025555" lon="4.637079"><time>2026-05-06T18:41:11Z</time></trkpt>
<trkpt lat="50.026648" lon="4.635006"><time>2026-05-06T18:51:11Z</time></trkpt>
<trkpt lat="50.027216" lon="4.634339"><time>2026-05-06T19:01:11Z</time></trkpt>
<trkpt lat="50.028153" lon="4.633702"><time>2026-05-06T19:11:11Z</time></trkpt>
<trkpt lat="50.030375" lon="4.632793"><time>2026-05-06T19:21:11Z</time></trkpt>
</trkseg></trk>
<trk>
<name>nvvog108</name>
<cmt>q</cmt>
<desc>Oignies Sentier n°108 </desc>
<link href="https://chemins.be/oignies/sentier/108"/><trkseg>
<trkpt lat="50.030375" lon="4.632793"><time>2026-05-06T19:21:11Z</time></trkpt>
<trkpt lat="50.030645" lon="4.632655"><time>2026-05-06T19:31:11Z</time></trkpt>
</trkseg>
</trk>
<trk>
<name>nvvog109</name>
<cmt>d</cmt>
<desc>Oignies Sentier n°109 </desc>
<link href="https://chemins.be/oignies/sentier/109"/><trkseg>
<trkpt lat="50.027431" lon="4.638652"><time>2026-05-06T18:41:11Z</time></trkpt>
<trkpt lat="50.028042" lon="4.638907"><time>2026-05-06T18:51:11Z</time></trkpt>
<trkpt lat="50.028464" lon="4.638937"><time>2026-05-06T19:01:11Z</time></trkpt>
<trkpt lat="50.029517" lon="4.638329"><time>2026-05-06T19:11:11Z</time></trkpt>
</trkseg>
</trk>
<trk>
<name>nvvog11</name>
<cmt>v</cmt>
<desc>Oignies Chemin n°11 Chemin des Norbertins / Chemin des Trois Fontaines</desc>
<link href="https://chemins.be/oignies/chemin/11"/><trkseg>
<trkpt lat="50.013470" lon="4.641880"><time>2026-05-06T18:41:11Z</time></trkpt>
<trkpt lat="50.013099" lon="4.642534"><time>2026-05-06T18:51:11Z</time></trkpt>
<trkpt lat="50.011955" lon="4.643574"><time>2026-05-06T19:01:11Z</time></trkpt>
<trkpt lat="50.010900" lon="4.644907"><time>2026-05-06T19:11:11Z</time></trkpt>
<trkpt lat="50.010117" lon="4.645237"><time>2026-05-06T19:21:11Z</time></trkpt>
<trkpt lat="50.008902" lon="4.645900"><time>2026-05-06T19:31:11Z</time></trkpt>
<trkpt lat="50.008146" lon="4.646188"><time>2026-05-06T19:41:11Z</time></trkpt>
<trkpt lat="50.005785" lon="4.648267"><time>2026-05-06T19:51:11Z</time></trkpt>
<trkpt lat="50.005011" lon="4.648597"><time>2026-05-06T20:01:11Z</time></trkpt>
<trkpt lat="50.004148" lon="4.648760"><time>2026-05-06T20:11:11Z</time></trkpt>
<trkpt lat="50.002699" lon="4.649421"><time>2026-05-06T20:21:11Z</time></trkpt>
<trkpt lat="50.001006" lon="4.650485"><time>2026-05-06T20:31:11Z</time></trkpt>
</trkseg></trk>
<trk>
<name>nvvog11</name>
<cmt>s</cmt>
<desc>Oignies Chemin n°11 Chemin des Norbertins / Chemin des Trois Fontaines</desc>
<link href="https://chemins.be/oignies/chemin/11"/><trkseg>
<trkpt lat="50.001006" lon="4.650485"><time>2026-05-06T20:31:11Z</time></trkpt>
<trkpt lat="50.000094" lon="4.652042"><time>2026-05-06T20:41:11Z</time></trkpt>
<trkpt lat="50.000200" lon="4.652893"><time>2026-05-06T20:51:11Z</time></trkpt>
<trkpt lat="50.000332" lon="4.653842"><time>2026-05-06T21:01:11Z</time></trkpt>
</trkseg></trk>
<trk>
<name>nvvog11</name>
<cmt>v</cmt>
<desc>Oignies Chemin n°11 Chemin des Norbertins / Chemin des Trois Fontaines</desc>
<link href="https://chemins.be/oignies/chemin/11"/><trkseg>
<trkpt lat="50.000332" lon="4.653842"><time>2026-05-06T21:01:11Z</time></trkpt>
<trkpt lat="50.000545" lon="4.654848"><time>2026-05-06T21:11:11Z</time></trkpt>
<trkpt lat="50.001851" lon="4.657729"><time>2026-05-06T21:21:11Z</time></trkpt>
</trkseg>
</trk>
<trk>
<name>nvvog110</name>
<cmt>d</cmt>
<desc>Oignies Sentier n°110 </desc>
<link href="https://chemins.be/oignies/sentier/110"/><trkseg>
<trkpt lat="50.027484" lon="4.642979"><time>2026-05-06T18:41:11Z</time></trkpt>
<trkpt lat="50.027780" lon="4.643061"><time>2026-05-06T18:51:11Z</time></trkpt>
</trkseg></trk>
<trk>
<name>nvvog110</name>
<cmt>s</cmt>
<desc>Oignies Sentier n°110 </desc>
<link href="https://chemins.be/oignies/sentier/110"/><trkseg>
<trkpt lat="50.027780" lon="4.643061"><time>2026-05-06T18:51:11Z</time></trkpt>
<trkpt lat="50.028179" lon="4.643169"><time>2026-05-06T19:01:11Z</time></trkpt>
</trkseg></trk>
<trk>
<name>nvvog110</name>
<cmt>d</cmt>
<desc>Oignies Sentier n°110 </desc>
<link href="https://chemins.be/oignies/sentier/110"/><trkseg>
<trkpt lat="50.028179" lon="4.643169"><time>2026-05-06T19:01:11Z</time></trkpt>
<trkpt lat="50.028929" lon="4.643643"><time>2026-05-06T19:11:11Z</time></trkpt>
</trkseg></trk>
<trk>
<name>nvvog110</name>
<cmt>v</cmt>
<desc>Oignies Sentier n°110 </desc>
<link href="https://chemins.be/oignies/sentier/110"/><trkseg>
<trkpt lat="50.028929" lon="4.643643"><time>2026-05-06T19:11:11Z</time></trkpt>
<trkpt lat="50.030823" lon="4.645092"><time>2026-05-06T19:21:11Z</time></trkpt>
<trkpt lat="50.031908" lon="4.646103"><time>2026-05-06T19:31:11Z</time></trkpt>
</trkseg>
</trk>
<trk>
<name>nvvog111</name>
<cmt>d</cmt>
<desc>Oignies Sentier n°111 </desc>
<link href="https://chemins.be/oignies/sentier/111"/><trkseg>
<trkpt lat="50.026152" lon="4.643195"><time>2026-05-06T18:41:11Z</time></trkpt>
<trkpt lat="50.026816" lon="4.644078"><time>2026-05-06T18:51:11Z</time></trkpt>
<trkpt lat="50.027120" lon="4.644652"><time>2026-05-06T19:01:11Z</time></trkpt>
<trkpt lat="50.029837" lon="4.647487"><time>2026-05-06T19:11:11Z</time></trkpt>
<trkpt lat="50.031138" lon="4.648737"><time>2026-05-06T19:21:11Z</time></trkpt>
<trkpt lat="50.033378" lon="4.651695"><time>2026-05-06T19:31:11Z</time></trkpt>
</trkseg>
</trk>
<trk>
<name>nvvog112</name>
<cmt>v</cmt>
<desc>Oignies Sentier n°112 </desc>
<link href="https://chemins.be/oignies/sentier/112"/><trkseg>
<trkpt lat="50.028327" lon="4.642536"><time>2026-05-06T18:41:11Z</time></trkpt>
<trkpt lat="50.029013" lon="4.642374"><time>2026-05-06T18:51:11Z</time></trkpt>
<trkpt lat="50.029229" lon="4.642263"><time>2026-05-06T19:01:11Z</time></trkpt>
<trkpt lat="50.029481" lon="4.642460"><time>2026-05-06T19:11:11Z</time></trkpt>
<trkpt lat="50.030687" lon="4.642355"><time>2026-05-06T19:21:11Z</time></trkpt>
<trkpt lat="50.030852" lon="4.641647"><time>2026-05-06T19:31:11Z</time></trkpt>
</trkseg>
</trk>
<trk>
<name>nvvog114</name>
<cmt>d</cmt>
<desc>Oignies Sentier n°114 </desc>
<link href="https://chemins.be/oignies/sentier/114"/><trkseg>
<trkpt lat="50.026125" lon="4.643223"><time>2026-05-06T18:41:11Z</time></trkpt>
<trkpt lat="50.026291" lon="4.645219"><time>2026-05-06T18:51:11Z</time></trkpt>
<trkpt lat="50.026548" lon="4.646965"><time>2026-05-06T19:01:11Z</time></trkpt>
<trkpt lat="50.026520" lon="4.647300"><time>2026-05-06T19:11:11Z</time></trkpt>
<trkpt lat="50.026786" lon="4.648683"><time>2026-05-06T19:21:11Z</time></trkpt>
<trkpt lat="50.026966" lon="4.652341"><time>2026-05-06T19:31:11Z</time></trkpt>
</trkseg>
</trk>
<trk>
<name>nvvog115</name>
<cmt>v</cmt>
<desc>Oignies Sentier n°115 </desc>
<link href="https://chemins.be/oignies/sentier/115"/><trkseg>
<trkpt lat="50.024709" lon="4.645412"><time>2026-05-06T18:41:11Z</time></trkpt>
<trkpt lat="50.024297" lon="4.645588"><time>2026-05-06T18:51:11Z</time></trkpt>
<trkpt lat="50.023627" lon="4.645869"><time>2026-05-06T19:01:11Z</time></trkpt>
<trkpt lat="50.023657" lon="4.646199"><time>2026-05-06T19:11:11Z</time></trkpt>
<trkpt lat="50.023387" lon="4.646149"><time>2026-05-06T19:21:11Z</time></trkpt>
</trkseg>
</trk>
<trk>
<name>nvvog116</name>
<cmt>v</cmt>
<desc>Oignies Sentier n°116 </desc>
<link href="https://chemins.be/oignies/sentier/116"/><trkseg>
<trkpt lat="49.998355" lon="4.660498"><time>2026-05-06T18:41:11Z</time></trkpt>
<trkpt lat="49.996822" lon="4.666025"><time>2026-05-06T18:51:11Z</time></trkpt>
</trkseg>
</trk>
<trk>
<name>nvvog117</name>
<cmt>v</cmt>
<desc>Oignies Sentier n°117 </desc>
<link href="https://chemins.be/oignies/sentier/117"/><trkseg>
<trkpt lat="50.021582" lon="4.632842"><time>2026-05-06T18:41:11Z</time></trkpt>
<trkpt lat="50.021860" lon="4.633151"><time>2026-05-06T18:51:11Z</time></trkpt>
</trkseg></trk>
<trk>
<name>nvvog117</name>
<cmt>s</cmt>
<desc>Oignies Sentier n°117 </desc>
<link href="https://chemins.be/oignies/sentier/117"/><trkseg>
<trkpt lat="50.021860" lon="4.633151"><time>2026-05-06T18:51:11Z</time></trkpt>
<trkpt lat="50.022541" lon="4.634522"><time>2026-05-06T19:01:11Z</time></trkpt>
<trkpt lat="50.022845" lon="4.635096"><time>2026-05-06T19:11:11Z</time></trkpt>
</trkseg>
</trk>
<trk>
<name>nvvog118</name>
<cmt>v</cmt>
<desc>Oignies Sentier n°118 Rue de Rocroi</desc>
<link href="https://chemins.be/oignies/sentier/118"/><trkseg>
<trkpt lat="50.021313" lon="4.632827"><time>2026-05-06T18:41:11Z</time></trkpt>
<trkpt lat="50.021169" lon="4.632938"><time>2026-05-06T18:51:11Z</time></trkpt>
<trkpt lat="50.021034" lon="4.633035"><time>2026-05-06T19:01:11Z</time></trkpt>
</trkseg>
</trk>
<trk>
<name>nvvog119</name>
<cmt>s</cmt>
<desc>Oignies Sentier n°119 </desc>
<link href="https://chemins.be/oignies/sentier/119"/><trkseg>
<trkpt lat="50.023744" lon="4.635003"><time>2026-05-06T18:41:11Z</time></trkpt>
<trkpt lat="50.023357" lon="4.635266"><time>2026-05-06T18:51:11Z</time></trkpt>
<trkpt lat="50.023195" lon="4.635307"><time>2026-05-06T19:01:11Z</time></trkpt>
<trkpt lat="50.022998" lon="4.634971"><time>2026-05-06T19:11:11Z</time></trkpt>
<trkpt lat="50.022567" lon="4.634606"><time>2026-05-06T19:21:11Z</time></trkpt>
</trkseg>
</trk>
<trk>
<name>nvvog12</name>
<cmt>v</cmt>
<desc>Oignies Chemin n°12 Chemin des Greffes</desc>
<link href="https://chemins.be/oignies/chemin/12"/><trkseg>
<trkpt lat="50.024575" lon="4.644846"><time>2026-05-06T18:41:11Z</time></trkpt>
<trkpt lat="50.024871" lon="4.645197"><time>2026-05-06T18:51:11Z</time></trkpt>
<trkpt lat="50.025829" lon="4.646891"><time>2026-05-06T19:01:11Z</time></trkpt>
<trkpt lat="50.026511" lon="4.647356"><time>2026-05-06T19:11:11Z</time></trkpt>
<trkpt lat="50.028064" lon="4.648244"><time>2026-05-06T19:21:11Z</time></trkpt>
<trkpt lat="50.028719" lon="4.648681"><time>2026-05-06T19:31:11Z</time></trkpt>
<trkpt lat="50.029348" lon="4.649330"><time>2026-05-06T19:41:11Z</time></trkpt>
<trkpt lat="50.030496" lon="4.650310"><time>2026-05-06T19:51:11Z</time></trkpt>
<trkpt lat="50.031141" lon="4.651179"><time>2026-05-06T20:01:11Z</time></trkpt>
</trkseg>
</trk>
<trk>
<name>nvvog121</name>
<cmt>d</cmt>
<desc>Oignies Sentier n°121 </desc>
<link href="https://chemins.be/oignies/sentier/121"/><trkseg>
<trkpt lat="50.027277" lon="4.638903"><time>2026-05-06T18:41:11Z</time></trkpt>
<trkpt lat="50.027540" lon="4.638304"><time>2026-05-06T18:51:11Z</time></trkpt>
<trkpt lat="50.027593" lon="4.638360"><time>2026-05-06T19:01:11Z</time></trkpt>
<trkpt lat="50.028107" lon="4.637679"><time>2026-05-06T19:11:11Z</time></trkpt>
</trkseg>
</trk>
<trk>
<name>nvvog122</name>
<cmt>d</cmt>
<desc>Oignies Sentier n°122 </desc>
<link href="https://chemins.be/oignies/sentier/122"/><trkseg>
<trkpt lat="50.025645" lon="4.637093"><time>2026-05-06T18:41:11Z</time></trkpt>
<trkpt lat="50.025977" lon="4.637681"><time>2026-05-06T18:51:11Z</time></trkpt>
<trkpt lat="50.026444" lon="4.637740"><time>2026-05-06T19:01:11Z</time></trkpt>
<trkpt lat="50.027018" lon="4.638287"><time>2026-05-06T19:11:11Z</time></trkpt>
<trkpt lat="50.027395" lon="4.638596"><time>2026-05-06T19:21:11Z</time></trkpt>
</trkseg>
</trk>
<trk>
<name>nvvog123</name>
<cmt>d</cmt>
<desc>Oignies Sentier n°123 </desc>
<link href="https://chemins.be/oignies/sentier/123"/><trkseg>
<trkpt lat="50.025672" lon="4.637038"><time>2026-05-06T18:41:11Z</time></trkpt>
<trkpt lat="50.026023" lon="4.637109"><time>2026-05-06T18:51:11Z</time></trkpt>
<trkpt lat="50.026257" lon="4.637069"><time>2026-05-06T19:01:11Z</time></trkpt>
<trkpt lat="50.027218" lon="4.637563"><time>2026-05-06T19:11:11Z</time></trkpt>
<trkpt lat="50.028099" lon="4.637637"><time>2026-05-06T19:21:11Z</time></trkpt>
<trkpt lat="50.029348" lon="4.637714"><time>2026-05-06T19:31:11Z</time></trkpt>
</trkseg>
</trk>
<trk>
<name>nvvog124</name>
<cmt>v</cmt>
<desc>Oignies Sentier n°124 </desc>
<link href="https://chemins.be/oignies/sentier/124"/><trkseg>
<trkpt lat="50.022466" lon="4.639504"><time>2026-05-06T18:41:11Z</time></trkpt>
<trkpt lat="50.022494" lon="4.638890"><time>2026-05-06T18:51:11Z</time></trkpt>
<trkpt lat="50.022531" lon="4.638736"><time>2026-05-06T19:01:11Z</time></trkpt>
</trkseg></trk>
<trk>
<name>nvvog124</name>
<cmt>d</cmt>
<desc>Oignies Sentier n°124 </desc>
<link href="https://chemins.be/oignies/sentier/124"/><trkseg>
<trkpt lat="50.022531" lon="4.638736"><time>2026-05-06T19:01:11Z</time></trkpt>
<trkpt lat="50.022639" lon="4.638416"><time>2026-05-06T19:11:11Z</time></trkpt>
<trkpt lat="50.022856" lon="4.638068"><time>2026-05-06T19:21:11Z</time></trkpt>
</trkseg>
</trk>
<trk>
<name>nvvog125</name>
<cmt>v</cmt>
<desc>Oignies Sentier n°125 </desc>
<link href="https://chemins.be/oignies/sentier/125"/><trkseg>
<trkpt lat="50.021954" lon="4.635621"><time>2026-05-06T18:41:11Z</time></trkpt>
<trkpt lat="50.021854" lon="4.635928"><time>2026-05-06T18:51:11Z</time></trkpt>
<trkpt lat="50.022004" lon="4.636975"><time>2026-05-06T19:01:11Z</time></trkpt>
</trkseg>
</trk>
<trk>
<name>nvvog127</name>
<cmt>v</cmt>
<desc>Oignies Sentier n°127 </desc>
<link href="https://chemins.be/oignies/sentier/127"/><trkseg>
<trkpt lat="50.024530" lon="4.640911"><time>2026-05-06T18:41:11Z</time></trkpt>
<trkpt lat="50.024665" lon="4.641009"><time>2026-05-06T18:51:11Z</time></trkpt>
<trkpt lat="50.024863" lon="4.641066"><time>2026-05-06T19:01:11Z</time></trkpt>
<trkpt lat="50.025122" lon="4.641640"><time>2026-05-06T19:11:11Z</time></trkpt>
</trkseg>
</trk>
<trk>
<name>nvvog128</name>
<cmt>d</cmt>
<desc>Oignies Sentier n°128 </desc>
<link href="https://chemins.be/oignies/sentier/128"/><trkseg>
<trkpt lat="50.024828" lon="4.640368"><time>2026-05-06T18:41:11Z</time></trkpt>
<trkpt lat="50.024989" lon="4.640913"><time>2026-05-06T18:51:11Z</time></trkpt>
<trkpt lat="50.025149" lon="4.641682"><time>2026-05-06T19:01:11Z</time></trkpt>
</trkseg>
</trk>
<trk>
<name>nvvog129</name>
<cmt>v</cmt>
<desc>Oignies Sentier n°129 </desc>
<link href="https://chemins.be/oignies/sentier/129"/><trkseg>
<trkpt lat="50.025185" lon="4.641836"><time>2026-05-06T18:41:11Z</time></trkpt>
<trkpt lat="50.025733" lon="4.641657"><time>2026-05-06T18:51:11Z</time></trkpt>
</trkseg>
</trk>
<trk>
<name>nvvog129bis</name>
<cmt>q</cmt>
<desc>Oignies Sentier n°129bis </desc>
<link href="https://chemins.be/oignies/sentier/129bis"/><trkseg>
<trkpt lat="50.026275" lon="4.644438"><time>2026-05-06T18:41:11Z</time></trkpt>
<trkpt lat="50.026839" lon="4.645613"><time>2026-05-06T18:51:11Z</time></trkpt>
<trkpt lat="50.027081" lon="4.646061"><time>2026-05-06T19:01:11Z</time></trkpt>
<trkpt lat="50.027179" lon="4.646146"><time>2026-05-06T19:11:11Z</time></trkpt>
<trkpt lat="50.027642" lon="4.648074"><time>2026-05-06T19:21:11Z</time></trkpt>
<trkpt lat="50.028150" lon="4.650115"><time>2026-05-06T19:31:11Z</time></trkpt>
</trkseg>
</trk>
<trk>
<name>nvvog13</name>
<cmt>v</cmt>
<desc>Oignies Chemin n°13 </desc>
<link href="https://chemins.be/oignies/chemin/13"/><trkseg>
<trkpt lat="50.023666" lon="4.649000"><time>2026-05-06T18:41:11Z</time></trkpt>
<trkpt lat="50.023902" lon="4.651709"><time>2026-05-06T18:51:11Z</time></trkpt>
<trkpt lat="50.024474" lon="4.653107"><time>2026-05-06T19:01:11Z</time></trkpt>
<trkpt lat="50.024677" lon="4.654728"><time>2026-05-06T19:11:11Z</time></trkpt>
<trkpt lat="50.024573" lon="4.656709"><time>2026-05-06T19:21:11Z</time></trkpt>
<trkpt lat="50.024470" lon="4.658424"><time>2026-05-06T19:31:11Z</time></trkpt>
<trkpt lat="50.024585" lon="4.659137"><time>2026-05-06T19:41:11Z</time></trkpt>
</trkseg>
</trk>
<trk>
<name>nvvog130</name>
<cmt>v</cmt>
<desc>Oignies Sentier n°130 </desc>
<link href="https://chemins.be/oignies/sentier/130"/><trkseg>
<trkpt lat="50.026018" lon="4.643055"><time>2026-05-06T18:41:11Z</time></trkpt>
<trkpt lat="50.025904" lon="4.641714"><time>2026-05-06T18:51:11Z</time></trkpt>
<trkpt lat="50.025760" lon="4.641644"><time>2026-05-06T19:01:11Z</time></trkpt>
</trkseg>
</trk>
<trk>
<name>nvvog131</name>
<cmt>v</cmt>
<desc>Oignies Sentier n°131 </desc>
<link href="https://chemins.be/oignies/sentier/131"/><trkseg>
<trkpt lat="50.026871" lon="4.639543"><time>2026-05-06T18:41:11Z</time></trkpt>
<trkpt lat="50.026654" lon="4.640100"><time>2026-05-06T18:51:11Z</time></trkpt>
<trkpt lat="50.026456" lon="4.640447"><time>2026-05-06T19:01:11Z</time></trkpt>
</trkseg></trk>
<trk>
<name>nvvog131</name>
<cmt>d</cmt>
<desc>Oignies Sentier n°131 </desc>
<link href="https://chemins.be/oignies/sentier/131"/><trkseg>
<trkpt lat="50.026456" lon="4.640447"><time>2026-05-06T19:01:11Z</time></trkpt>
<trkpt lat="50.025851" lon="4.641477"><time>2026-05-06T19:11:11Z</time></trkpt>
<trkpt lat="50.025761" lon="4.641630"><time>2026-05-06T19:21:11Z</time></trkpt>
</trkseg>
</trk>
<trk>
<name>nvvog131bis</name>
<cmt>v</cmt>
<desc>Oignies Sentier n°131bis </desc>
<link href="https://chemins.be/oignies/sentier/131bis"/><trkseg>
<trkpt lat="50.026621" lon="4.641508"><time>2026-05-06T18:41:11Z</time></trkpt>
<trkpt lat="50.026437" lon="4.640457"><time>2026-05-06T18:51:11Z</time></trkpt>
</trkseg>
</trk>
<trk>
<name>nvvog132</name>
<cmt>v</cmt>
<desc>Oignies Sentier n°132 </desc>
<link href="https://chemins.be/oignies/sentier/132"/><trkseg>
<trkpt lat="50.022370" lon="4.642140"><time>2026-05-06T18:41:11Z</time></trkpt>
<trkpt lat="50.022037" lon="4.642139"><time>2026-05-06T18:51:11Z</time></trkpt>
<trkpt lat="50.021779" lon="4.640965"><time>2026-05-06T19:01:11Z</time></trkpt>
</trkseg>
</trk>
<trk>
<name>nvvog133</name>
<cmt>v</cmt>
<desc>Oignies Sentier n°133 </desc>
<link href="https://chemins.be/oignies/sentier/133"/><trkseg>
<trkpt lat="50.022010" lon="4.642166"><time>2026-05-06T18:41:11Z</time></trkpt>
<trkpt lat="50.021870" lon="4.644287"><time>2026-05-06T18:51:11Z</time></trkpt>
</trkseg>
</trk>
<trk>
<name>nvvog133bis</name>
<cmt>q</cmt>
<desc>Oignies Sentier n°133bis </desc>
<link href="https://chemins.be/oignies/sentier/133bis"/><trkseg>
<trkpt lat="50.030795" lon="4.641616"><time>2026-05-06T18:41:11Z</time></trkpt>
<trkpt lat="50.030086" lon="4.641250"><time>2026-05-06T18:51:11Z</time></trkpt>
<trkpt lat="50.029341" lon="4.640561"><time>2026-05-06T19:01:11Z</time></trkpt>
<trkpt lat="50.028066" lon="4.640094"><time>2026-05-06T19:11:11Z</time></trkpt>
<trkpt lat="50.027500" lon="4.639686"><time>2026-05-06T19:21:11Z</time></trkpt>
</trkseg>
</trk>
<trk>
<name>nvvog134</name>
<cmt>s</cmt>
<desc>Oignies Sentier n°134 Sentier de Fontaine de la Pate d’Oie</desc>
<link href="https://chemins.be/oignies/sentier/134"/><trkseg>
<trkpt lat="50.021770" lon="4.641049"><time>2026-05-06T18:41:11Z</time></trkpt>
<trkpt lat="50.021633" lon="4.642108"><time>2026-05-06T18:51:11Z</time></trkpt>
</trkseg>
</trk>
<trk>
<name>nvvog135</name>
<cmt>v</cmt>
<desc>Oignies Sentier n°135 </desc>
<link href="https://chemins.be/oignies/sentier/135"/><trkseg>
<trkpt lat="50.022430" lon="4.639434"><time>2026-05-06T18:41:11Z</time></trkpt>
<trkpt lat="50.022153" lon="4.638944"><time>2026-05-06T18:51:11Z</time></trkpt>
<trkpt lat="50.021928" lon="4.638984"><time>2026-05-06T19:01:11Z</time></trkpt>
<trkpt lat="50.021711" lon="4.639304"><time>2026-05-06T19:11:11Z</time></trkpt>
<trkpt lat="50.021053" lon="4.639956"><time>2026-05-06T19:21:11Z</time></trkpt>
</trkseg>
</trk>
<trk>
<name>nvvog136</name>
<cmt>d</cmt>
<desc>Oignies Sentier n°136 </desc>
<link href="https://chemins.be/oignies/sentier/136"/><trkseg>
<trkpt lat="50.023389" lon="4.644519"><time>2026-05-06T18:41:11Z</time></trkpt>
<trkpt lat="50.023209" lon="4.644546"><time>2026-05-06T18:51:11Z</time></trkpt>
<trkpt lat="50.022460" lon="4.645755"><time>2026-05-06T19:01:11Z</time></trkpt>
<trkpt lat="50.022423" lon="4.646062"><time>2026-05-06T19:11:11Z</time></trkpt>
<trkpt lat="50.021983" lon="4.646171"><time>2026-05-06T19:21:11Z</time></trkpt>
<trkpt lat="50.021107" lon="4.647408"><time>2026-05-06T19:31:11Z</time></trkpt>
<trkpt lat="50.020394" lon="4.648618"><time>2026-05-06T19:41:11Z</time></trkpt>
<trkpt lat="50.018234" lon="4.653210"><time>2026-05-06T19:51:11Z</time></trkpt>
</trkseg>
</trk>
<trk>
<name>nvvog137</name>
<cmt>v</cmt>
<desc>Oignies Sentier n°137 </desc>
<link href="https://chemins.be/oignies/sentier/137"/><trkseg>
<trkpt lat="50.024607" lon="4.638902"><time>2026-05-06T18:41:11Z</time></trkpt>
<trkpt lat="50.024606" lon="4.639502"><time>2026-05-06T18:51:11Z</time></trkpt>
</trkseg>
</trk>
<trk>
<name>nvvog138</name>
<cmt>v</cmt>
<desc>Oignies Sentier n°138 </desc>
<link href="https://chemins.be/oignies/sentier/138"/><trkseg>
<trkpt lat="50.027803" lon="4.641600"><time>2026-05-06T18:41:11Z</time></trkpt>
<trkpt lat="50.027330" lon="4.641564"><time>2026-05-06T18:51:11Z</time></trkpt>
<trkpt lat="50.025910" lon="4.641643"><time>2026-05-06T19:01:11Z</time></trkpt>
</trkseg>
</trk>
<trk>
<name>nvvog14</name>
<cmt>v</cmt>
<desc>Oignies Chemin n°14 </desc>
<link href="https://chemins.be/oignies/chemin/14"/><trkseg>
<trkpt lat="50.016304" lon="4.633204"><time>2026-05-06T18:41:11Z</time></trkpt>
<trkpt lat="50.015610" lon="4.633772"><time>2026-05-06T18:51:11Z</time></trkpt>
<trkpt lat="50.014844" lon="4.634814"><time>2026-05-06T19:01:11Z</time></trkpt>
<trkpt lat="50.012907" lon="4.636352"><time>2026-05-06T19:11:11Z</time></trkpt>
<trkpt lat="50.012143" lon="4.636194"><time>2026-05-06T19:21:11Z</time></trkpt>
<trkpt lat="50.011297" lon="4.636664"><time>2026-05-06T19:31:11Z</time></trkpt>
<trkpt lat="50.009947" lon="4.637396"><time>2026-05-06T19:41:11Z</time></trkpt>
<trkpt lat="50.007354" lon="4.638971"><time>2026-05-06T19:51:11Z</time></trkpt>
<trkpt lat="50.005438" lon="4.639156"><time>2026-05-06T20:01:11Z</time></trkpt>
<trkpt lat="50.004387" lon="4.638885"><time>2026-05-06T20:11:11Z</time></trkpt>
<trkpt lat="50.000716" lon="4.636395"><time>2026-05-06T20:21:11Z</time></trkpt>
<trkpt lat="50.000150" lon="4.636002"><time>2026-05-06T20:31:11Z</time></trkpt>
<trkpt lat="49.999468" lon="4.635691"><time>2026-05-06T20:41:11Z</time></trkpt>
<trkpt lat="49.997831" lon="4.635640"><time>2026-05-06T20:51:11Z</time></trkpt>
<trkpt lat="49.996851" lon="4.635983"><time>2026-05-06T21:01:11Z</time></trkpt>
<trkpt lat="49.994357" lon="4.637503"><time>2026-05-06T21:11:11Z</time></trkpt>
<trkpt lat="49.992905" lon="4.635431"><time>2026-05-06T21:21:11Z</time></trkpt>
<trkpt lat="49.990664" lon="4.632769"><time>2026-05-06T21:31:11Z</time></trkpt>
<trkpt lat="49.989847" lon="4.632137"><time>2026-05-06T21:41:11Z</time></trkpt>
<trkpt lat="49.989208" lon="4.632398"><time>2026-05-06T21:51:11Z</time></trkpt>
<trkpt lat="49.988740" lon="4.632730"><time>2026-05-06T22:01:11Z</time></trkpt>
<trkpt lat="49.988578" lon="4.632520"><time>2026-05-06T22:11:11Z</time></trkpt>
<trkpt lat="49.988762" lon="4.630806"><time>2026-05-06T22:21:11Z</time></trkpt>
<trkpt lat="49.988073" lon="4.629450"><time>2026-05-06T22:31:11Z</time></trkpt>
<trkpt lat="49.987803" lon="4.629392"><time>2026-05-06T22:41:11Z</time></trkpt>
</trkseg>
</trk>
<trk>
<name>nvvog15</name>
<cmt>v</cmt>
<desc>Oignies Chemin n°15 </desc>
<link href="https://chemins.be/oignies/chemin/15"/><trkseg>
<trkpt lat="50.014114" lon="4.639135"><time>2026-05-06T18:41:11Z</time></trkpt>
<trkpt lat="50.013208" lon="4.638488"><time>2026-05-06T18:51:11Z</time></trkpt>
<trkpt lat="50.012564" lon="4.637229"><time>2026-05-06T19:01:11Z</time></trkpt>
<trkpt lat="50.012592" lon="4.636434"><time>2026-05-06T19:11:11Z</time></trkpt>
</trkseg>
</trk>
<trk>
<name>nvvog16</name>
<cmt>v</cmt>
<desc>Oignies Chemin n°16 </desc>
<link href="https://chemins.be/oignies/chemin/16"/><trkseg>
<trkpt lat="50.011445" lon="4.661052"><time>2026-05-06T18:41:11Z</time></trkpt>
<trkpt lat="50.010222" lon="4.657487"><time>2026-05-06T18:51:11Z</time></trkpt>
<trkpt lat="50.009187" lon="4.654216"><time>2026-05-06T19:01:11Z</time></trkpt>
<trkpt lat="50.009256" lon="4.651608"><time>2026-05-06T19:11:11Z</time></trkpt>
<trkpt lat="50.009142" lon="4.646920"><time>2026-05-06T19:21:11Z</time></trkpt>
<trkpt lat="50.008893" lon="4.645928"><time>2026-05-06T19:31:11Z</time></trkpt>
<trkpt lat="50.007866" lon="4.642825"><time>2026-05-06T19:41:11Z</time></trkpt>
</trkseg></trk>
<trk>
<name>nvvog16</name>
<cmt>d</cmt>
<desc>Oignies Chemin n°16 </desc>
<link href="https://chemins.be/oignies/chemin/16"/><trkseg>
<trkpt lat="50.007866" lon="4.642825"><time>2026-05-06T19:41:11Z</time></trkpt>
<trkpt lat="50.006917" lon="4.641382"><time>2026-05-06T19:51:11Z</time></trkpt>
<trkpt lat="50.005797" lon="4.639507"><time>2026-05-06T20:01:11Z</time></trkpt>
<trkpt lat="50.004476" lon="4.634047"><time>2026-05-06T20:11:11Z</time></trkpt>
<trkpt lat="50.004673" lon="4.631995"><time>2026-05-06T20:21:11Z</time></trkpt>
</trkseg></trk>
<trk>
<name>nvvog16</name>
<cmt>v</cmt>
<desc>Oignies Chemin n°16 </desc>
<link href="https://chemins.be/oignies/chemin/16"/><trkseg>
<trkpt lat="50.004673" lon="4.631995"><time>2026-05-06T20:21:11Z</time></trkpt>
<trkpt lat="50.004641" lon="4.630084"><time>2026-05-06T20:31:11Z</time></trkpt>
<trkpt lat="50.002126" lon="4.625314"><time>2026-05-06T20:41:11Z</time></trkpt>
<trkpt lat="50.002967" lon="4.622863"><time>2026-05-06T20:51:11Z</time></trkpt>
<trkpt lat="50.004725" lon="4.616609"><time>2026-05-06T21:01:11Z</time></trkpt>
<trkpt lat="50.004825" lon="4.616122"><time>2026-05-06T21:11:11Z</time></trkpt>
<trkpt lat="50.004312" lon="4.612255"><time>2026-05-06T21:21:11Z</time></trkpt>
<trkpt lat="50.004313" lon="4.611683"><time>2026-05-06T21:31:11Z</time></trkpt>
<trkpt lat="50.004908" lon="4.610835"><time>2026-05-06T21:41:11Z</time></trkpt>
<trkpt lat="50.006430" lon="4.609601"><time>2026-05-06T21:51:11Z</time></trkpt>
<trkpt lat="50.006585" lon="4.608368"><time>2026-05-06T22:01:11Z</time></trkpt>
<trkpt lat="50.006975" lon="4.607135"><time>2026-05-06T22:11:11Z</time></trkpt>
<trkpt lat="50.008805" lon="4.604814"><time>2026-05-06T22:21:11Z</time></trkpt>
<trkpt lat="50.009519" lon="4.602781"><time>2026-05-06T22:31:11Z</time></trkpt>
<trkpt lat="50.009433" lon="4.601037"><time>2026-05-06T22:41:11Z</time></trkpt>
</trkseg>
</trk>
<trk>
<name>nvvog17</name>
<cmt>v</cmt>
<desc>Oignies Chemin n°17 </desc>
<link href="https://chemins.be/oignies/chemin/17"/><trkseg>
<trkpt lat="49.995074" lon="4.614397"><time>2026-05-06T18:41:11Z</time></trkpt>
<trkpt lat="49.992234" lon="4.613881"><time>2026-05-06T18:51:11Z</time></trkpt>
<trkpt lat="49.991255" lon="4.613234"><time>2026-05-06T19:01:11Z</time></trkpt>
<trkpt lat="49.988908" lon="4.613724"><time>2026-05-06T19:11:11Z</time></trkpt>
<trkpt lat="49.987926" lon="4.614584"><time>2026-05-06T19:21:11Z</time></trkpt>
<trkpt lat="49.987153" lon="4.614399"><time>2026-05-06T19:31:11Z</time></trkpt>
<trkpt lat="49.987019" lon="4.614091"><time>2026-05-06T19:41:11Z</time></trkpt>
<trkpt lat="49.986939" lon="4.613505"><time>2026-05-06T19:51:11Z</time></trkpt>
<trkpt lat="49.986086" lon="4.612831"><time>2026-05-06T20:01:11Z</time></trkpt>
</trkseg>
</trk>
<trk>
<name>nvvog18</name>
<cmt>v</cmt>
<desc>Oignies Chemin n°18 </desc>
<link href="https://chemins.be/oignies/chemin/18"/><trkseg>
<trkpt lat="49.999654" lon="4.612210"><time>2026-05-06T18:41:11Z</time></trkpt>
<trkpt lat="49.998628" lon="4.612775"><time>2026-05-06T18:51:11Z</time></trkpt>
<trkpt lat="49.997603" lon="4.613991"><time>2026-05-06T19:01:11Z</time></trkpt>
<trkpt lat="49.995208" lon="4.614538"><time>2026-05-06T19:11:11Z</time></trkpt>
<trkpt lat="49.994353" lon="4.615049"><time>2026-05-06T19:21:11Z</time></trkpt>
<trkpt lat="49.992459" lon="4.617954"><time>2026-05-06T19:31:11Z</time></trkpt>
<trkpt lat="49.991252" lon="4.619119"><time>2026-05-06T19:41:11Z</time></trkpt>
<trkpt lat="49.989529" lon="4.621523"><time>2026-05-06T19:51:11Z</time></trkpt>
<trkpt lat="49.988670" lon="4.623596"><time>2026-05-06T20:01:11Z</time></trkpt>
<trkpt lat="49.988650" lon="4.624712"><time>2026-05-06T20:11:11Z</time></trkpt>
<trkpt lat="49.987927" lon="4.626451"><time>2026-05-06T20:21:11Z</time></trkpt>
<trkpt lat="49.987449" lon="4.626825"><time>2026-05-06T20:31:11Z</time></trkpt>
</trkseg>
</trk>
<trk>
<name>nvvog19</name>
<cmt>v</cmt>
<desc>Oignies Chemin n°19 </desc>
<link href="https://chemins.be/oignies/chemin/19"/><trkseg>
<trkpt lat="50.008164" lon="4.660767"><time>2026-05-06T18:41:11Z</time></trkpt>
<trkpt lat="50.007858" lon="4.660709"><time>2026-05-06T18:51:11Z</time></trkpt>
<trkpt lat="50.007418" lon="4.660609"><time>2026-05-06T19:01:11Z</time></trkpt>
<trkpt lat="50.006662" lon="4.660702"><time>2026-05-06T19:11:11Z</time></trkpt>
<trkpt lat="50.006177" lon="4.660448"><time>2026-05-06T19:21:11Z</time></trkpt>
<trkpt lat="50.004730" lon="4.660481"><time>2026-05-06T19:31:11Z</time></trkpt>
<trkpt lat="50.004092" lon="4.660142"><time>2026-05-06T19:41:11Z</time></trkpt>
<trkpt lat="50.003322" lon="4.659217"><time>2026-05-06T19:51:11Z</time></trkpt>
<trkpt lat="50.002989" lon="4.659089"><time>2026-05-06T20:01:11Z</time></trkpt>
<trkpt lat="50.001899" lon="4.660073"><time>2026-05-06T20:11:11Z</time></trkpt>
</trkseg>
</trk>
<trk>
<name>nvvog2</name>
<cmt>r</cmt>
<desc>Oignies Chemin n°2 Rue de la Cure</desc>
<link href="https://chemins.be/oignies/chemin/2"/><trkseg>
<trkpt lat="50.023761" lon="4.639204"><time>2026-05-06T18:41:11Z</time></trkpt>
<trkpt lat="50.022502" lon="4.639601"><time>2026-05-06T18:51:11Z</time></trkpt>
<trkpt lat="50.021698" lon="4.641271"><time>2026-05-06T19:01:11Z</time></trkpt>
<trkpt lat="50.021283" lon="4.641841"><time>2026-05-06T19:11:11Z</time></trkpt>
<trkpt lat="50.020698" lon="4.641949"><time>2026-05-06T19:21:11Z</time></trkpt>
<trkpt lat="50.018613" lon="4.641491"><time>2026-05-06T19:31:11Z</time></trkpt>
<trkpt lat="50.016396" lon="4.640209"><time>2026-05-06T19:41:11Z</time></trkpt>
<trkpt lat="50.015507" lon="4.639464"><time>2026-05-06T19:51:11Z</time></trkpt>
</trkseg></trk>
<trk>
<name>nvvog2</name>
<cmt>v</cmt>
<desc>Oignies Chemin n°2 Rue de la Cure</desc>
<link href="https://chemins.be/oignies/chemin/2"/><trkseg>
<trkpt lat="50.015507" lon="4.639464"><time>2026-05-06T19:51:11Z</time></trkpt>
<trkpt lat="50.014690" lon="4.639208"><time>2026-05-06T20:01:11Z</time></trkpt>
<trkpt lat="50.013862" lon="4.639287"><time>2026-05-06T20:11:11Z</time></trkpt>
<trkpt lat="50.013528" lon="4.639955"><time>2026-05-06T20:21:11Z</time></trkpt>
<trkpt lat="50.013632" lon="4.641518"><time>2026-05-06T20:31:11Z</time></trkpt>
<trkpt lat="50.013432" lon="4.642787"><time>2026-05-06T20:41:11Z</time></trkpt>
<trkpt lat="50.012840" lon="4.645909"><time>2026-05-06T20:51:11Z</time></trkpt>
<trkpt lat="50.012535" lon="4.649172"><time>2026-05-06T21:01:11Z</time></trkpt>
<trkpt lat="50.011352" lon="4.654983"><time>2026-05-06T21:11:11Z</time></trkpt>
<trkpt lat="50.010578" lon="4.658717"><time>2026-05-06T21:21:11Z</time></trkpt>
<trkpt lat="50.009576" lon="4.660301"><time>2026-05-06T21:31:11Z</time></trkpt>
<trkpt lat="50.008721" lon="4.660868"><time>2026-05-06T21:41:11Z</time></trkpt>
<trkpt lat="50.008002" lon="4.660543"><time>2026-05-06T21:51:11Z</time></trkpt>
<trkpt lat="50.007152" lon="4.659045"><time>2026-05-06T22:01:11Z</time></trkpt>
<trkpt lat="50.006040" lon="4.658062"><time>2026-05-06T22:11:11Z</time></trkpt>
<trkpt lat="50.002548" lon="4.655753"><time>2026-05-06T22:21:11Z</time></trkpt>
<trkpt lat="50.001098" lon="4.660180"><time>2026-05-06T22:31:11Z</time></trkpt>
<trkpt lat="50.000816" lon="4.661643"><time>2026-05-06T22:41:11Z</time></trkpt>
<trkpt lat="50.000400" lon="4.662533"><time>2026-05-06T22:51:11Z</time></trkpt>
<trkpt lat="49.998588" lon="4.664544"><time>2026-05-06T23:01:11Z</time></trkpt>
<trkpt lat="49.997706" lon="4.664957"><time>2026-05-06T23:11:11Z</time></trkpt>
<trkpt lat="49.996741" lon="4.666123"><time>2026-05-06T23:21:11Z</time></trkpt>
<trkpt lat="49.997091" lon="4.666320"><time>2026-05-06T23:31:11Z</time></trkpt>
<trkpt lat="49.997131" lon="4.668259"><time>2026-05-06T23:41:11Z</time></trkpt>
<trkpt lat="49.997245" lon="4.669250"><time>2026-05-06T23:51:11Z</time></trkpt>
<trkpt lat="49.997152" lon="4.670616"><time>2026-05-07T00:01:11Z</time></trkpt>
</trkseg>
</trk>
<trk>
<name>nvvog20</name>
<cmt>v</cmt>
<desc>Oignies Chemin n°20 </desc>
<link href="https://chemins.be/oignies/chemin/20"/><trkseg>
<trkpt lat="50.011534" lon="4.661234"><time>2026-05-06T18:41:11Z</time></trkpt>
<trkpt lat="50.012991" lon="4.664410"><time>2026-05-06T18:51:11Z</time></trkpt>
</trkseg>
</trk>
<trk>
<name>nvvog21</name>
<cmt>v</cmt>
<desc>Oignies Chemin n°21 </desc>
<link href="https://chemins.be/oignies/chemin/21"/><trkseg>
<trkpt lat="50.011648" lon="4.669145"><time>2026-05-06T18:41:11Z</time></trkpt>
<trkpt lat="50.008110" lon="4.667616"><time>2026-05-06T18:51:11Z</time></trkpt>
<trkpt lat="50.007876" lon="4.667699"><time>2026-05-06T19:01:11Z</time></trkpt>
<trkpt lat="50.007175" lon="4.667778"><time>2026-05-06T19:11:11Z</time></trkpt>
</trkseg></trk>
<trk>
<name>nvvog21</name>
<cmt>d</cmt>
<desc>Oignies Chemin n°21 </desc>
<link href="https://chemins.be/oignies/chemin/21"/><trkseg>
<trkpt lat="50.007175" lon="4.667778"><time>2026-05-06T19:11:11Z</time></trkpt>
<trkpt lat="50.005961" lon="4.667728"><time>2026-05-06T19:21:11Z</time></trkpt>
</trkseg>
</trk>
<trk>
<name>nvvog22</name>
<cmt>v</cmt>
<desc>Oignies Chemin n°22 </desc>
<link href="https://chemins.be/oignies/chemin/22"/><trkseg>
<trkpt lat="50.011160" lon="4.663478"><time>2026-05-06T18:41:11Z</time></trkpt>
<trkpt lat="50.010653" lon="4.664786"><time>2026-05-06T18:51:11Z</time></trkpt>
<trkpt lat="50.008455" lon="4.666223"><time>2026-05-06T19:01:11Z</time></trkpt>
<trkpt lat="50.007421" lon="4.666524"><time>2026-05-06T19:11:11Z</time></trkpt>
<trkpt lat="50.006078" lon="4.667492"><time>2026-05-06T19:21:11Z</time></trkpt>
<trkpt lat="50.005271" lon="4.666831"><time>2026-05-06T19:31:11Z</time></trkpt>
<trkpt lat="50.005023" lon="4.665463"><time>2026-05-06T19:41:11Z</time></trkpt>
<trkpt lat="50.003751" lon="4.663418"><time>2026-05-06T19:51:11Z</time></trkpt>
<trkpt lat="50.003088" lon="4.662870"><time>2026-05-06T20:01:11Z</time></trkpt>
<trkpt lat="50.002575" lon="4.663020"><time>2026-05-06T20:11:11Z</time></trkpt>
<trkpt lat="50.001272" lon="4.662468"><time>2026-05-06T20:21:11Z</time></trkpt>
<trkpt lat="50.000859" lon="4.662424"><time>2026-05-06T20:31:11Z</time></trkpt>
</trkseg>
</trk>
<trk>
<name>nvvog23</name>
<cmt>v</cmt>
<desc>Oignies Chemin n°23 Trou du Diable</desc>
<link href="https://chemins.be/oignies/chemin/23"/><trkseg>
<trkpt lat="50.008466" lon="4.682643"><time>2026-05-06T18:41:11Z</time></trkpt>
<trkpt lat="50.007560" lon="4.681647"><time>2026-05-06T18:51:11Z</time></trkpt>
<trkpt lat="50.007310" lon="4.681269"><time>2026-05-06T19:01:11Z</time></trkpt>
<trkpt lat="50.006963" lon="4.679913"><time>2026-05-06T19:11:11Z</time></trkpt>
<trkpt lat="50.006719" lon="4.679253"><time>2026-05-06T19:21:11Z</time></trkpt>
<trkpt lat="50.006113" lon="4.678401"><time>2026-05-06T19:31:11Z</time></trkpt>
<trkpt lat="50.004424" lon="4.675391"><time>2026-05-06T19:41:11Z</time></trkpt>
</trkseg></trk>
<trk>
<name>nvvog23</name>
<cmt>d</cmt>
<desc>Oignies Chemin n°23 Trou du Diable</desc>
<link href="https://chemins.be/oignies/chemin/23"/><trkseg>
<trkpt lat="50.004424" lon="4.675391"><time>2026-05-06T19:41:11Z</time></trkpt>
<trkpt lat="50.004494" lon="4.675043"><time>2026-05-06T19:51:11Z</time></trkpt>
<trkpt lat="50.005181" lon="4.673792"><time>2026-05-06T20:01:11Z</time></trkpt>
<trkpt lat="50.005174" lon="4.673010"><time>2026-05-06T20:11:11Z</time></trkpt>
<trkpt lat="50.004744" lon="4.672380"><time>2026-05-06T20:21:11Z</time></trkpt>
<trkpt lat="50.003773" lon="4.671376"><time>2026-05-06T20:31:11Z</time></trkpt>
</trkseg></trk>
<trk>
<name>nvvog23</name>
<cmt>v</cmt>
<desc>Oignies Chemin n°23 Trou du Diable</desc>
<link href="https://chemins.be/oignies/chemin/23"/><trkseg>
<trkpt lat="50.003773" lon="4.671376"><time>2026-05-06T20:31:11Z</time></trkpt>
<trkpt lat="50.003817" lon="4.670979"><time>2026-05-06T20:41:11Z</time></trkpt>
<trkpt lat="50.002962" lon="4.670129"><time>2026-05-06T20:51:11Z</time></trkpt>
<trkpt lat="50.002140" lon="4.667830"><time>2026-05-06T21:01:11Z</time></trkpt>
<trkpt lat="50.000660" lon="4.666328"><time>2026-05-06T21:11:11Z</time></trkpt>
<trkpt lat="49.999977" lon="4.665869"><time>2026-05-06T21:21:11Z</time></trkpt>
<trkpt lat="49.999646" lon="4.664917"><time>2026-05-06T21:31:11Z</time></trkpt>
<trkpt lat="49.999588" lon="4.663578"><time>2026-05-06T21:41:11Z</time></trkpt>
</trkseg>
</trk>
<trk>
<name>nvvog24</name>
<cmt>v</cmt>
<desc>Oignies Chemin n°24 Chemin des Norbertins</desc>
<link href="https://chemins.be/oignies/chemin/24"/><trkseg>
<trkpt lat="50.000934" lon="4.650443"><time>2026-05-06T18:41:11Z</time></trkpt>
<trkpt lat="49.999852" lon="4.651622"><time>2026-05-06T18:51:11Z</time></trkpt>
<trkpt lat="49.999516" lon="4.653001"><time>2026-05-06T19:01:11Z</time></trkpt>
<trkpt lat="49.998147" lon="4.657707"><time>2026-05-06T19:11:11Z</time></trkpt>
<trkpt lat="49.998458" lon="4.659034"><time>2026-05-06T19:21:11Z</time></trkpt>
<trkpt lat="49.998275" lon="4.660260"><time>2026-05-06T19:31:11Z</time></trkpt>
<trkpt lat="49.998544" lon="4.660485"><time>2026-05-06T19:41:11Z</time></trkpt>
<trkpt lat="49.999130" lon="4.660098"><time>2026-05-06T19:51:11Z</time></trkpt>
<trkpt lat="49.999920" lon="4.660312"><time>2026-05-06T20:01:11Z</time></trkpt>
</trkseg></trk>
<trk>
<name>nvvog24</name>
<cmt>d</cmt>
<desc>Oignies Chemin n°24 Chemin des Norbertins</desc>
<link href="https://chemins.be/oignies/chemin/24"/><trkseg>
<trkpt lat="49.999920" lon="4.660312"><time>2026-05-06T20:01:11Z</time></trkpt>
<trkpt lat="50.000342" lon="4.660775"><time>2026-05-06T20:11:11Z</time></trkpt>
<trkpt lat="50.000645" lon="4.661600"><time>2026-05-06T20:21:11Z</time></trkpt>
</trkseg>
</trk>
<trk>
<name>nvvog25</name>
<cmt>d</cmt>
<desc>Oignies Chemin n°25 </desc>
<link href="https://chemins.be/oignies/chemin/25"/><trkseg>
<trkpt lat="50.000510" lon="4.650789"><time>2026-05-06T18:41:11Z</time></trkpt>
<trkpt lat="49.991846" lon="4.649789"><time>2026-05-06T18:51:11Z</time></trkpt>
</trkseg>
</trk>
<trk>
<name>nvvog26</name>
<cmt>v</cmt>
<desc>Oignies Chemin n°26 Chemin de l'Alysse</desc>
<link href="https://chemins.be/oignies/chemin/26"/><trkseg>
<trkpt lat="50.007520" lon="4.640925"><time>2026-05-06T18:41:11Z</time></trkpt>
<trkpt lat="50.005583" lon="4.642449"><time>2026-05-06T18:51:11Z</time></trkpt>
<trkpt lat="50.004639" lon="4.642527"><time>2026-05-06T19:01:11Z</time></trkpt>
<trkpt lat="50.001663" lon="4.642468"><time>2026-05-06T19:11:11Z</time></trkpt>
<trkpt lat="49.998204" lon="4.641472"><time>2026-05-06T19:21:11Z</time></trkpt>
<trkpt lat="49.997296" lon="4.641648"><time>2026-05-06T19:31:11Z</time></trkpt>
<trkpt lat="49.995241" lon="4.643756"><time>2026-05-06T19:41:11Z</time></trkpt>
<trkpt lat="49.993671" lon="4.646104"><time>2026-05-06T19:51:11Z</time></trkpt>
<trkpt lat="49.992626" lon="4.646809"><time>2026-05-06T20:01:11Z</time></trkpt>
<trkpt lat="49.991980" lon="4.647877"><time>2026-05-06T20:11:11Z</time></trkpt>
<trkpt lat="49.991908" lon="4.648947"><time>2026-05-06T20:21:11Z</time></trkpt>
<trkpt lat="49.992088" lon="4.649469"><time>2026-05-06T20:31:11Z</time></trkpt>
<trkpt lat="49.992230" lon="4.650824"><time>2026-05-06T20:41:11Z</time></trkpt>
<trkpt lat="49.992827" lon="4.652877"><time>2026-05-06T20:51:11Z</time></trkpt>
</trkseg>
</trk>
<trk>
<name>nvvog27</name>
<cmt>v</cmt>
<desc>Oignies Chemin n°27 </desc>
<link href="https://chemins.be/oignies/chemin/27"/><trkseg>
<trkpt lat="50.008203" lon="4.641153"><time>2026-05-06T18:41:11Z</time></trkpt>
<trkpt lat="50.007884" lon="4.642853"><time>2026-05-06T18:51:11Z</time></trkpt>
<trkpt lat="50.006845" lon="4.644870"><time>2026-05-06T19:01:11Z</time></trkpt>
<trkpt lat="50.006230" lon="4.646679"><time>2026-05-06T19:11:11Z</time></trkpt>
<trkpt lat="50.004948" lon="4.648583"><time>2026-05-06T19:21:11Z</time></trkpt>
</trkseg>
</trk>
<trk>
<name>nvvog28</name>
<cmt>d</cmt>
<desc>Oignies Chemin n°28 </desc>
<link href="https://chemins.be/oignies/chemin/28"/><trkseg>
<trkpt lat="50.013121" lon="4.652133"><time>2026-05-06T18:41:11Z</time></trkpt>
<trkpt lat="50.013570" lon="4.652526"><time>2026-05-06T18:51:11Z</time></trkpt>
<trkpt lat="50.014071" lon="4.653450"><time>2026-05-06T19:01:11Z</time></trkpt>
</trkseg>
</trk>
<trk>
<name>nvvog29</name>
<cmt>d</cmt>
<desc>Oignies Chemin n°29 </desc>
<link href="https://chemins.be/oignies/chemin/29"/><trkseg>
<trkpt lat="50.013197" lon="4.643190"><time>2026-05-06T18:41:11Z</time></trkpt>
<trkpt lat="50.011932" lon="4.645708"><time>2026-05-06T18:51:11Z</time></trkpt>
<trkpt lat="50.011217" lon="4.647825"><time>2026-05-06T19:01:11Z</time></trkpt>
<trkpt lat="50.010072" lon="4.652757"><time>2026-05-06T19:11:11Z</time></trkpt>
<trkpt lat="50.009913" lon="4.655225"><time>2026-05-06T19:21:11Z</time></trkpt>
<trkpt lat="50.010025" lon="4.657151"><time>2026-05-06T19:31:11Z</time></trkpt>
<trkpt lat="50.010055" lon="4.659481"><time>2026-05-06T19:41:11Z</time></trkpt>
</trkseg>
</trk>
<trk>
<name>nvvog3</name>
<cmt>r</cmt>
<desc>Oignies Chemin n°3 Rue Notre-Dame</desc>
<link href="https://chemins.be/oignies/chemin/3"/><trkseg>
<trkpt lat="50.027240" lon="4.639684"><time>2026-05-06T18:41:11Z</time></trkpt>
<trkpt lat="50.028123" lon="4.642284"><time>2026-05-06T18:51:11Z</time></trkpt>
</trkseg></trk>
<trk>
<name>nvvog3</name>
<cmt>v</cmt>
<desc>Oignies Chemin n°3 Rue Notre-Dame</desc>
<link href="https://chemins.be/oignies/chemin/3"/><trkseg>
<trkpt lat="50.028123" lon="4.642284"><time>2026-05-06T18:51:11Z</time></trkpt>
<trkpt lat="50.028554" lon="4.642832"><time>2026-05-06T19:01:11Z</time></trkpt>
<trkpt lat="50.028992" lon="4.643881"><time>2026-05-06T19:11:11Z</time></trkpt>
<trkpt lat="50.029259" lon="4.644943"><time>2026-05-06T19:21:11Z</time></trkpt>
<trkpt lat="50.030059" lon="4.648702"><time>2026-05-06T19:31:11Z</time></trkpt>
<trkpt lat="50.030346" lon="4.649137"><time>2026-05-06T19:41:11Z</time></trkpt>
<trkpt lat="50.031150" lon="4.651249"><time>2026-05-06T19:51:11Z</time></trkpt>
<trkpt lat="50.032390" lon="4.655220"><time>2026-05-06T20:01:11Z</time></trkpt>
</trkseg>
</trk>
<trk>
<name>nvvog30</name>
<cmt>v</cmt>
<desc>Oignies Chemin n°30 </desc>
<link href="https://chemins.be/oignies/chemin/30"/><trkseg>
<trkpt lat="50.010794" lon="4.636633"><time>2026-05-06T18:41:11Z</time></trkpt>
<trkpt lat="50.009906" lon="4.635735"><time>2026-05-06T18:51:11Z</time></trkpt>
<trkpt lat="50.006799" lon="4.633974"><time>2026-05-06T19:01:11Z</time></trkpt>
<trkpt lat="50.005607" lon="4.633253"><time>2026-05-06T19:11:11Z</time></trkpt>
<trkpt lat="50.004682" lon="4.631842"><time>2026-05-06T19:21:11Z</time></trkpt>
</trkseg>
</trk>
<trk>
<name>nvvog31</name>
<cmt>v</cmt>
<desc>Oignies Chemin n°31 </desc>
<link href="https://chemins.be/oignies/chemin/31"/><trkseg>
<trkpt lat="50.013483" lon="4.639941"><time>2026-05-06T18:41:11Z</time></trkpt>
<trkpt lat="50.013105" lon="4.640385"><time>2026-05-06T18:51:11Z</time></trkpt>
<trkpt lat="50.012348" lon="4.640967"><time>2026-05-06T19:01:11Z</time></trkpt>
<trkpt lat="50.011870" lon="4.641620"><time>2026-05-06T19:11:11Z</time></trkpt>
<trkpt lat="50.011231" lon="4.641923"><time>2026-05-06T19:21:11Z</time></trkpt>
<trkpt lat="50.008167" lon="4.640915"><time>2026-05-06T19:31:11Z</time></trkpt>
<trkpt lat="50.007592" lon="4.640731"><time>2026-05-06T19:41:11Z</time></trkpt>
<trkpt lat="50.005806" lon="4.639451"><time>2026-05-06T19:51:11Z</time></trkpt>
</trkseg>
</trk>
<trk>
<name>nvvog32</name>
<cmt>s</cmt>
<desc>Oignies Chemin n°32 </desc>
<link href="https://chemins.be/oignies/chemin/32"/><trkseg>
<trkpt lat="50.000276" lon="4.635932"><time>2026-05-06T18:41:11Z</time></trkpt>
<trkpt lat="49.999747" lon="4.635372"><time>2026-05-06T18:51:11Z</time></trkpt>
</trkseg></trk>
<trk>
<name>nvvog32</name>
<cmt>d</cmt>
<desc>Oignies Chemin n°32 </desc>
<link href="https://chemins.be/oignies/chemin/32"/><trkseg>
<trkpt lat="49.999747" lon="4.635372"><time>2026-05-06T18:51:11Z</time></trkpt>
<trkpt lat="49.997394" lon="4.634424"><time>2026-05-06T19:01:11Z</time></trkpt>
<trkpt lat="49.995969" lon="4.632477"><time>2026-05-06T19:11:11Z</time></trkpt>
<trkpt lat="49.993323" lon="4.629757"><time>2026-05-06T19:21:11Z</time></trkpt>
<trkpt lat="49.992190" lon="4.629681"><time>2026-05-06T19:31:11Z</time></trkpt>
<trkpt lat="49.991192" lon="4.629815"><time>2026-05-06T19:41:11Z</time></trkpt>
<trkpt lat="49.990617" lon="4.629366"><time>2026-05-06T19:51:11Z</time></trkpt>
<trkpt lat="49.989907" lon="4.625471"><time>2026-05-06T20:01:11Z</time></trkpt>
</trkseg>
</trk>
<trk>
<name>nvvog33</name>
<cmt>v</cmt>
<desc>Oignies Chemin n°33 </desc>
<link href="https://chemins.be/oignies/chemin/33"/><trkseg>
<trkpt lat="50.002152" lon="4.625426"><time>2026-05-06T18:41:11Z</time></trkpt>
<trkpt lat="50.001824" lon="4.627572"><time>2026-05-06T18:51:11Z</time></trkpt>
<trkpt lat="50.000568" lon="4.634177"><time>2026-05-06T19:01:11Z</time></trkpt>
<trkpt lat="50.000134" lon="4.635151"><time>2026-05-06T19:11:11Z</time></trkpt>
<trkpt lat="49.999684" lon="4.635399"><time>2026-05-06T19:21:11Z</time></trkpt>
<trkpt lat="49.999027" lon="4.635730"><time>2026-05-06T19:31:11Z</time></trkpt>
</trkseg>
</trk>
<trk>
<name>nvvog34</name>
<cmt>v</cmt>
<desc>Oignies Chemin n°34 </desc>
<link href="https://chemins.be/oignies/chemin/34"/><trkseg>
<trkpt lat="49.996850" lon="4.636150"><time>2026-05-06T18:41:11Z</time></trkpt>
<trkpt lat="49.995926" lon="4.639339"><time>2026-05-06T18:51:11Z</time></trkpt>
<trkpt lat="49.995996" lon="4.640260"><time>2026-05-06T19:01:11Z</time></trkpt>
<trkpt lat="49.995405" lon="4.642976"><time>2026-05-06T19:11:11Z</time></trkpt>
<trkpt lat="49.994881" lon="4.644019"><time>2026-05-06T19:21:11Z</time></trkpt>
</trkseg>
</trk>
<trk>
<name>nvvog35</name>
<cmt>v</cmt>
<desc>Oignies Chemin n°35 </desc>
<link href="https://chemins.be/oignies/chemin/35"/><trkseg>
<trkpt lat="50.001955" lon="4.625257"><time>2026-05-06T18:41:11Z</time></trkpt>
<trkpt lat="49.998963" lon="4.624125"><time>2026-05-06T18:51:11Z</time></trkpt>
<trkpt lat="49.996078" lon="4.623915"><time>2026-05-06T19:01:11Z</time></trkpt>
<trkpt lat="49.992826" lon="4.622921"><time>2026-05-06T19:11:11Z</time></trkpt>
<trkpt lat="49.991693" lon="4.622915"><time>2026-05-06T19:21:11Z</time></trkpt>
</trkseg>
</trk>
<trk>
<name>nvvog36</name>
<cmt>v</cmt>
<desc>Oignies Chemin n°36 </desc>
<link href="https://chemins.be/oignies/chemin/36"/><trkseg>
<trkpt lat="50.015647" lon="4.633647"><time>2026-05-06T18:41:11Z</time></trkpt>
<trkpt lat="50.014066" lon="4.632717"><time>2026-05-06T18:51:11Z</time></trkpt>
<trkpt lat="50.011992" lon="4.631827"><time>2026-05-06T19:01:11Z</time></trkpt>
</trkseg>
</trk>
<trk>
<name>nvvog37</name>
<cmt>v</cmt>
<desc>Oignies Chemin n°37 </desc>
<link href="https://chemins.be/oignies/chemin/37"/><trkseg>
<trkpt lat="50.013623" lon="4.630259"><time>2026-05-06T18:41:11Z</time></trkpt>
<trkpt lat="50.011902" lon="4.627766"><time>2026-05-06T18:51:11Z</time></trkpt>
<trkpt lat="50.011256" lon="4.627079"><time>2026-05-06T19:01:11Z</time></trkpt>
<trkpt lat="50.010196" lon="4.626864"><time>2026-05-06T19:11:11Z</time></trkpt>
<trkpt lat="50.008550" lon="4.627162"><time>2026-05-06T19:21:11Z</time></trkpt>
<trkpt lat="50.007552" lon="4.627059"><time>2026-05-06T19:31:11Z</time></trkpt>
<trkpt lat="50.004433" lon="4.626707"><time>2026-05-06T19:41:11Z</time></trkpt>
<trkpt lat="50.002179" lon="4.625454"><time>2026-05-06T19:51:11Z</time></trkpt>
</trkseg>
</trk>
<trk>
<name>nvvog38</name>
<cmt>v</cmt>
<desc>Oignies Chemin n°38 </desc>
<link href="https://chemins.be/oignies/chemin/38"/><trkseg>
<trkpt lat="50.011167" lon="4.626855"><time>2026-05-06T18:41:11Z</time></trkpt>
<trkpt lat="50.009892" lon="4.626207"><time>2026-05-06T18:51:11Z</time></trkpt>
<trkpt lat="50.007564" lon="4.625706"><time>2026-05-06T19:01:11Z</time></trkpt>
<trkpt lat="50.005441" lon="4.626057"><time>2026-05-06T19:11:11Z</time></trkpt>
<trkpt lat="50.004947" lon="4.625971"><time>2026-05-06T19:21:11Z</time></trkpt>
<trkpt lat="50.003861" lon="4.625128"><time>2026-05-06T19:31:11Z</time></trkpt>
<trkpt lat="50.002930" lon="4.623337"><time>2026-05-06T19:41:11Z</time></trkpt>
<trkpt lat="50.001330" lon="4.619061"><time>2026-05-06T19:51:11Z</time></trkpt>
<trkpt lat="49.999753" lon="4.612497"><time>2026-05-06T20:01:11Z</time></trkpt>
</trkseg>
</trk>
<trk>
<name>nvvog39</name>
<cmt>v</cmt>
<desc>Oignies Chemin n°39 </desc>
<link href="https://chemins.be/oignies/chemin/39"/><trkseg>
<trkpt lat="50.021284" lon="4.633371"><time>2026-05-06T18:41:11Z</time></trkpt>
<trkpt lat="50.020632" lon="4.631804"><time>2026-05-06T18:51:11Z</time></trkpt>
<trkpt lat="50.020345" lon="4.631314"><time>2026-05-06T19:01:11Z</time></trkpt>
<trkpt lat="50.019803" lon="4.628646"><time>2026-05-06T19:11:11Z</time></trkpt>
<trkpt lat="50.018335" lon="4.625861"><time>2026-05-06T19:21:11Z</time></trkpt>
<trkpt lat="50.017568" lon="4.621935"><time>2026-05-06T19:31:11Z</time></trkpt>
</trkseg></trk>
<trk>
<name>nvvog39</name>
<cmt>d</cmt>
<desc>Oignies Chemin n°39 </desc>
<link href="https://chemins.be/oignies/chemin/39"/><trkseg>
<trkpt lat="50.017568" lon="4.621935"><time>2026-05-06T19:31:11Z</time></trkpt>
<trkpt lat="50.015228" lon="4.619803"><time>2026-05-06T19:41:11Z</time></trkpt>
<trkpt lat="50.011957" lon="4.614875"><time>2026-05-06T19:51:11Z</time></trkpt>
<trkpt lat="50.006493" lon="4.609811"><time>2026-05-06T20:01:11Z</time></trkpt>
</trkseg>
</trk>
<trk>
<name>nvvog4</name>
<cmt>r</cmt>
<desc>Oignies Chemin n°4 Rue d'Olloy</desc>
<link href="https://chemins.be/oignies/chemin/4"/><trkseg>
<trkpt lat="50.024638" lon="4.637074"><time>2026-05-06T18:41:11Z</time></trkpt>
<trkpt lat="50.024498" lon="4.635705"><time>2026-05-06T18:51:11Z</time></trkpt>
<trkpt lat="50.025837" lon="4.632112"><time>2026-05-06T19:01:11Z</time></trkpt>
<trkpt lat="50.027542" lon="4.629261"><time>2026-05-06T19:11:11Z</time></trkpt>
<trkpt lat="50.027778" lon="4.628662"><time>2026-05-06T19:21:11Z</time></trkpt>
</trkseg></trk>
<trk>
<name>nvvog4</name>
<cmt>d</cmt>
<desc>Oignies Chemin n°4 Rue d'Olloy</desc>
<link href="https://chemins.be/oignies/chemin/4"/><trkseg>
<trkpt lat="50.027778" lon="4.628662"><time>2026-05-06T19:21:11Z</time></trkpt>
<trkpt lat="50.029591" lon="4.625783"><time>2026-05-06T19:31:11Z</time></trkpt>
<trkpt lat="50.029944" lon="4.624961"><time>2026-05-06T19:41:11Z</time></trkpt>
<trkpt lat="50.029857" lon="4.623314"><time>2026-05-06T19:51:11Z</time></trkpt>
<trkpt lat="50.029608" lon="4.622307"><time>2026-05-06T20:01:11Z</time></trkpt>
<trkpt lat="50.029863" lon="4.620592"><time>2026-05-06T20:11:11Z</time></trkpt>
</trkseg>
</trk>
<trk>
<name>nvvog40</name>
<cmt>v</cmt>
<desc>Oignies Chemin n°40 Chemin d'Oignies à Couvin</desc>
<link href="https://chemins.be/oignies/chemin/40"/><trkseg>
<trkpt lat="50.023945" lon="4.625864"><time>2026-05-06T18:41:11Z</time></trkpt>
<trkpt lat="50.023636" lon="4.623057"><time>2026-05-06T18:51:11Z</time></trkpt>
<trkpt lat="50.023661" lon="4.620057"><time>2026-05-06T19:01:11Z</time></trkpt>
<trkpt lat="50.023112" lon="4.615909"><time>2026-05-06T19:11:11Z</time></trkpt>
<trkpt lat="50.023475" lon="4.610190"><time>2026-05-06T19:21:11Z</time></trkpt>
<trkpt lat="50.023393" lon="4.606575"><time>2026-05-06T19:31:11Z</time></trkpt>
<trkpt lat="50.023279" lon="4.605346"><time>2026-05-06T19:41:11Z</time></trkpt>
</trkseg>
</trk>
<trk>
<name>nvvog41</name>
<cmt>v</cmt>
<desc>Oignies Chemin n°41 </desc>
<link href="https://chemins.be/oignies/chemin/41"/><trkseg>
<trkpt lat="50.023095" lon="4.615770"><time>2026-05-06T18:41:11Z</time></trkpt>
<trkpt lat="50.022938" lon="4.613592"><time>2026-05-06T18:51:11Z</time></trkpt>
<trkpt lat="50.022773" lon="4.610884"><time>2026-05-06T19:01:11Z</time></trkpt>
<trkpt lat="50.023017" lon="4.609908"><time>2026-05-06T19:11:11Z</time></trkpt>
<trkpt lat="50.022833" lon="4.608010"><time>2026-05-06T19:21:11Z</time></trkpt>
<trkpt lat="50.022610" lon="4.607157"><time>2026-05-06T19:31:11Z</time></trkpt>
<trkpt lat="50.022241" lon="4.607058"><time>2026-05-06T19:41:11Z</time></trkpt>
<trkpt lat="50.022107" lon="4.606722"><time>2026-05-06T19:51:11Z</time></trkpt>
<trkpt lat="50.021964" lon="4.606261"><time>2026-05-06T20:01:11Z</time></trkpt>
<trkpt lat="50.021974" lon="4.605884"><time>2026-05-06T20:11:11Z</time></trkpt>
</trkseg>
</trk>
<trk>
<name>nvvog42</name>
<cmt>v</cmt>
<desc>Oignies Chemin n°42 </desc>
<link href="https://chemins.be/oignies/chemin/42"/><trkseg>
<trkpt lat="50.032311" lon="4.605836"><time>2026-05-06T18:41:11Z</time></trkpt>
<trkpt lat="50.031548" lon="4.604151"><time>2026-05-06T18:51:11Z</time></trkpt>
<trkpt lat="50.031074" lon="4.603915"><time>2026-05-06T19:01:11Z</time></trkpt>
<trkpt lat="50.030330" lon="4.603994"><time>2026-05-06T19:11:11Z</time></trkpt>
<trkpt lat="50.029760" lon="4.603386"><time>2026-05-06T19:21:11Z</time></trkpt>
<trkpt lat="50.029300" lon="4.602124"><time>2026-05-06T19:31:11Z</time></trkpt>
<trkpt lat="50.028851" lon="4.601634"><time>2026-05-06T19:41:11Z</time></trkpt>
<trkpt lat="50.028393" lon="4.601506"><time>2026-05-06T19:51:11Z</time></trkpt>
<trkpt lat="50.028043" lon="4.601085"><time>2026-05-06T20:01:11Z</time></trkpt>
<trkpt lat="50.027811" lon="4.600414"><time>2026-05-06T20:11:11Z</time></trkpt>
</trkseg>
</trk>
<trk>
<name>nvvog43</name>
<cmt>d</cmt>
<desc>Oignies Chemin n°43 </desc>
<link href="https://chemins.be/oignies/chemin/43"/><trkseg>
<trkpt lat="50.024820" lon="4.624431"><time>2026-05-06T18:41:11Z</time></trkpt>
<trkpt lat="50.026496" lon="4.622947"><time>2026-05-06T18:51:11Z</time></trkpt>
<trkpt lat="50.027198" lon="4.622392"><time>2026-05-06T19:01:11Z</time></trkpt>
<trkpt lat="50.028827" lon="4.621759"><time>2026-05-06T19:11:11Z</time></trkpt>
</trkseg>
</trk>
<trk>
<name>nvvog44</name>
<cmt>v</cmt>
<desc>Oignies Chemin n°44 rue Chanteler / Rue du Village-Vacances</desc>
<link href="https://chemins.be/oignies/chemin/44"/><trkseg>
<trkpt lat="50.025864" lon="4.631987"><time>2026-05-06T18:41:11Z</time></trkpt>
<trkpt lat="50.025614" lon="4.631399"><time>2026-05-06T18:51:11Z</time></trkpt>
<trkpt lat="50.025355" lon="4.630393"><time>2026-05-06T19:01:11Z</time></trkpt>
<trkpt lat="50.025412" lon="4.628886"><time>2026-05-06T19:11:11Z</time></trkpt>
<trkpt lat="50.025694" lon="4.627492"><time>2026-05-06T19:21:11Z</time></trkpt>
</trkseg></trk>
<trk>
<name>nvvog44</name>
<cmt>r</cmt>
<desc>Oignies Chemin n°44 rue Chanteler / Rue du Village-Vacances</desc>
<link href="https://chemins.be/oignies/chemin/44"/><trkseg>
<trkpt lat="50.025694" lon="4.627492"><time>2026-05-06T19:21:11Z</time></trkpt>
<trkpt lat="50.025580" lon="4.626361"><time>2026-05-06T19:31:11Z</time></trkpt>
<trkpt lat="50.025250" lon="4.625173"><time>2026-05-06T19:41:11Z</time></trkpt>
<trkpt lat="50.024802" lon="4.624431"><time>2026-05-06T19:51:11Z</time></trkpt>
</trkseg>
</trk>
<trk>
<name>nvvog45</name>
<cmt>v</cmt>
<desc>Oignies Chemin n°45 </desc>
<link href="https://chemins.be/oignies/chemin/45"/><trkseg>
<trkpt lat="50.028242" lon="4.626152"><time>2026-05-06T18:41:11Z</time></trkpt>
<trkpt lat="50.029404" lon="4.624916"><time>2026-05-06T18:51:11Z</time></trkpt>
<trkpt lat="50.031211" lon="4.624926"><time>2026-05-06T19:01:11Z</time></trkpt>
<trkpt lat="50.033129" lon="4.623694"><time>2026-05-06T19:11:11Z</time></trkpt>
<trkpt lat="50.034869" lon="4.621596"><time>2026-05-06T19:21:11Z</time></trkpt>
</trkseg>
</trk>
<trk>
<name>nvvog46</name>
<cmt>s</cmt>
<desc>Oignies Chemin n°46 </desc>
<link href="https://chemins.be/oignies/chemin/46"/><trkseg>
<trkpt lat="50.026216" lon="4.631235"><time>2026-05-06T18:41:11Z</time></trkpt>
<trkpt lat="50.026611" lon="4.627511"><time>2026-05-06T18:51:11Z</time></trkpt>
<trkpt lat="50.026768" lon="4.625837"><time>2026-05-06T19:01:11Z</time></trkpt>
</trkseg></trk>
<trk>
<name>nvvog46</name>
<cmt>v</cmt>
<desc>Oignies Chemin n°46 </desc>
<link href="https://chemins.be/oignies/chemin/46"/><trkseg>
<trkpt lat="50.026768" lon="4.625837"><time>2026-05-06T19:01:11Z</time></trkpt>
<trkpt lat="50.026949" lon="4.625196"><time>2026-05-06T19:11:11Z</time></trkpt>
<trkpt lat="50.027006" lon="4.623926"><time>2026-05-06T19:21:11Z</time></trkpt>
<trkpt lat="50.027171" lon="4.622364"><time>2026-05-06T19:31:11Z</time></trkpt>
<trkpt lat="50.027319" lon="4.620523"><time>2026-05-06T19:41:11Z</time></trkpt>
<trkpt lat="50.027686" lon="4.617315"><time>2026-05-06T19:51:11Z</time></trkpt>
<trkpt lat="50.027663" lon="4.615221"><time>2026-05-06T20:01:11Z</time></trkpt>
</trkseg>
</trk>
<trk>
<name>nvvog47</name>
<cmt>s</cmt>
<desc>Oignies Chemin n°47 </desc>
<link href="https://chemins.be/oignies/chemin/47"/><trkseg>
<trkpt lat="50.027225" lon="4.634241"><time>2026-05-06T18:41:11Z</time></trkpt>
<trkpt lat="50.028099" lon="4.633660"><time>2026-05-06T18:51:11Z</time></trkpt>
<trkpt lat="50.029770" lon="4.630166"><time>2026-05-06T19:01:11Z</time></trkpt>
</trkseg>
</trk>
<trk>
<name>nvvog48</name>
<cmt>v</cmt>
<desc>Oignies Chemin n°48 </desc>
<link href="https://chemins.be/oignies/chemin/48"/><trkseg>
<trkpt lat="50.044166" lon="4.625484"><time>2026-05-06T18:41:11Z</time></trkpt>
<trkpt lat="50.044337" lon="4.629143"><time>2026-05-06T18:51:11Z</time></trkpt>
<trkpt lat="50.044373" lon="4.629380"><time>2026-05-06T19:01:11Z</time></trkpt>
<trkpt lat="50.044343" lon="4.630371"><time>2026-05-06T19:11:11Z</time></trkpt>
<trkpt lat="50.044548" lon="4.631559"><time>2026-05-06T19:21:11Z</time></trkpt>
<trkpt lat="50.044392" lon="4.632647"><time>2026-05-06T19:31:11Z</time></trkpt>
</trkseg>
</trk>
<trk>
<name>nvvog49</name>
<cmt>r</cmt>
<desc>Oignies Chemin n°49 Rue Flache</desc>
<link href="https://chemins.be/oignies/chemin/49"/><trkseg>
<trkpt lat="50.023604" lon="4.648399"><time>2026-05-06T18:41:11Z</time></trkpt>
<trkpt lat="50.023247" lon="4.651049"><time>2026-05-06T18:51:11Z</time></trkpt>
<trkpt lat="50.023057" lon="4.651843"><time>2026-05-06T19:01:11Z</time></trkpt>
<trkpt lat="50.022588" lon="4.652385"><time>2026-05-06T19:11:11Z</time></trkpt>
<trkpt lat="50.021962" lon="4.654488"><time>2026-05-06T19:21:11Z</time></trkpt>
<trkpt lat="50.021615" lon="4.656523"><time>2026-05-06T19:31:11Z</time></trkpt>
<trkpt lat="50.021352" lon="4.657526"><time>2026-05-06T19:41:11Z</time></trkpt>
<trkpt lat="50.021216" lon="4.658098"><time>2026-05-06T19:51:11Z</time></trkpt>
</trkseg>
</trk>
<trk>
<name>nvvog5</name>
<cmt>v</cmt>
<desc>Oignies Chemin n°5 rue de Vierves</desc>
<link href="https://chemins.be/oignies/chemin/5"/><trkseg>
<trkpt lat="50.028647" lon="4.639389"><time>2026-05-06T18:41:11Z</time></trkpt>
<trkpt lat="50.029147" lon="4.639719"><time>2026-05-06T18:51:11Z</time></trkpt>
<trkpt lat="50.029727" lon="4.640489"><time>2026-05-06T19:01:11Z</time></trkpt>
<trkpt lat="50.030127" lon="4.640669"><time>2026-05-06T19:11:11Z</time></trkpt>
<trkpt lat="50.030332" lon="4.640815"><time>2026-05-06T19:21:11Z</time></trkpt>
<trkpt lat="50.031797" lon="4.642769"><time>2026-05-06T19:31:11Z</time></trkpt>
<trkpt lat="50.033547" lon="4.643409"><time>2026-05-06T19:41:11Z</time></trkpt>
<trkpt lat="50.034507" lon="4.644899"><time>2026-05-06T19:51:11Z</time></trkpt>
<trkpt lat="50.036347" lon="4.646129"><time>2026-05-06T20:01:11Z</time></trkpt>
<trkpt lat="50.038437" lon="4.647889"><time>2026-05-06T20:11:11Z</time></trkpt>
</trkseg>
</trk>
<trk>
<name>nvvog50</name>
<cmt>v</cmt>
<desc>Oignies Chemin n°50 </desc>
<link href="https://chemins.be/oignies/chemin/50"/><trkseg>
<trkpt lat="50.023074" lon="4.651899"><time>2026-05-06T18:41:11Z</time></trkpt>
<trkpt lat="50.023298" lon="4.652459"><time>2026-05-06T18:51:11Z</time></trkpt>
<trkpt lat="50.023458" lon="4.653241"><time>2026-05-06T19:01:11Z</time></trkpt>
<trkpt lat="50.023265" lon="4.654873"><time>2026-05-06T19:11:11Z</time></trkpt>
</trkseg>
</trk>
<trk>
<name>nvvog51</name>
<cmt>v</cmt>
<desc>Oignies Chemin n°51 </desc>
<link href="https://chemins.be/oignies/chemin/51"/><trkseg>
<trkpt lat="50.031953" lon="4.646131"><time>2026-05-06T18:41:12Z</time></trkpt>
<trkpt lat="50.033236" lon="4.647311"><time>2026-05-06T18:51:12Z</time></trkpt>
<trkpt lat="50.034729" lon="4.647264"><time>2026-05-06T19:01:12Z</time></trkpt>
<trkpt lat="50.036373" lon="4.647860"><time>2026-05-06T19:11:12Z</time></trkpt>
<trkpt lat="50.037561" lon="4.647197"><time>2026-05-06T19:21:12Z</time></trkpt>
</trkseg>
</trk>
<trk>
<name>nvvog52</name>
<cmt>d</cmt>
<desc>Oignies Chemin n°52 </desc>
<link href="https://chemins.be/oignies/chemin/52"/><trkseg>
<trkpt lat="50.035354" lon="4.645342"><time>2026-05-06T18:41:12Z</time></trkpt>
<trkpt lat="50.043087" lon="4.641086"><time>2026-05-06T18:51:12Z</time></trkpt>
</trkseg>
</trk>
<trk>
<name>nvvog53</name>
<cmt>v</cmt>
<desc>Oignies Chemin n°53 </desc>
<link href="https://chemins.be/oignies/chemin/53"/><trkseg>
<trkpt lat="50.023720" lon="4.604930"><time>2026-05-06T18:41:12Z</time></trkpt>
<trkpt lat="50.024000" lon="4.604499"><time>2026-05-06T18:51:12Z</time></trkpt>
<trkpt lat="50.024963" lon="4.603875"><time>2026-05-06T19:01:12Z</time></trkpt>
<trkpt lat="50.025242" lon="4.603570"><time>2026-05-06T19:11:12Z</time></trkpt>
</trkseg>
</trk>
<trk>
<name>nvvog54</name>
<cmt>r</cmt>
<desc>Oignies Chemin n°54 Rue du Bassin</desc>
<link href="https://chemins.be/oignies/chemin/54"/><trkseg>
<trkpt lat="50.020623" lon="4.631665"><time>2026-05-06T18:41:12Z</time></trkpt>
<trkpt lat="50.020949" lon="4.630829"><time>2026-05-06T18:51:12Z</time></trkpt>
<trkpt lat="50.021275" lon="4.629840"><time>2026-05-06T19:01:12Z</time></trkpt>
<trkpt lat="50.022257" lon="4.628576"><time>2026-05-06T19:11:12Z</time></trkpt>
<trkpt lat="50.022600" lon="4.628201"><time>2026-05-06T19:21:12Z</time></trkpt>
<trkpt lat="50.022817" lon="4.627490"><time>2026-05-06T19:31:12Z</time></trkpt>
<trkpt lat="50.023214" lon="4.626851"><time>2026-05-06T19:41:12Z</time></trkpt>
</trkseg>
</trk>
<trk>
<name>nvvog56</name>
<cmt>v</cmt>
<desc>Oignies Chemin n°56 </desc>
<link href="https://chemins.be/oignies/chemin/56"/><trkseg>
<trkpt lat="50.030840" lon="4.641533"><time>2026-05-06T18:41:12Z</time></trkpt>
<trkpt lat="50.033090" lon="4.640555"><time>2026-05-06T18:51:12Z</time></trkpt>
<trkpt lat="50.035076" lon="4.637495"><time>2026-05-06T19:01:12Z</time></trkpt>
<trkpt lat="50.035384" lon="4.636548"><time>2026-05-06T19:11:12Z</time></trkpt>
<trkpt lat="50.035242" lon="4.635584"><time>2026-05-06T19:21:12Z</time></trkpt>
</trkseg>
</trk>
<trk>
<name>nvvog57</name>
<cmt>v</cmt>
<desc>Oignies Chemin n°57 </desc>
<link href="https://chemins.be/oignies/chemin/57"/><trkseg>
<trkpt lat="50.029428" lon="4.637924"><time>2026-05-06T18:41:12Z</time></trkpt>
<trkpt lat="50.033128" lon="4.635865"><time>2026-05-06T18:51:12Z</time></trkpt>
<trkpt lat="50.033894" lon="4.635493"><time>2026-05-06T19:01:12Z</time></trkpt>
<trkpt lat="50.035317" lon="4.634021"><time>2026-05-06T19:11:12Z</time></trkpt>
<trkpt lat="50.035363" lon="4.633756"><time>2026-05-06T19:21:12Z</time></trkpt>
<trkpt lat="50.035355" lon="4.633421"><time>2026-05-06T19:31:12Z</time></trkpt>
<trkpt lat="50.035933" lon="4.632224"><time>2026-05-06T19:41:12Z</time></trkpt>
<trkpt lat="50.036405" lon="4.630146"><time>2026-05-06T19:51:12Z</time></trkpt>
<trkpt lat="50.039470" lon="4.626618"><time>2026-05-06T20:01:12Z</time></trkpt>
<trkpt lat="50.040655" lon="4.627503"><time>2026-05-06T20:11:12Z</time></trkpt>
<trkpt lat="50.042346" lon="4.626968"><time>2026-05-06T20:21:12Z</time></trkpt>
<trkpt lat="50.043355" lon="4.626317"><time>2026-05-06T20:31:12Z</time></trkpt>
<trkpt lat="50.043887" lon="4.625315"><time>2026-05-06T20:41:12Z</time></trkpt>
</trkseg>
</trk>
<trk>
<name>nvvog58</name>
<cmt>v</cmt>
<desc>Oignies Chemin n°58 </desc>
<link href="https://chemins.be/oignies/chemin/58"/><trkseg>
<trkpt lat="50.033137" lon="4.635963"><time>2026-05-06T18:41:12Z</time></trkpt>
<trkpt lat="50.033506" lon="4.636091"><time>2026-05-06T18:51:12Z</time></trkpt>
<trkpt lat="50.035233" lon="4.635430"><time>2026-05-06T19:01:12Z</time></trkpt>
<trkpt lat="50.036368" lon="4.634432"><time>2026-05-06T19:11:12Z</time></trkpt>
<trkpt lat="50.037151" lon="4.634185"><time>2026-05-06T19:21:12Z</time></trkpt>
<trkpt lat="50.037837" lon="4.632960"><time>2026-05-06T19:31:12Z</time></trkpt>
<trkpt lat="50.038935" lon="4.632408"><time>2026-05-06T19:41:12Z</time></trkpt>
<trkpt lat="50.040909" lon="4.634164"><time>2026-05-06T19:51:12Z</time></trkpt>
<trkpt lat="50.041504" lon="4.633539"><time>2026-05-06T20:01:12Z</time></trkpt>
<trkpt lat="50.042368" lon="4.633292"><time>2026-05-06T20:11:12Z</time></trkpt>
<trkpt lat="50.042988" lon="4.633435"><time>2026-05-06T20:21:12Z</time></trkpt>
<trkpt lat="50.043509" lon="4.633369"><time>2026-05-06T20:31:12Z</time></trkpt>
<trkpt lat="50.043949" lon="4.634013"><time>2026-05-06T20:41:12Z</time></trkpt>
</trkseg>
</trk>
<trk>
<name>nvvog59</name>
<cmt>v</cmt>
<desc>Oignies Chemin n°59 </desc>
<link href="https://chemins.be/oignies/chemin/59"/><trkseg>
<trkpt lat="50.043051" lon="4.633338"><time>2026-05-06T18:41:12Z</time></trkpt>
<trkpt lat="50.043601" lon="4.632769"><time>2026-05-06T18:51:12Z</time></trkpt>
<trkpt lat="50.044186" lon="4.632353"><time>2026-05-06T19:01:12Z</time></trkpt>
<trkpt lat="50.044348" lon="4.632424"><time>2026-05-06T19:11:12Z</time></trkpt>
</trkseg>
</trk>
<trk>
<name>nvvog6</name>
<cmt>r</cmt>
<desc>Oignies Chemin n°6 Rue Neuve</desc>
<link href="https://chemins.be/oignies/chemin/6"/><trkseg>
<trkpt lat="50.023897" lon="4.639065"><time>2026-05-06T18:41:12Z</time></trkpt>
<trkpt lat="50.024147" lon="4.639792"><time>2026-05-06T18:51:12Z</time></trkpt>
<trkpt lat="50.023948" lon="4.640042"><time>2026-05-06T19:01:12Z</time></trkpt>
<trkpt lat="50.023965" lon="4.640628"><time>2026-05-06T19:11:12Z</time></trkpt>
<trkpt lat="50.024214" lon="4.641649"><time>2026-05-06T19:21:12Z</time></trkpt>
<trkpt lat="50.024257" lon="4.642542"><time>2026-05-06T19:31:12Z</time></trkpt>
<trkpt lat="50.024459" lon="4.644567"><time>2026-05-06T19:41:12Z</time></trkpt>
<trkpt lat="50.024673" lon="4.645238"><time>2026-05-06T19:51:12Z</time></trkpt>
<trkpt lat="50.025736" lon="4.648063"><time>2026-05-06T20:01:12Z</time></trkpt>
<trkpt lat="50.026495" lon="4.650189"><time>2026-05-06T20:11:12Z</time></trkpt>
<trkpt lat="50.026966" lon="4.652494"><time>2026-05-06T20:21:12Z</time></trkpt>
<trkpt lat="50.027737" lon="4.656811"><time>2026-05-06T20:31:12Z</time></trkpt>
<trkpt lat="50.027924" lon="4.657622"><time>2026-05-06T20:41:12Z</time></trkpt>
</trkseg>
</trk>
<trk>
<name>nvvog61</name>
<cmt>v</cmt>
<desc>Oignies Chemin n°61 Rue du Lavoir</desc>
<link href="https://chemins.be/oignies/chemin/61"/><trkseg>
<trkpt lat="50.025091" lon="4.643552"><time>2026-05-06T18:41:12Z</time></trkpt>
<trkpt lat="50.025149" lon="4.641807"><time>2026-05-06T18:51:12Z</time></trkpt>
</trkseg>
</trk>
<trk>
<name>nvvog62</name>
<cmt>v</cmt>
<desc>Oignies Chemin n°62 </desc>
<link href="https://chemins.be/oignies/chemin/62"/><trkseg>
<trkpt lat="50.031872" lon="4.642822"><time>2026-05-06T18:41:12Z</time></trkpt>
<trkpt lat="50.032139" lon="4.643835"><time>2026-05-06T18:51:12Z</time></trkpt>
<trkpt lat="50.032128" lon="4.646358"><time>2026-05-06T19:01:12Z</time></trkpt>
<trkpt lat="50.031367" lon="4.648727"><time>2026-05-06T19:11:12Z</time></trkpt>
<trkpt lat="50.030562" lon="4.649054"><time>2026-05-06T19:21:12Z</time></trkpt>
<trkpt lat="50.030136" lon="4.649002"><time>2026-05-06T19:31:12Z</time></trkpt>
<trkpt lat="50.029410" lon="4.649243"><time>2026-05-06T19:41:12Z</time></trkpt>
<trkpt lat="50.028132" lon="4.650157"><time>2026-05-06T19:51:12Z</time></trkpt>
<trkpt lat="50.027822" lon="4.651634"><time>2026-05-06T20:01:12Z</time></trkpt>
<trkpt lat="50.027783" lon="4.656644"><time>2026-05-06T20:11:12Z</time></trkpt>
</trkseg>
</trk>
<trk>
<name>nvvog63</name>
<cmt>v</cmt>
<desc>Oignies Chemin n°63 </desc>
<link href="https://chemins.be/oignies/chemin/63"/><trkseg>
<trkpt lat="50.001550" lon="4.612882"><time>2026-05-06T18:41:12Z</time></trkpt>
<trkpt lat="50.002744" lon="4.612386"><time>2026-05-06T18:51:12Z</time></trkpt>
<trkpt lat="50.003963" lon="4.612250"><time>2026-05-06T19:01:12Z</time></trkpt>
<trkpt lat="50.004268" lon="4.611780"><time>2026-05-06T19:11:12Z</time></trkpt>
</trkseg>
</trk>
<trk>
<name>nvvog64</name>
<cmt>v</cmt>
<desc>Oignies Chemin n°64 </desc>
<link href="https://chemins.be/oignies/chemin/64"/><trkseg>
<trkpt lat="50.003274" lon="4.622405"><time>2026-05-06T18:41:12Z</time></trkpt>
<trkpt lat="50.004969" lon="4.620126"><time>2026-05-06T18:51:12Z</time></trkpt>
<trkpt lat="50.005897" lon="4.619085"><time>2026-05-06T19:01:12Z</time></trkpt>
<trkpt lat="50.006070" lon="4.618304"><time>2026-05-06T19:11:12Z</time></trkpt>
</trkseg>
</trk>
<trk>
<name>nvvog66</name>
<cmt>v</cmt>
<desc>Oignies Chemin n°66 </desc>
<link href="https://chemins.be/oignies/chemin/66"/><trkseg>
<trkpt lat="49.986903" lon="4.613435"><time>2026-05-06T18:41:12Z</time></trkpt>
<trkpt lat="49.987842" lon="4.611850"><time>2026-05-06T18:51:12Z</time></trkpt>
<trkpt lat="49.988213" lon="4.610555"><time>2026-05-06T19:01:12Z</time></trkpt>
<trkpt lat="49.990077" lon="4.604694"><time>2026-05-06T19:11:12Z</time></trkpt>
</trkseg>
</trk>
<trk>
<name>nvvog67</name>
<cmt>v</cmt>
<desc>Oignies Chemin n°67 Rue Pairière</desc>
<link href="https://chemins.be/oignies/chemin/67"/><trkseg>
<trkpt lat="50.020032" lon="4.642071"><time>2026-05-06T18:41:12Z</time></trkpt>
<trkpt lat="50.019923" lon="4.642824"><time>2026-05-06T18:51:12Z</time></trkpt>
<trkpt lat="50.019553" lon="4.643422"><time>2026-05-06T19:01:12Z</time></trkpt>
</trkseg>
</trk>
<trk>
<name>nvvog68</name>
<cmt>v</cmt>
<desc>Oignies Chemin n°68 </desc>
<link href="https://chemins.be/oignies/chemin/68"/><trkseg>
<trkpt lat="50.021258" lon="4.633217"><time>2026-05-06T18:41:12Z</time></trkpt>
<trkpt lat="50.021322" lon="4.632827"><time>2026-05-06T18:51:12Z</time></trkpt>
<trkpt lat="50.021564" lon="4.632828"><time>2026-05-06T19:01:12Z</time></trkpt>
</trkseg>
</trk>
<trk>
<name>nvvog70</name>
<cmt>d</cmt>
<desc>Oignies Chemin n°70 </desc>
<link href="https://chemins.be/oignies/chemin/70"/><trkseg>
<trkpt lat="50.013492" lon="4.639899"><time>2026-05-06T18:41:12Z</time></trkpt>
<trkpt lat="50.013557" lon="4.639258"><time>2026-05-06T18:51:12Z</time></trkpt>
<trkpt lat="50.013333" lon="4.638615"><time>2026-05-06T19:01:12Z</time></trkpt>
</trkseg>
</trk>
<trk>
<name>nvvog71</name>
<cmt>v</cmt>
<desc>Oignies Chemin n°71 </desc>
<link href="https://chemins.be/oignies/chemin/71"/><trkseg>
<trkpt lat="50.027016" lon="4.639292"><time>2026-05-06T18:41:12Z</time></trkpt>
<trkpt lat="50.027277" lon="4.638917"><time>2026-05-06T18:51:12Z</time></trkpt>
</trkseg>
</trk>
<trk>
<name>nvvog73</name>
<cmt>v</cmt>
<desc>Oignies Chemin n°73 </desc>
<link href="https://chemins.be/oignies/chemin/73"/><trkseg>
<trkpt lat="50.024479" lon="4.639710"><time>2026-05-06T18:41:12Z</time></trkpt>
<trkpt lat="50.024461" lon="4.639864"><time>2026-05-06T18:51:12Z</time></trkpt>
<trkpt lat="50.024560" lon="4.640018"><time>2026-05-06T19:01:12Z</time></trkpt>
<trkpt lat="50.024685" lon="4.640214"><time>2026-05-06T19:11:12Z</time></trkpt>
<trkpt lat="50.024802" lon="4.640354"><time>2026-05-06T19:21:12Z</time></trkpt>
</trkseg>
</trk>
<trk>
<name>nvvog74</name>
<cmt>b</cmt>
<desc>Oignies Chemin n°74 </desc>
<link href="https://chemins.be/oignies/chemin/74"/><trkseg>
<trkpt lat="50.024560" lon="4.640032"><time>2026-05-06T18:41:12Z</time></trkpt>
<trkpt lat="50.024496" lon="4.640297"><time>2026-05-06T18:51:12Z</time></trkpt>
<trkpt lat="50.024621" lon="4.640576"><time>2026-05-06T19:01:12Z</time></trkpt>
<trkpt lat="50.024513" lon="4.640771"><time>2026-05-06T19:11:12Z</time></trkpt>
</trkseg>
</trk>
<trk>
<name>nvvog76</name>
<cmt>d</cmt>
<desc>Oignies Chemin n°76 </desc>
<link href="https://chemins.be/oignies/chemin/76"/><trkseg>
<trkpt lat="50.024602" lon="4.637115"><time>2026-05-06T18:41:12Z</time></trkpt>
<trkpt lat="50.024710" lon="4.637046"><time>2026-05-06T18:51:12Z</time></trkpt>
<trkpt lat="50.024872" lon="4.637061"><time>2026-05-06T19:01:12Z</time></trkpt>
</trkseg></trk>
<trk>
<name>nvvog76</name>
<cmt>v</cmt>
<desc>Oignies Chemin n°76 </desc>
<link href="https://chemins.be/oignies/chemin/76"/><trkseg>
<trkpt lat="50.024872" lon="4.637061"><time>2026-05-06T19:01:12Z</time></trkpt>
<trkpt lat="50.025565" lon="4.636953"><time>2026-05-06T19:11:12Z</time></trkpt>
</trkseg>
</trk>
<trk>
<name>nvvog78</name>
<cmt>b</cmt>
<desc>Oignies Chemin n°78 </desc>
<link href="https://chemins.be/oignies/chemin/78"/><trkseg>
<trkpt lat="50.023976" lon="4.635926"><time>2026-05-06T18:41:12Z</time></trkpt>
<trkpt lat="50.024111" lon="4.635885"><time>2026-05-06T18:51:12Z</time></trkpt>
<trkpt lat="50.024173" lon="4.636206"><time>2026-05-06T19:01:12Z</time></trkpt>
<trkpt lat="50.024110" lon="4.636275"><time>2026-05-06T19:11:12Z</time></trkpt>
</trkseg>
</trk>
<trk>
<name>nvvog79</name>
<cmt>v</cmt>
<desc>Oignies Chemin n°79 </desc>
<link href="https://chemins.be/oignies/chemin/79"/><trkseg>
<trkpt lat="50.024558" lon="4.636920"><time>2026-05-06T18:41:12Z</time></trkpt>
<trkpt lat="50.024181" lon="4.636652"><time>2026-05-06T18:51:12Z</time></trkpt>
<trkpt lat="50.024119" lon="4.636289"><time>2026-05-06T19:01:12Z</time></trkpt>
<trkpt lat="50.024011" lon="4.636317"><time>2026-05-06T19:11:12Z</time></trkpt>
</trkseg>
</trk>
<trk>
<name>nvvog8</name>
<cmt>v</cmt>
<desc>Oignies Chemin n°8 </desc>
<link href="https://chemins.be/oignies/chemin/8"/><trkseg>
<trkpt lat="50.012509" lon="4.648962"><time>2026-05-06T18:41:12Z</time></trkpt>
<trkpt lat="50.012968" lon="4.652244"><time>2026-05-06T18:51:12Z</time></trkpt>
<trkpt lat="50.012551" lon="4.653595"><time>2026-05-06T19:01:12Z</time></trkpt>
<trkpt lat="50.011823" lon="4.657148"><time>2026-05-06T19:11:12Z</time></trkpt>
<trkpt lat="50.011689" lon="4.660551"><time>2026-05-06T19:21:12Z</time></trkpt>
<trkpt lat="50.011462" lon="4.661094"><time>2026-05-06T19:31:12Z</time></trkpt>
<trkpt lat="50.011139" lon="4.664412"><time>2026-05-06T19:41:12Z</time></trkpt>
<trkpt lat="50.011205" lon="4.666673"><time>2026-05-06T19:51:12Z</time></trkpt>
<trkpt lat="50.011756" lon="4.669118"><time>2026-05-06T20:01:12Z</time></trkpt>
<trkpt lat="50.011839" lon="4.672034"><time>2026-05-06T20:11:12Z</time></trkpt>
<trkpt lat="50.010966" lon="4.675712"><time>2026-05-06T20:21:12Z</time></trkpt>
<trkpt lat="50.009809" lon="4.677769"><time>2026-05-06T20:31:12Z</time></trkpt>
<trkpt lat="50.009157" lon="4.679565"><time>2026-05-06T20:41:12Z</time></trkpt>
<trkpt lat="50.008733" lon="4.680315"><time>2026-05-06T20:51:12Z</time></trkpt>
<trkpt lat="50.007346" lon="4.681255"><time>2026-05-06T21:01:12Z</time></trkpt>
<trkpt lat="50.006508" lon="4.681808"><time>2026-05-06T21:11:12Z</time></trkpt>
<trkpt lat="50.004964" lon="4.680946"><time>2026-05-06T21:21:12Z</time></trkpt>
<trkpt lat="50.003582" lon="4.679849"><time>2026-05-06T21:31:12Z</time></trkpt>
<trkpt lat="50.002463" lon="4.678112"><time>2026-05-06T21:41:12Z</time></trkpt>
<trkpt lat="50.001724" lon="4.678972"><time>2026-05-06T21:51:12Z</time></trkpt>
<trkpt lat="50.001426" lon="4.679403"><time>2026-05-06T22:01:12Z</time></trkpt>
<trkpt lat="50.000907" lon="4.681576"><time>2026-05-06T22:11:12Z</time></trkpt>
<trkpt lat="50.001099" lon="4.683892"><time>2026-05-06T22:21:12Z</time></trkpt>
<trkpt lat="50.001024" lon="4.684952"><time>2026-05-06T22:31:12Z</time></trkpt>
<trkpt lat="50.000792" lon="4.687419"><time>2026-05-06T22:41:12Z</time></trkpt>
<trkpt lat="50.000567" lon="4.687655"><time>2026-05-06T22:51:12Z</time></trkpt>
<trkpt lat="49.999812" lon="4.687552"><time>2026-05-06T23:01:12Z</time></trkpt>
<trkpt lat="49.999490" lon="4.686797"><time>2026-05-06T23:11:12Z</time></trkpt>
<trkpt lat="49.998942" lon="4.686668"><time>2026-05-06T23:21:12Z</time></trkpt>
<trkpt lat="49.998656" lon="4.686178"><time>2026-05-06T23:31:12Z</time></trkpt>
<trkpt lat="49.997149" lon="4.685107"><time>2026-05-06T23:41:12Z</time></trkpt>
<trkpt lat="49.996835" lon="4.684659"><time>2026-05-06T23:51:12Z</time></trkpt>
<trkpt lat="49.996680" lon="4.685328"><time>2026-05-07T00:01:12Z</time></trkpt>
<trkpt lat="49.996320" lon="4.685758"><time>2026-05-07T00:11:12Z</time></trkpt>
<trkpt lat="49.995792" lon="4.687874"><time>2026-05-07T00:21:12Z</time></trkpt>
<trkpt lat="49.995669" lon="4.690230"><time>2026-05-07T00:31:12Z</time></trkpt>
<trkpt lat="49.995611" lon="4.691680"><time>2026-05-07T00:41:12Z</time></trkpt>
</trkseg>
</trk>
<trk>
<name>nvvog80</name>
<cmt>r</cmt>
<desc>Oignies Chemin n°80 Rue Neuve</desc>
<link href="https://chemins.be/oignies/chemin/80"/><trkseg>
<trkpt lat="50.023885" lon="4.640028"><time>2026-05-06T18:41:12Z</time></trkpt>
<trkpt lat="50.023705" lon="4.640139"><time>2026-05-06T18:51:12Z</time></trkpt>
<trkpt lat="50.023066" lon="4.640442"><time>2026-05-06T19:01:12Z</time></trkpt>
<trkpt lat="50.022095" lon="4.640576"><time>2026-05-06T19:11:12Z</time></trkpt>
</trkseg>
</trk>
<trk>
<name>nvvog81</name>
<cmt>r</cmt>
<desc>Oignies Chemin n°81 Rue de la Cure</desc>
<link href="https://chemins.be/oignies/chemin/81"/><trkseg>
<trkpt lat="50.023682" lon="4.638701"><time>2026-05-06T18:41:12Z</time></trkpt>
<trkpt lat="50.023331" lon="4.638811"><time>2026-05-06T18:51:12Z</time></trkpt>
<trkpt lat="50.023051" lon="4.639339"><time>2026-05-06T19:01:12Z</time></trkpt>
</trkseg>
</trk>
<trk>
<name>nvvog82</name>
<cmt>r</cmt>
<desc>Oignies Chemin n°82 Rue de la Cure</desc>
<link href="https://chemins.be/oignies/chemin/82"/><trkseg>
<trkpt lat="50.023383" lon="4.639299"><time>2026-05-06T18:41:12Z</time></trkpt>
<trkpt lat="50.023250" lon="4.638880"><time>2026-05-06T18:51:12Z</time></trkpt>
</trkseg></trk>
<trk>
<name>nvvog82</name>
<cmt>v</cmt>
<desc>Oignies Chemin n°82 Rue de la Cure</desc>
<link href="https://chemins.be/oignies/chemin/82"/><trkseg>
<trkpt lat="50.023250" lon="4.638880"><time>2026-05-06T18:51:12Z</time></trkpt>
<trkpt lat="50.023187" lon="4.638684"><time>2026-05-06T19:01:12Z</time></trkpt>
</trkseg>
</trk>
<trk>
<name>nvvog83</name>
<cmt>v</cmt>
<desc>Oignies Chemin n°83 </desc>
<link href="https://chemins.be/oignies/chemin/83"/><trkseg>
<trkpt lat="50.023178" lon="4.638642"><time>2026-05-06T18:41:12Z</time></trkpt>
<trkpt lat="50.023062" lon="4.638446"><time>2026-05-06T18:51:12Z</time></trkpt>
<trkpt lat="50.023054" lon="4.638070"><time>2026-05-06T19:01:12Z</time></trkpt>
<trkpt lat="50.022856" lon="4.638027"><time>2026-05-06T19:11:12Z</time></trkpt>
<trkpt lat="50.022695" lon="4.637551"><time>2026-05-06T19:21:12Z</time></trkpt>
<trkpt lat="50.022453" lon="4.637480"><time>2026-05-06T19:31:12Z</time></trkpt>
</trkseg>
</trk>
<trk>
<name>nvvog84</name>
<cmt>v</cmt>
<desc>Oignies Chemin n°84 </desc>
<link href="https://chemins.be/oignies/chemin/84"/><trkseg>
<trkpt lat="50.023628" lon="4.638394"><time>2026-05-06T18:41:12Z</time></trkpt>
<trkpt lat="50.023151" lon="4.638586"><time>2026-05-06T18:51:12Z</time></trkpt>
</trkseg>
</trk>
<trk>
<name>nvvog85</name>
<cmt>v</cmt>
<desc>Oignies Chemin n°85 </desc>
<link href="https://chemins.be/oignies/chemin/85"/><trkseg>
<trkpt lat="50.023617" lon="4.639301"><time>2026-05-06T18:41:12Z</time></trkpt>
<trkpt lat="50.023652" lon="4.639706"><time>2026-05-06T18:51:12Z</time></trkpt>
<trkpt lat="50.023732" lon="4.640111"><time>2026-05-06T19:01:12Z</time></trkpt>
</trkseg>
</trk>
<trk>
<name>nvvog86</name>
<cmt>v</cmt>
<desc>Oignies Chemin n°86 </desc>
<link href="https://chemins.be/oignies/chemin/86"/><trkseg>
<trkpt lat="50.023835" lon="4.642470"><time>2026-05-06T18:41:12Z</time></trkpt>
<trkpt lat="50.022388" lon="4.642196"><time>2026-05-06T18:51:12Z</time></trkpt>
</trkseg>
</trk>
<trk>
<name>nvvog88</name>
<cmt>v</cmt>
<desc>Oignies Chemin n°88 </desc>
<link href="https://chemins.be/oignies/chemin/88"/><trkseg>
<trkpt lat="50.024673" lon="4.637465"><time>2026-05-06T18:41:12Z</time></trkpt>
<trkpt lat="50.024781" lon="4.637423"><time>2026-05-06T18:51:12Z</time></trkpt>
<trkpt lat="50.024872" lon="4.637075"><time>2026-05-06T19:01:12Z</time></trkpt>
</trkseg>
</trk>
<trk>
<name>nvvog89</name>
<cmt>v</cmt>
<desc>Oignies Chemin n°89 Rue Petite</desc>
<link href="https://chemins.be/oignies/chemin/89"/><trkseg>
<trkpt lat="50.024196" lon="4.641621"><time>2026-05-06T18:41:12Z</time></trkpt>
<trkpt lat="50.024458" lon="4.641231"><time>2026-05-06T18:51:12Z</time></trkpt>
<trkpt lat="50.024513" lon="4.640813"><time>2026-05-06T19:01:12Z</time></trkpt>
</trkseg>
</trk>
<trk>
<name>nvvog9</name>
<cmt>r</cmt>
<desc>Oignies Chemin n°9 Rue du Fir</desc>
<link href="https://chemins.be/oignies/chemin/9"/><trkseg>
<trkpt lat="50.023233" lon="4.626600"><time>2026-05-06T18:41:12Z</time></trkpt>
<trkpt lat="50.023963" lon="4.625808"><time>2026-05-06T18:51:12Z</time></trkpt>
<trkpt lat="50.024730" lon="4.624375"><time>2026-05-06T19:01:12Z</time></trkpt>
</trkseg></trk>
<trk>
<name>nvvog9</name>
<cmt>v</cmt>
<desc>Oignies Chemin n°9 Rue du Fir</desc>
<link href="https://chemins.be/oignies/chemin/9"/><trkseg>
<trkpt lat="50.024730" lon="4.624375"><time>2026-05-06T19:01:12Z</time></trkpt>
<trkpt lat="50.025138" lon="4.623149"><time>2026-05-06T19:11:12Z</time></trkpt>
<trkpt lat="50.026099" lon="4.619204"><time>2026-05-06T19:21:12Z</time></trkpt>
<trkpt lat="50.026875" lon="4.617911"><time>2026-05-06T19:31:12Z</time></trkpt>
<trkpt lat="50.027600" lon="4.615500"><time>2026-05-06T19:41:12Z</time></trkpt>
<trkpt lat="50.027629" lon="4.614398"><time>2026-05-06T19:51:12Z</time></trkpt>
<trkpt lat="50.028241" lon="4.609823"><time>2026-05-06T20:01:12Z</time></trkpt>
<trkpt lat="50.028424" lon="4.608121"><time>2026-05-06T20:11:12Z</time></trkpt>
<trkpt lat="50.028382" lon="4.606935"><time>2026-05-06T20:21:12Z</time></trkpt>
<trkpt lat="50.028703" lon="4.604019"><time>2026-05-06T20:31:12Z</time></trkpt>
<trkpt lat="50.029246" lon="4.602347"><time>2026-05-06T20:41:12Z</time></trkpt>
<trkpt lat="50.029793" lon="4.601197"><time>2026-05-06T20:51:12Z</time></trkpt>
<trkpt lat="50.030654" lon="4.599465"><time>2026-05-06T21:01:12Z</time></trkpt>
<trkpt lat="50.032757" lon="4.597532"><time>2026-05-06T21:11:12Z</time></trkpt>
</trkseg>
</trk>
<trk>
<name>nvvog90</name>
<cmt>v</cmt>
<desc>Oignies Chemin n°90 </desc>
<link href="https://chemins.be/oignies/chemin/90"/><trkseg>
<trkpt lat="50.023632" lon="4.636635"><time>2026-05-06T18:41:12Z</time></trkpt>
<trkpt lat="50.023355" lon="4.635964"><time>2026-05-06T18:51:12Z</time></trkpt>
<trkpt lat="50.023253" lon="4.635770"><time>2026-05-06T19:01:12Z</time></trkpt>
</trkseg></trk>
<trk>
<name>nvvog90</name>
<cmt>s</cmt>
<desc>Oignies Chemin n°90 </desc>
<link href="https://chemins.be/oignies/chemin/90"/><trkseg>
<trkpt lat="50.023253" lon="4.635770"><time>2026-05-06T19:01:12Z</time></trkpt>
<trkpt lat="50.022890" lon="4.635166"><time>2026-05-06T19:11:12Z</time></trkpt>
</trkseg>
</trk>
<trk>
<name>nvvog91</name>
<cmt>v</cmt>
<desc>Oignies Sentier n°91 </desc>
<link href="https://chemins.be/oignies/sentier/91"/><trkseg>
<trkpt lat="50.019235" lon="4.644523"><time>2026-05-06T18:41:12Z</time></trkpt>
<trkpt lat="50.018669" lon="4.644450"><time>2026-05-06T18:51:12Z</time></trkpt>
<trkpt lat="50.018138" lon="4.644921"><time>2026-05-06T19:01:12Z</time></trkpt>
<trkpt lat="50.017518" lon="4.644778"><time>2026-05-06T19:11:12Z</time></trkpt>
<trkpt lat="50.017436" lon="4.645098"><time>2026-05-06T19:21:12Z</time></trkpt>
<trkpt lat="50.017094" lon="4.645292"><time>2026-05-06T19:31:12Z</time></trkpt>
</trkseg></trk>
<trk>
<name>nvvog91</name>
<cmt>d</cmt>
<desc>Oignies Sentier n°91 </desc>
<link href="https://chemins.be/oignies/sentier/91"/><trkseg>
<trkpt lat="50.017094" lon="4.645292"><time>2026-05-06T19:31:12Z</time></trkpt>
<trkpt lat="50.016166" lon="4.646137"><time>2026-05-06T19:41:12Z</time></trkpt>
<trkpt lat="50.015586" lon="4.647780"><time>2026-05-06T19:51:12Z</time></trkpt>
<trkpt lat="50.014717" lon="4.650301"><time>2026-05-06T20:01:12Z</time></trkpt>
<trkpt lat="50.013167" lon="4.651924"><time>2026-05-06T20:11:12Z</time></trkpt>
<trkpt lat="50.011933" lon="4.652796"><time>2026-05-06T20:21:12Z</time></trkpt>
<trkpt lat="50.010897" lon="4.653571"><time>2026-05-06T20:31:12Z</time></trkpt>
<trkpt lat="50.009987" lon="4.654500"><time>2026-05-06T20:41:12Z</time></trkpt>
<trkpt lat="50.009329" lon="4.655166"><time>2026-05-06T20:51:12Z</time></trkpt>
<trkpt lat="50.007831" lon="4.657235"><time>2026-05-06T21:01:12Z</time></trkpt>
<trkpt lat="50.006103" lon="4.658062"><time>2026-05-06T21:11:12Z</time></trkpt>
<trkpt lat="50.005124" lon="4.657526"><time>2026-05-06T21:21:12Z</time></trkpt>
<trkpt lat="50.005160" lon="4.657526"><time>2026-05-06T21:31:12Z</time></trkpt>
<trkpt lat="50.003541" lon="4.657670"><time>2026-05-06T21:41:12Z</time></trkpt>
<trkpt lat="50.001940" lon="4.657953"><time>2026-05-06T21:51:12Z</time></trkpt>
</trkseg>
</trk>
<trk>
<name>nvvog92</name>
<cmt>d</cmt>
<desc>Oignies Sentier n°92 </desc>
<link href="https://chemins.be/oignies/sentier/92"/><trkseg>
<trkpt lat="50.006508" lon="4.681821"><time>2026-05-06T18:41:12Z</time></trkpt>
<trkpt lat="50.003845" lon="4.685570"><time>2026-05-06T18:51:12Z</time></trkpt>
<trkpt lat="50.002298" lon="4.686744"><time>2026-05-06T19:01:12Z</time></trkpt>
</trkseg></trk>
<trk>
<name>nvvog92</name>
<cmt>v</cmt>
<desc>Oignies Sentier n°92 </desc>
<link href="https://chemins.be/oignies/sentier/92"/><trkseg>
<trkpt lat="50.002298" lon="4.686744"><time>2026-05-06T19:01:12Z</time></trkpt>
<trkpt lat="50.000936" lon="4.687364"><time>2026-05-06T19:11:12Z</time></trkpt>
</trkseg>
</trk>
<trk>
<name>nvvog93</name>
<cmt>v</cmt>
<desc>Oignies Sentier n°93 </desc>
<link href="https://chemins.be/oignies/sentier/93"/><trkseg>
<trkpt lat="50.008158" lon="4.682976"><time>2026-05-06T18:41:12Z</time></trkpt>
<trkpt lat="50.005375" lon="4.684953"><time>2026-05-06T18:51:12Z</time></trkpt>
<trkpt lat="50.002767" lon="4.686554"><time>2026-05-06T19:01:12Z</time></trkpt>
<trkpt lat="50.002305" lon="4.686760"><time>2026-05-06T19:11:12Z</time></trkpt>
</trkseg>
</trk>
<trk>
<name>nvvog94</name>
<cmt>d</cmt>
<desc>Oignies Sentier n°94 </desc>
<link href="https://chemins.be/oignies/sentier/94"/><trkseg>
<trkpt lat="49.998906" lon="4.686709"><time>2026-05-06T18:41:12Z</time></trkpt>
<trkpt lat="49.998004" lon="4.687749"><time>2026-05-06T18:51:12Z</time></trkpt>
<trkpt lat="49.995982" lon="4.690888"><time>2026-05-06T19:01:12Z</time></trkpt>
</trkseg>
</trk>
<trk>
<name>nvvog95</name>
<cmt>d</cmt>
<desc>Oignies Sentier n°95 </desc>
<link href="https://chemins.be/oignies/sentier/95"/><trkseg>
<trkpt lat="50.017076" lon="4.645291"><time>2026-05-06T18:41:12Z</time></trkpt>
<trkpt lat="50.015683" lon="4.644753"><time>2026-05-06T18:51:12Z</time></trkpt>
<trkpt lat="50.013305" lon="4.643051"><time>2026-05-06T19:01:12Z</time></trkpt>
</trkseg>
</trk>
<trk>
<name>nvvog96</name>
<cmt>v</cmt>
<desc>Oignies Sentier n°96 </desc>
<link href="https://chemins.be/oignies/sentier/96"/><trkseg>
<trkpt lat="50.020874" lon="4.639829"><time>2026-05-06T18:41:12Z</time></trkpt>
<trkpt lat="50.020416" lon="4.639687"><time>2026-05-06T18:51:12Z</time></trkpt>
<trkpt lat="50.019256" lon="4.639527"><time>2026-05-06T19:01:12Z</time></trkpt>
<trkpt lat="50.018887" lon="4.639637"><time>2026-05-06T19:11:12Z</time></trkpt>
<trkpt lat="50.017943" lon="4.639603"><time>2026-05-06T19:21:12Z</time></trkpt>
<trkpt lat="50.016073" lon="4.639802"><time>2026-05-06T19:31:12Z</time></trkpt>
</trkseg>
</trk>
<trk>
<name>nvvog97</name>
<cmt>v</cmt>
<desc>Oignies Sentier n°97 </desc>
<link href="https://chemins.be/oignies/sentier/97"/><trkseg>
<trkpt lat="50.001811" lon="4.625382"><time>2026-05-06T18:41:12Z</time></trkpt>
<trkpt lat="49.998039" lon="4.627398"><time>2026-05-06T18:51:12Z</time></trkpt>
<trkpt lat="49.991202" lon="4.629369"><time>2026-05-06T19:01:12Z</time></trkpt>
</trkseg>
</trk>
<trk>
<name>nvvog98</name>
<cmt>d</cmt>
<desc>Oignies Sentier n°98 </desc>
<link href="https://chemins.be/oignies/sentier/98"/><trkseg>
<trkpt lat="50.021139" lon="4.641659"><time>2026-05-06T18:41:12Z</time></trkpt>
<trkpt lat="50.020817" lon="4.641211"><time>2026-05-06T18:51:12Z</time></trkpt>
<trkpt lat="50.020693" lon="4.640456"><time>2026-05-06T19:01:12Z</time></trkpt>
<trkpt lat="50.021017" lon="4.639970"><time>2026-05-06T19:11:12Z</time></trkpt>
<trkpt lat="50.020865" lon="4.639815"><time>2026-05-06T19:21:12Z</time></trkpt>
<trkpt lat="50.020443" lon="4.639408"><time>2026-05-06T19:31:12Z</time></trkpt>
<trkpt lat="50.018571" lon="4.636398"><time>2026-05-06T19:41:12Z</time></trkpt>
<trkpt lat="50.018158" lon="4.636214"><time>2026-05-06T19:51:12Z</time></trkpt>
<trkpt lat="50.017513" lon="4.635373"><time>2026-05-06T20:01:12Z</time></trkpt>
</trkseg>
</trk>
<trk>
<name>nvvog99</name>
<cmt>v</cmt>
<desc>Oignies Sentier n°99 </desc>
<link href="https://chemins.be/oignies/sentier/99"/><trkseg>
<trkpt lat="50.022453" lon="4.637466"><time>2026-05-06T18:41:12Z</time></trkpt>
<trkpt lat="50.022237" lon="4.637325"><time>2026-05-06T18:51:12Z</time></trkpt>
<trkpt lat="50.021986" lon="4.637045"><time>2026-05-06T19:01:12Z</time></trkpt>
</trkseg></trk>
<trk>
<name>nvvog99</name>
<cmt>d</cmt>
<desc>Oignies Sentier n°99 </desc>
<link href="https://chemins.be/oignies/sentier/99"/><trkseg>
<trkpt lat="50.021986" lon="4.637045"><time>2026-05-06T19:01:12Z</time></trkpt>
<trkpt lat="50.021771" lon="4.636932"><time>2026-05-06T19:11:12Z</time></trkpt>
<trkpt lat="50.021088" lon="4.636551"><time>2026-05-06T19:21:12Z</time></trkpt>
<trkpt lat="50.019705" lon="4.636223"><time>2026-05-06T19:31:12Z</time></trkpt>
<trkpt lat="50.019012" lon="4.636163"><time>2026-05-06T19:41:12Z</time></trkpt>
<trkpt lat="50.018581" lon="4.635993"><time>2026-05-06T19:51:12Z</time></trkpt>
<trkpt lat="50.018142" lon="4.635530"><time>2026-05-06T20:01:12Z</time></trkpt>
<trkpt lat="50.017387" lon="4.635275"><time>2026-05-06T20:11:12Z</time></trkpt>
</trkseg></trk>
<trk>
<name>nvvog99</name>
<cmt>v</cmt>
<desc>Oignies Sentier n°99 </desc>
<link href="https://chemins.be/oignies/sentier/99"/><trkseg>
<trkpt lat="50.017387" lon="4.635275"><time>2026-05-06T20:11:12Z</time></trkpt>
<trkpt lat="50.015998" lon="4.633509"><time>2026-05-06T20:21:12Z</time></trkpt>
</trkseg>
</trk>
<trk>
<name>nvvogi1</name>
<cmt>v</cmt>
<desc>Oignies Chemin n°i1 Chemin de la Belle Haie</desc>
<link href="https://chemins.be/oignies/chemin/i1"/><trkseg>
<trkpt lat="49.999136" lon="4.653989"><time>2026-05-06T18:41:12Z</time></trkpt>
<trkpt lat="49.996267" lon="4.654209"><time>2026-05-06T18:51:12Z</time></trkpt>
<trkpt lat="49.996188" lon="4.653636"><time>2026-05-06T19:01:12Z</time></trkpt>
<trkpt lat="49.995401" lon="4.651749"><time>2026-05-06T19:11:12Z</time></trkpt>
<trkpt lat="49.994568" lon="4.650656"><time>2026-05-06T19:21:12Z</time></trkpt>
<trkpt lat="49.993348" lon="4.649491"><time>2026-05-06T19:31:12Z</time></trkpt>
<trkpt lat="49.992594" lon="4.648845"><time>2026-05-06T19:41:12Z</time></trkpt>
<trkpt lat="49.992054" lon="4.649247"><time>2026-05-06T19:51:12Z</time></trkpt>
</trkseg>
</trk>
<trk>
<name>nvvogi10</name>
<cmt>v</cmt>
<desc>Oignies Chemin n°i10 </desc>
<link href="https://chemins.be/oignies/chemin/i10"/><trkseg>
<trkpt lat="50.020174" lon="4.627588"><time>2026-05-06T18:41:12Z</time></trkpt>
<trkpt lat="50.019651" lon="4.628115"><time>2026-05-06T18:51:12Z</time></trkpt>
</trkseg>
</trk>
<trk>
<name>nvvogi11</name>
<cmt>v</cmt>
<desc>Oignies Chemin n°i11 </desc>
<link href="https://chemins.be/oignies/chemin/i11"/><trkseg>
<trkpt lat="50.019117" lon="4.613572"><time>2026-05-06T18:41:12Z</time></trkpt>
<trkpt lat="50.019396" lon="4.613253"><time>2026-05-06T18:51:12Z</time></trkpt>
<trkpt lat="50.022679" lon="4.612642"><time>2026-05-06T19:01:12Z</time></trkpt>
</trkseg>
</trk>
<trk>
<name>nvvogi12</name>
<cmt>v</cmt>
<desc>Oignies Chemin n°i12 </desc>
<link href="https://chemins.be/oignies/chemin/i12"/><trkseg>
<trkpt lat="50.025095" lon="4.605020"><time>2026-05-06T18:41:12Z</time></trkpt>
<trkpt lat="50.025553" lon="4.605623"><time>2026-05-06T18:51:12Z</time></trkpt>
<trkpt lat="50.027849" lon="4.612515"><time>2026-05-06T19:01:12Z</time></trkpt>
</trkseg>
</trk>
<trk>
<name>nvvogi13</name>
<cmt>v</cmt>
<desc>Oignies Chemin n°i13 </desc>
<link href="https://chemins.be/oignies/chemin/i13"/><trkseg>
<trkpt lat="50.027744" lon="4.602159"><time>2026-05-06T18:41:12Z</time></trkpt>
<trkpt lat="50.028364" lon="4.607018"><time>2026-05-06T18:51:12Z</time></trkpt>
</trkseg>
</trk>
<trk>
<name>nvvogi14</name>
<cmt>v</cmt>
<desc>Oignies Chemin n°i14 </desc>
<link href="https://chemins.be/oignies/chemin/i14"/><trkseg>
<trkpt lat="50.032428" lon="4.599241"><time>2026-05-06T18:41:12Z</time></trkpt>
<trkpt lat="50.032029" lon="4.599574"><time>2026-05-06T18:51:12Z</time></trkpt>
<trkpt lat="50.031976" lon="4.599828"><time>2026-05-06T19:01:12Z</time></trkpt>
<trkpt lat="50.032287" lon="4.600439"><time>2026-05-06T19:11:12Z</time></trkpt>
<trkpt lat="50.032614" lon="4.604466"><time>2026-05-06T19:21:12Z</time></trkpt>
<trkpt lat="50.032145" lon="4.605482"><time>2026-05-06T19:31:12Z</time></trkpt>
</trkseg>
</trk>
<trk>
<name>nvvogi15</name>
<cmt>v</cmt>
<desc>Oignies Chemin n°i15 </desc>
<link href="https://chemins.be/oignies/chemin/i15"/><trkseg>
<trkpt lat="50.031802" lon="4.653203"><time>2026-05-06T18:41:12Z</time></trkpt>
<trkpt lat="50.032800" lon="4.655246"><time>2026-05-06T18:51:12Z</time></trkpt>
</trkseg>
</trk>
<trk>
<name>nvvogi16</name>
<cmt>v</cmt>
<desc>Oignies Chemin n°i16 </desc>
<link href="https://chemins.be/oignies/chemin/i16"/><trkseg>
<trkpt lat="50.027895" lon="4.628467"><time>2026-05-06T18:41:12Z</time></trkpt>
<trkpt lat="50.029915" lon="4.629874"><time>2026-05-06T18:51:12Z</time></trkpt>
<trkpt lat="50.030681" lon="4.632711"><time>2026-05-06T19:01:12Z</time></trkpt>
<trkpt lat="50.031047" lon="4.634562"><time>2026-05-06T19:11:12Z</time></trkpt>
<trkpt lat="50.031589" lon="4.636652"><time>2026-05-06T19:21:12Z</time></trkpt>
</trkseg>
</trk>
<trk>
<name>nvvogi17</name>
<cmt>v</cmt>
<desc>Oignies Chemin n°i17 Chemin de la Fontaine aux Cerfs / Chemin des Douglas</desc>
<link href="https://chemins.be/oignies/chemin/i17"/><trkseg>
<trkpt lat="49.998257" lon="4.660260"><time>2026-05-06T18:41:12Z</time></trkpt>
<trkpt lat="49.998023" lon="4.660356"><time>2026-05-06T18:51:12Z</time></trkpt>
<trkpt lat="49.997120" lon="4.661829"><time>2026-05-06T19:01:12Z</time></trkpt>
<trkpt lat="49.994973" lon="4.661453"><time>2026-05-06T19:11:12Z</time></trkpt>
<trkpt lat="49.995667" lon="4.660649"><time>2026-05-06T19:21:12Z</time></trkpt>
<trkpt lat="49.995733" lon="4.659436"><time>2026-05-06T19:31:12Z</time></trkpt>
<trkpt lat="49.995611" lon="4.657845"><time>2026-05-06T19:41:12Z</time></trkpt>
<trkpt lat="49.995558" lon="4.657482"><time>2026-05-06T19:51:12Z</time></trkpt>
<trkpt lat="49.995486" lon="4.657384"><time>2026-05-06T20:01:12Z</time></trkpt>
<trkpt lat="49.995469" lon="4.657161"><time>2026-05-06T20:11:12Z</time></trkpt>
<trkpt lat="49.995461" lon="4.656547"><time>2026-05-06T20:21:12Z</time></trkpt>
<trkpt lat="49.995499" lon="4.655808"><time>2026-05-06T20:31:12Z</time></trkpt>
<trkpt lat="49.995437" lon="4.655445"><time>2026-05-06T20:41:12Z</time></trkpt>
<trkpt lat="49.995312" lon="4.655068"><time>2026-05-06T20:51:12Z</time></trkpt>
<trkpt lat="49.995277" lon="4.654789"><time>2026-05-06T21:01:12Z</time></trkpt>
<trkpt lat="49.995323" lon="4.654482"><time>2026-05-06T21:11:12Z</time></trkpt>
<trkpt lat="49.995567" lon="4.654023"><time>2026-05-06T21:21:12Z</time></trkpt>
<trkpt lat="49.995801" lon="4.653690"><time>2026-05-06T21:31:12Z</time></trkpt>
<trkpt lat="49.996017" lon="4.653510"><time>2026-05-06T21:41:12Z</time></trkpt>
</trkseg>
</trk>
<trk>
<name>nvvogi18</name>
<cmt>v</cmt>
<desc>Oignies Chemin n°i18 </desc>
<link href="https://chemins.be/oignies/chemin/i18"/><trkseg>
<trkpt lat="50.015927" lon="4.638575"><time>2026-05-06T18:41:12Z</time></trkpt>
<trkpt lat="50.015694" lon="4.637727"><time>2026-05-06T18:51:12Z</time></trkpt>
<trkpt lat="50.015640" lon="4.637494"><time>2026-05-06T19:01:12Z</time></trkpt>
<trkpt lat="50.015581" lon="4.636923"><time>2026-05-06T19:11:12Z</time></trkpt>
<trkpt lat="50.015451" lon="4.636225"><time>2026-05-06T19:21:12Z</time></trkpt>
<trkpt lat="50.015192" lon="4.635247"><time>2026-05-06T19:31:12Z</time></trkpt>
<trkpt lat="50.015099" lon="4.634403"><time>2026-05-06T19:41:12Z</time></trkpt>
<trkpt lat="50.015051" lon="4.633978"><time>2026-05-06T19:51:12Z</time></trkpt>
<trkpt lat="50.015008" lon="4.633297"><time>2026-05-06T20:01:12Z</time></trkpt>
<trkpt lat="50.014938" lon="4.632978"><time>2026-05-06T20:11:12Z</time></trkpt>
<trkpt lat="50.014952" lon="4.632494"><time>2026-05-06T20:21:12Z</time></trkpt>
</trkseg>
</trk>
<trk>
<name>nvvogi19</name>
<cmt>v</cmt>
<desc>Oignies Chemin n°i19 </desc>
<link href="https://chemins.be/oignies/chemin/i19"/><trkseg>
<trkpt lat="50.017552" lon="4.621873"><time>2026-05-06T18:41:12Z</time></trkpt>
<trkpt lat="50.015677" lon="4.619234"><time>2026-05-06T18:51:12Z</time></trkpt>
<trkpt lat="50.014473" lon="4.616538"><time>2026-05-06T19:01:12Z</time></trkpt>
<trkpt lat="50.013172" lon="4.614555"><time>2026-05-06T19:11:12Z</time></trkpt>
<trkpt lat="50.012198" lon="4.611293"><time>2026-05-06T19:21:12Z</time></trkpt>
<trkpt lat="50.012053" lon="4.611103"><time>2026-05-06T19:31:12Z</time></trkpt>
<trkpt lat="50.010798" lon="4.606349"><time>2026-05-06T19:41:12Z</time></trkpt>
<trkpt lat="50.009440" lon="4.601208"><time>2026-05-06T19:51:12Z</time></trkpt>
</trkseg>
</trk>
<trk>
<name>nvvogi2</name>
<cmt>v</cmt>
<desc>Oignies Sentier n°i2 </desc>
<link href="https://chemins.be/oignies/sentier/i2"/><trkseg>
<trkpt lat="50.008062" lon="4.684957"><time>2026-05-06T18:41:12Z</time></trkpt>
<trkpt lat="50.006551" lon="4.685077"><time>2026-05-06T18:51:12Z</time></trkpt>
<trkpt lat="50.004806" lon="4.687364"><time>2026-05-06T19:01:12Z</time></trkpt>
<trkpt lat="50.004065" lon="4.687081"><time>2026-05-06T19:11:12Z</time></trkpt>
<trkpt lat="50.003261" lon="4.686577"><time>2026-05-06T19:21:12Z</time></trkpt>
<trkpt lat="50.002812" lon="4.686533"><time>2026-05-06T19:31:12Z</time></trkpt>
</trkseg>
</trk>
<trk>
<name>nvvogi20</name>
<cmt>v</cmt>
<desc>Oignies Chemin n°i20 </desc>
<link href="https://chemins.be/oignies/chemin/i20"/><trkseg>
<trkpt lat="50.017538" lon="4.621718"><time>2026-05-06T18:41:12Z</time></trkpt>
<trkpt lat="50.015314" lon="4.609129"><time>2026-05-06T18:51:12Z</time></trkpt>
</trkseg>
</trk>
<trk>
<name>nvvogi21</name>
<cmt>v</cmt>
<desc>Oignies Chemin n°i21 </desc>
<link href="https://chemins.be/oignies/chemin/i21"/><trkseg>
<trkpt lat="50.026707" lon="4.643207"><time>2026-05-06T18:41:12Z</time></trkpt>
<trkpt lat="50.027169" lon="4.646004"><time>2026-05-06T18:51:12Z</time></trkpt>
</trkseg>
</trk>
<trk>
<name>nvvogi22</name>
<cmt>v</cmt>
<desc>Oignies Chemin n°i22 </desc>
<link href="https://chemins.be/oignies/chemin/i22"/><trkseg>
<trkpt lat="50.006774" lon="4.669065"><time>2026-05-06T18:41:12Z</time></trkpt>
<trkpt lat="50.006857" lon="4.669322"><time>2026-05-06T18:51:12Z</time></trkpt>
<trkpt lat="50.007441" lon="4.669254"><time>2026-05-06T19:01:12Z</time></trkpt>
<trkpt lat="50.007778" lon="4.670018"><time>2026-05-06T19:11:12Z</time></trkpt>
<trkpt lat="50.008578" lon="4.672957"><time>2026-05-06T19:21:12Z</time></trkpt>
<trkpt lat="50.008843" lon="4.675035"><time>2026-05-06T19:31:12Z</time></trkpt>
<trkpt lat="50.009273" lon="4.675601"><time>2026-05-06T19:41:12Z</time></trkpt>
<trkpt lat="50.009924" lon="4.675635"><time>2026-05-06T19:51:12Z</time></trkpt>
<trkpt lat="50.011127" lon="4.675240"><time>2026-05-06T20:01:12Z</time></trkpt>
</trkseg>
</trk>
<trk>
<name>nvvogi23</name>
<cmt>v</cmt>
<desc>Oignies Chemin n°i23 Trou du Diable</desc>
<link href="https://chemins.be/oignies/chemin/i23"/><trkseg>
<trkpt lat="50.004435" lon="4.675442"><time>2026-05-06T18:41:12Z</time></trkpt>
<trkpt lat="50.003503" lon="4.673133"><time>2026-05-06T18:51:12Z</time></trkpt>
<trkpt lat="50.003756" lon="4.671434"><time>2026-05-06T19:01:12Z</time></trkpt>
</trkseg>
</trk>
<trk>
<name>nvvogi3</name>
<cmt>v</cmt>
<desc>Oignies Sentier n°i3 </desc>
<link href="https://chemins.be/oignies/sentier/i3"/><trkseg>
<trkpt lat="50.022162" lon="4.638944"><time>2026-05-06T18:41:12Z</time></trkpt>
<trkpt lat="50.022010" lon="4.638552"><time>2026-05-06T18:51:12Z</time></trkpt>
<trkpt lat="50.021806" lon="4.637072"><time>2026-05-06T19:01:12Z</time></trkpt>
<trkpt lat="50.021950" lon="4.637003"><time>2026-05-06T19:11:12Z</time></trkpt>
</trkseg>
</trk>
<trk>
<name>nvvogi4</name>
<cmt>v</cmt>
<desc>Oignies Sentier n°i4 </desc>
<link href="https://chemins.be/oignies/sentier/i4"/><trkseg>
<trkpt lat="50.024828" lon="4.640424"><time>2026-05-06T18:41:12Z</time></trkpt>
<trkpt lat="50.024755" lon="4.641024"><time>2026-05-06T18:51:12Z</time></trkpt>
</trkseg>
</trk>
<trk>
<name>nvvogi5</name>
<cmt>r</cmt>
<desc>Oignies Chemin n°i5 Route de l'Etang / Rue Flache</desc>
<link href="https://chemins.be/oignies/chemin/i5"/><trkseg>
<trkpt lat="50.017982" lon="4.653376"><time>2026-05-06T18:41:12Z</time></trkpt>
<trkpt lat="50.018709" lon="4.654008"><time>2026-05-06T18:51:12Z</time></trkpt>
<trkpt lat="50.019146" lon="4.655518"><time>2026-05-06T19:01:12Z</time></trkpt>
<trkpt lat="50.019835" lon="4.656666"><time>2026-05-06T19:11:12Z</time></trkpt>
<trkpt lat="50.019975" lon="4.658244"><time>2026-05-06T19:21:12Z</time></trkpt>
<trkpt lat="50.020082" lon="4.658593"><time>2026-05-06T19:31:12Z</time></trkpt>
<trkpt lat="50.021053" lon="4.658446"><time>2026-05-06T19:41:12Z</time></trkpt>
<trkpt lat="50.021135" lon="4.658293"><time>2026-05-06T19:51:12Z</time></trkpt>
</trkseg>
</trk>
<trk>
<name>nvvogi6</name>
<cmt>r</cmt>
<desc>Oignies Chemin n°i6 Rue Pairière / Route de la Carrière</desc>
<link href="https://chemins.be/oignies/chemin/i6"/><trkseg>
<trkpt lat="50.019490" lon="4.643450"><time>2026-05-06T18:41:12Z</time></trkpt>
<trkpt lat="50.019227" lon="4.644383"><time>2026-05-06T18:51:12Z</time></trkpt>
<trkpt lat="50.018581" lon="4.647268"><time>2026-05-06T19:01:12Z</time></trkpt>
<trkpt lat="50.018076" lon="4.648018"><time>2026-05-06T19:11:12Z</time></trkpt>
<trkpt lat="50.018002" lon="4.652748"><time>2026-05-06T19:21:12Z</time></trkpt>
<trkpt lat="50.017982" lon="4.653362"><time>2026-05-06T19:31:12Z</time></trkpt>
</trkseg></trk>
<trk>
<name>nvvogi6</name>
<cmt>v</cmt>
<desc>Oignies Chemin n°i6 Rue Pairière / Route de la Carrière</desc>
<link href="https://chemins.be/oignies/chemin/i6"/><trkseg>
<trkpt lat="50.017982" lon="4.653362"><time>2026-05-06T19:31:12Z</time></trkpt>
<trkpt lat="50.017977" lon="4.655427"><time>2026-05-06T19:41:12Z</time></trkpt>
<trkpt lat="50.017470" lon="4.656973"><time>2026-05-06T19:51:12Z</time></trkpt>
<trkpt lat="50.016989" lon="4.658421"><time>2026-05-06T20:01:12Z</time></trkpt>
<trkpt lat="50.017398" lon="4.660279"><time>2026-05-06T20:11:12Z</time></trkpt>
<trkpt lat="50.017532" lon="4.662468"><time>2026-05-06T20:21:12Z</time></trkpt>
<trkpt lat="50.017625" lon="4.663029"><time>2026-05-06T20:31:12Z</time></trkpt>
</trkseg>
</trk>
<trk>
<name>nvvogi7</name>
<cmt>r</cmt>
<desc>Oignies Chemin n°i7 rue de Revin / Rue Plaine-de-Jeux</desc>
<link href="https://chemins.be/oignies/chemin/i7"/><trkseg>
<trkpt lat="50.017555" lon="4.632429"><time>2026-05-06T18:41:12Z</time></trkpt>
<trkpt lat="50.017104" lon="4.637185"><time>2026-05-06T18:51:12Z</time></trkpt>
<trkpt lat="50.016158" lon="4.637849"><time>2026-05-06T19:01:12Z</time></trkpt>
<trkpt lat="50.015860" lon="4.638699"><time>2026-05-06T19:11:12Z</time></trkpt>
<trkpt lat="50.016342" lon="4.640208"><time>2026-05-06T19:21:12Z</time></trkpt>
</trkseg>
</trk>
<trk>
<name>nvvogi8</name>
<cmt>r</cmt>
<desc>Oignies Chemin n°i8 Rue de l'Ardoisière / Rue Roger Delizée</desc>
<link href="https://chemins.be/oignies/chemin/i8"/><trkseg>
<trkpt lat="50.016341" lon="4.640292"><time>2026-05-06T18:41:12Z</time></trkpt>
<trkpt lat="50.017009" lon="4.643198"><time>2026-05-06T18:51:12Z</time></trkpt>
<trkpt lat="50.017473" lon="4.644722"><time>2026-05-06T19:01:12Z</time></trkpt>
</trkseg></trk>
<trk>
<name>nvvogi8</name>
<cmt>v</cmt>
<desc>Oignies Chemin n°i8 Rue de l'Ardoisière / Rue Roger Delizée</desc>
<link href="https://chemins.be/oignies/chemin/i8"/><trkseg>
<trkpt lat="50.017473" lon="4.644722"><time>2026-05-06T19:01:12Z</time></trkpt>
<trkpt lat="50.017358" lon="4.647540"><time>2026-05-06T19:11:12Z</time></trkpt>
<trkpt lat="50.016563" lon="4.648958"><time>2026-05-06T19:21:12Z</time></trkpt>
<trkpt lat="50.016345" lon="4.650227"><time>2026-05-06T19:31:12Z</time></trkpt>
<trkpt lat="50.016960" lon="4.652239"><time>2026-05-06T19:41:12Z</time></trkpt>
<trkpt lat="50.017700" lon="4.652807"><time>2026-05-06T19:51:12Z</time></trkpt>
<trkpt lat="50.017945" lon="4.653200"><time>2026-05-06T20:01:12Z</time></trkpt>
</trkseg>
</trk>
<trk>
<name>nvvogi9</name>
<cmt>v</cmt>
<desc>Oignies Chemin n°i9 </desc>
<link href="https://chemins.be/oignies/chemin/i9"/><trkseg>
<trkpt lat="50.020118" lon="4.658621"><time>2026-05-06T18:41:12Z</time></trkpt>
<trkpt lat="50.020182" lon="4.660523"><time>2026-05-06T18:51:12Z</time></trkpt>
<trkpt lat="50.019246" lon="4.661485"><time>2026-05-06T19:01:12Z</time></trkpt>
<trkpt lat="50.017713" lon="4.663061"><time>2026-05-06T19:11:12Z</time></trkpt>
<trkpt lat="50.016189" lon="4.663743"><time>2026-05-06T19:21:12Z</time></trkpt>
<trkpt lat="50.012947" lon="4.664503"><time>2026-05-06T19:31:12Z</time></trkpt>
</trkseg>
</trk>
<trk>
<name>nvvogLv523</name>
<cmt>v</cmt>
<desc>Oignies Chemin n°Lv523 Chemin du Vicinal</desc>
<link href="https://chemins.be/oignies/chemin/Lv523"/><trkseg>
<trkpt lat="50.032373" lon="4.599624"><time>2026-05-06T18:41:12Z</time></trkpt>
<trkpt lat="50.032066" lon="4.599792"><time>2026-05-06T18:51:12Z</time></trkpt>
<trkpt lat="50.031951" lon="4.599769"><time>2026-05-06T19:01:12Z</time></trkpt>
<trkpt lat="50.030726" lon="4.599493"><time>2026-05-06T19:11:12Z</time></trkpt>
<trkpt lat="50.029907" lon="4.599978"><time>2026-05-06T19:21:12Z</time></trkpt>
<trkpt lat="50.028510" lon="4.601339"><time>2026-05-06T19:31:12Z</time></trkpt>
<trkpt lat="50.027339" lon="4.602422"><time>2026-05-06T19:41:12Z</time></trkpt>
<trkpt lat="50.026545" lon="4.603841"><time>2026-05-06T19:51:12Z</time></trkpt>
<trkpt lat="50.025248" lon="4.604937"><time>2026-05-06T20:01:12Z</time></trkpt>
<trkpt lat="50.024493" lon="4.604962"><time>2026-05-06T20:11:12Z</time></trkpt>
<trkpt lat="50.023465" lon="4.606631"><time>2026-05-06T20:21:12Z</time></trkpt>
<trkpt lat="50.022915" lon="4.607061"><time>2026-05-06T20:31:12Z</time></trkpt>
<trkpt lat="50.022214" lon="4.607044"><time>2026-05-06T20:41:12Z</time></trkpt>
<trkpt lat="50.021100" lon="4.606508"><time>2026-05-06T20:51:12Z</time></trkpt>
<trkpt lat="50.020598" lon="4.606212"><time>2026-05-06T21:01:12Z</time></trkpt>
<trkpt lat="50.020247" lon="4.606266"><time>2026-05-06T21:11:12Z</time></trkpt>
<trkpt lat="50.019197" lon="4.609596"><time>2026-05-06T21:21:12Z</time></trkpt>
<trkpt lat="50.018565" lon="4.610765"><time>2026-05-06T21:31:12Z</time></trkpt>
<trkpt lat="50.019099" lon="4.613279"><time>2026-05-06T21:41:12Z</time></trkpt>
<trkpt lat="50.019220" lon="4.615526"><time>2026-05-06T21:51:12Z</time></trkpt>
<trkpt lat="50.019622" lon="4.617049"><time>2026-05-06T22:01:12Z</time></trkpt>
<trkpt lat="50.020588" lon="4.619371"><time>2026-05-06T22:11:12Z</time></trkpt>
<trkpt lat="50.021249" lon="4.621314"><time>2026-05-06T22:21:12Z</time></trkpt>
<trkpt lat="50.021439" lon="4.624622"><time>2026-05-06T22:31:12Z</time></trkpt>
<trkpt lat="50.020888" lon="4.625917"><time>2026-05-06T22:41:12Z</time></trkpt>
<trkpt lat="50.020174" lon="4.627560"><time>2026-05-06T22:51:12Z</time></trkpt>
<trkpt lat="50.020551" lon="4.631609"><time>2026-05-06T23:01:12Z</time></trkpt>
</trkseg>
</trk>
<trk>
<name>nvvov1</name>
<cmt>v</cmt>
<desc>Olloy-sur-Viroin Chemin n°1 Chemin de la Taille de Baimont</desc>
<link href="https://chemins.be/olloy/chemin/1"/><trkseg>
<trkpt lat="50.073983" lon="4.606813"><time>2026-05-06T18:41:12Z</time></trkpt>
<trkpt lat="50.073731" lon="4.606882"><time>2026-05-06T18:51:12Z</time></trkpt>
<trkpt lat="50.073263" lon="4.607089"><time>2026-05-06T19:01:12Z</time></trkpt>
</trkseg></trk>
<trk>
<name>nvvov1</name>
<cmt>r</cmt>
<desc>Olloy-sur-Viroin Chemin n°1 Chemin de la Taille de Baimont</desc>
<link href="https://chemins.be/olloy/chemin/1"/><trkseg>
<trkpt lat="50.073263" lon="4.607089"><time>2026-05-06T19:01:12Z</time></trkpt>
<trkpt lat="50.072634" lon="4.606863"><time>2026-05-06T19:11:12Z</time></trkpt>
<trkpt lat="50.071951" lon="4.606692"><time>2026-05-06T19:21:12Z</time></trkpt>
<trkpt lat="50.071287" lon="4.606381"><time>2026-05-06T19:31:12Z</time></trkpt>
</trkseg></trk>
<trk>
<name>nvvov1</name>
<cmt>v</cmt>
<desc>Olloy-sur-Viroin Chemin n°1 Chemin de la Taille de Baimont</desc>
<link href="https://chemins.be/olloy/chemin/1"/><trkseg>
<trkpt lat="50.071287" lon="4.606381"><time>2026-05-06T19:31:12Z</time></trkpt>
<trkpt lat="50.070873" lon="4.606407"><time>2026-05-06T19:41:12Z</time></trkpt>
<trkpt lat="50.070516" lon="4.605078"><time>2026-05-06T19:51:12Z</time></trkpt>
<trkpt lat="50.070213" lon="4.604029"><time>2026-05-06T20:01:12Z</time></trkpt>
<trkpt lat="50.069363" lon="4.601650"><time>2026-05-06T20:11:12Z</time></trkpt>
<trkpt lat="50.068819" lon="4.599412"><time>2026-05-06T20:21:12Z</time></trkpt>
<trkpt lat="50.067961" lon="4.596852"><time>2026-05-06T20:31:12Z</time></trkpt>
<trkpt lat="50.067559" lon="4.595705"><time>2026-05-06T20:41:12Z</time></trkpt>
<trkpt lat="50.067362" lon="4.595131"><time>2026-05-06T20:51:12Z</time></trkpt>
<trkpt lat="50.066466" lon="4.593590"><time>2026-05-06T21:01:12Z</time></trkpt>
<trkpt lat="50.065777" lon="4.592330"><time>2026-05-06T21:11:12Z</time></trkpt>
<trkpt lat="50.064907" lon="4.591139"><time>2026-05-06T21:21:12Z</time></trkpt>
<trkpt lat="50.063650" lon="4.589988"><time>2026-05-06T21:31:12Z</time></trkpt>
<trkpt lat="50.063023" lon="4.589007"><time>2026-05-06T21:41:12Z</time></trkpt>
<trkpt lat="50.061146" lon="4.587937"><time>2026-05-06T21:51:12Z</time></trkpt>
<trkpt lat="50.061128" lon="4.587951"><time>2026-05-06T22:01:12Z</time></trkpt>
<trkpt lat="50.060005" lon="4.587192"><time>2026-05-06T22:11:12Z</time></trkpt>
<trkpt lat="50.056126" lon="4.581676"><time>2026-05-06T22:21:12Z</time></trkpt>
<trkpt lat="50.055401" lon="4.580825"><time>2026-05-06T22:31:12Z</time></trkpt>
</trkseg>
</trk>
<trk>
<name>nvvov10</name>
<cmt>r</cmt>
<desc>Olloy-sur-Viroin Chemin n°10 Cheraivoie / ? / Rue de la Croisette</desc>
<link href="https://chemins.be/olloy/chemin/10"/><trkseg>
<trkpt lat="50.074013" lon="4.609817"><time>2026-05-06T18:41:12Z</time></trkpt>
<trkpt lat="50.073733" lon="4.610109"><time>2026-05-06T18:51:12Z</time></trkpt>
<trkpt lat="50.072960" lon="4.610119"><time>2026-05-06T19:01:12Z</time></trkpt>
<trkpt lat="50.072402" lon="4.610535"><time>2026-05-06T19:11:12Z</time></trkpt>
<trkpt lat="50.072105" lon="4.610646"><time>2026-05-06T19:21:12Z</time></trkpt>
<trkpt lat="50.071413" lon="4.610628"><time>2026-05-06T19:31:12Z</time></trkpt>
<trkpt lat="50.071125" lon="4.610529"><time>2026-05-06T19:41:12Z</time></trkpt>
</trkseg></trk>
<trk>
<name>nvvov10</name>
<cmt>v</cmt>
<desc>Olloy-sur-Viroin Chemin n°10 Cheraivoie / ? / Rue de la Croisette</desc>
<link href="https://chemins.be/olloy/chemin/10"/><trkseg>
<trkpt lat="50.071125" lon="4.610529"><time>2026-05-06T19:41:12Z</time></trkpt>
<trkpt lat="50.069976" lon="4.609992"><time>2026-05-06T19:51:12Z</time></trkpt>
</trkseg></trk>
<trk>
<name>nvvov10</name>
<cmt>r</cmt>
<desc>Olloy-sur-Viroin Chemin n°10 Cheraivoie / ? / Rue de la Croisette</desc>
<link href="https://chemins.be/olloy/chemin/10"/><trkseg>
<trkpt lat="50.069976" lon="4.609992"><time>2026-05-06T19:51:12Z</time></trkpt>
<trkpt lat="50.068206" lon="4.608992"><time>2026-05-06T20:01:12Z</time></trkpt>
<trkpt lat="50.067146" lon="4.608972"><time>2026-05-06T20:11:12Z</time></trkpt>
<trkpt lat="50.065519" lon="4.608531"><time>2026-05-06T20:21:12Z</time></trkpt>
</trkseg>
</trk>
<trk>
<name>nvvov11</name>
<cmt>r</cmt>
<desc>Olloy-sur-Viroin Chemin n°11 Rue de la Champagne / Rue Champagne Camping</desc>
<link href="https://chemins.be/olloy/chemin/11"/><trkseg>
<trkpt lat="50.072455" lon="4.606638"><time>2026-05-06T18:41:12Z</time></trkpt>
<trkpt lat="50.072218" lon="4.603620"><time>2026-05-06T18:51:12Z</time></trkpt>
<trkpt lat="50.070421" lon="4.598959"><time>2026-05-06T19:01:12Z</time></trkpt>
<trkpt lat="50.069500" lon="4.596426"><time>2026-05-06T19:11:12Z</time></trkpt>
<trkpt lat="50.068250" lon="4.596225"><time>2026-05-06T19:21:12Z</time></trkpt>
</trkseg></trk>
<trk>
<name>nvvov11</name>
<cmt>s</cmt>
<desc>Olloy-sur-Viroin Chemin n°11 Rue de la Champagne / Rue Champagne Camping</desc>
<link href="https://chemins.be/olloy/chemin/11"/><trkseg>
<trkpt lat="50.068250" lon="4.596225"><time>2026-05-06T19:21:12Z</time></trkpt>
<trkpt lat="50.067577" lon="4.595635"><time>2026-05-06T19:31:12Z</time></trkpt>
</trkseg>
</trk>
<trk>
<name>nvvov12</name>
<cmt>v</cmt>
<desc>Olloy-sur-Viroin Chemin n°12 Rue Autre Côté de l'Eau</desc>
<link href="https://chemins.be/olloy/chemin/12"/><trkseg>
<trkpt lat="50.075837" lon="4.598152"><time>2026-05-06T18:41:12Z</time></trkpt>
<trkpt lat="50.075919" lon="4.597426"><time>2026-05-06T18:51:12Z</time></trkpt>
<trkpt lat="50.076088" lon="4.597212"><time>2026-05-06T19:01:12Z</time></trkpt>
<trkpt lat="50.076385" lon="4.597242"><time>2026-05-06T19:11:12Z</time></trkpt>
<trkpt lat="50.076924" lon="4.597677"><time>2026-05-06T19:21:12Z</time></trkpt>
<trkpt lat="50.077534" lon="4.598197"><time>2026-05-06T19:31:12Z</time></trkpt>
<trkpt lat="50.077866" lon="4.598380"><time>2026-05-06T19:41:12Z</time></trkpt>
<trkpt lat="50.078720" lon="4.598552"><time>2026-05-06T19:51:12Z</time></trkpt>
<trkpt lat="50.079286" lon="4.598806"><time>2026-05-06T20:01:12Z</time></trkpt>
<trkpt lat="50.079995" lon="4.599313"><time>2026-05-06T20:11:12Z</time></trkpt>
</trkseg>
</trk>
<trk>
<name>nvvov13</name>
<cmt>r</cmt>
<desc>Olloy-sur-Viroin Chemin n°13 Rue de la Bossette</desc>
<link href="https://chemins.be/olloy/chemin/13"/><trkseg>
<trkpt lat="50.070403" lon="4.611922"><time>2026-05-06T18:41:12Z</time></trkpt>
<trkpt lat="50.070005" lon="4.612884"><time>2026-05-06T18:51:12Z</time></trkpt>
</trkseg>
</trk>
<trk>
<name>nvvov14</name>
<cmt>r</cmt>
<desc>Olloy-sur-Viroin Chemin n°14 Rue du Nestry / ?</desc>
<link href="https://chemins.be/olloy/chemin/14"/><trkseg>
<trkpt lat="50.069372" lon="4.610757"><time>2026-05-06T18:41:12Z</time></trkpt>
<trkpt lat="50.067509" lon="4.611265"><time>2026-05-06T18:51:12Z</time></trkpt>
<trkpt lat="50.066508" lon="4.613075"><time>2026-05-06T19:01:12Z</time></trkpt>
</trkseg></trk>
<trk>
<name>nvvov14</name>
<cmt>d</cmt>
<desc>Olloy-sur-Viroin Chemin n°14 Rue du Nestry / ?</desc>
<link href="https://chemins.be/olloy/chemin/14"/><trkseg>
<trkpt lat="50.066508" lon="4.613075"><time>2026-05-06T19:01:12Z</time></trkpt>
<trkpt lat="50.064846" lon="4.616433"><time>2026-05-06T19:11:12Z</time></trkpt>
<trkpt lat="50.064756" lon="4.616349"><time>2026-05-06T19:21:12Z</time></trkpt>
</trkseg>
</trk>
<trk>
<name>nvvov15</name>
<cmt>d</cmt>
<desc>Olloy-sur-Viroin Chemin n°15 Rue du Vignoble</desc>
<link href="https://chemins.be/olloy/chemin/15"/><trkseg>
<trkpt lat="50.076267" lon="4.606685"><time>2026-05-06T18:41:12Z</time></trkpt>
<trkpt lat="50.077078" lon="4.610126"><time>2026-05-06T18:51:12Z</time></trkpt>
<trkpt lat="50.077140" lon="4.610573"><time>2026-05-06T19:01:12Z</time></trkpt>
<trkpt lat="50.076966" lon="4.612053"><time>2026-05-06T19:11:12Z</time></trkpt>
<trkpt lat="50.076874" lon="4.613115"><time>2026-05-06T19:21:12Z</time></trkpt>
<trkpt lat="50.076673" lon="4.614720"><time>2026-05-06T19:31:12Z</time></trkpt>
</trkseg>
</trk>
<trk>
<name>nvvov16</name>
<cmt>v</cmt>
<desc>Olloy-sur-Viroin Chemin n°16 </desc>
<link href="https://chemins.be/olloy/chemin/16"/><trkseg>
<trkpt lat="50.070761" lon="4.599450"><time>2026-05-06T18:41:12Z</time></trkpt>
<trkpt lat="50.070244" lon="4.597534"><time>2026-05-06T18:51:12Z</time></trkpt>
<trkpt lat="50.070219" lon="4.596653"><time>2026-05-06T19:01:12Z</time></trkpt>
<trkpt lat="50.069633" lon="4.592781"><time>2026-05-06T19:11:12Z</time></trkpt>
<trkpt lat="50.069279" lon="4.589707"><time>2026-05-06T19:21:12Z</time></trkpt>
<trkpt lat="50.068859" lon="4.588503"><time>2026-05-06T19:31:12Z</time></trkpt>
</trkseg>
</trk>
<trk>
<name>nvvov17</name>
<cmt>r</cmt>
<desc>Olloy-sur-Viroin Chemin n°17 Chemin de Nouée / Rue de la Croisette / Chemin du Plane</desc>
<link href="https://chemins.be/olloy/chemin/17"/><trkseg>
<trkpt lat="50.066798" lon="4.608756"><time>2026-05-06T18:41:12Z</time></trkpt>
<trkpt lat="50.066318" lon="4.608046"><time>2026-05-06T18:51:12Z</time></trkpt>
</trkseg></trk>
<trk>
<name>nvvov17</name>
<cmt>v</cmt>
<desc>Olloy-sur-Viroin Chemin n°17 Chemin de Nouée / Rue de la Croisette / Chemin du Plane</desc>
<link href="https://chemins.be/olloy/chemin/17"/><trkseg>
<trkpt lat="50.066318" lon="4.608046"><time>2026-05-06T18:51:12Z</time></trkpt>
<trkpt lat="50.066308" lon="4.608046"><time>2026-05-06T19:01:12Z</time></trkpt>
<trkpt lat="50.066098" lon="4.607986"><time>2026-05-06T19:11:12Z</time></trkpt>
<trkpt lat="50.065268" lon="4.607366"><time>2026-05-06T19:21:12Z</time></trkpt>
<trkpt lat="50.064978" lon="4.606146"><time>2026-05-06T19:31:12Z</time></trkpt>
<trkpt lat="50.064777" lon="4.605541"><time>2026-05-06T19:41:12Z</time></trkpt>
<trkpt lat="50.063648" lon="4.604506"><time>2026-05-06T19:51:12Z</time></trkpt>
<trkpt lat="50.062718" lon="4.604296"><time>2026-05-06T20:01:12Z</time></trkpt>
<trkpt lat="50.061128" lon="4.604106"><time>2026-05-06T20:11:12Z</time></trkpt>
<trkpt lat="50.060024" lon="4.603519"><time>2026-05-06T20:21:12Z</time></trkpt>
<trkpt lat="50.059734" lon="4.601735"><time>2026-05-06T20:31:12Z</time></trkpt>
<trkpt lat="50.058308" lon="4.599386"><time>2026-05-06T20:41:12Z</time></trkpt>
<trkpt lat="50.057828" lon="4.597956"><time>2026-05-06T20:51:12Z</time></trkpt>
<trkpt lat="50.057458" lon="4.596346"><time>2026-05-06T21:01:12Z</time></trkpt>
<trkpt lat="50.057028" lon="4.594496"><time>2026-05-06T21:11:12Z</time></trkpt>
<trkpt lat="50.056975" lon="4.593742"><time>2026-05-06T21:21:12Z</time></trkpt>
<trkpt lat="50.056944" lon="4.593575"><time>2026-05-06T21:31:12Z</time></trkpt>
<trkpt lat="50.056882" lon="4.593296"><time>2026-05-06T21:41:12Z</time></trkpt>
<trkpt lat="50.056455" lon="4.592690"><time>2026-05-06T21:51:12Z</time></trkpt>
<trkpt lat="50.056128" lon="4.592156"><time>2026-05-06T22:01:12Z</time></trkpt>
</trkseg>
</trk>
<trk>
<name>nvvov18</name>
<cmt>v</cmt>
<desc>Olloy-sur-Viroin Chemin n°18 </desc>
<link href="https://chemins.be/olloy/chemin/18"/><trkseg>
<trkpt lat="50.060222" lon="4.617917"><time>2026-05-06T18:41:12Z</time></trkpt>
<trkpt lat="50.059839" lon="4.618759"><time>2026-05-06T18:51:12Z</time></trkpt>
<trkpt lat="50.060142" lon="4.619257"><time>2026-05-06T19:01:12Z</time></trkpt>
<trkpt lat="50.059474" lon="4.619762"><time>2026-05-06T19:11:12Z</time></trkpt>
<trkpt lat="50.059003" lon="4.620355"><time>2026-05-06T19:21:12Z</time></trkpt>
<trkpt lat="50.058390" lon="4.620743"><time>2026-05-06T19:31:12Z</time></trkpt>
<trkpt lat="50.058219" lon="4.621007"><time>2026-05-06T19:41:12Z</time></trkpt>
<trkpt lat="50.056868" lon="4.622201"><time>2026-05-06T19:51:12Z</time></trkpt>
<trkpt lat="50.055542" lon="4.624177"><time>2026-05-06T20:01:12Z</time></trkpt>
<trkpt lat="50.054506" lon="4.625093"><time>2026-05-06T20:11:12Z</time></trkpt>
<trkpt lat="50.053210" lon="4.625533"><time>2026-05-06T20:21:12Z</time></trkpt>
<trkpt lat="50.052103" lon="4.626225"><time>2026-05-06T20:31:12Z</time></trkpt>
<trkpt lat="50.049858" lon="4.625166"><time>2026-05-06T20:41:12Z</time></trkpt>
<trkpt lat="50.048219" lon="4.626372"><time>2026-05-06T20:51:12Z</time></trkpt>
<trkpt lat="50.047616" lon="4.626480"><time>2026-05-06T21:01:12Z</time></trkpt>
<trkpt lat="50.047490" lon="4.626591"><time>2026-05-06T21:11:12Z</time></trkpt>
<trkpt lat="50.047058" lon="4.626561"><time>2026-05-06T21:21:12Z</time></trkpt>
<trkpt lat="50.045361" lon="4.625784"><time>2026-05-06T21:31:12Z</time></trkpt>
<trkpt lat="50.044381" lon="4.625653"><time>2026-05-06T21:41:12Z</time></trkpt>
</trkseg>
</trk>
<trk>
<name>nvvov19</name>
<cmt>r</cmt>
<desc>Olloy-sur-Viroin Chemin n°19 Rue du Nestry / ? / Rue de la Bossette Camping</desc>
<link href="https://chemins.be/olloy/chemin/19"/><trkseg>
<trkpt lat="50.065296" lon="4.612273"><time>2026-05-06T18:41:12Z</time></trkpt>
<trkpt lat="50.066499" lon="4.613020"><time>2026-05-06T18:51:12Z</time></trkpt>
</trkseg></trk>
<trk>
<name>nvvov19</name>
<cmt>v</cmt>
<desc>Olloy-sur-Viroin Chemin n°19 Rue du Nestry / ? / Rue de la Bossette Camping</desc>
<link href="https://chemins.be/olloy/chemin/19"/><trkseg>
<trkpt lat="50.066499" lon="4.613020"><time>2026-05-06T18:51:12Z</time></trkpt>
<trkpt lat="50.066840" lon="4.613343"><time>2026-05-06T19:01:12Z</time></trkpt>
</trkseg></trk>
<trk>
<name>nvvov19</name>
<cmt>s</cmt>
<desc>Olloy-sur-Viroin Chemin n°19 Rue du Nestry / ? / Rue de la Bossette Camping</desc>
<link href="https://chemins.be/olloy/chemin/19"/><trkseg>
<trkpt lat="50.066840" lon="4.613343"><time>2026-05-06T19:01:12Z</time></trkpt>
<trkpt lat="50.067208" lon="4.613568"><time>2026-05-06T19:11:12Z</time></trkpt>
<trkpt lat="50.068440" lon="4.613309"><time>2026-05-06T19:21:12Z</time></trkpt>
</trkseg></trk>
<trk>
<name>nvvov19</name>
<cmt>v</cmt>
<desc>Olloy-sur-Viroin Chemin n°19 Rue du Nestry / ? / Rue de la Bossette Camping</desc>
<link href="https://chemins.be/olloy/chemin/19"/><trkseg>
<trkpt lat="50.068440" lon="4.613309"><time>2026-05-06T19:21:12Z</time></trkpt>
<trkpt lat="50.069267" lon="4.613551"><time>2026-05-06T19:31:12Z</time></trkpt>
<trkpt lat="50.069699" lon="4.613204"><time>2026-05-06T19:41:12Z</time></trkpt>
<trkpt lat="50.070020" lon="4.614295"><time>2026-05-06T19:51:12Z</time></trkpt>
<trkpt lat="50.070515" lon="4.614423"><time>2026-05-06T20:01:12Z</time></trkpt>
</trkseg>
</trk>
<trk>
<name>nvvov2</name>
<cmt>r</cmt>
<desc>Olloy-sur-Viroin Chemin n°2 Rue Jean Chot / Route du Viroin</desc>
<link href="https://chemins.be/olloy/chemin/2"/><trkseg>
<trkpt lat="50.074082" lon="4.606674"><time>2026-05-06T18:41:12Z</time></trkpt>
<trkpt lat="50.073404" lon="4.604198"><time>2026-05-06T18:51:12Z</time></trkpt>
<trkpt lat="50.073370" lon="4.603360"><time>2026-05-06T19:01:12Z</time></trkpt>
<trkpt lat="50.073797" lon="4.601071"><time>2026-05-06T19:11:12Z</time></trkpt>
<trkpt lat="50.073971" lon="4.599619"><time>2026-05-06T19:21:12Z</time></trkpt>
<trkpt lat="50.074036" lon="4.598250"><time>2026-05-06T19:31:12Z</time></trkpt>
<trkpt lat="50.074172" lon="4.597650"><time>2026-05-06T19:41:12Z</time></trkpt>
<trkpt lat="50.073826" lon="4.595497"><time>2026-05-06T19:51:12Z</time></trkpt>
<trkpt lat="50.073513" lon="4.594518"><time>2026-05-06T20:01:12Z</time></trkpt>
<trkpt lat="50.072398" lon="4.590252"><time>2026-05-06T20:11:12Z</time></trkpt>
<trkpt lat="50.072345" lon="4.589483"><time>2026-05-06T20:21:12Z</time></trkpt>
<trkpt lat="50.072077" lon="4.588476"><time>2026-05-06T20:31:12Z</time></trkpt>
<trkpt lat="50.071763" lon="4.588140"><time>2026-05-06T20:41:12Z</time></trkpt>
<trkpt lat="50.070987" lon="4.585077"><time>2026-05-06T20:51:12Z</time></trkpt>
<trkpt lat="50.069103" lon="4.578168"><time>2026-05-06T21:01:12Z</time></trkpt>
</trkseg>
</trk>
<trk>
<name>nvvov20</name>
<cmt>v</cmt>
<desc>Olloy-sur-Viroin Chemin n°20 </desc>
<link href="https://chemins.be/olloy/chemin/20"/><trkseg>
<trkpt lat="50.065114" lon="4.612985"><time>2026-05-06T18:41:12Z</time></trkpt>
<trkpt lat="50.064745" lon="4.613290"><time>2026-05-06T18:51:12Z</time></trkpt>
<trkpt lat="50.063763" lon="4.614081"><time>2026-05-06T19:01:12Z</time></trkpt>
<trkpt lat="50.062738" lon="4.614160"><time>2026-05-06T19:11:12Z</time></trkpt>
<trkpt lat="50.061569" lon="4.614349"><time>2026-05-06T19:21:12Z</time></trkpt>
<trkpt lat="50.060589" lon="4.614400"><time>2026-05-06T19:31:12Z</time></trkpt>
<trkpt lat="50.059384" lon="4.614268"><time>2026-05-06T19:41:12Z</time></trkpt>
<trkpt lat="50.058352" lon="4.613662"><time>2026-05-06T19:51:12Z</time></trkpt>
<trkpt lat="50.056107" lon="4.612519"><time>2026-05-06T20:01:12Z</time></trkpt>
</trkseg></trk>
<trk>
<name>nvvov20</name>
<cmt>d</cmt>
<desc>Olloy-sur-Viroin Chemin n°20 </desc>
<link href="https://chemins.be/olloy/chemin/20"/><trkseg>
<trkpt lat="50.056107" lon="4.612519"><time>2026-05-06T20:01:12Z</time></trkpt>
<trkpt lat="50.054796" lon="4.611689"><time>2026-05-06T20:11:12Z</time></trkpt>
<trkpt lat="50.053178" lon="4.611346"><time>2026-05-06T20:21:12Z</time></trkpt>
</trkseg>
</trk>
<trk>
<name>nvvov21</name>
<cmt>v</cmt>
<desc>Olloy-sur-Viroin Chemin n°21 Rue des Lavandières / Rue des Lavandieres</desc>
<link href="https://chemins.be/olloy/chemin/21"/><trkseg>
<trkpt lat="50.072073" lon="4.621108"><time>2026-05-06T18:41:12Z</time></trkpt>
<trkpt lat="50.072244" lon="4.621263"><time>2026-05-06T18:51:12Z</time></trkpt>
<trkpt lat="50.072686" lon="4.620790"><time>2026-05-06T19:01:12Z</time></trkpt>
<trkpt lat="50.073021" lon="4.619591"><time>2026-05-06T19:11:12Z</time></trkpt>
<trkpt lat="50.073669" lon="4.619133"><time>2026-05-06T19:21:12Z</time></trkpt>
<trkpt lat="50.075980" lon="4.618964"><time>2026-05-06T19:31:12Z</time></trkpt>
</trkseg></trk>
<trk>
<name>nvvov21</name>
<cmt>d</cmt>
<desc>Olloy-sur-Viroin Chemin n°21 Rue des Lavandières / Rue des Lavandieres</desc>
<link href="https://chemins.be/olloy/chemin/21"/><trkseg>
<trkpt lat="50.075980" lon="4.618964"><time>2026-05-06T19:31:12Z</time></trkpt>
<trkpt lat="50.077219" lon="4.619585"><time>2026-05-06T19:41:12Z</time></trkpt>
<trkpt lat="50.077533" lon="4.620341"><time>2026-05-06T19:51:12Z</time></trkpt>
<trkpt lat="50.078025" lon="4.621098"><time>2026-05-06T20:01:12Z</time></trkpt>
</trkseg></trk>
<trk>
<name>nvvov21</name>
<cmt>r</cmt>
<desc>Olloy-sur-Viroin Chemin n°21 Rue des Lavandières / Rue des Lavandieres</desc>
<link href="https://chemins.be/olloy/chemin/21"/><trkseg>
<trkpt lat="50.078025" lon="4.621098"><time>2026-05-06T20:01:12Z</time></trkpt>
<trkpt lat="50.078603" lon="4.624119"><time>2026-05-06T20:11:12Z</time></trkpt>
</trkseg></trk>
<trk>
<name>nvvov21</name>
<cmt>q</cmt>
<desc>Olloy-sur-Viroin Chemin n°21 Rue des Lavandières / Rue des Lavandieres</desc>
<link href="https://chemins.be/olloy/chemin/21"/><trkseg>
<trkpt lat="50.078603" lon="4.624119"><time>2026-05-06T20:11:12Z</time></trkpt>
<trkpt lat="50.078619" lon="4.625069"><time>2026-05-06T20:21:12Z</time></trkpt>
<trkpt lat="50.079482" lon="4.629223"><time>2026-05-06T20:31:12Z</time></trkpt>
<trkpt lat="50.079801" lon="4.631223"><time>2026-05-06T20:41:12Z</time></trkpt>
</trkseg>
</trk>
<trk>
<name>nvvov23</name>
<cmt>d</cmt>
<desc>Olloy-sur-Viroin Chemin n°23 </desc>
<link href="https://chemins.be/olloy/chemin/23"/><trkseg>
<trkpt lat="50.069749" lon="4.615118"><time>2026-05-06T18:41:12Z</time></trkpt>
<trkpt lat="50.069784" lon="4.615397"><time>2026-05-06T18:51:12Z</time></trkpt>
<trkpt lat="50.069765" lon="4.615760"><time>2026-05-06T19:01:12Z</time></trkpt>
<trkpt lat="50.069711" lon="4.615969"><time>2026-05-06T19:11:12Z</time></trkpt>
</trkseg>
</trk>
<trk>
<name>nvvov25</name>
<cmt>r</cmt>
<desc>Olloy-sur-Viroin Chemin n°25 Rue des Hérutis / ?</desc>
<link href="https://chemins.be/olloy/chemin/25"/><trkseg>
<trkpt lat="50.065528" lon="4.608671"><time>2026-05-06T18:41:12Z</time></trkpt>
<trkpt lat="50.065479" lon="4.610416"><time>2026-05-06T18:51:12Z</time></trkpt>
<trkpt lat="50.065296" lon="4.612259"><time>2026-05-06T19:01:12Z</time></trkpt>
</trkseg></trk>
<trk>
<name>nvvov25</name>
<cmt>v</cmt>
<desc>Olloy-sur-Viroin Chemin n°25 Rue des Hérutis / ?</desc>
<link href="https://chemins.be/olloy/chemin/25"/><trkseg>
<trkpt lat="50.065296" lon="4.612259"><time>2026-05-06T19:01:12Z</time></trkpt>
<trkpt lat="50.065123" lon="4.613068"><time>2026-05-06T19:11:12Z</time></trkpt>
<trkpt lat="50.064832" lon="4.614687"><time>2026-05-06T19:21:12Z</time></trkpt>
<trkpt lat="50.064774" lon="4.616349"><time>2026-05-06T19:31:12Z</time></trkpt>
<trkpt lat="50.064441" lon="4.616906"><time>2026-05-06T19:41:12Z</time></trkpt>
<trkpt lat="50.063386" lon="4.617948"><time>2026-05-06T19:51:12Z</time></trkpt>
<trkpt lat="50.061381" lon="4.618035"><time>2026-05-06T20:01:12Z</time></trkpt>
<trkpt lat="50.060510" lon="4.617877"><time>2026-05-06T20:11:12Z</time></trkpt>
<trkpt lat="50.059844" lon="4.617873"><time>2026-05-06T20:21:12Z</time></trkpt>
<trkpt lat="50.058701" lon="4.618580"><time>2026-05-06T20:31:12Z</time></trkpt>
<trkpt lat="50.058386" lon="4.618815"><time>2026-05-06T20:41:12Z</time></trkpt>
<trkpt lat="50.058062" lon="4.618967"><time>2026-05-06T20:51:12Z</time></trkpt>
<trkpt lat="50.057763" lon="4.619664"><time>2026-05-06T21:01:12Z</time></trkpt>
<trkpt lat="50.056612" lon="4.620035"><time>2026-05-06T21:11:12Z</time></trkpt>
<trkpt lat="50.055822" lon="4.620699"><time>2026-05-06T21:21:12Z</time></trkpt>
<trkpt lat="50.054571" lon="4.620742"><time>2026-05-06T21:31:12Z</time></trkpt>
<trkpt lat="50.053563" lon="4.620124"><time>2026-05-06T21:41:12Z</time></trkpt>
<trkpt lat="50.052471" lon="4.619506"><time>2026-05-06T21:51:12Z</time></trkpt>
<trkpt lat="50.051998" lon="4.618948"><time>2026-05-06T22:01:12Z</time></trkpt>
<trkpt lat="50.052075" lon="4.618489"><time>2026-05-06T22:11:12Z</time></trkpt>
<trkpt lat="50.050960" lon="4.618511"><time>2026-05-06T22:21:12Z</time></trkpt>
<trkpt lat="50.049781" lon="4.618966"><time>2026-05-06T22:31:12Z</time></trkpt>
<trkpt lat="50.048541" lon="4.618876"><time>2026-05-06T22:41:12Z</time></trkpt>
<trkpt lat="50.045618" lon="4.619293"><time>2026-05-06T22:51:12Z</time></trkpt>
<trkpt lat="50.041684" lon="4.617499"><time>2026-05-06T23:01:12Z</time></trkpt>
<trkpt lat="50.039931" lon="4.617113"><time>2026-05-06T23:11:12Z</time></trkpt>
<trkpt lat="50.037232" lon="4.618272"><time>2026-05-06T23:21:12Z</time></trkpt>
<trkpt lat="50.035985" lon="4.621169"><time>2026-05-06T23:31:12Z</time></trkpt>
<trkpt lat="50.035237" lon="4.621919"><time>2026-05-06T23:41:12Z</time></trkpt>
</trkseg>
</trk>
<trk>
<name>nvvov26</name>
<cmt>v</cmt>
<desc>Olloy-sur-Viroin Chemin n°26 </desc>
<link href="https://chemins.be/olloy/chemin/26"/><trkseg>
<trkpt lat="50.069239" lon="4.613676"><time>2026-05-06T18:41:12Z</time></trkpt>
<trkpt lat="50.068806" lon="4.614414"><time>2026-05-06T18:51:12Z</time></trkpt>
<trkpt lat="50.068606" lon="4.615615"><time>2026-05-06T19:01:12Z</time></trkpt>
</trkseg>
</trk>
<trk>
<name>nvvov27</name>
<cmt>v</cmt>
<desc>Olloy-sur-Viroin Chemin n°27 </desc>
<link href="https://chemins.be/olloy/chemin/27"/><trkseg>
<trkpt lat="50.075863" lon="4.597630"><time>2026-05-06T18:41:12Z</time></trkpt>
<trkpt lat="50.075765" lon="4.597211"><time>2026-05-06T18:51:12Z</time></trkpt>
<trkpt lat="50.075667" lon="4.596428"><time>2026-05-06T19:01:12Z</time></trkpt>
</trkseg>
</trk>
<trk>
<name>nvvov28</name>
<cmt>v</cmt>
<desc>Olloy-sur-Viroin Chemin n°28 </desc>
<link href="https://chemins.be/olloy/chemin/28"/><trkseg>
<trkpt lat="50.078141" lon="4.621602"><time>2026-05-06T18:41:12Z</time></trkpt>
<trkpt lat="50.078392" lon="4.622078"><time>2026-05-06T18:51:12Z</time></trkpt>
<trkpt lat="50.078606" lon="4.622694"><time>2026-05-06T19:01:12Z</time></trkpt>
</trkseg>
</trk>
<trk>
<name>nvvov29</name>
<cmt>v</cmt>
<desc>Olloy-sur-Viroin Chemin n°29 Chemin de la Goulette / Rue de la Goulette</desc>
<link href="https://chemins.be/olloy/chemin/29"/><trkseg>
<trkpt lat="50.076168" lon="4.606671"><time>2026-05-06T18:41:12Z</time></trkpt>
<trkpt lat="50.076779" lon="4.606730"><time>2026-05-06T18:51:12Z</time></trkpt>
<trkpt lat="50.077291" lon="4.606872"><time>2026-05-06T19:01:12Z</time></trkpt>
<trkpt lat="50.077650" lon="4.607572"><time>2026-05-06T19:11:12Z</time></trkpt>
<trkpt lat="50.077864" lon="4.608244"><time>2026-05-06T19:21:12Z</time></trkpt>
<trkpt lat="50.077953" lon="4.608580"><time>2026-05-06T19:31:12Z</time></trkpt>
<trkpt lat="50.078419" lon="4.609308"><time>2026-05-06T19:41:12Z</time></trkpt>
</trkseg>
</trk>
<trk>
<name>nvvov3</name>
<cmt>r</cmt>
<desc>Olloy-sur-Viroin Chemin n°3 Rue des Mines / Rue Autre Côté de l'Eau / Rue de la Goulette</desc>
<link href="https://chemins.be/olloy/chemin/3"/><trkseg>
<trkpt lat="50.074154" lon="4.606814"><time>2026-05-06T18:41:12Z</time></trkpt>
<trkpt lat="50.075387" lon="4.606052"><time>2026-05-06T18:51:12Z</time></trkpt>
<trkpt lat="50.075756" lon="4.605802"><time>2026-05-06T19:01:12Z</time></trkpt>
<trkpt lat="50.075685" lon="4.605411"><time>2026-05-06T19:11:12Z</time></trkpt>
<trkpt lat="50.075237" lon="4.604822"><time>2026-05-06T19:21:12Z</time></trkpt>
<trkpt lat="50.074809" lon="4.603227"><time>2026-05-06T19:31:12Z</time></trkpt>
<trkpt lat="50.074721" lon="4.601956"><time>2026-05-06T19:41:12Z</time></trkpt>
<trkpt lat="50.074920" lon="4.601440"><time>2026-05-06T19:51:12Z</time></trkpt>
<trkpt lat="50.075551" lon="4.600563"><time>2026-05-06T20:01:12Z</time></trkpt>
<trkpt lat="50.075669" lon="4.600144"><time>2026-05-06T20:11:12Z</time></trkpt>
<trkpt lat="50.075844" lon="4.598175"><time>2026-05-06T20:21:12Z</time></trkpt>
<trkpt lat="50.075934" lon="4.598176"><time>2026-05-06T20:31:12Z</time></trkpt>
<trkpt lat="50.076101" lon="4.599937"><time>2026-05-06T20:41:12Z</time></trkpt>
<trkpt lat="50.076662" lon="4.602356"><time>2026-05-06T20:51:12Z</time></trkpt>
<trkpt lat="50.077109" lon="4.603783"><time>2026-05-06T21:01:12Z</time></trkpt>
<trkpt lat="50.077502" lon="4.605015"><time>2026-05-06T21:11:12Z</time></trkpt>
<trkpt lat="50.077975" lon="4.606736"><time>2026-05-06T21:21:12Z</time></trkpt>
<trkpt lat="50.078419" lon="4.609295"><time>2026-05-06T21:31:12Z</time></trkpt>
<trkpt lat="50.078607" lon="4.609966"><time>2026-05-06T21:41:12Z</time></trkpt>
<trkpt lat="50.079366" lon="4.612108"><time>2026-05-06T21:51:12Z</time></trkpt>
<trkpt lat="50.080458" lon="4.614586"><time>2026-05-06T22:01:12Z</time></trkpt>
</trkseg></trk>
<trk>
<name>nvvov3</name>
<cmt>v</cmt>
<desc>Olloy-sur-Viroin Chemin n°3 Rue des Mines / Rue Autre Côté de l'Eau / Rue de la Goulette</desc>
<link href="https://chemins.be/olloy/chemin/3"/><trkseg>
<trkpt lat="50.080458" lon="4.614586"><time>2026-05-06T22:01:12Z</time></trkpt>
<trkpt lat="50.081439" lon="4.618098"><time>2026-05-06T22:11:12Z</time></trkpt>
<trkpt lat="50.082073" lon="4.620127"><time>2026-05-06T22:21:12Z</time></trkpt>
<trkpt lat="50.082349" lon="4.621400"><time>2026-05-06T22:31:12Z</time></trkpt>
<trkpt lat="50.082821" lon="4.623345"><time>2026-05-06T22:41:12Z</time></trkpt>
<trkpt lat="50.083706" lon="4.625669"><time>2026-05-06T22:51:12Z</time></trkpt>
<trkpt lat="50.084181" lon="4.626398"><time>2026-05-06T23:01:12Z</time></trkpt>
<trkpt lat="50.084340" lon="4.627713"><time>2026-05-06T23:11:12Z</time></trkpt>
<trkpt lat="50.084184" lon="4.629165"><time>2026-05-06T23:21:12Z</time></trkpt>
</trkseg>
</trk>
<trk>
<name>nvvov30</name>
<cmt>d</cmt>
<desc>Olloy-sur-Viroin Chemin n°30 </desc>
<link href="https://chemins.be/olloy/chemin/30"/><trkseg>
<trkpt lat="50.070409" lon="4.604700"><time>2026-05-06T18:41:12Z</time></trkpt>
<trkpt lat="50.069960" lon="4.604307"><time>2026-05-06T18:51:12Z</time></trkpt>
</trkseg>
</trk>
<trk>
<name>nvvov31</name>
<cmt>d</cmt>
<desc>Olloy-sur-Viroin Chemin n°31 </desc>
<link href="https://chemins.be/olloy/chemin/31"/><trkseg>
<trkpt lat="50.071817" lon="4.606356"><time>2026-05-06T18:41:12Z</time></trkpt>
<trkpt lat="50.071586" lon="4.605181"><time>2026-05-06T18:51:12Z</time></trkpt>
<trkpt lat="50.071524" lon="4.604524"><time>2026-05-06T19:01:12Z</time></trkpt>
</trkseg>
</trk>
<trk>
<name>nvvov33</name>
<cmt>d</cmt>
<desc>Olloy-sur-Viroin Chemin n°33 </desc>
<link href="https://chemins.be/olloy/chemin/33"/><trkseg>
<trkpt lat="50.066917" lon="4.602155"><time>2026-05-06T18:41:12Z</time></trkpt>
<trkpt lat="50.066268" lon="4.602738"><time>2026-05-06T18:51:12Z</time></trkpt>
</trkseg>
</trk>
<trk>
<name>nvvov34</name>
<cmt>v</cmt>
<desc>Olloy-sur-Viroin Chemin n°34 </desc>
<link href="https://chemins.be/olloy/chemin/34"/><trkseg>
<trkpt lat="50.069354" lon="4.606106"><time>2026-05-06T18:41:12Z</time></trkpt>
<trkpt lat="50.068942" lon="4.605238"><time>2026-05-06T18:51:12Z</time></trkpt>
<trkpt lat="50.068646" lon="4.605069"><time>2026-05-06T19:01:12Z</time></trkpt>
</trkseg>
</trk>
<trk>
<name>nvvov35</name>
<cmt>v</cmt>
<desc>Olloy-sur-Viroin Chemin n°35 </desc>
<link href="https://chemins.be/olloy/chemin/35"/><trkseg>
<trkpt lat="50.073862" lon="4.608755"><time>2026-05-06T18:41:12Z</time></trkpt>
<trkpt lat="50.073197" lon="4.608821"><time>2026-05-06T18:51:12Z</time></trkpt>
<trkpt lat="50.073178" lon="4.609100"><time>2026-05-06T19:01:12Z</time></trkpt>
<trkpt lat="50.072522" lon="4.608888"><time>2026-05-06T19:11:12Z</time></trkpt>
</trkseg>
</trk>
<trk>
<name>nvvov36</name>
<cmt>v</cmt>
<desc>Olloy-sur-Viroin Chemin n°36 </desc>
<link href="https://chemins.be/olloy/chemin/36"/><trkseg>
<trkpt lat="50.071387" lon="4.610111"><time>2026-05-06T18:41:12Z</time></trkpt>
<trkpt lat="50.071765" lon="4.609904"><time>2026-05-06T18:51:12Z</time></trkpt>
</trkseg>
</trk>
<trk>
<name>nvvov37</name>
<cmt>v</cmt>
<desc>Olloy-sur-Viroin Chemin n°37 </desc>
<link href="https://chemins.be/olloy/chemin/37"/><trkseg>
<trkpt lat="50.070878" lon="4.608223"><time>2026-05-06T18:41:12Z</time></trkpt>
<trkpt lat="50.071354" lon="4.608449"><time>2026-05-06T18:51:12Z</time></trkpt>
<trkpt lat="50.071390" lon="4.608575"><time>2026-05-06T19:01:12Z</time></trkpt>
<trkpt lat="50.071678" lon="4.608674"><time>2026-05-06T19:11:12Z</time></trkpt>
</trkseg>
</trk>
<trk>
<name>nvvov4</name>
<cmt>r</cmt>
<desc>Olloy-sur-Viroin Chemin n°4 Unnamed Road</desc>
<link href="https://chemins.be/olloy/chemin/4"/><trkseg>
<trkpt lat="50.080494" lon="4.614642"><time>2026-05-06T18:41:12Z</time></trkpt>
<trkpt lat="50.081425" lon="4.616366"><time>2026-05-06T18:51:12Z</time></trkpt>
<trkpt lat="50.082349" lon="4.617348"><time>2026-05-06T19:01:12Z</time></trkpt>
<trkpt lat="50.082725" lon="4.618217"><time>2026-05-06T19:11:12Z</time></trkpt>
<trkpt lat="50.083569" lon="4.618459"><time>2026-05-06T19:21:12Z</time></trkpt>
<trkpt lat="50.084395" lon="4.618938"><time>2026-05-06T19:31:12Z</time></trkpt>
</trkseg></trk>
<trk>
<name>nvvov4</name>
<cmt>s</cmt>
<desc>Olloy-sur-Viroin Chemin n°4 Unnamed Road</desc>
<link href="https://chemins.be/olloy/chemin/4"/><trkseg>
<trkpt lat="50.084395" lon="4.618938"><time>2026-05-06T19:31:12Z</time></trkpt>
<trkpt lat="50.086182" lon="4.620303"><time>2026-05-06T19:41:12Z</time></trkpt>
<trkpt lat="50.087328" lon="4.622097"><time>2026-05-06T19:51:12Z</time></trkpt>
</trkseg></trk>
<trk>
<name>nvvov4</name>
<cmt>v</cmt>
<desc>Olloy-sur-Viroin Chemin n°4 Unnamed Road</desc>
<link href="https://chemins.be/olloy/chemin/4"/><trkseg>
<trkpt lat="50.087328" lon="4.622097"><time>2026-05-06T19:51:12Z</time></trkpt>
<trkpt lat="50.089587" lon="4.625100"><time>2026-05-06T20:01:12Z</time></trkpt>
<trkpt lat="50.090223" lon="4.626333"><time>2026-05-06T20:11:12Z</time></trkpt>
<trkpt lat="50.090662" lon="4.626978"><time>2026-05-06T20:21:12Z</time></trkpt>
</trkseg></trk>
<trk>
<name>nvvov4</name>
<cmt>d</cmt>
<desc>Olloy-sur-Viroin Chemin n°4 Unnamed Road</desc>
<link href="https://chemins.be/olloy/chemin/4"/><trkseg>
<trkpt lat="50.090662" lon="4.626978"><time>2026-05-06T20:21:12Z</time></trkpt>
<trkpt lat="50.091623" lon="4.627599"><time>2026-05-06T20:31:12Z</time></trkpt>
</trkseg>
</trk>
<trk>
<name>nvvov43</name>
<cmt>v</cmt>
<desc>Olloy-sur-Viroin Sentier n°43 </desc>
<link href="https://chemins.be/olloy/sentier/43"/><trkseg>
<trkpt lat="50.074870" lon="4.608257"><time>2026-05-06T18:41:12Z</time></trkpt>
<trkpt lat="50.075129" lon="4.609180"><time>2026-05-06T18:51:12Z</time></trkpt>
</trkseg>
</trk>
<trk>
<name>nvvov47</name>
<cmt>v</cmt>
<desc>Olloy-sur-Viroin Sentier n°47 Chemin des Nuées</desc>
<link href="https://chemins.be/olloy/sentier/47"/><trkseg>
<trkpt lat="50.069489" lon="4.606162"><time>2026-05-06T18:41:12Z</time></trkpt>
<trkpt lat="50.068859" lon="4.606508"><time>2026-05-06T18:51:12Z</time></trkpt>
<trkpt lat="50.068634" lon="4.606507"><time>2026-05-06T19:01:12Z</time></trkpt>
<trkpt lat="50.067727" lon="4.606028"><time>2026-05-06T19:11:12Z</time></trkpt>
<trkpt lat="50.067412" lon="4.606068"><time>2026-05-06T19:21:12Z</time></trkpt>
<trkpt lat="50.067519" lon="4.606488"><time>2026-05-06T19:31:12Z</time></trkpt>
</trkseg>
</trk>
<trk>
<name>nvvov48</name>
<cmt>v</cmt>
<desc>Olloy-sur-Viroin Sentier n°48 Chemin des Nuées</desc>
<link href="https://chemins.be/olloy/sentier/48"/><trkseg>
<trkpt lat="50.068858" lon="4.606802"><time>2026-05-06T18:41:12Z</time></trkpt>
<trkpt lat="50.068652" lon="4.606507"><time>2026-05-06T18:51:12Z</time></trkpt>
</trkseg>
</trk>
<trk>
<name>nvvov49</name>
<cmt>d</cmt>
<desc>Olloy-sur-Viroin Sentier n°49 Rue des Lavandières / Rue du Vignoble</desc>
<link href="https://chemins.be/olloy/sentier/49"/><trkseg>
<trkpt lat="50.076673" lon="4.614748"><time>2026-05-06T18:41:12Z</time></trkpt>
<trkpt lat="50.076553" lon="4.616047"><time>2026-05-06T18:51:12Z</time></trkpt>
<trkpt lat="50.076830" lon="4.616887"><time>2026-05-06T19:01:12Z</time></trkpt>
<trkpt lat="50.077168" lon="4.618243"><time>2026-05-06T19:11:12Z</time></trkpt>
<trkpt lat="50.077756" lon="4.620719"><time>2026-05-06T19:21:12Z</time></trkpt>
</trkseg></trk>
<trk>
<name>nvvov49</name>
<cmt>r</cmt>
<desc>Olloy-sur-Viroin Sentier n°49 Rue des Lavandières / Rue du Vignoble</desc>
<link href="https://chemins.be/olloy/sentier/49"/><trkseg>
<trkpt lat="50.077756" lon="4.620719"><time>2026-05-06T19:21:12Z</time></trkpt>
<trkpt lat="50.077972" lon="4.621028"><time>2026-05-06T19:31:12Z</time></trkpt>
<trkpt lat="50.078648" lon="4.624245"><time>2026-05-06T19:41:12Z</time></trkpt>
<trkpt lat="50.079208" lon="4.627070"><time>2026-05-06T19:51:12Z</time></trkpt>
<trkpt lat="50.079874" lon="4.630734"><time>2026-05-06T20:01:12Z</time></trkpt>
<trkpt lat="50.080026" lon="4.631252"><time>2026-05-06T20:11:12Z</time></trkpt>
</trkseg>
</trk>
<trk>
<name>nvvov5</name>
<cmt>v</cmt>
<desc>Olloy-sur-Viroin Chemin n°5 </desc>
<link href="https://chemins.be/olloy/chemin/5"/><trkseg>
<trkpt lat="50.083724" lon="4.625753"><time>2026-05-06T18:41:12Z</time></trkpt>
<trkpt lat="50.083676" lon="4.627318"><time>2026-05-06T18:51:12Z</time></trkpt>
<trkpt lat="50.082925" lon="4.629214"><time>2026-05-06T19:01:12Z</time></trkpt>
</trkseg>
</trk>
<trk>
<name>nvvov50</name>
<cmt>r</cmt>
<desc>Olloy-sur-Viroin Sentier n°50 </desc>
<link href="https://chemins.be/olloy/sentier/50"/><trkseg>
<trkpt lat="50.071279" lon="4.610236"><time>2026-05-06T18:41:12Z</time></trkpt>
<trkpt lat="50.071170" lon="4.610585"><time>2026-05-06T18:51:12Z</time></trkpt>
<trkpt lat="50.070466" lon="4.611894"><time>2026-05-06T19:01:12Z</time></trkpt>
</trkseg>
</trk>
<trk>
<name>nvvov51</name>
<cmt>r</cmt>
<desc>Olloy-sur-Viroin Sentier n°51 Rue du Nestry</desc>
<link href="https://chemins.be/olloy/sentier/51"/><trkseg>
<trkpt lat="50.070011" lon="4.610020"><time>2026-05-06T18:41:12Z</time></trkpt>
<trkpt lat="50.069399" lon="4.610730"><time>2026-05-06T18:51:12Z</time></trkpt>
</trkseg>
</trk>
<trk>
<name>nvvov52</name>
<cmt>v</cmt>
<desc>Olloy-sur-Viroin Sentier n°52 Rue de la Bossette</desc>
<link href="https://chemins.be/olloy/sentier/52"/><trkseg>
<trkpt lat="50.069987" lon="4.612982"><time>2026-05-06T18:41:12Z</time></trkpt>
<trkpt lat="50.069735" lon="4.613190"><time>2026-05-06T18:51:12Z</time></trkpt>
</trkseg>
</trk>
<trk>
<name>nvvov53</name>
<cmt>v</cmt>
<desc>Olloy-sur-Viroin Sentier n°53 </desc>
<link href="https://chemins.be/olloy/sentier/53"/><trkseg>
<trkpt lat="50.071550" lon="4.586742"><time>2026-05-06T18:41:12Z</time></trkpt>
<trkpt lat="50.071678" lon="4.585709"><time>2026-05-06T18:51:12Z</time></trkpt>
<trkpt lat="50.072066" lon="4.585026"><time>2026-05-06T19:01:12Z</time></trkpt>
</trkseg>
</trk>
<trk>
<name>nvvov54</name>
<cmt>r</cmt>
<desc>Olloy-sur-Viroin Sentier n°54 Rue de la Champagne</desc>
<link href="https://chemins.be/olloy/sentier/54"/><trkseg>
<trkpt lat="50.072129" lon="4.603326"><time>2026-05-06T18:41:12Z</time></trkpt>
<trkpt lat="50.072247" lon="4.602754"><time>2026-05-06T18:51:12Z</time></trkpt>
<trkpt lat="50.072222" lon="4.601790"><time>2026-05-06T19:01:12Z</time></trkpt>
</trkseg></trk>
<trk>
<name>nvvov54</name>
<cmt>b</cmt>
<desc>Olloy-sur-Viroin Sentier n°54 Rue de la Champagne</desc>
<link href="https://chemins.be/olloy/sentier/54"/><trkseg>
<trkpt lat="50.072222" lon="4.601790"><time>2026-05-06T19:01:12Z</time></trkpt>
<trkpt lat="50.072181" lon="4.599890"><time>2026-05-06T19:11:12Z</time></trkpt>
<trkpt lat="50.072201" lon="4.598814"><time>2026-05-06T19:21:12Z</time></trkpt>
</trkseg></trk>
<trk>
<name>nvvov54</name>
<cmt>d</cmt>
<desc>Olloy-sur-Viroin Sentier n°54 Rue de la Champagne</desc>
<link href="https://chemins.be/olloy/sentier/54"/><trkseg>
<trkpt lat="50.072201" lon="4.598814"><time>2026-05-06T19:21:12Z</time></trkpt>
<trkpt lat="50.072239" lon="4.597753"><time>2026-05-06T19:31:12Z</time></trkpt>
<trkpt lat="50.072206" lon="4.596467"><time>2026-05-06T19:41:12Z</time></trkpt>
<trkpt lat="50.072190" lon="4.595308"><time>2026-05-06T19:51:12Z</time></trkpt>
<trkpt lat="50.072554" lon="4.593214"><time>2026-05-06T20:01:12Z</time></trkpt>
<trkpt lat="50.072583" lon="4.592334"><time>2026-05-06T20:11:12Z</time></trkpt>
</trkseg></trk>
<trk>
<name>nvvov54</name>
<cmt>b</cmt>
<desc>Olloy-sur-Viroin Sentier n°54 Rue de la Champagne</desc>
<link href="https://chemins.be/olloy/sentier/54"/><trkseg>
<trkpt lat="50.072583" lon="4.592334"><time>2026-05-06T20:11:12Z</time></trkpt>
<trkpt lat="50.072638" lon="4.591636"><time>2026-05-06T20:21:12Z</time></trkpt>
</trkseg>
</trk>
<trk>
<name>nvvov55</name>
<cmt>d</cmt>
<desc>Olloy-sur-Viroin Sentier n°55 </desc>
<link href="https://chemins.be/olloy/sentier/55"/><trkseg>
<trkpt lat="50.072425" lon="4.590168"><time>2026-05-06T18:41:12Z</time></trkpt>
<trkpt lat="50.072500" lon="4.588716"><time>2026-05-06T18:51:12Z</time></trkpt>
<trkpt lat="50.072563" lon="4.588353"><time>2026-05-06T19:01:12Z</time></trkpt>
<trkpt lat="50.072663" lon="4.587976"><time>2026-05-06T19:11:12Z</time></trkpt>
<trkpt lat="50.072592" lon="4.587152"><time>2026-05-06T19:21:12Z</time></trkpt>
<trkpt lat="50.072918" lon="4.586161"><time>2026-05-06T19:31:12Z</time></trkpt>
<trkpt lat="50.073037" lon="4.585170"><time>2026-05-06T19:41:12Z</time></trkpt>
<trkpt lat="50.073508" lon="4.583286"><time>2026-05-06T19:51:12Z</time></trkpt>
<trkpt lat="50.074582" lon="4.581112"><time>2026-05-06T20:01:12Z</time></trkpt>
</trkseg>
</trk>
<trk>
<name>nvvov56</name>
<cmt>v</cmt>
<desc>Olloy-sur-Viroin Sentier n°56 Sentier de Vierves à Dourbes</desc>
<link href="https://chemins.be/olloy/sentier/56"/><trkseg>
<trkpt lat="50.083805" lon="4.625740"><time>2026-05-06T18:41:12Z</time></trkpt>
<trkpt lat="50.084518" lon="4.624388"><time>2026-05-06T18:51:12Z</time></trkpt>
</trkseg></trk>
<trk>
<name>nvvov56</name>
<cmt>s</cmt>
<desc>Olloy-sur-Viroin Sentier n°56 Sentier de Vierves à Dourbes</desc>
<link href="https://chemins.be/olloy/sentier/56"/><trkseg>
<trkpt lat="50.084518" lon="4.624388"><time>2026-05-06T18:51:12Z</time></trkpt>
<trkpt lat="50.085403" lon="4.622660"><time>2026-05-06T19:01:12Z</time></trkpt>
<trkpt lat="50.086199" lon="4.620415"><time>2026-05-06T19:11:12Z</time></trkpt>
<trkpt lat="50.087005" lon="4.617946"><time>2026-05-06T19:21:12Z</time></trkpt>
<trkpt lat="50.087659" lon="4.615015"><time>2026-05-06T19:31:12Z</time></trkpt>
</trkseg>
</trk>
<trk>
<name>nvvov57</name>
<cmt>q</cmt>
<desc>Olloy-sur-Viroin Sentier n°57 </desc>
<link href="https://chemins.be/olloy/sentier/57"/><trkseg>
<trkpt lat="50.090744" lon="4.626713"><time>2026-05-06T18:41:12Z</time></trkpt>
<trkpt lat="50.091271" lon="4.624117"><time>2026-05-06T18:51:12Z</time></trkpt>
<trkpt lat="50.091814" lon="4.622303"><time>2026-05-06T19:01:12Z</time></trkpt>
</trkseg>
</trk>
<trk>
<name>nvvov58</name>
<cmt>v</cmt>
<desc>Olloy-sur-Viroin Sentier n°58 </desc>
<link href="https://chemins.be/olloy/sentier/58"/><trkseg>
<trkpt lat="50.075560" lon="4.605159"><time>2026-05-06T18:41:12Z</time></trkpt>
<trkpt lat="50.075713" lon="4.604978"><time>2026-05-06T18:51:12Z</time></trkpt>
<trkpt lat="50.075714" lon="4.604573"><time>2026-05-06T19:01:12Z</time></trkpt>
<trkpt lat="50.075858" lon="4.604336"><time>2026-05-06T19:11:12Z</time></trkpt>
<trkpt lat="50.076875" lon="4.604132"><time>2026-05-06T19:21:12Z</time></trkpt>
<trkpt lat="50.077181" lon="4.603979"><time>2026-05-06T19:31:12Z</time></trkpt>
<trkpt lat="50.077820" lon="4.603633"><time>2026-05-06T19:41:12Z</time></trkpt>
<trkpt lat="50.078134" lon="4.603551"><time>2026-05-06T19:51:12Z</time></trkpt>
<trkpt lat="50.078324" lon="4.603342"><time>2026-05-06T20:01:12Z</time></trkpt>
<trkpt lat="50.079029" lon="4.601292"><time>2026-05-06T20:11:12Z</time></trkpt>
<trkpt lat="50.079553" lon="4.600247"><time>2026-05-06T20:21:12Z</time></trkpt>
<trkpt lat="50.079995" lon="4.599369"><time>2026-05-06T20:31:12Z</time></trkpt>
</trkseg>
</trk>
<trk>
<name>nvvov59</name>
<cmt>v</cmt>
<desc>Olloy-sur-Viroin Sentier n°59 </desc>
<link href="https://chemins.be/olloy/sentier/59"/><trkseg>
<trkpt lat="50.048600" lon="4.618889"><time>2026-05-06T18:41:12Z</time></trkpt>
<trkpt lat="50.048143" lon="4.619725"><time>2026-05-06T18:51:12Z</time></trkpt>
<trkpt lat="50.047502" lon="4.620978"><time>2026-05-06T19:01:12Z</time></trkpt>
<trkpt lat="50.047159" lon="4.621842"><time>2026-05-06T19:11:12Z</time></trkpt>
<trkpt lat="50.045834" lon="4.623050"><time>2026-05-06T19:21:12Z</time></trkpt>
<trkpt lat="50.044799" lon="4.623726"><time>2026-05-06T19:31:12Z</time></trkpt>
<trkpt lat="50.043986" lon="4.625342"><time>2026-05-06T19:41:12Z</time></trkpt>
<trkpt lat="50.042047" lon="4.623965"><time>2026-05-06T19:51:12Z</time></trkpt>
<trkpt lat="50.040424" lon="4.623998"><time>2026-05-06T20:01:12Z</time></trkpt>
</trkseg>
</trk>
<trk>
<name>nvvov6</name>
<cmt>v</cmt>
<desc>Olloy-sur-Viroin Chemin n°6 </desc>
<link href="https://chemins.be/olloy/chemin/6"/><trkseg>
<trkpt lat="50.074013" lon="4.609817"><time>2026-05-06T18:41:12Z</time></trkpt>
<trkpt lat="50.074380" lon="4.610657"><time>2026-05-06T18:51:12Z</time></trkpt>
<trkpt lat="50.074645" lon="4.612489"><time>2026-05-06T19:01:12Z</time></trkpt>
<trkpt lat="50.074615" lon="4.613885"><time>2026-05-06T19:11:12Z</time></trkpt>
<trkpt lat="50.074452" lon="4.614751"><time>2026-05-06T19:21:12Z</time></trkpt>
<trkpt lat="50.073983" lon="4.615237"><time>2026-05-06T19:31:12Z</time></trkpt>
<trkpt lat="50.073256" lon="4.614717"><time>2026-05-06T19:41:12Z</time></trkpt>
<trkpt lat="50.071962" lon="4.614472"><time>2026-05-06T19:51:12Z</time></trkpt>
<trkpt lat="50.071126" lon="4.614356"><time>2026-05-06T20:01:12Z</time></trkpt>
<trkpt lat="50.070551" lon="4.614423"><time>2026-05-06T20:11:12Z</time></trkpt>
<trkpt lat="50.070019" lon="4.614854"><time>2026-05-06T20:21:12Z</time></trkpt>
<trkpt lat="50.069092" lon="4.615603"><time>2026-05-06T20:31:12Z</time></trkpt>
<trkpt lat="50.068615" lon="4.615656"><time>2026-05-06T20:41:12Z</time></trkpt>
<trkpt lat="50.068273" lon="4.616077"><time>2026-05-06T20:51:12Z</time></trkpt>
<trkpt lat="50.067905" lon="4.617107"><time>2026-05-06T21:01:12Z</time></trkpt>
<trkpt lat="50.067384" lon="4.619379"><time>2026-05-06T21:11:12Z</time></trkpt>
<trkpt lat="50.066939" lon="4.621277"><time>2026-05-06T21:21:12Z</time></trkpt>
<trkpt lat="50.066747" lon="4.622994"><time>2026-05-06T21:31:12Z</time></trkpt>
<trkpt lat="50.066753" lon="4.624419"><time>2026-05-06T21:41:12Z</time></trkpt>
<trkpt lat="50.066696" lon="4.625787"><time>2026-05-06T21:51:12Z</time></trkpt>
<trkpt lat="50.066010" lon="4.626915"><time>2026-05-06T22:01:12Z</time></trkpt>
<trkpt lat="50.065414" lon="4.627945"><time>2026-05-06T22:11:12Z</time></trkpt>
<trkpt lat="50.064163" lon="4.628748"><time>2026-05-06T22:21:12Z</time></trkpt>
<trkpt lat="50.063388" lon="4.629191"><time>2026-05-06T22:31:12Z</time></trkpt>
<trkpt lat="50.062141" lon="4.632201"><time>2026-05-06T22:41:12Z</time></trkpt>
</trkseg>
</trk>
<trk>
<name>nvvov60</name>
<cmt>v</cmt>
<desc>Olloy-sur-Viroin Sentier n°60 </desc>
<link href="https://chemins.be/olloy/sentier/60"/><trkseg>
<trkpt lat="50.071792" lon="4.609890"><time>2026-05-06T18:41:12Z</time></trkpt>
<trkpt lat="50.072260" lon="4.609585"><time>2026-05-06T18:51:12Z</time></trkpt>
<trkpt lat="50.072361" lon="4.608789"><time>2026-05-06T19:01:12Z</time></trkpt>
</trkseg>
</trk>
<trk>
<name>nvvov61</name>
<cmt>v</cmt>
<desc>Olloy-sur-Viroin Sentier n°61 </desc>
<link href="https://chemins.be/olloy/sentier/61"/><trkseg>
<trkpt lat="50.071678" lon="4.608674"><time>2026-05-06T18:41:12Z</time></trkpt>
<trkpt lat="50.071687" lon="4.608548"><time>2026-05-06T18:51:12Z</time></trkpt>
<trkpt lat="50.072352" lon="4.608775"><time>2026-05-06T19:01:12Z</time></trkpt>
</trkseg>
</trk>
<trk>
<name>nvvov62</name>
<cmt>v</cmt>
<desc>Olloy-sur-Viroin Sentier n°62 Rue des Carrières / ?</desc>
<link href="https://chemins.be/olloy/sentier/62"/><trkseg>
<trkpt lat="50.068673" lon="4.604887"><time>2026-05-06T18:41:12Z</time></trkpt>
<trkpt lat="50.067408" lon="4.603652"><time>2026-05-06T18:51:12Z</time></trkpt>
<trkpt lat="50.066944" lon="4.602169"><time>2026-05-06T19:01:12Z</time></trkpt>
</trkseg></trk>
<trk>
<name>nvvov62</name>
<cmt>d</cmt>
<desc>Olloy-sur-Viroin Sentier n°62 Rue des Carrières / ?</desc>
<link href="https://chemins.be/olloy/sentier/62"/><trkseg>
<trkpt lat="50.066944" lon="4.602169"><time>2026-05-06T19:01:12Z</time></trkpt>
<trkpt lat="50.066962" lon="4.601190"><time>2026-05-06T19:11:12Z</time></trkpt>
</trkseg></trk>
<trk>
<name>nvvov62</name>
<cmt>v</cmt>
<desc>Olloy-sur-Viroin Sentier n°62 Rue des Carrières / ?</desc>
<link href="https://chemins.be/olloy/sentier/62"/><trkseg>
<trkpt lat="50.066962" lon="4.601190"><time>2026-05-06T19:11:12Z</time></trkpt>
<trkpt lat="50.067051" lon="4.601068"><time>2026-05-06T19:21:12Z</time></trkpt>
<trkpt lat="50.066953" lon="4.600320"><time>2026-05-06T19:31:12Z</time></trkpt>
<trkpt lat="50.066870" lon="4.599945"><time>2026-05-06T19:41:12Z</time></trkpt>
<trkpt lat="50.066608" lon="4.599080"><time>2026-05-06T19:51:12Z</time></trkpt>
<trkpt lat="50.066206" lon="4.598171"><time>2026-05-06T20:01:12Z</time></trkpt>
<trkpt lat="50.065587" lon="4.597246"><time>2026-05-06T20:11:12Z</time></trkpt>
<trkpt lat="50.064779" lon="4.596851"><time>2026-05-06T20:21:12Z</time></trkpt>
</trkseg></trk>
<trk>
<name>nvvov62</name>
<cmt>d</cmt>
<desc>Olloy-sur-Viroin Sentier n°62 Rue des Carrières / ?</desc>
<link href="https://chemins.be/olloy/sentier/62"/><trkseg>
<trkpt lat="50.064779" lon="4.596851"><time>2026-05-06T20:21:12Z</time></trkpt>
<trkpt lat="50.063791" lon="4.596148"><time>2026-05-06T20:31:12Z</time></trkpt>
<trkpt lat="50.062663" lon="4.594019"><time>2026-05-06T20:41:12Z</time></trkpt>
<trkpt lat="50.061965" lon="4.592256"><time>2026-05-06T20:51:12Z</time></trkpt>
<trkpt lat="50.061495" lon="4.588483"><time>2026-05-06T21:01:12Z</time></trkpt>
</trkseg>
</trk>
<trk>
<name>nvvov63</name>
<cmt>d</cmt>
<desc>Olloy-sur-Viroin Sentier n°63 Rue des Carrières</desc>
<link href="https://chemins.be/olloy/sentier/63"/><trkseg>
<trkpt lat="50.066258" lon="4.602736"><time>2026-05-06T18:41:12Z</time></trkpt>
<trkpt lat="50.066128" lon="4.602636"><time>2026-05-06T18:51:12Z</time></trkpt>
<trkpt lat="50.065248" lon="4.600476"><time>2026-05-06T19:01:12Z</time></trkpt>
<trkpt lat="50.064668" lon="4.599966"><time>2026-05-06T19:11:12Z</time></trkpt>
<trkpt lat="50.064188" lon="4.599506"><time>2026-05-06T19:21:12Z</time></trkpt>
<trkpt lat="50.063678" lon="4.599516"><time>2026-05-06T19:31:12Z</time></trkpt>
<trkpt lat="50.062748" lon="4.599286"><time>2026-05-06T19:41:12Z</time></trkpt>
<trkpt lat="50.062408" lon="4.599336"><time>2026-05-06T19:51:12Z</time></trkpt>
<trkpt lat="50.061588" lon="4.599266"><time>2026-05-06T20:01:12Z</time></trkpt>
</trkseg></trk>
<trk>
<name>nvvov63</name>
<cmt>v</cmt>
<desc>Olloy-sur-Viroin Sentier n°63 Rue des Carrières</desc>
<link href="https://chemins.be/olloy/sentier/63"/><trkseg>
<trkpt lat="50.061588" lon="4.599266"><time>2026-05-06T20:01:12Z</time></trkpt>
<trkpt lat="50.061578" lon="4.599276"><time>2026-05-06T20:11:12Z</time></trkpt>
<trkpt lat="50.061178" lon="4.599496"><time>2026-05-06T20:21:12Z</time></trkpt>
<trkpt lat="50.059288" lon="4.598676"><time>2026-05-06T20:31:12Z</time></trkpt>
<trkpt lat="50.058688" lon="4.597906"><time>2026-05-06T20:41:12Z</time></trkpt>
<trkpt lat="50.058398" lon="4.597026"><time>2026-05-06T20:51:12Z</time></trkpt>
<trkpt lat="50.058048" lon="4.595686"><time>2026-05-06T21:01:12Z</time></trkpt>
<trkpt lat="50.057654" lon="4.594201"><time>2026-05-06T21:11:12Z</time></trkpt>
<trkpt lat="50.057192" lon="4.593693"><time>2026-05-06T21:21:12Z</time></trkpt>
<trkpt lat="50.056899" lon="4.593296"><time>2026-05-06T21:31:12Z</time></trkpt>
</trkseg>
</trk>
<trk>
<name>nvvov64</name>
<cmt>v</cmt>
<desc>Olloy-sur-Viroin Sentier n°64 Rue des Carrières / ?</desc>
<link href="https://chemins.be/olloy/sentier/64"/><trkseg>
<trkpt lat="50.066972" lon="4.601624"><time>2026-05-06T18:41:12Z</time></trkpt>
<trkpt lat="50.066767" lon="4.600799"><time>2026-05-06T18:51:12Z</time></trkpt>
<trkpt lat="50.066077" lon="4.599357"><time>2026-05-06T19:01:12Z</time></trkpt>
<trkpt lat="50.065458" lon="4.598879"><time>2026-05-06T19:11:12Z</time></trkpt>
<trkpt lat="50.064370" lon="4.598720"><time>2026-05-06T19:21:12Z</time></trkpt>
<trkpt lat="50.063795" lon="4.598662"><time>2026-05-06T19:31:12Z</time></trkpt>
<trkpt lat="50.063130" lon="4.598575"><time>2026-05-06T19:41:12Z</time></trkpt>
<trkpt lat="50.062707" lon="4.598643"><time>2026-05-06T19:51:12Z</time></trkpt>
<trkpt lat="50.061970" lon="4.598751"><time>2026-05-06T20:01:12Z</time></trkpt>
</trkseg></trk>
<trk>
<name>nvvov64</name>
<cmt>b</cmt>
<desc>Olloy-sur-Viroin Sentier n°64 Rue des Carrières / ?</desc>
<link href="https://chemins.be/olloy/sentier/64"/><trkseg>
<trkpt lat="50.061970" lon="4.598751"><time>2026-05-06T20:01:12Z</time></trkpt>
<trkpt lat="50.060865" lon="4.598354"><time>2026-05-06T20:11:12Z</time></trkpt>
<trkpt lat="50.059456" lon="4.597119"><time>2026-05-06T20:21:12Z</time></trkpt>
<trkpt lat="50.059124" lon="4.596698"><time>2026-05-06T20:31:12Z</time></trkpt>
<trkpt lat="50.058721" lon="4.595674"><time>2026-05-06T20:41:12Z</time></trkpt>
<trkpt lat="50.058032" lon="4.593521"><time>2026-05-06T20:51:12Z</time></trkpt>
<trkpt lat="50.057541" lon="4.592152"><time>2026-05-06T21:01:12Z</time></trkpt>
<trkpt lat="50.057003" lon="4.591718"><time>2026-05-06T21:11:12Z</time></trkpt>
</trkseg></trk>
<trk>
<name>nvvov64</name>
<cmt>d</cmt>
<desc>Olloy-sur-Viroin Sentier n°64 Rue des Carrières / ?</desc>
<link href="https://chemins.be/olloy/sentier/64"/><trkseg>
<trkpt lat="50.057003" lon="4.591718"><time>2026-05-06T21:11:12Z</time></trkpt>
<trkpt lat="50.056200" lon="4.591060"><time>2026-05-06T21:21:12Z</time></trkpt>
<trkpt lat="50.054874" lon="4.590785"><time>2026-05-06T21:31:12Z</time></trkpt>
<trkpt lat="50.052024" lon="4.590967"><time>2026-05-06T21:41:12Z</time></trkpt>
</trkseg>
</trk>
<trk>
<name>nvvov65</name>
<cmt>s</cmt>
<desc>Olloy-sur-Viroin Sentier n°65 </desc>
<link href="https://chemins.be/olloy/sentier/65"/><trkseg>
<trkpt lat="50.065400" lon="4.609550"><time>2026-05-06T18:41:12Z</time></trkpt>
<trkpt lat="50.065174" lon="4.610066"><time>2026-05-06T18:51:12Z</time></trkpt>
<trkpt lat="50.064308" lon="4.611793"><time>2026-05-06T19:01:12Z</time></trkpt>
<trkpt lat="50.063641" lon="4.612530"><time>2026-05-06T19:11:12Z</time></trkpt>
<trkpt lat="50.062936" lon="4.614105"><time>2026-05-06T19:21:12Z</time></trkpt>
</trkseg>
</trk>
<trk>
<name>nvvov66</name>
<cmt>s</cmt>
<desc>Olloy-sur-Viroin Sentier n°66 </desc>
<link href="https://chemins.be/olloy/sentier/66"/><trkseg>
<trkpt lat="50.062880" lon="4.606590"><time>2026-05-06T18:41:12Z</time></trkpt>
<trkpt lat="50.062783" lon="4.605724"><time>2026-05-06T18:51:12Z</time></trkpt>
<trkpt lat="50.062651" lon="4.604313"><time>2026-05-06T19:01:12Z</time></trkpt>
</trkseg>
</trk>
<trk>
<name>nvvov67</name>
<cmt>v</cmt>
<desc>Olloy-sur-Viroin Sentier n°67 </desc>
<link href="https://chemins.be/olloy/sentier/67"/><trkseg>
<trkpt lat="50.070976" lon="4.600023"><time>2026-05-06T18:41:12Z</time></trkpt>
<trkpt lat="50.070923" lon="4.599367"><time>2026-05-06T18:51:12Z</time></trkpt>
<trkpt lat="50.070835" lon="4.598766"><time>2026-05-06T19:01:12Z</time></trkpt>
</trkseg></trk>
<trk>
<name>nvvov67</name>
<cmt>d</cmt>
<desc>Olloy-sur-Viroin Sentier n°67 </desc>
<link href="https://chemins.be/olloy/sentier/67"/><trkseg>
<trkpt lat="50.070835" lon="4.598766"><time>2026-05-06T19:01:12Z</time></trkpt>
<trkpt lat="50.070595" lon="4.597018"><time>2026-05-06T19:11:12Z</time></trkpt>
<trkpt lat="50.070303" lon="4.595047"><time>2026-05-06T19:21:12Z</time></trkpt>
<trkpt lat="50.069912" lon="4.592308"><time>2026-05-06T19:31:12Z</time></trkpt>
<trkpt lat="50.069744" lon="4.591120"><time>2026-05-06T19:41:12Z</time></trkpt>
<trkpt lat="50.069262" lon="4.589455"><time>2026-05-06T19:51:12Z</time></trkpt>
</trkseg>
</trk>
<trk>
<name>nvvov68</name>
<cmt>d</cmt>
<desc>Olloy-sur-Viroin Sentier n°68 </desc>
<link href="https://chemins.be/olloy/sentier/68"/><trkseg>
<trkpt lat="50.078455" lon="4.609392"><time>2026-05-06T18:41:12Z</time></trkpt>
<trkpt lat="50.079543" lon="4.609272"><time>2026-05-06T18:51:12Z</time></trkpt>
<trkpt lat="50.080763" lon="4.610662"><time>2026-05-06T19:01:12Z</time></trkpt>
<trkpt lat="50.083177" lon="4.612812"><time>2026-05-06T19:11:12Z</time></trkpt>
</trkseg>
</trk>
<trk>
<name>nvvov69</name>
<cmt>v</cmt>
<desc>Olloy-sur-Viroin Sentier n°69 </desc>
<link href="https://chemins.be/olloy/sentier/69"/><trkseg>
<trkpt lat="50.072366" lon="4.606330"><time>2026-05-06T18:41:12Z</time></trkpt>
<trkpt lat="50.072168" lon="4.606385"><time>2026-05-06T18:51:12Z</time></trkpt>
<trkpt lat="50.072042" lon="4.606315"><time>2026-05-06T19:01:12Z</time></trkpt>
<trkpt lat="50.071835" lon="4.606328"><time>2026-05-06T19:11:12Z</time></trkpt>
</trkseg>
</trk>
<trk>
<name>nvvov7</name>
<cmt>r</cmt>
<desc>Olloy-sur-Viroin Chemin n°7 Chemin d'Oignies</desc>
<link href="https://chemins.be/olloy/chemin/7"/><trkseg>
<trkpt lat="50.070529" lon="4.607495"><time>2026-05-06T18:41:12Z</time></trkpt>
<trkpt lat="50.068355" lon="4.606743"><time>2026-05-06T18:51:12Z</time></trkpt>
<trkpt lat="50.067824" lon="4.606769"><time>2026-05-06T19:01:12Z</time></trkpt>
<trkpt lat="50.067266" lon="4.607087"><time>2026-05-06T19:11:12Z</time></trkpt>
<trkpt lat="50.066356" lon="4.608045"><time>2026-05-06T19:21:12Z</time></trkpt>
<trkpt lat="50.065529" lon="4.608352"><time>2026-05-06T19:31:12Z</time></trkpt>
<trkpt lat="50.063802" lon="4.608341"><time>2026-05-06T19:41:12Z</time></trkpt>
<trkpt lat="50.063399" lon="4.607976"><time>2026-05-06T19:51:12Z</time></trkpt>
<trkpt lat="50.062620" lon="4.606282"><time>2026-05-06T20:01:12Z</time></trkpt>
<trkpt lat="50.061955" lon="4.606083"><time>2026-05-06T20:11:12Z</time></trkpt>
<trkpt lat="50.060100" lon="4.607624"><time>2026-05-06T20:21:12Z</time></trkpt>
<trkpt lat="50.055943" lon="4.611073"><time>2026-05-06T20:31:12Z</time></trkpt>
<trkpt lat="50.053812" lon="4.611052"><time>2026-05-06T20:41:12Z</time></trkpt>
<trkpt lat="50.052517" lon="4.611953"><time>2026-05-06T20:51:12Z</time></trkpt>
<trkpt lat="50.048946" lon="4.610109"><time>2026-05-06T21:01:12Z</time></trkpt>
<trkpt lat="50.046280" lon="4.608015"><time>2026-05-06T21:11:12Z</time></trkpt>
<trkpt lat="50.042352" lon="4.607870"><time>2026-05-06T21:21:12Z</time></trkpt>
<trkpt lat="50.039341" lon="4.607297"><time>2026-05-06T21:31:12Z</time></trkpt>
<trkpt lat="50.036193" lon="4.607797"><time>2026-05-06T21:41:12Z</time></trkpt>
<trkpt lat="50.034490" lon="4.609520"><time>2026-05-06T21:51:12Z</time></trkpt>
<trkpt lat="50.032946" lon="4.612624"><time>2026-05-06T22:01:12Z</time></trkpt>
</trkseg>
</trk>
<trk>
<name>nvvov70</name>
<cmt>d</cmt>
<desc>Olloy-sur-Viroin Sentier n°70 </desc>
<link href="https://chemins.be/olloy/sentier/70"/><trkseg>
<trkpt lat="50.071524" lon="4.604468"><time>2026-05-06T18:41:12Z</time></trkpt>
<trkpt lat="50.071058" lon="4.603977"><time>2026-05-06T18:51:12Z</time></trkpt>
<trkpt lat="50.070258" lon="4.604043"><time>2026-05-06T19:01:12Z</time></trkpt>
</trkseg>
</trk>
<trk>
<name>nvvov71</name>
<cmt>d</cmt>
<desc>Olloy-sur-Viroin Sentier n°71 </desc>
<link href="https://chemins.be/olloy/sentier/71"/><trkseg>
<trkpt lat="50.069951" lon="4.604293"><time>2026-05-06T18:41:12Z</time></trkpt>
<trkpt lat="50.069438" lon="4.604500"><time>2026-05-06T18:51:12Z</time></trkpt>
<trkpt lat="50.068953" lon="4.604511"><time>2026-05-06T19:01:12Z</time></trkpt>
<trkpt lat="50.068700" lon="4.604915"><time>2026-05-06T19:11:12Z</time></trkpt>
</trkseg>
</trk>
<trk>
<name>nvvov8</name>
<cmt>r</cmt>
<desc>Olloy-sur-Viroin Chemin n°8 Rue des Florins</desc>
<link href="https://chemins.be/olloy/chemin/8"/><trkseg>
<trkpt lat="50.089993" lon="4.620672"><time>2026-05-06T18:41:12Z</time></trkpt>
<trkpt lat="50.089908" lon="4.622600"><time>2026-05-06T18:51:12Z</time></trkpt>
<trkpt lat="50.090327" lon="4.624084"><time>2026-05-06T19:01:12Z</time></trkpt>
<trkpt lat="50.090680" lon="4.626951"><time>2026-05-06T19:11:12Z</time></trkpt>
<trkpt lat="50.090804" lon="4.628041"><time>2026-05-06T19:21:12Z</time></trkpt>
</trkseg>
</trk>
<trk>
<name>nvvov9</name>
<cmt>v</cmt>
<desc>Olloy-sur-Viroin Chemin n°9 </desc>
<link href="https://chemins.be/olloy/chemin/9"/><trkseg>
<trkpt lat="50.073929" lon="4.615474"><time>2026-05-06T18:41:12Z</time></trkpt>
<trkpt lat="50.073819" lon="4.616522"><time>2026-05-06T18:51:12Z</time></trkpt>
<trkpt lat="50.073278" lon="4.616924"><time>2026-05-06T19:01:12Z</time></trkpt>
<trkpt lat="50.072475" lon="4.618317"><time>2026-05-06T19:11:12Z</time></trkpt>
<trkpt lat="50.072176" lon="4.619489"><time>2026-05-06T19:21:12Z</time></trkpt>
<trkpt lat="50.072017" lon="4.621094"><time>2026-05-06T19:31:12Z</time></trkpt>
<trkpt lat="50.072128" lon="4.621308"><time>2026-05-06T19:41:12Z</time></trkpt>
<trkpt lat="50.072239" lon="4.621859"><time>2026-05-06T19:51:12Z</time></trkpt>
<trkpt lat="50.072582" lon="4.622746"><time>2026-05-06T20:01:12Z</time></trkpt>
<trkpt lat="50.073755" lon="4.623935"><time>2026-05-06T20:11:12Z</time></trkpt>
<trkpt lat="50.074314" lon="4.624501"><time>2026-05-06T20:21:12Z</time></trkpt>
<trkpt lat="50.075831" lon="4.625571"><time>2026-05-06T20:31:12Z</time></trkpt>
<trkpt lat="50.076538" lon="4.626748"><time>2026-05-06T20:41:12Z</time></trkpt>
<trkpt lat="50.076906" lon="4.626960"><time>2026-05-06T20:51:12Z</time></trkpt>
<trkpt lat="50.077194" lon="4.627115"><time>2026-05-06T21:01:12Z</time></trkpt>
<trkpt lat="50.077921" lon="4.627790"><time>2026-05-06T21:11:12Z</time></trkpt>
<trkpt lat="50.078207" lon="4.628560"><time>2026-05-06T21:21:12Z</time></trkpt>
<trkpt lat="50.078591" lon="4.629540"><time>2026-05-06T21:31:12Z</time></trkpt>
<trkpt lat="50.078992" lon="4.631051"><time>2026-05-06T21:41:12Z</time></trkpt>
</trkseg>
</trk>
<trk>
<name>nvvovi1</name>
<cmt>v</cmt>
<desc>Olloy-sur-Viroin Sentier n°i1 </desc>
<link href="https://chemins.be/olloy/sentier/i1"/><trkseg>
<trkpt lat="50.072623" lon="4.607854"><time>2026-05-06T18:41:12Z</time></trkpt>
<trkpt lat="50.072549" lon="4.608888"><time>2026-05-06T18:51:12Z</time></trkpt>
<trkpt lat="50.072465" lon="4.610522"><time>2026-05-06T19:01:12Z</time></trkpt>
</trkseg>
</trk>
<trk>
<name>nvvovi10</name>
<cmt>v</cmt>
<desc>Olloy-sur-Viroin Chemin n°i10 </desc>
<link href="https://chemins.be/olloy/chemin/i10"/><trkseg>
<trkpt lat="50.070415" lon="4.614548"><time>2026-05-06T18:41:12Z</time></trkpt>
<trkpt lat="50.070397" lon="4.614939"><time>2026-05-06T18:51:12Z</time></trkpt>
<trkpt lat="50.069711" lon="4.615997"><time>2026-05-06T19:01:12Z</time></trkpt>
<trkpt lat="50.069088" lon="4.617209"><time>2026-05-06T19:11:12Z</time></trkpt>
<trkpt lat="50.069013" lon="4.618857"><time>2026-05-06T19:21:12Z</time></trkpt>
<trkpt lat="50.069146" lon="4.619514"><time>2026-05-06T19:31:12Z</time></trkpt>
<trkpt lat="50.069661" lon="4.622873"><time>2026-05-06T19:41:12Z</time></trkpt>
<trkpt lat="50.070385" lon="4.624368"><time>2026-05-06T19:51:12Z</time></trkpt>
<trkpt lat="50.070660" lon="4.626172"><time>2026-05-06T20:01:12Z</time></trkpt>
<trkpt lat="50.071162" lon="4.626579"><time>2026-05-06T20:11:12Z</time></trkpt>
<trkpt lat="50.072122" lon="4.627381"><time>2026-05-06T20:21:12Z</time></trkpt>
</trkseg>
</trk>
<trk>
<name>nvvovi11</name>
<cmt>v</cmt>
<desc>Olloy-sur-Viroin Chemin n°i11 </desc>
<link href="https://chemins.be/olloy/chemin/i11"/><trkseg>
<trkpt lat="50.068306" lon="4.604313"><time>2026-05-06T18:41:12Z</time></trkpt>
<trkpt lat="50.067977" lon="4.602370"><time>2026-05-06T18:51:12Z</time></trkpt>
<trkpt lat="50.068154" lon="4.599591"><time>2026-05-06T19:01:12Z</time></trkpt>
</trkseg>
</trk>
<trk>
<name>nvvovi12</name>
<cmt>v</cmt>
<desc>Olloy-sur-Viroin Chemin n°i12 </desc>
<link href="https://chemins.be/olloy/chemin/i12"/><trkseg>
<trkpt lat="50.079337" lon="4.604605"><time>2026-05-06T18:41:12Z</time></trkpt>
<trkpt lat="50.079515" lon="4.605262"><time>2026-05-06T18:51:12Z</time></trkpt>
<trkpt lat="50.079952" lon="4.607039"><time>2026-05-06T19:01:12Z</time></trkpt>
<trkpt lat="50.080015" lon="4.607025"><time>2026-05-06T19:11:12Z</time></trkpt>
<trkpt lat="50.080107" lon="4.606243"><time>2026-05-06T19:21:12Z</time></trkpt>
<trkpt lat="50.079920" lon="4.605069"><time>2026-05-06T19:31:12Z</time></trkpt>
<trkpt lat="50.080746" lon="4.604556"><time>2026-05-06T19:41:12Z</time></trkpt>
<trkpt lat="50.081221" lon="4.604191"><time>2026-05-06T19:51:12Z</time></trkpt>
</trkseg>
</trk>
<trk>
<name>nvvovi13</name>
<cmt>v</cmt>
<desc>Olloy-sur-Viroin Chemin n°i13 </desc>
<link href="https://chemins.be/olloy/chemin/i13"/><trkseg>
<trkpt lat="50.076100" lon="4.581957"><time>2026-05-06T18:41:12Z</time></trkpt>
<trkpt lat="50.076469" lon="4.581400"><time>2026-05-06T18:51:12Z</time></trkpt>
<trkpt lat="50.076353" lon="4.581148"><time>2026-05-06T19:01:12Z</time></trkpt>
<trkpt lat="50.076218" lon="4.581063"><time>2026-05-06T19:11:12Z</time></trkpt>
</trkseg>
</trk>
<trk>
<name>nvvovi14</name>
<cmt>v</cmt>
<desc>Olloy-sur-Viroin Chemin n°i14 </desc>
<link href="https://chemins.be/olloy/chemin/i14"/><trkseg>
<trkpt lat="50.073781" lon="4.595441"><time>2026-05-06T18:41:12Z</time></trkpt>
<trkpt lat="50.073874" lon="4.594128"><time>2026-05-06T18:51:12Z</time></trkpt>
</trkseg>
</trk>
<trk>
<name>nvvovi15</name>
<cmt>v</cmt>
<desc>Olloy-sur-Viroin Chemin n°i15 Rue Champagne Camping</desc>
<link href="https://chemins.be/olloy/chemin/i15"/><trkseg>
<trkpt lat="50.068197" lon="4.596085"><time>2026-05-06T18:41:12Z</time></trkpt>
<trkpt lat="50.067650" lon="4.595216"><time>2026-05-06T18:51:12Z</time></trkpt>
<trkpt lat="50.066667" lon="4.591915"><time>2026-05-06T19:01:12Z</time></trkpt>
<trkpt lat="50.066202" lon="4.590726"><time>2026-05-06T19:11:12Z</time></trkpt>
<trkpt lat="50.064909" lon="4.589938"><time>2026-05-06T19:21:12Z</time></trkpt>
<trkpt lat="50.063212" lon="4.588952"><time>2026-05-06T19:31:12Z</time></trkpt>
</trkseg>
</trk>
<trk>
<name>nvvovi16</name>
<cmt>v</cmt>
<desc>Olloy-sur-Viroin Chemin n°i16 </desc>
<link href="https://chemins.be/olloy/chemin/i16"/><trkseg>
<trkpt lat="50.066444" lon="4.591453"><time>2026-05-06T18:41:12Z</time></trkpt>
<trkpt lat="50.065860" lon="4.591115"><time>2026-05-06T18:51:12Z</time></trkpt>
<trkpt lat="50.065087" lon="4.591098"><time>2026-05-06T19:01:12Z</time></trkpt>
</trkseg>
</trk>
<trk>
<name>nvvovi17</name>
<cmt>v</cmt>
<desc>Olloy-sur-Viroin Sentier n°i17 </desc>
<link href="https://chemins.be/olloy/sentier/i17"/><trkseg>
<trkpt lat="50.072947" lon="4.607870"><time>2026-05-06T18:41:12Z</time></trkpt>
<trkpt lat="50.073297" lon="4.607886"><time>2026-05-06T18:51:12Z</time></trkpt>
<trkpt lat="50.073460" lon="4.607747"><time>2026-05-06T19:01:12Z</time></trkpt>
</trkseg>
</trk>
<trk>
<name>nvvovi18</name>
<cmt>v</cmt>
<desc>Olloy-sur-Viroin Chemin n°i18 </desc>
<link href="https://chemins.be/olloy/chemin/i18"/><trkseg>
<trkpt lat="50.073784" lon="4.607301"><time>2026-05-06T18:41:12Z</time></trkpt>
<trkpt lat="50.073838" lon="4.607455"><time>2026-05-06T18:51:12Z</time></trkpt>
</trkseg>
</trk>
<trk>
<name>nvvovi19</name>
<cmt>v</cmt>
<desc>Olloy-sur-Viroin Chemin n°i19 </desc>
<link href="https://chemins.be/olloy/chemin/i19"/><trkseg>
<trkpt lat="50.077224" lon="4.617615"><time>2026-05-06T18:41:12Z</time></trkpt>
<trkpt lat="50.077231" lon="4.618216"><time>2026-05-06T18:51:12Z</time></trkpt>
<trkpt lat="50.077159" lon="4.618355"><time>2026-05-06T19:01:12Z</time></trkpt>
<trkpt lat="50.076970" lon="4.618340"><time>2026-05-06T19:11:12Z</time></trkpt>
<trkpt lat="50.076224" lon="4.618630"><time>2026-05-06T19:21:12Z</time></trkpt>
<trkpt lat="50.075917" lon="4.618963"><time>2026-05-06T19:31:12Z</time></trkpt>
</trkseg>
</trk>
<trk>
<name>nvvovi2</name>
<cmt>v</cmt>
<desc>Olloy-sur-Viroin Sentier n°i2 Sentier du Monument</desc>
<link href="https://chemins.be/olloy/sentier/i2"/><trkseg>
<trkpt lat="50.070623" lon="4.609898"><time>2026-05-06T18:41:12Z</time></trkpt>
<trkpt lat="50.070507" lon="4.609590"><time>2026-05-06T18:51:12Z</time></trkpt>
<trkpt lat="50.070175" lon="4.609211"><time>2026-05-06T19:01:12Z</time></trkpt>
<trkpt lat="50.069689" lon="4.608562"><time>2026-05-06T19:11:12Z</time></trkpt>
<trkpt lat="50.069597" lon="4.608498"><time>2026-05-06T19:21:12Z</time></trkpt>
<trkpt lat="50.069545" lon="4.608508"><time>2026-05-06T19:31:12Z</time></trkpt>
<trkpt lat="50.069498" lon="4.608382"><time>2026-05-06T19:41:12Z</time></trkpt>
<trkpt lat="50.068955" lon="4.608087"><time>2026-05-06T19:51:12Z</time></trkpt>
<trkpt lat="50.068119" lon="4.607608"><time>2026-05-06T20:01:12Z</time></trkpt>
<trkpt lat="50.067868" lon="4.607593"><time>2026-05-06T20:11:12Z</time></trkpt>
<trkpt lat="50.067788" lon="4.606866"><time>2026-05-06T20:21:12Z</time></trkpt>
</trkseg>
</trk>
<trk>
<name>nvvovi20</name>
<cmt>v</cmt>
<desc>Olloy-sur-Viroin Chemin n°i20 </desc>
<link href="https://chemins.be/olloy/chemin/i20"/><trkseg>
<trkpt lat="50.077141" lon="4.618439"><time>2026-05-06T18:41:12Z</time></trkpt>
<trkpt lat="50.077230" lon="4.618663"><time>2026-05-06T18:51:12Z</time></trkpt>
<trkpt lat="50.077419" lon="4.618832"><time>2026-05-06T19:01:12Z</time></trkpt>
<trkpt lat="50.077536" lon="4.618832"><time>2026-05-06T19:11:12Z</time></trkpt>
</trkseg>
</trk>
<trk>
<name>nvvovi21</name>
<cmt>v</cmt>
<desc>Olloy-sur-Viroin Chemin n°i21 </desc>
<link href="https://chemins.be/olloy/chemin/i21"/><trkseg>
<trkpt lat="50.077778" lon="4.619099"><time>2026-05-06T18:41:12Z</time></trkpt>
<trkpt lat="50.078173" lon="4.619324"><time>2026-05-06T18:51:12Z</time></trkpt>
<trkpt lat="50.079289" lon="4.621022"><time>2026-05-06T19:01:12Z</time></trkpt>
<trkpt lat="50.080028" lon="4.620886"><time>2026-05-06T19:11:12Z</time></trkpt>
</trkseg>
</trk>
<trk>
<name>nvvovi22</name>
<cmt>v</cmt>
<desc>Olloy-sur-Viroin Chemin n°i22 </desc>
<link href="https://chemins.be/olloy/chemin/i22"/><trkseg>
<trkpt lat="50.078669" lon="4.622792"><time>2026-05-06T18:41:12Z</time></trkpt>
<trkpt lat="50.078928" lon="4.623506"><time>2026-05-06T18:51:12Z</time></trkpt>
<trkpt lat="50.079268" lon="4.624178"><time>2026-05-06T19:01:12Z</time></trkpt>
<trkpt lat="50.079761" lon="4.625061"><time>2026-05-06T19:11:12Z</time></trkpt>
<trkpt lat="50.080012" lon="4.625314"><time>2026-05-06T19:21:12Z</time></trkpt>
<trkpt lat="50.080344" lon="4.625469"><time>2026-05-06T19:31:12Z</time></trkpt>
<trkpt lat="50.080767" lon="4.625514"><time>2026-05-06T19:41:12Z</time></trkpt>
</trkseg>
</trk>
<trk>
<name>nvvovi23</name>
<cmt>v</cmt>
<desc>Olloy-sur-Viroin Chemin n°i23 </desc>
<link href="https://chemins.be/olloy/chemin/i23"/><trkseg>
<trkpt lat="50.057619" lon="4.593688"><time>2026-05-06T18:41:12Z</time></trkpt>
<trkpt lat="50.057456" lon="4.593068"><time>2026-05-06T18:51:12Z</time></trkpt>
<trkpt lat="50.056957" lon="4.592135"><time>2026-05-06T19:01:12Z</time></trkpt>
</trkseg>
</trk>
<trk>
<name>nvvovi24</name>
<cmt>v</cmt>
<desc>Olloy-sur-Viroin Chemin n°i24 Chemin du Vicinal</desc>
<link href="https://chemins.be/olloy/chemin/i24"/><trkseg>
<trkpt lat="50.056210" lon="4.592551"><time>2026-05-06T18:41:12Z</time></trkpt>
<trkpt lat="50.055077" lon="4.592545"><time>2026-05-06T18:51:12Z</time></trkpt>
<trkpt lat="50.053621" lon="4.592650"><time>2026-05-06T19:01:12Z</time></trkpt>
<trkpt lat="50.051025" lon="4.591284"><time>2026-05-06T19:11:12Z</time></trkpt>
<trkpt lat="50.050225" lon="4.591001"><time>2026-05-06T19:21:12Z</time></trkpt>
<trkpt lat="50.049523" lon="4.591779"><time>2026-05-06T19:31:12Z</time></trkpt>
<trkpt lat="50.047694" lon="4.593711"><time>2026-05-06T19:41:12Z</time></trkpt>
<trkpt lat="50.046237" lon="4.593788"><time>2026-05-06T19:51:12Z</time></trkpt>
<trkpt lat="50.045633" lon="4.594442"><time>2026-05-06T20:01:12Z</time></trkpt>
<trkpt lat="50.043234" lon="4.593621"><time>2026-05-06T20:11:12Z</time></trkpt>
<trkpt lat="50.041061" lon="4.592633"><time>2026-05-06T20:21:12Z</time></trkpt>
<trkpt lat="50.040764" lon="4.592785"><time>2026-05-06T20:31:12Z</time></trkpt>
<trkpt lat="50.039553" lon="4.595627"><time>2026-05-06T20:41:12Z</time></trkpt>
<trkpt lat="50.037277" lon="4.596538"><time>2026-05-06T20:51:12Z</time></trkpt>
<trkpt lat="50.035452" lon="4.596264"><time>2026-05-06T21:01:12Z</time></trkpt>
<trkpt lat="50.032667" lon="4.598356"><time>2026-05-06T21:11:12Z</time></trkpt>
<trkpt lat="50.032405" lon="4.599180"><time>2026-05-06T21:21:12Z</time></trkpt>
</trkseg>
</trk>
<trk>
<name>nvvovi25</name>
<cmt>v</cmt>
<desc>Olloy-sur-Viroin Chemin n°i25 </desc>
<link href="https://chemins.be/olloy/chemin/i25"/><trkseg>
<trkpt lat="50.078002" lon="4.606554"><time>2026-05-06T18:41:12Z</time></trkpt>
<trkpt lat="50.078200" lon="4.606541"><time>2026-05-06T18:51:12Z</time></trkpt>
</trkseg>
</trk>
<trk>
<name>nvvovi26</name>
<cmt>v</cmt>
<desc>Olloy-sur-Viroin Chemin n°i26 Chemin du Bassin</desc>
<link href="https://chemins.be/olloy/chemin/i26"/><trkseg>
<trkpt lat="50.057077" lon="4.619236"><time>2026-05-06T18:41:12Z</time></trkpt>
<trkpt lat="50.055219" lon="4.619497"><time>2026-05-06T18:51:12Z</time></trkpt>
<trkpt lat="50.053791" lon="4.619029"><time>2026-05-06T19:01:12Z</time></trkpt>
<trkpt lat="50.053315" lon="4.618789"><time>2026-05-06T19:11:12Z</time></trkpt>
<trkpt lat="50.052400" lon="4.618627"><time>2026-05-06T19:21:12Z</time></trkpt>
</trkseg>
</trk>
<trk>
<name>nvvovi27</name>
<cmt>d</cmt>
<desc>Olloy-sur-Viroin Chemin n°i27 Chemin du Bois de Wallen</desc>
<link href="https://chemins.be/olloy/chemin/i27"/><trkseg>
<trkpt lat="50.080094" lon="4.599299"><time>2026-05-06T18:41:12Z</time></trkpt>
<trkpt lat="50.081275" lon="4.602016"><time>2026-05-06T18:51:12Z</time></trkpt>
<trkpt lat="50.082155" lon="4.602509"><time>2026-05-06T19:01:12Z</time></trkpt>
</trkseg>
</trk>
<trk>
<name>nvvovi28</name>
<cmt>v</cmt>
<desc>Olloy-sur-Viroin Sentier n°i28 </desc>
<link href="https://chemins.be/olloy/sentier/i28"/><trkseg>
<trkpt lat="50.080335" lon="4.625483"><time>2026-05-06T18:41:12Z</time></trkpt>
<trkpt lat="50.080469" lon="4.626183"><time>2026-05-06T18:51:12Z</time></trkpt>
<trkpt lat="50.080360" lon="4.626517"><time>2026-05-06T19:01:12Z</time></trkpt>
<trkpt lat="50.080665" lon="4.626743"><time>2026-05-06T19:11:12Z</time></trkpt>
</trkseg>
</trk>
<trk>
<name>nvvovi29</name>
<cmt>v</cmt>
<desc>Olloy-sur-Viroin Chemin n°i29 Rue Jean Chot</desc>
<link href="https://chemins.be/olloy/chemin/i29"/><trkseg>
<trkpt lat="50.073389" lon="4.602648"><time>2026-05-06T18:41:12Z</time></trkpt>
<trkpt lat="50.073417" lon="4.602019"><time>2026-05-06T18:51:12Z</time></trkpt>
<trkpt lat="50.073474" lon="4.600790"><time>2026-05-06T19:01:12Z</time></trkpt>
<trkpt lat="50.073603" lon="4.599338"><time>2026-05-06T19:11:12Z</time></trkpt>
<trkpt lat="50.073631" lon="4.598402"><time>2026-05-06T19:21:12Z</time></trkpt>
<trkpt lat="50.073677" lon="4.598248"><time>2026-05-06T19:31:12Z</time></trkpt>
<trkpt lat="50.073723" lon="4.597550"><time>2026-05-06T19:41:12Z</time></trkpt>
<trkpt lat="50.073752" lon="4.596614"><time>2026-05-06T19:51:12Z</time></trkpt>
<trkpt lat="50.073825" lon="4.595986"><time>2026-05-06T20:01:12Z</time></trkpt>
</trkseg>
</trk>
<trk>
<name>nvvovi3</name>
<cmt>v</cmt>
<desc>Olloy-sur-Viroin Sentier n°i3 </desc>
<link href="https://chemins.be/olloy/sentier/i3"/><trkseg>
<trkpt lat="50.067479" lon="4.608848"><time>2026-05-06T18:41:12Z</time></trkpt>
<trkpt lat="50.067533" lon="4.608360"><time>2026-05-06T18:51:12Z</time></trkpt>
<trkpt lat="50.067992" lon="4.608124"><time>2026-05-06T19:01:12Z</time></trkpt>
<trkpt lat="50.068119" lon="4.607664"><time>2026-05-06T19:11:12Z</time></trkpt>
</trkseg>
</trk>
<trk>
<name>nvvovi30</name>
<cmt>s</cmt>
<desc>Olloy-sur-Viroin Sentier n°i30 </desc>
<link href="https://chemins.be/olloy/sentier/i30"/><trkseg>
<trkpt lat="50.073589" lon="4.601782"><time>2026-05-06T18:41:12Z</time></trkpt>
<trkpt lat="50.073472" lon="4.601698"><time>2026-05-06T18:51:12Z</time></trkpt>
<trkpt lat="50.073233" lon="4.601687"><time>2026-05-06T19:01:12Z</time></trkpt>
<trkpt lat="50.072285" lon="4.601748"><time>2026-05-06T19:11:12Z</time></trkpt>
</trkseg>
</trk>
<trk>
<name>nvvovi31</name>
<cmt>v</cmt>
<desc>Olloy-sur-Viroin Chemin n°i31 Rue Coliche</desc>
<link href="https://chemins.be/olloy/chemin/i31"/><trkseg>
<trkpt lat="50.074453" lon="4.607539"><time>2026-05-06T18:41:12Z</time></trkpt>
<trkpt lat="50.074537" lon="4.608325"><time>2026-05-06T18:51:12Z</time></trkpt>
</trkseg>
</trk>
<trk>
<name>nvvovi32</name>
<cmt>v</cmt>
<desc>Olloy-sur-Viroin Sentier n°i32 </desc>
<link href="https://chemins.be/olloy/sentier/i32"/><trkseg>
<trkpt lat="50.073685" lon="4.616046"><time>2026-05-06T18:41:12Z</time></trkpt>
<trkpt lat="50.073387" lon="4.616519"><time>2026-05-06T18:51:12Z</time></trkpt>
<trkpt lat="50.072335" lon="4.616793"><time>2026-05-06T19:01:12Z</time></trkpt>
<trkpt lat="50.072154" lon="4.617016"><time>2026-05-06T19:11:12Z</time></trkpt>
<trkpt lat="50.071909" lon="4.618244"><time>2026-05-06T19:21:12Z</time></trkpt>
<trkpt lat="50.071827" lon="4.618537"><time>2026-05-06T19:31:12Z</time></trkpt>
<trkpt lat="50.071396" lon="4.618646"><time>2026-05-06T19:41:12Z</time></trkpt>
<trkpt lat="50.070927" lon="4.618923"><time>2026-05-06T19:51:12Z</time></trkpt>
<trkpt lat="50.070449" lon="4.619633"><time>2026-05-06T20:01:12Z</time></trkpt>
<trkpt lat="50.069829" lon="4.619783"><time>2026-05-06T20:11:12Z</time></trkpt>
</trkseg>
</trk>
<trk>
<name>nvvovi33</name>
<cmt>v</cmt>
<desc>Olloy-sur-Viroin Chemin n°i33 </desc>
<link href="https://chemins.be/olloy/chemin/i33"/><trkseg>
<trkpt lat="50.065071" lon="4.590092"><time>2026-05-06T18:41:12Z</time></trkpt>
<trkpt lat="50.064797" lon="4.596851"><time>2026-05-06T18:51:12Z</time></trkpt>
</trkseg>
</trk>
<trk>
<name>nvvovi34</name>
<cmt>v</cmt>
<desc>Olloy-sur-Viroin Chemin n°i34 </desc>
<link href="https://chemins.be/olloy/chemin/i34"/><trkseg>
<trkpt lat="50.064752" lon="4.596962"><time>2026-05-06T18:41:12Z</time></trkpt>
<trkpt lat="50.060851" lon="4.596245"><time>2026-05-06T18:51:12Z</time></trkpt>
<trkpt lat="50.059434" lon="4.594591"><time>2026-05-06T19:01:12Z</time></trkpt>
</trkseg>
</trk>
<trk>
<name>nvvovi35</name>
<cmt>v</cmt>
<desc>Olloy-sur-Viroin Chemin n°i35 </desc>
<link href="https://chemins.be/olloy/chemin/i35"/><trkseg>
<trkpt lat="50.076048" lon="4.594977"><time>2026-05-06T18:41:12Z</time></trkpt>
<trkpt lat="50.076415" lon="4.595649"><time>2026-05-06T18:51:12Z</time></trkpt>
<trkpt lat="50.077465" lon="4.596576"><time>2026-05-06T19:01:12Z</time></trkpt>
<trkpt lat="50.077652" lon="4.597373"><time>2026-05-06T19:11:12Z</time></trkpt>
<trkpt lat="50.077607" lon="4.597639"><time>2026-05-06T19:21:12Z</time></trkpt>
<trkpt lat="50.077768" lon="4.598073"><time>2026-05-06T19:31:12Z</time></trkpt>
<trkpt lat="50.077570" lon="4.598197"><time>2026-05-06T19:41:12Z</time></trkpt>
</trkseg>
</trk>
<trk>
<name>nvvovi36</name>
<cmt>s</cmt>
<desc>Olloy-sur-Viroin Sentier n°i36 </desc>
<link href="https://chemins.be/olloy/sentier/i36"/><trkseg>
<trkpt lat="50.077528" lon="4.596465"><time>2026-05-06T18:41:12Z</time></trkpt>
<trkpt lat="50.077691" lon="4.596032"><time>2026-05-06T18:51:12Z</time></trkpt>
<trkpt lat="50.077791" lon="4.595628"><time>2026-05-06T19:01:12Z</time></trkpt>
<trkpt lat="50.077908" lon="4.595531"><time>2026-05-06T19:11:12Z</time></trkpt>
</trkseg>
</trk>
<trk>
<name>nvvovi37</name>
<cmt>v</cmt>
<desc>Olloy-sur-Viroin Chemin n°i37 </desc>
<link href="https://chemins.be/olloy/chemin/i37"/><trkseg>
<trkpt lat="50.068441" lon="4.613373"><time>2026-05-06T18:41:12Z</time></trkpt>
<trkpt lat="50.068000" lon="4.613877"><time>2026-05-06T18:51:12Z</time></trkpt>
<trkpt lat="50.067670" lon="4.613995"><time>2026-05-06T19:01:12Z</time></trkpt>
<trkpt lat="50.067077" lon="4.614564"><time>2026-05-06T19:11:12Z</time></trkpt>
<trkpt lat="50.066258" lon="4.615808"><time>2026-05-06T19:21:12Z</time></trkpt>
<trkpt lat="50.065267" lon="4.617427"><time>2026-05-06T19:31:12Z</time></trkpt>
<trkpt lat="50.064555" lon="4.618219"><time>2026-05-06T19:41:12Z</time></trkpt>
<trkpt lat="50.063906" lon="4.618733"><time>2026-05-06T19:51:12Z</time></trkpt>
<trkpt lat="50.063231" lon="4.619092"><time>2026-05-06T20:01:12Z</time></trkpt>
<trkpt lat="50.060399" lon="4.619203"><time>2026-05-06T20:11:12Z</time></trkpt>
<trkpt lat="50.060156" lon="4.619300"><time>2026-05-06T20:21:12Z</time></trkpt>
</trkseg>
</trk>
<trk>
<name>nvvovi38</name>
<cmt>v</cmt>
<desc>Olloy-sur-Viroin Sentier n°i38 </desc>
<link href="https://chemins.be/olloy/sentier/i38"/><trkseg>
<trkpt lat="50.077318" lon="4.589143"><time>2026-05-06T18:41:12Z</time></trkpt>
<trkpt lat="50.077201" lon="4.589198"><time>2026-05-06T18:51:12Z</time></trkpt>
<trkpt lat="50.076940" lon="4.589295"><time>2026-05-06T19:01:12Z</time></trkpt>
<trkpt lat="50.076724" lon="4.589322"><time>2026-05-06T19:11:12Z</time></trkpt>
<trkpt lat="50.076564" lon="4.588609"><time>2026-05-06T19:21:12Z</time></trkpt>
<trkpt lat="50.076430" lon="4.587742"><time>2026-05-06T19:31:12Z</time></trkpt>
<trkpt lat="50.076395" lon="4.587323"><time>2026-05-06T19:41:12Z</time></trkpt>
<trkpt lat="50.076333" lon="4.587015"><time>2026-05-06T19:51:12Z</time></trkpt>
<trkpt lat="50.076243" lon="4.586903"><time>2026-05-06T20:01:12Z</time></trkpt>
<trkpt lat="50.076198" lon="4.586819"><time>2026-05-06T20:11:12Z</time></trkpt>
<trkpt lat="50.076208" lon="4.586595"><time>2026-05-06T20:21:12Z</time></trkpt>
<trkpt lat="50.076109" lon="4.586721"><time>2026-05-06T20:31:12Z</time></trkpt>
<trkpt lat="50.075956" lon="4.586832"><time>2026-05-06T20:41:12Z</time></trkpt>
<trkpt lat="50.075911" lon="4.586538"><time>2026-05-06T20:51:12Z</time></trkpt>
<trkpt lat="50.075831" lon="4.586035"><time>2026-05-06T21:01:12Z</time></trkpt>
<trkpt lat="50.075733" lon="4.585629"><time>2026-05-06T21:11:12Z</time></trkpt>
<trkpt lat="50.075644" lon="4.585126"><time>2026-05-06T21:21:12Z</time></trkpt>
<trkpt lat="50.075564" lon="4.584832"><time>2026-05-06T21:31:12Z</time></trkpt>
<trkpt lat="50.075429" lon="4.584720"><time>2026-05-06T21:41:12Z</time></trkpt>
</trkseg>
</trk>
<trk>
<name>nvvovi39</name>
<cmt>v</cmt>
<desc>Olloy-sur-Viroin Sentier n°i39 </desc>
<link href="https://chemins.be/olloy/sentier/i39"/><trkseg>
<trkpt lat="50.079036" lon="4.611212"><time>2026-05-06T18:41:12Z</time></trkpt>
<trkpt lat="50.078286" lon="4.611541"><time>2026-05-06T18:51:12Z</time></trkpt>
<trkpt lat="50.078197" lon="4.612485"><time>2026-05-06T19:01:12Z</time></trkpt>
<trkpt lat="50.078352" lon="4.615163"><time>2026-05-06T19:11:12Z</time></trkpt>
<trkpt lat="50.079619" lon="4.620777"><time>2026-05-06T19:21:12Z</time></trkpt>
</trkseg>
</trk>
<trk>
<name>nvvovi4</name>
<cmt>v</cmt>
<desc>Olloy-sur-Viroin Chemin n°i4 </desc>
<link href="https://chemins.be/olloy/chemin/i4"/><trkseg>
<trkpt lat="50.075963" lon="4.597030"><time>2026-05-06T18:41:12Z</time></trkpt>
<trkpt lat="50.076049" lon="4.594446"><time>2026-05-06T18:51:12Z</time></trkpt>
<trkpt lat="50.075560" lon="4.591440"><time>2026-05-06T19:01:12Z</time></trkpt>
<trkpt lat="50.075689" lon="4.590016"><time>2026-05-06T19:11:12Z</time></trkpt>
<trkpt lat="50.075407" lon="4.587095"><time>2026-05-06T19:21:12Z</time></trkpt>
<trkpt lat="50.075521" lon="4.583812"><time>2026-05-06T19:31:12Z</time></trkpt>
<trkpt lat="50.076099" lon="4.582027"><time>2026-05-06T19:41:12Z</time></trkpt>
<trkpt lat="50.076720" lon="4.581862"><time>2026-05-06T19:51:12Z</time></trkpt>
<trkpt lat="50.076827" lon="4.582477"><time>2026-05-06T20:01:12Z</time></trkpt>
<trkpt lat="50.077542" lon="4.589256"><time>2026-05-06T20:11:12Z</time></trkpt>
<trkpt lat="50.077356" lon="4.592776"><time>2026-05-06T20:21:12Z</time></trkpt>
<trkpt lat="50.077807" lon="4.594902"><time>2026-05-06T20:31:12Z</time></trkpt>
<trkpt lat="50.077961" lon="4.595607"><time>2026-05-06T20:41:12Z</time></trkpt>
<trkpt lat="50.079977" lon="4.599117"><time>2026-05-06T20:51:12Z</time></trkpt>
</trkseg>
</trk>
<trk>
<name>nvvovi40</name>
<cmt>v</cmt>
<desc>Olloy-sur-Viroin Sentier n°i40 </desc>
<link href="https://chemins.be/olloy/sentier/i40"/><trkseg>
<trkpt lat="50.079515" lon="4.605276"><time>2026-05-06T18:41:12Z</time></trkpt>
<trkpt lat="50.079911" lon="4.605069"><time>2026-05-06T18:51:12Z</time></trkpt>
</trkseg>
</trk>
<trk>
<name>nvvovi41</name>
<cmt>r</cmt>
<desc>Olloy-sur-Viroin Chemin n°i41 </desc>
<link href="https://chemins.be/olloy/chemin/i41"/><trkseg>
<trkpt lat="50.072824" lon="4.607641"><time>2026-05-06T18:41:12Z</time></trkpt>
<trkpt lat="50.072232" lon="4.608204"><time>2026-05-06T18:51:12Z</time></trkpt>
<trkpt lat="50.071994" lon="4.608124"><time>2026-05-06T19:01:12Z</time></trkpt>
</trkseg>
</trk>
<trk>
<name>nvvovi42</name>
<cmt>r</cmt>
<desc>Olloy-sur-Viroin Chemin n°i42 Rue Alfred Soussigné</desc>
<link href="https://chemins.be/olloy/chemin/i42"/><trkseg>
<trkpt lat="50.074253" lon="4.607595"><time>2026-05-06T18:41:12Z</time></trkpt>
<trkpt lat="50.074907" lon="4.607405"><time>2026-05-06T18:51:12Z</time></trkpt>
</trkseg>
</trk>
<trk>
<name>nvvovi43</name>
<cmt>v</cmt>
<desc>Olloy-sur-Viroin Chemin n°i43 </desc>
<link href="https://chemins.be/olloy/chemin/i43"/><trkseg>
<trkpt lat="50.064786" lon="4.605555"><time>2026-05-06T18:41:12Z</time></trkpt>
<trkpt lat="50.065305" lon="4.605033"><time>2026-05-06T18:51:12Z</time></trkpt>
<trkpt lat="50.065337" lon="4.604654"><time>2026-05-06T19:01:12Z</time></trkpt>
<trkpt lat="50.064919" lon="4.603166"><time>2026-05-06T19:11:12Z</time></trkpt>
</trkseg>
</trk>
<trk>
<name>nvvovi44</name>
<cmt>v</cmt>
<desc>Olloy-sur-Viroin Sentier n°i44 </desc>
<link href="https://chemins.be/olloy/sentier/i44"/><trkseg>
<trkpt lat="50.070680" lon="4.626102"><time>2026-05-06T18:41:12Z</time></trkpt>
<trkpt lat="50.067685" lon="4.629759"><time>2026-05-06T18:51:12Z</time></trkpt>
<trkpt lat="50.065233" lon="4.630939"><time>2026-05-06T19:01:12Z</time></trkpt>
<trkpt lat="50.063371" lon="4.633473"><time>2026-05-06T19:11:12Z</time></trkpt>
</trkseg>
</trk>
<trk>
<name>nvvovi45</name>
<cmt>v</cmt>
<desc>Olloy-sur-Viroin Chemin n°i45 </desc>
<link href="https://chemins.be/olloy/chemin/i45"/><trkseg>
<trkpt lat="50.083048" lon="4.614481"><time>2026-05-06T18:41:12Z</time></trkpt>
<trkpt lat="50.082621" lon="4.616155"><time>2026-05-06T18:51:12Z</time></trkpt>
<trkpt lat="50.081900" lon="4.616877"><time>2026-05-06T19:01:12Z</time></trkpt>
</trkseg>
</trk>
<trk>
<name>nvvovi46</name>
<cmt>v</cmt>
<desc>Olloy-sur-Viroin Sentier n°i46 </desc>
<link href="https://chemins.be/olloy/sentier/i46"/><trkseg>
<trkpt lat="50.062578" lon="4.598590"><time>2026-05-06T18:41:12Z</time></trkpt>
<trkpt lat="50.061852" lon="4.597861"><time>2026-05-06T18:51:12Z</time></trkpt>
<trkpt lat="50.061871" lon="4.594470"><time>2026-05-06T19:01:12Z</time></trkpt>
<trkpt lat="50.063037" lon="4.589707"><time>2026-05-06T19:11:12Z</time></trkpt>
<trkpt lat="50.063028" lon="4.589020"><time>2026-05-06T19:21:12Z</time></trkpt>
</trkseg>
</trk>
<trk>
<name>nvvovi47</name>
<cmt>v</cmt>
<desc>Olloy-sur-Viroin Sentier n°i47 </desc>
<link href="https://chemins.be/olloy/sentier/i47"/><trkseg>
<trkpt lat="50.068211" lon="4.616057"><time>2026-05-06T18:41:12Z</time></trkpt>
<trkpt lat="50.067715" lon="4.615256"><time>2026-05-06T18:51:12Z</time></trkpt>
<trkpt lat="50.066236" lon="4.619375"><time>2026-05-06T19:01:12Z</time></trkpt>
<trkpt lat="50.066347" lon="4.619719"><time>2026-05-06T19:11:12Z</time></trkpt>
<trkpt lat="50.066209" lon="4.620177"><time>2026-05-06T19:21:12Z</time></trkpt>
<trkpt lat="50.065933" lon="4.620291"><time>2026-05-06T19:31:12Z</time></trkpt>
<trkpt lat="50.064446" lon="4.622194"><time>2026-05-06T19:41:12Z</time></trkpt>
<trkpt lat="50.061048" lon="4.623209"><time>2026-05-06T19:51:12Z</time></trkpt>
<trkpt lat="50.058155" lon="4.628173"><time>2026-05-06T20:01:12Z</time></trkpt>
<trkpt lat="50.057953" lon="4.629203"><time>2026-05-06T20:11:12Z</time></trkpt>
</trkseg>
</trk>
<trk>
<name>nvvovi48</name>
<cmt>v</cmt>
<desc>Olloy-sur-Viroin Chemin n°i48 </desc>
<link href="https://chemins.be/olloy/chemin/i48"/><trkseg>
<trkpt lat="50.058311" lon="4.596946"><time>2026-05-06T18:41:12Z</time></trkpt>
<trkpt lat="50.058133" lon="4.596994"><time>2026-05-06T18:51:12Z</time></trkpt>
<trkpt lat="50.057702" lon="4.597262"><time>2026-05-06T19:01:12Z</time></trkpt>
<trkpt lat="50.056346" lon="4.598776"><time>2026-05-06T19:11:12Z</time></trkpt>
<trkpt lat="50.055225" lon="4.601594"><time>2026-05-06T19:21:12Z</time></trkpt>
<trkpt lat="50.054662" lon="4.605065"><time>2026-05-06T19:31:12Z</time></trkpt>
<trkpt lat="50.053955" lon="4.608729"><time>2026-05-06T19:41:12Z</time></trkpt>
</trkseg>
</trk>
<trk>
<name>nvvovi49</name>
<cmt>v</cmt>
<desc>Olloy-sur-Viroin Sentier n°i49 </desc>
<link href="https://chemins.be/olloy/sentier/i49"/><trkseg>
<trkpt lat="50.061215" lon="4.577013"><time>2026-05-06T18:41:12Z</time></trkpt>
<trkpt lat="50.061002" lon="4.578835"><time>2026-05-06T18:51:12Z</time></trkpt>
<trkpt lat="50.061204" lon="4.582125"><time>2026-05-06T19:01:12Z</time></trkpt>
<trkpt lat="50.063042" lon="4.588929"><time>2026-05-06T19:11:12Z</time></trkpt>
</trkseg>
</trk>
<trk>
<name>nvvovi5</name>
<cmt>v</cmt>
<desc>Olloy-sur-Viroin Chemin n°i5 </desc>
<link href="https://chemins.be/olloy/chemin/i5"/><trkseg>
<trkpt lat="50.077534" lon="4.598197"><time>2026-05-06T18:41:12Z</time></trkpt>
<trkpt lat="50.078197" lon="4.599178"><time>2026-05-06T18:51:12Z</time></trkpt>
<trkpt lat="50.078887" lon="4.600565"><time>2026-05-06T19:01:12Z</time></trkpt>
<trkpt lat="50.078939" lon="4.601180"><time>2026-05-06T19:11:12Z</time></trkpt>
<trkpt lat="50.079665" lon="4.602720"><time>2026-05-06T19:21:12Z</time></trkpt>
<trkpt lat="50.079880" lon="4.603089"><time>2026-05-06T19:31:12Z</time></trkpt>
<trkpt lat="50.081098" lon="4.605172"><time>2026-05-06T19:41:12Z</time></trkpt>
<trkpt lat="50.082757" lon="4.611622"><time>2026-05-06T19:51:12Z</time></trkpt>
<trkpt lat="50.082880" lon="4.612768"><time>2026-05-06T20:01:12Z</time></trkpt>
<trkpt lat="50.083035" lon="4.614481"><time>2026-05-06T20:11:12Z</time></trkpt>
<trkpt lat="50.083117" lon="4.615396"><time>2026-05-06T20:21:12Z</time></trkpt>
<trkpt lat="50.082925" lon="4.617226"><time>2026-05-06T20:31:12Z</time></trkpt>
<trkpt lat="50.083552" lon="4.618319"><time>2026-05-06T20:41:12Z</time></trkpt>
</trkseg>
</trk>
<trk>
<name>nvvovi50</name>
<cmt>v</cmt>
<desc>Olloy-sur-Viroin Sentier n°i50 Sentier boueux</desc>
<link href="https://chemins.be/olloy/sentier/i50"/><trkseg>
<trkpt lat="50.056004" lon="4.627931"><time>2026-05-06T18:41:12Z</time></trkpt>
<trkpt lat="50.057250" lon="4.626660"><time>2026-05-06T18:51:12Z</time></trkpt>
<trkpt lat="50.059011" lon="4.622108"><time>2026-05-06T19:01:12Z</time></trkpt>
<trkpt lat="50.059481" lon="4.619790"><time>2026-05-06T19:11:12Z</time></trkpt>
</trkseg>
</trk>
<trk>
<name>nvvovi51</name>
<cmt>v</cmt>
<desc>Olloy-sur-Viroin Chemin n°i51 </desc>
<link href="https://chemins.be/olloy/chemin/i51"/><trkseg>
<trkpt lat="50.060269" lon="4.619227"><time>2026-05-06T18:41:12Z</time></trkpt>
<trkpt lat="50.059784" lon="4.621270"><time>2026-05-06T18:51:12Z</time></trkpt>
<trkpt lat="50.059366" lon="4.622815"><time>2026-05-06T19:01:12Z</time></trkpt>
<trkpt lat="50.059388" lon="4.624154"><time>2026-05-06T19:11:12Z</time></trkpt>
<trkpt lat="50.058969" lon="4.624343"><time>2026-05-06T19:21:12Z</time></trkpt>
<trkpt lat="50.057635" lon="4.629042"><time>2026-05-06T19:31:12Z</time></trkpt>
</trkseg>
</trk>
<trk>
<name>nvvovi6</name>
<cmt>v</cmt>
<desc>Olloy-sur-Viroin Chemin n°i6 </desc>
<link href="https://chemins.be/olloy/chemin/i6"/><trkseg>
<trkpt lat="50.077582" lon="4.605323"><time>2026-05-06T18:41:12Z</time></trkpt>
<trkpt lat="50.078191" lon="4.606499"><time>2026-05-06T18:51:12Z</time></trkpt>
<trkpt lat="50.079055" lon="4.606126"><time>2026-05-06T19:01:12Z</time></trkpt>
<trkpt lat="50.079244" lon="4.605946"><time>2026-05-06T19:11:12Z</time></trkpt>
<trkpt lat="50.079348" lon="4.603417"><time>2026-05-06T19:21:12Z</time></trkpt>
<trkpt lat="50.079611" lon="4.602678"><time>2026-05-06T19:31:12Z</time></trkpt>
<trkpt lat="50.079570" lon="4.600415"><time>2026-05-06T19:41:12Z</time></trkpt>
</trkseg>
</trk>
<trk>
<name>nvvovi7</name>
<cmt>v</cmt>
<desc>Olloy-sur-Viroin Sentier n°i7 Sentier de la Roche du Pas</desc>
<link href="https://chemins.be/olloy/sentier/i7"/><trkseg>
<trkpt lat="50.077855" lon="4.608244"><time>2026-05-06T18:41:12Z</time></trkpt>
<trkpt lat="50.077639" lon="4.608327"><time>2026-05-06T18:51:12Z</time></trkpt>
<trkpt lat="50.077970" lon="4.609348"><time>2026-05-06T19:01:12Z</time></trkpt>
<trkpt lat="50.078431" lon="4.612215"><time>2026-05-06T19:11:12Z</time></trkpt>
<trkpt lat="50.079033" lon="4.616619"><time>2026-05-06T19:21:12Z</time></trkpt>
<trkpt lat="50.080042" lon="4.620872"><time>2026-05-06T19:31:12Z</time></trkpt>
<trkpt lat="50.080376" lon="4.623192"><time>2026-05-06T19:41:12Z</time></trkpt>
<trkpt lat="50.080758" lon="4.625472"><time>2026-05-06T19:51:12Z</time></trkpt>
</trkseg></trk>
<trk>
<name>nvvovi7</name>
<cmt>s</cmt>
<desc>Olloy-sur-Viroin Sentier n°i7 Sentier de la Roche du Pas</desc>
<link href="https://chemins.be/olloy/sentier/i7"/><trkseg>
<trkpt lat="50.080758" lon="4.625472"><time>2026-05-06T19:51:12Z</time></trkpt>
<trkpt lat="50.080710" lon="4.626575"><time>2026-05-06T20:01:12Z</time></trkpt>
</trkseg></trk>
<trk>
<name>nvvovi7</name>
<cmt>v</cmt>
<desc>Olloy-sur-Viroin Sentier n°i7 Sentier de la Roche du Pas</desc>
<link href="https://chemins.be/olloy/sentier/i7"/><trkseg>
<trkpt lat="50.080710" lon="4.626575"><time>2026-05-06T20:01:12Z</time></trkpt>
<trkpt lat="50.079996" lon="4.628430"><time>2026-05-06T20:11:12Z</time></trkpt>
<trkpt lat="50.080092" lon="4.629618"><time>2026-05-06T20:21:12Z</time></trkpt>
<trkpt lat="50.080349" lon="4.631393"><time>2026-05-06T20:31:12Z</time></trkpt>
<trkpt lat="50.080448" lon="4.631338"><time>2026-05-06T20:41:12Z</time></trkpt>
<trkpt lat="50.080402" lon="4.631603"><time>2026-05-06T20:51:12Z</time></trkpt>
</trkseg>
</trk>
<trk>
<name>nvvovi8</name>
<cmt>v</cmt>
<desc>Olloy-sur-Viroin Sentier n°i8 </desc>
<link href="https://chemins.be/olloy/sentier/i8"/><trkseg>
<trkpt lat="50.057989" lon="4.619149"><time>2026-05-06T18:41:12Z</time></trkpt>
<trkpt lat="50.057077" lon="4.619236"><time>2026-05-06T18:51:12Z</time></trkpt>
<trkpt lat="50.056695" lon="4.618904"><time>2026-05-06T19:01:12Z</time></trkpt>
<trkpt lat="50.055861" lon="4.618160"><time>2026-05-06T19:11:12Z</time></trkpt>
<trkpt lat="50.054294" lon="4.611072"><time>2026-05-06T19:21:12Z</time></trkpt>
<trkpt lat="50.053894" lon="4.608864"><time>2026-05-06T19:31:12Z</time></trkpt>
<trkpt lat="50.054533" lon="4.608350"><time>2026-05-06T19:41:12Z</time></trkpt>
<trkpt lat="50.055374" lon="4.606148"><time>2026-05-06T19:51:12Z</time></trkpt>
<trkpt lat="50.056041" lon="4.605132"><time>2026-05-06T20:01:12Z</time></trkpt>
<trkpt lat="50.056815" lon="4.604842"><time>2026-05-06T20:11:12Z</time></trkpt>
<trkpt lat="50.060233" lon="4.603798"><time>2026-05-06T20:21:12Z</time></trkpt>
</trkseg>
</trk>
<trk>
<name>nvvovi9</name>
<cmt>v</cmt>
<desc>Olloy-sur-Viroin Chemin n°i9 </desc>
<link href="https://chemins.be/olloy/chemin/i9"/><trkseg>
<trkpt lat="50.068769" lon="4.588363"><time>2026-05-06T18:41:12Z</time></trkpt>
<trkpt lat="50.067482" lon="4.584516"><time>2026-05-06T18:51:12Z</time></trkpt>
<trkpt lat="50.067105" lon="4.583970"><time>2026-05-06T19:01:12Z</time></trkpt>
<trkpt lat="50.066189" lon="4.583323"><time>2026-05-06T19:11:12Z</time></trkpt>
<trkpt lat="50.065667" lon="4.578865"><time>2026-05-06T19:21:12Z</time></trkpt>
<trkpt lat="50.064057" lon="4.579207"><time>2026-05-06T19:31:12Z</time></trkpt>
<trkpt lat="50.064040" lon="4.578858"><time>2026-05-06T19:41:12Z</time></trkpt>
<trkpt lat="50.062693" lon="4.578098"><time>2026-05-06T19:51:12Z</time></trkpt>
<trkpt lat="50.062110" lon="4.577034"><time>2026-05-06T20:01:12Z</time></trkpt>
<trkpt lat="50.059871" lon="4.577178"><time>2026-05-06T20:11:12Z</time></trkpt>
<trkpt lat="50.058776" lon="4.576503"><time>2026-05-06T20:21:12Z</time></trkpt>
<trkpt lat="50.057821" lon="4.575382"><time>2026-05-06T20:31:12Z</time></trkpt>
<trkpt lat="50.055360" lon="4.580914"><time>2026-05-06T20:41:12Z</time></trkpt>
<trkpt lat="50.054747" lon="4.582099"><time>2026-05-06T20:51:12Z</time></trkpt>
<trkpt lat="50.052757" lon="4.583668"><time>2026-05-06T21:01:12Z</time></trkpt>
<trkpt lat="50.051817" lon="4.586149"><time>2026-05-06T21:11:12Z</time></trkpt>
<trkpt lat="50.051226" lon="4.589344"><time>2026-05-06T21:21:12Z</time></trkpt>
<trkpt lat="50.051350" lon="4.590447"><time>2026-05-06T21:31:12Z</time></trkpt>
<trkpt lat="50.052697" lon="4.591277"><time>2026-05-06T21:41:12Z</time></trkpt>
<trkpt lat="50.054827" lon="4.592041"><time>2026-05-06T21:51:12Z</time></trkpt>
<trkpt lat="50.055104" lon="4.592559"><time>2026-05-06T22:01:12Z</time></trkpt>
</trkseg>
</trk>
<trk>
<name>nvvovL132</name>
<cmt>t</cmt>
<desc>Olloy-sur-Viroin Chemin n°L132 </desc>
<link href="https://chemins.be/olloy/chemin/L132"/><trkseg>
<trkpt lat="50.076660" lon="4.580584"><time>2026-05-06T18:41:12Z</time></trkpt>
<trkpt lat="50.075187" lon="4.583921"><time>2026-05-06T18:51:12Z</time></trkpt>
<trkpt lat="50.074858" lon="4.585615"><time>2026-05-06T19:01:12Z</time></trkpt>
<trkpt lat="50.074456" lon="4.589312"><time>2026-05-06T19:11:12Z</time></trkpt>
<trkpt lat="50.073758" lon="4.595736"><time>2026-05-06T19:21:12Z</time></trkpt>
<trkpt lat="50.073112" lon="4.602548"><time>2026-05-06T19:31:12Z</time></trkpt>
<trkpt lat="50.072924" lon="4.604530"><time>2026-05-06T19:41:12Z</time></trkpt>
<trkpt lat="50.072718" lon="4.607006"><time>2026-05-06T19:51:12Z</time></trkpt>
<trkpt lat="50.072408" lon="4.610626"><time>2026-05-06T20:01:12Z</time></trkpt>
<trkpt lat="50.072148" lon="4.613486"><time>2026-05-06T20:11:12Z</time></trkpt>
<trkpt lat="50.072015" lon="4.614516"><time>2026-05-06T20:21:12Z</time></trkpt>
<trkpt lat="50.071695" lon="4.618642"><time>2026-05-06T20:31:12Z</time></trkpt>
<trkpt lat="50.071988" lon="4.621197"><time>2026-05-06T20:41:12Z</time></trkpt>
<trkpt lat="50.072968" lon="4.624177"><time>2026-05-06T20:51:12Z</time></trkpt>
<trkpt lat="50.076058" lon="4.627967"><time>2026-05-06T21:01:12Z</time></trkpt>
</trkseg>
</trk>
<trk>
<name>nvvovLv523</name>
<cmt>s</cmt>
<desc>Olloy-sur-Viroin Chemin n°Lv523 Rue de Baimont / Rue du Vicinal / Chemin du Vicinal</desc>
<link href="https://chemins.be/olloy/chemin/Lv523"/><trkseg>
<trkpt lat="50.073027" lon="4.604279"><time>2026-05-06T18:41:12Z</time></trkpt>
<trkpt lat="50.073093" lon="4.605678"><time>2026-05-06T18:51:12Z</time></trkpt>
<trkpt lat="50.072855" lon="4.606181"><time>2026-05-06T19:01:12Z</time></trkpt>
<trkpt lat="50.072709" lon="4.606242"><time>2026-05-06T19:11:12Z</time></trkpt>
<trkpt lat="50.072445" lon="4.606346"><time>2026-05-06T19:21:12Z</time></trkpt>
<trkpt lat="50.071897" lon="4.606473"><time>2026-05-06T19:31:12Z</time></trkpt>
</trkseg></trk>
<trk>
<name>nvvovLv523</name>
<cmt>v</cmt>
<desc>Olloy-sur-Viroin Chemin n°Lv523 Rue de Baimont / Rue du Vicinal / Chemin du Vicinal</desc>
<link href="https://chemins.be/olloy/chemin/Lv523"/><trkseg>
<trkpt lat="50.071897" lon="4.606473"><time>2026-05-06T19:31:12Z</time></trkpt>
<trkpt lat="50.071636" lon="4.606427"><time>2026-05-06T19:41:12Z</time></trkpt>
<trkpt lat="50.070878" lon="4.606406"><time>2026-05-06T19:51:12Z</time></trkpt>
<trkpt lat="50.069688" lon="4.605866"><time>2026-05-06T20:01:12Z</time></trkpt>
<trkpt lat="50.068728" lon="4.604796"><time>2026-05-06T20:11:12Z</time></trkpt>
<trkpt lat="50.067468" lon="4.603486"><time>2026-05-06T20:21:12Z</time></trkpt>
<trkpt lat="50.067018" lon="4.601306"><time>2026-05-06T20:31:12Z</time></trkpt>
<trkpt lat="50.066158" lon="4.599236"><time>2026-05-06T20:41:12Z</time></trkpt>
<trkpt lat="50.065508" lon="4.598726"><time>2026-05-06T20:51:12Z</time></trkpt>
<trkpt lat="50.063198" lon="4.598426"><time>2026-05-06T21:01:12Z</time></trkpt>
<trkpt lat="50.062568" lon="4.598686"><time>2026-05-06T21:11:12Z</time></trkpt>
<trkpt lat="50.061558" lon="4.599446"><time>2026-05-06T21:21:12Z</time></trkpt>
<trkpt lat="50.061108" lon="4.599596"><time>2026-05-06T21:31:12Z</time></trkpt>
<trkpt lat="50.059248" lon="4.598766"><time>2026-05-06T21:41:12Z</time></trkpt>
<trkpt lat="50.058637" lon="4.598042"><time>2026-05-06T21:51:12Z</time></trkpt>
<trkpt lat="50.058161" lon="4.597101"><time>2026-05-06T22:01:12Z</time></trkpt>
<trkpt lat="50.057328" lon="4.594246"><time>2026-05-06T22:11:12Z</time></trkpt>
<trkpt lat="50.056962" lon="4.593693"><time>2026-05-06T22:21:12Z</time></trkpt>
<trkpt lat="50.056868" lon="4.593576"><time>2026-05-06T22:31:12Z</time></trkpt>
<trkpt lat="50.056386" lon="4.592835"><time>2026-05-06T22:41:12Z</time></trkpt>
<trkpt lat="50.056114" lon="4.592669"><time>2026-05-06T22:51:12Z</time></trkpt>
<trkpt lat="50.055118" lon="4.592796"><time>2026-05-06T23:01:12Z</time></trkpt>
<trkpt lat="50.053428" lon="4.592876"><time>2026-05-06T23:11:12Z</time></trkpt>
<trkpt lat="50.050528" lon="4.591466"><time>2026-05-06T23:21:12Z</time></trkpt>
<trkpt lat="50.047957" lon="4.593896"><time>2026-05-06T23:31:12Z</time></trkpt>
<trkpt lat="50.046027" lon="4.594936"><time>2026-05-06T23:41:12Z</time></trkpt>
<trkpt lat="50.045437" lon="4.595446"><time>2026-05-06T23:51:12Z</time></trkpt>
<trkpt lat="50.044587" lon="4.594476"><time>2026-05-07T00:01:12Z</time></trkpt>
<trkpt lat="50.040947" lon="4.593346"><time>2026-05-07T00:11:12Z</time></trkpt>
<trkpt lat="50.039987" lon="4.595696"><time>2026-05-07T00:21:12Z</time></trkpt>
<trkpt lat="50.038047" lon="4.596926"><time>2026-05-07T00:31:12Z</time></trkpt>
<trkpt lat="50.035237" lon="4.596956"><time>2026-05-07T00:41:12Z</time></trkpt>
<trkpt lat="50.032835" lon="4.598724"><time>2026-05-07T00:51:12Z</time></trkpt>
<trkpt lat="50.032287" lon="4.599786"><time>2026-05-07T01:01:12Z</time></trkpt>
</trkseg>
</trk>
<trk>
<name>nvvovr1</name>
<cmt>r</cmt>
<desc>Olloy-sur-Viroin Chemin de remembrement n°r1 Rue des Florins</desc>
<link href="https://chemins.be/olloy/chemin/r1"/><trkseg>
<trkpt lat="50.084440" lon="4.618924"><time>2026-05-06T18:41:12Z</time></trkpt>
<trkpt lat="50.086537" lon="4.618334"><time>2026-05-06T18:51:12Z</time></trkpt>
<trkpt lat="50.086843" lon="4.618126"><time>2026-05-06T19:01:12Z</time></trkpt>
<trkpt lat="50.087005" lon="4.617750"><time>2026-05-06T19:11:12Z</time></trkpt>
<trkpt lat="50.087037" lon="4.615375"><time>2026-05-06T19:21:12Z</time></trkpt>
</trkseg>
</trk>
<trk>
<name>nvvovr2</name>
<cmt>v</cmt>
<desc>Olloy-sur-Viroin Chemin de remembrement n°r2 </desc>
<link href="https://chemins.be/olloy/chemin/r2"/><trkseg>
<trkpt lat="50.087028" lon="4.615514"><time>2026-05-06T18:41:12Z</time></trkpt>
<trkpt lat="50.086524" lon="4.615596"><time>2026-05-06T18:51:12Z</time></trkpt>
<trkpt lat="50.085862" lon="4.614432"><time>2026-05-06T19:01:12Z</time></trkpt>
<trkpt lat="50.085460" lon="4.613061"><time>2026-05-06T19:11:12Z</time></trkpt>
<trkpt lat="50.085193" lon="4.611942"><time>2026-05-06T19:21:12Z</time></trkpt>
</trkseg>
</trk>
<trk>
<name>nvvtr10</name>
<cmt>v</cmt>
<desc>Treignes Chemin n°10 </desc>
<link href="https://chemins.be/treignes/chemin/10"/><trkseg>
<trkpt lat="50.099196" lon="4.670675"><time>2026-05-06T18:41:12Z</time></trkpt>
<trkpt lat="50.099545" lon="4.671293"><time>2026-05-06T18:51:12Z</time></trkpt>
<trkpt lat="50.101610" lon="4.672438"><time>2026-05-06T19:01:12Z</time></trkpt>
<trkpt lat="50.102289" lon="4.673840"><time>2026-05-06T19:11:12Z</time></trkpt>
<trkpt lat="50.103233" lon="4.673916"><time>2026-05-06T19:21:12Z</time></trkpt>
<trkpt lat="50.104528" lon="4.673757"><time>2026-05-06T19:31:12Z</time></trkpt>
<trkpt lat="50.106205" lon="4.675501"><time>2026-05-06T19:41:12Z</time></trkpt>
<trkpt lat="50.107895" lon="4.675693"><time>2026-05-06T19:51:12Z</time></trkpt>
</trkseg></trk>
<trk>
<name>nvvtr10</name>
<cmt>s</cmt>
<desc>Treignes Chemin n°10 </desc>
<link href="https://chemins.be/treignes/chemin/10"/><trkseg>
<trkpt lat="50.107895" lon="4.675693"><time>2026-05-06T19:51:12Z</time></trkpt>
<trkpt lat="50.109041" lon="4.676169"><time>2026-05-06T20:01:12Z</time></trkpt>
<trkpt lat="50.109600" lon="4.676483"><time>2026-05-06T20:11:12Z</time></trkpt>
<trkpt lat="50.113343" lon="4.677163"><time>2026-05-06T20:21:12Z</time></trkpt>
</trkseg>
</trk>
<trk>
<name>nvvtr11</name>
<cmt>r</cmt>
<desc>Treignes Chemin n°11 Rue de Matignol</desc>
<link href="https://chemins.be/treignes/chemin/11"/><trkseg>
<trkpt lat="50.107642" lon="4.658874"><time>2026-05-06T18:41:12Z</time></trkpt>
<trkpt lat="50.107892" lon="4.659393"><time>2026-05-06T18:51:12Z</time></trkpt>
<trkpt lat="50.107890" lon="4.660134"><time>2026-05-06T19:01:12Z</time></trkpt>
</trkseg></trk>
<trk>
<name>nvvtr11</name>
<cmt>s</cmt>
<desc>Treignes Chemin n°11 Rue de Matignol</desc>
<link href="https://chemins.be/treignes/chemin/11"/><trkseg>
<trkpt lat="50.107890" lon="4.660134"><time>2026-05-06T19:01:12Z</time></trkpt>
<trkpt lat="50.107691" lon="4.660706"><time>2026-05-06T19:11:12Z</time></trkpt>
<trkpt lat="50.106952" lon="4.661247"><time>2026-05-06T19:21:12Z</time></trkpt>
<trkpt lat="50.106464" lon="4.662488"><time>2026-05-06T19:31:12Z</time></trkpt>
<trkpt lat="50.106054" lon="4.664372"><time>2026-05-06T19:41:12Z</time></trkpt>
<trkpt lat="50.105523" lon="4.664705"><time>2026-05-06T19:51:12Z</time></trkpt>
<trkpt lat="50.104476" lon="4.662867"><time>2026-05-06T20:01:12Z</time></trkpt>
<trkpt lat="50.103877" lon="4.661591"><time>2026-05-06T20:11:12Z</time></trkpt>
</trkseg>
</trk>
<trk>
<name>nvvtr12</name>
<cmt>v</cmt>
<desc>Treignes Chemin n°12 </desc>
<link href="https://chemins.be/treignes/chemin/12"/><trkseg>
<trkpt lat="50.106595" lon="4.684171"><time>2026-05-06T18:41:12Z</time></trkpt>
<trkpt lat="50.106060" lon="4.685705"><time>2026-05-06T18:51:12Z</time></trkpt>
</trkseg>
</trk>
<trk>
<name>nvvtr13</name>
<cmt>v</cmt>
<desc>Treignes Chemin n°13 </desc>
<link href="https://chemins.be/treignes/chemin/13"/><trkseg>
<trkpt lat="50.094229" lon="4.672042"><time>2026-05-06T18:41:12Z</time></trkpt>
<trkpt lat="50.094572" lon="4.671764"><time>2026-05-06T18:51:12Z</time></trkpt>
<trkpt lat="50.094744" lon="4.671346"><time>2026-05-06T19:01:12Z</time></trkpt>
<trkpt lat="50.095195" lon="4.670692"><time>2026-05-06T19:11:12Z</time></trkpt>
<trkpt lat="50.095682" lon="4.670052"><time>2026-05-06T19:21:12Z</time></trkpt>
<trkpt lat="50.096124" lon="4.669426"><time>2026-05-06T19:31:12Z</time></trkpt>
<trkpt lat="50.097289" lon="4.667686"><time>2026-05-06T19:41:12Z</time></trkpt>
<trkpt lat="50.098199" lon="4.666881"><time>2026-05-06T19:51:12Z</time></trkpt>
<trkpt lat="50.098514" lon="4.666688"><time>2026-05-06T20:01:12Z</time></trkpt>
<trkpt lat="50.099333" lon="4.666553"><time>2026-05-06T20:11:12Z</time></trkpt>
<trkpt lat="50.100167" lon="4.667201"><time>2026-05-06T20:21:12Z</time></trkpt>
<trkpt lat="50.101407" lon="4.667321"><time>2026-05-06T20:31:12Z</time></trkpt>
</trkseg>
</trk>
<trk>
<name>nvvtr14</name>
<cmt>r</cmt>
<desc>Treignes Chemin n°14 Rue Madame Deville / ? / Rue du Malgré-Tout / Rue de la Gare</desc>
<link href="https://chemins.be/treignes/chemin/14"/><trkseg>
<trkpt lat="50.093536" lon="4.672666"><time>2026-05-06T18:41:12Z</time></trkpt>
<trkpt lat="50.092465" lon="4.673078"><time>2026-05-06T18:51:12Z</time></trkpt>
<trkpt lat="50.091511" lon="4.673114"><time>2026-05-06T19:01:12Z</time></trkpt>
<trkpt lat="50.091215" lon="4.673140"><time>2026-05-06T19:11:12Z</time></trkpt>
<trkpt lat="50.091019" lon="4.673255"><time>2026-05-06T19:21:12Z</time></trkpt>
</trkseg></trk>
<trk>
<name>nvvtr14</name>
<cmt>v</cmt>
<desc>Treignes Chemin n°14 Rue Madame Deville / ? / Rue du Malgré-Tout / Rue de la Gare</desc>
<link href="https://chemins.be/treignes/chemin/14"/><trkseg>
<trkpt lat="50.091019" lon="4.673255"><time>2026-05-06T19:21:12Z</time></trkpt>
<trkpt lat="50.090838" lon="4.673384"><time>2026-05-06T19:31:12Z</time></trkpt>
<trkpt lat="50.090735" lon="4.673609"><time>2026-05-06T19:41:12Z</time></trkpt>
<trkpt lat="50.090705" lon="4.673920"><time>2026-05-06T19:51:12Z</time></trkpt>
<trkpt lat="50.090922" lon="4.674871"><time>2026-05-06T20:01:12Z</time></trkpt>
</trkseg></trk>
<trk>
<name>nvvtr14</name>
<cmt>r</cmt>
<desc>Treignes Chemin n°14 Rue Madame Deville / ? / Rue du Malgré-Tout / Rue de la Gare</desc>
<link href="https://chemins.be/treignes/chemin/14"/><trkseg>
<trkpt lat="50.090922" lon="4.674871"><time>2026-05-06T20:01:12Z</time></trkpt>
<trkpt lat="50.091090" lon="4.676214"><time>2026-05-06T20:11:12Z</time></trkpt>
<trkpt lat="50.090896" lon="4.678155"><time>2026-05-06T20:21:12Z</time></trkpt>
<trkpt lat="50.091106" lon="4.680001"><time>2026-05-06T20:31:12Z</time></trkpt>
<trkpt lat="50.091452" lon="4.681750"><time>2026-05-06T20:41:12Z</time></trkpt>
<trkpt lat="50.091575" lon="4.682939"><time>2026-05-06T20:51:12Z</time></trkpt>
<trkpt lat="50.091977" lon="4.683976"><time>2026-05-06T21:01:12Z</time></trkpt>
<trkpt lat="50.092675" lon="4.685238"><time>2026-05-06T21:11:12Z</time></trkpt>
<trkpt lat="50.092988" lon="4.685688"><time>2026-05-06T21:21:12Z</time></trkpt>
<trkpt lat="50.093675" lon="4.687453"><time>2026-05-06T21:31:12Z</time></trkpt>
</trkseg>
</trk>
<trk>
<name>nvvtr15</name>
<cmt>v</cmt>
<desc>Treignes Chemin n°15 Rue Trou Maillard / Rue Trou-Maillard</desc>
<link href="https://chemins.be/treignes/chemin/15"/><trkseg>
<trkpt lat="50.093045" lon="4.667897"><time>2026-05-06T18:41:12Z</time></trkpt>
<trkpt lat="50.093162" lon="4.667842"><time>2026-05-06T18:51:12Z</time></trkpt>
<trkpt lat="50.093378" lon="4.667606"><time>2026-05-06T19:01:12Z</time></trkpt>
<trkpt lat="50.093782" lon="4.667706"><time>2026-05-06T19:11:12Z</time></trkpt>
</trkseg></trk>
<trk>
<name>nvvtr15</name>
<cmt>r</cmt>
<desc>Treignes Chemin n°15 Rue Trou Maillard / Rue Trou-Maillard</desc>
<link href="https://chemins.be/treignes/chemin/15"/><trkseg>
<trkpt lat="50.093782" lon="4.667706"><time>2026-05-06T19:11:12Z</time></trkpt>
<trkpt lat="50.094061" lon="4.667582"><time>2026-05-06T19:21:12Z</time></trkpt>
<trkpt lat="50.093830" lon="4.666784"><time>2026-05-06T19:31:12Z</time></trkpt>
</trkseg></trk>
<trk>
<name>nvvtr15</name>
<cmt>v</cmt>
<desc>Treignes Chemin n°15 Rue Trou Maillard / Rue Trou-Maillard</desc>
<link href="https://chemins.be/treignes/chemin/15"/><trkseg>
<trkpt lat="50.093830" lon="4.666784"><time>2026-05-06T19:31:12Z</time></trkpt>
<trkpt lat="50.093563" lon="4.665692"><time>2026-05-06T19:41:12Z</time></trkpt>
<trkpt lat="50.093539" lon="4.664643"><time>2026-05-06T19:51:12Z</time></trkpt>
<trkpt lat="50.093360" lon="4.664238"><time>2026-05-06T20:01:12Z</time></trkpt>
<trkpt lat="50.093231" lon="4.662701"><time>2026-05-06T20:11:12Z</time></trkpt>
<trkpt lat="50.093799" lon="4.661012"><time>2026-05-06T20:21:12Z</time></trkpt>
</trkseg>
</trk>
<trk>
<name>nvvtr16</name>
<cmt>r</cmt>
<desc>Treignes Chemin n°16 Rue Bruyère / Chemin communal n°16</desc>
<link href="https://chemins.be/treignes/chemin/16"/><trkseg>
<trkpt lat="50.092143" lon="4.668800"><time>2026-05-06T18:41:12Z</time></trkpt>
<trkpt lat="50.092099" lon="4.668590"><time>2026-05-06T18:51:12Z</time></trkpt>
<trkpt lat="50.091911" lon="4.668170"><time>2026-05-06T19:01:12Z</time></trkpt>
<trkpt lat="50.090023" lon="4.664524"><time>2026-05-06T19:11:12Z</time></trkpt>
<trkpt lat="50.089009" lon="4.664015"><time>2026-05-06T19:21:12Z</time></trkpt>
</trkseg></trk>
<trk>
<name>nvvtr16</name>
<cmt>v</cmt>
<desc>Treignes Chemin n°16 Rue Bruyère / Chemin communal n°16</desc>
<link href="https://chemins.be/treignes/chemin/16"/><trkseg>
<trkpt lat="50.089009" lon="4.664015"><time>2026-05-06T19:21:12Z</time></trkpt>
<trkpt lat="50.086997" lon="4.659783"><time>2026-05-06T19:31:12Z</time></trkpt>
<trkpt lat="50.085918" lon="4.656171"><time>2026-05-06T19:41:12Z</time></trkpt>
<trkpt lat="50.085259" lon="4.653722"><time>2026-05-06T19:51:12Z</time></trkpt>
<trkpt lat="50.084909" lon="4.653426"><time>2026-05-06T20:01:12Z</time></trkpt>
<trkpt lat="50.084038" lon="4.652722"><time>2026-05-06T20:11:12Z</time></trkpt>
</trkseg></trk>
<trk>
<name>nvvtr16</name>
<cmt>b</cmt>
<desc>Treignes Chemin n°16 Rue Bruyère / Chemin communal n°16</desc>
<link href="https://chemins.be/treignes/chemin/16"/><trkseg>
<trkpt lat="50.084038" lon="4.652722"><time>2026-05-06T20:11:12Z</time></trkpt>
<trkpt lat="50.083917" lon="4.652308"><time>2026-05-06T20:21:12Z</time></trkpt>
<trkpt lat="50.083788" lon="4.652050"><time>2026-05-06T20:31:12Z</time></trkpt>
</trkseg>
</trk>
<trk>
<name>nvvtr17</name>
<cmt>v</cmt>
<desc>Treignes Chemin n°17 </desc>
<link href="https://chemins.be/treignes/chemin/17"/><trkseg>
<trkpt lat="50.069651" lon="4.674609"><time>2026-05-06T18:41:12Z</time></trkpt>
<trkpt lat="50.067718" lon="4.671370"><time>2026-05-06T18:51:12Z</time></trkpt>
<trkpt lat="50.067151" lon="4.668168"><time>2026-05-06T19:01:12Z</time></trkpt>
<trkpt lat="50.066572" lon="4.666055"><time>2026-05-06T19:11:12Z</time></trkpt>
<trkpt lat="50.066684" lon="4.664380"><time>2026-05-06T19:21:12Z</time></trkpt>
</trkseg></trk>
<trk>
<name>nvvtr17</name>
<cmt>d</cmt>
<desc>Treignes Chemin n°17 </desc>
<link href="https://chemins.be/treignes/chemin/17"/><trkseg>
<trkpt lat="50.066684" lon="4.664380"><time>2026-05-06T19:21:12Z</time></trkpt>
<trkpt lat="50.064103" lon="4.654014"><time>2026-05-06T19:31:12Z</time></trkpt>
</trkseg>
</trk>
<trk>
<name>nvvtr18</name>
<cmt>v</cmt>
<desc>Treignes Chemin n°18 </desc>
<link href="https://chemins.be/treignes/chemin/18"/><trkseg>
<trkpt lat="50.053759" lon="4.699335"><time>2026-05-06T18:41:12Z</time></trkpt>
<trkpt lat="50.052439" lon="4.698879"><time>2026-05-06T18:51:12Z</time></trkpt>
<trkpt lat="50.048646" lon="4.691941"><time>2026-05-06T19:01:12Z</time></trkpt>
<trkpt lat="50.047992" lon="4.691406"><time>2026-05-06T19:11:12Z</time></trkpt>
<trkpt lat="50.046605" lon="4.689038"><time>2026-05-06T19:21:12Z</time></trkpt>
<trkpt lat="50.045551" lon="4.686252"><time>2026-05-06T19:31:12Z</time></trkpt>
<trkpt lat="50.044307" lon="4.680883"><time>2026-05-06T19:41:12Z</time></trkpt>
<trkpt lat="50.042234" lon="4.679627"><time>2026-05-06T19:51:12Z</time></trkpt>
</trkseg>
</trk>
<trk>
<name>nvvtr19</name>
<cmt>r</cmt>
<desc>Treignes Chemin n°19 Rue de Bruyère</desc>
<link href="https://chemins.be/treignes/chemin/19"/><trkseg>
<trkpt lat="50.091652" lon="4.667469"><time>2026-05-06T18:41:12Z</time></trkpt>
<trkpt lat="50.091744" lon="4.666827"><time>2026-05-06T18:51:12Z</time></trkpt>
<trkpt lat="50.091691" lon="4.666352"><time>2026-05-06T19:01:12Z</time></trkpt>
<trkpt lat="50.092156" lon="4.663951"><time>2026-05-06T19:11:12Z</time></trkpt>
</trkseg>
</trk>
<trk>
<name>nvvtr2</name>
<cmt>r</cmt>
<desc>Treignes Chemin n°2 Rue Eugène Defraire</desc>
<link href="https://chemins.be/treignes/chemin/2"/><trkseg>
<trkpt lat="50.092834" lon="4.669252"><time>2026-05-06T18:41:12Z</time></trkpt>
<trkpt lat="50.093025" lon="4.668526"><time>2026-05-06T18:51:12Z</time></trkpt>
<trkpt lat="50.093054" lon="4.667786"><time>2026-05-06T19:01:12Z</time></trkpt>
<trkpt lat="50.092585" lon="4.664750"><time>2026-05-06T19:11:12Z</time></trkpt>
</trkseg>
</trk>
<trk>
<name>nvvtr20</name>
<cmt>v</cmt>
<desc>Treignes Chemin n°20 Rue de Matignolles</desc>
<link href="https://chemins.be/treignes/chemin/20"/><trkseg>
<trkpt lat="50.103023" lon="4.657979"><time>2026-05-06T18:41:12Z</time></trkpt>
<trkpt lat="50.102719" lon="4.657013"><time>2026-05-06T18:51:12Z</time></trkpt>
<trkpt lat="50.102632" lon="4.656558"><time>2026-05-06T19:01:12Z</time></trkpt>
<trkpt lat="50.101949" lon="4.655736"><time>2026-05-06T19:11:12Z</time></trkpt>
</trkseg>
</trk>
<trk>
<name>nvvtr21</name>
<cmt>v</cmt>
<desc>Treignes Chemin n°21 </desc>
<link href="https://chemins.be/treignes/chemin/21"/><trkseg>
<trkpt lat="50.103085" lon="4.658315"><time>2026-05-06T18:41:12Z</time></trkpt>
<trkpt lat="50.103158" lon="4.657924"><time>2026-05-06T18:51:12Z</time></trkpt>
<trkpt lat="50.103088" lon="4.657001"><time>2026-05-06T19:01:12Z</time></trkpt>
<trkpt lat="50.103189" lon="4.656191"><time>2026-05-06T19:11:12Z</time></trkpt>
</trkseg>
</trk>
<trk>
<name>nvvtr22</name>
<cmt>v</cmt>
<desc>Treignes Chemin n°22 Rue Herdal de Becgnée</desc>
<link href="https://chemins.be/treignes/chemin/22"/><trkseg>
<trkpt lat="50.090394" lon="4.670620"><time>2026-05-06T18:41:12Z</time></trkpt>
<trkpt lat="50.090067" lon="4.672141"><time>2026-05-06T18:51:12Z</time></trkpt>
<trkpt lat="50.089797" lon="4.671930"><time>2026-05-06T19:01:12Z</time></trkpt>
<trkpt lat="50.089653" lon="4.672096"><time>2026-05-06T19:11:12Z</time></trkpt>
</trkseg></trk>
<trk>
<name>nvvtr22</name>
<cmt>d</cmt>
<desc>Treignes Chemin n°22 Rue Herdal de Becgnée</desc>
<link href="https://chemins.be/treignes/chemin/22"/><trkseg>
<trkpt lat="50.089653" lon="4.672096"><time>2026-05-06T19:11:12Z</time></trkpt>
<trkpt lat="50.089507" lon="4.672766"><time>2026-05-06T19:21:12Z</time></trkpt>
</trkseg></trk>
<trk>
<name>nvvtr22</name>
<cmt>r</cmt>
<desc>Treignes Chemin n°22 Rue Herdal de Becgnée</desc>
<link href="https://chemins.be/treignes/chemin/22"/><trkseg>
<trkpt lat="50.089507" lon="4.672766"><time>2026-05-06T19:21:12Z</time></trkpt>
<trkpt lat="50.088873" lon="4.674774"><time>2026-05-06T19:31:12Z</time></trkpt>
</trkseg>
</trk>
<trk>
<name>nvvtr23</name>
<cmt>v</cmt>
<desc>Treignes Chemin n°23 </desc>
<link href="https://chemins.be/treignes/chemin/23"/><trkseg>
<trkpt lat="50.090412" lon="4.670536"><time>2026-05-06T18:41:12Z</time></trkpt>
<trkpt lat="50.090321" lon="4.671038"><time>2026-05-06T18:51:12Z</time></trkpt>
</trkseg></trk>
<trk>
<name>nvvtr23</name>
<cmt>s</cmt>
<desc>Treignes Chemin n°23 </desc>
<link href="https://chemins.be/treignes/chemin/23"/><trkseg>
<trkpt lat="50.090321" lon="4.671038"><time>2026-05-06T18:51:12Z</time></trkpt>
<trkpt lat="50.090141" lon="4.671037"><time>2026-05-06T19:01:12Z</time></trkpt>
</trkseg>
</trk>
<trk>
<name>nvvtr24</name>
<cmt>v</cmt>
<desc>Treignes Chemin n°24 </desc>
<link href="https://chemins.be/treignes/chemin/24"/><trkseg>
<trkpt lat="50.091764" lon="4.669482"><time>2026-05-06T18:41:12Z</time></trkpt>
<trkpt lat="50.091539" lon="4.669439"><time>2026-05-06T18:51:12Z</time></trkpt>
<trkpt lat="50.091297" lon="4.669228"><time>2026-05-06T19:01:12Z</time></trkpt>
</trkseg>
</trk>
<trk>
<name>nvvtr25</name>
<cmt>r</cmt>
<desc>Treignes Chemin n°25 Rue du Ternia</desc>
<link href="https://chemins.be/treignes/chemin/25"/><trkseg>
<trkpt lat="50.092300" lon="4.670618"><time>2026-05-06T18:41:12Z</time></trkpt>
<trkpt lat="50.092461" lon="4.670996"><time>2026-05-06T18:51:12Z</time></trkpt>
<trkpt lat="50.092829" lon="4.671376"><time>2026-05-06T19:01:12Z</time></trkpt>
<trkpt lat="50.092990" lon="4.671405"><time>2026-05-06T19:11:12Z</time></trkpt>
</trkseg>
</trk>
<trk>
<name>nvvtr26</name>
<cmt>r</cmt>
<desc>Treignes Chemin n°26 Rue de Bruyère</desc>
<link href="https://chemins.be/treignes/chemin/26"/><trkseg>
<trkpt lat="50.092347" lon="4.669752"><time>2026-05-06T18:41:12Z</time></trkpt>
<trkpt lat="50.092157" lon="4.670198"><time>2026-05-06T18:51:12Z</time></trkpt>
<trkpt lat="50.092202" lon="4.670533"><time>2026-05-06T19:01:12Z</time></trkpt>
</trkseg>
</trk>
<trk>
<name>nvvtr28</name>
<cmt>r</cmt>
<desc>Treignes Chemin n°28 </desc>
<link href="https://chemins.be/treignes/chemin/28"/><trkseg>
<trkpt lat="50.092724" lon="4.670006"><time>2026-05-06T18:41:12Z</time></trkpt>
<trkpt lat="50.092554" lon="4.669739"><time>2026-05-06T18:51:12Z</time></trkpt>
<trkpt lat="50.092357" lon="4.669710"><time>2026-05-06T19:01:12Z</time></trkpt>
</trkseg>
</trk>
<trk>
<name>nvvtr29</name>
<cmt>r</cmt>
<desc>Treignes Chemin n°29 Rue de Vitry</desc>
<link href="https://chemins.be/treignes/chemin/29"/><trkseg>
<trkpt lat="50.091735" lon="4.670139"><time>2026-05-06T18:41:12Z</time></trkpt>
<trkpt lat="50.092157" lon="4.670254"><time>2026-05-06T18:51:12Z</time></trkpt>
</trkseg>
</trk>
<trk>
<name>nvvtr29bis</name>
<cmt>v</cmt>
<desc>Treignes Chemin n°29bis Rue Trou-Maillard</desc>
<link href="https://chemins.be/treignes/chemin/29bis"/><trkseg>
<trkpt lat="50.093773" lon="4.660928"><time>2026-05-06T18:41:12Z</time></trkpt>
<trkpt lat="50.093738" lon="4.660257"><time>2026-05-06T18:51:12Z</time></trkpt>
<trkpt lat="50.093779" lon="4.658468"><time>2026-05-06T19:01:12Z</time></trkpt>
<trkpt lat="50.094123" lon="4.657660"><time>2026-05-06T19:11:12Z</time></trkpt>
<trkpt lat="50.094526" lon="4.657597"><time>2026-05-06T19:21:12Z</time></trkpt>
<trkpt lat="50.094882" lon="4.657179"><time>2026-05-06T19:31:12Z</time></trkpt>
<trkpt lat="50.094884" lon="4.657054"><time>2026-05-06T19:41:12Z</time></trkpt>
</trkseg>
</trk>
<trk>
<name>nvvtr30</name>
<cmt>r</cmt>
<desc>Treignes Chemin n°30 Rue de Vitry</desc>
<link href="https://chemins.be/treignes/chemin/30"/><trkseg>
<trkpt lat="50.091708" lon="4.670293"><time>2026-05-06T18:41:12Z</time></trkpt>
<trkpt lat="50.091764" lon="4.669427"><time>2026-05-06T18:51:12Z</time></trkpt>
<trkpt lat="50.092169" lon="4.669233"><time>2026-05-06T19:01:12Z</time></trkpt>
</trkseg>
</trk>
<trk>
<name>nvvtr31</name>
<cmt>r</cmt>
<desc>Treignes Chemin n°31 Rue de Bruyère</desc>
<link href="https://chemins.be/treignes/chemin/31"/><trkseg>
<trkpt lat="50.092330" lon="4.669696"><time>2026-05-06T18:41:12Z</time></trkpt>
<trkpt lat="50.092142" lon="4.669135"><time>2026-05-06T18:51:12Z</time></trkpt>
<trkpt lat="50.092125" lon="4.668814"><time>2026-05-06T19:01:12Z</time></trkpt>
</trkseg>
</trk>
<trk>
<name>nvvtr32</name>
<cmt>r</cmt>
<desc>Treignes Chemin n°32 </desc>
<link href="https://chemins.be/treignes/chemin/32"/><trkseg>
<trkpt lat="50.092953" lon="4.668651"><time>2026-05-06T18:41:12Z</time></trkpt>
<trkpt lat="50.092611" lon="4.668817"><time>2026-05-06T18:51:12Z</time></trkpt>
<trkpt lat="50.092152" lon="4.668800"><time>2026-05-06T19:01:12Z</time></trkpt>
</trkseg>
</trk>
<trk>
<name>nvvtr32bis</name>
<cmt>v</cmt>
<desc>Treignes Chemin n°32bis </desc>
<link href="https://chemins.be/treignes/chemin/32bis"/><trkseg>
<trkpt lat="50.084705" lon="4.669731"><time>2026-05-06T18:41:12Z</time></trkpt>
<trkpt lat="50.084175" lon="4.669854"><time>2026-05-06T18:51:12Z</time></trkpt>
<trkpt lat="50.083231" lon="4.669722"><time>2026-05-06T19:01:12Z</time></trkpt>
<trkpt lat="50.082106" lon="4.670176"><time>2026-05-06T19:11:12Z</time></trkpt>
<trkpt lat="50.080979" lon="4.671412"><time>2026-05-06T19:21:12Z</time></trkpt>
</trkseg></trk>
<trk>
<name>nvvtr32bis</name>
<cmt>d</cmt>
<desc>Treignes Chemin n°32bis </desc>
<link href="https://chemins.be/treignes/chemin/32bis"/><trkseg>
<trkpt lat="50.080979" lon="4.671412"><time>2026-05-06T19:21:12Z</time></trkpt>
<trkpt lat="50.079951" lon="4.672412"><time>2026-05-06T19:31:12Z</time></trkpt>
<trkpt lat="50.079690" lon="4.672536"><time>2026-05-06T19:41:12Z</time></trkpt>
<trkpt lat="50.077855" lon="4.672985"><time>2026-05-06T19:51:12Z</time></trkpt>
</trkseg>
</trk>
<trk>
<name>nvvtr33</name>
<cmt>r</cmt>
<desc>Treignes Chemin n°33 Rue du Ternia</desc>
<link href="https://chemins.be/treignes/chemin/33"/><trkseg>
<trkpt lat="50.091788" lon="4.670377"><time>2026-05-06T18:41:12Z</time></trkpt>
<trkpt lat="50.091687" lon="4.671355"><time>2026-05-06T18:51:12Z</time></trkpt>
<trkpt lat="50.091345" lon="4.671632"><time>2026-05-06T19:01:12Z</time></trkpt>
<trkpt lat="50.091164" lon="4.671850"><time>2026-05-06T19:11:12Z</time></trkpt>
</trkseg></trk>
<trk>
<name>nvvtr33</name>
<cmt>v</cmt>
<desc>Treignes Chemin n°33 Rue du Ternia</desc>
<link href="https://chemins.be/treignes/chemin/33"/><trkseg>
<trkpt lat="50.091164" lon="4.671850"><time>2026-05-06T19:11:12Z</time></trkpt>
<trkpt lat="50.090704" lon="4.672093"><time>2026-05-06T19:21:12Z</time></trkpt>
</trkseg>
</trk>
<trk>
<name>nvvtr36</name>
<cmt>q</cmt>
<desc>Treignes Sentier n°36 </desc>
<link href="https://chemins.be/treignes/sentier/36"/><trkseg>
<trkpt lat="50.088442" lon="4.667813"><time>2026-05-06T18:41:12Z</time></trkpt>
<trkpt lat="50.088774" lon="4.667759"><time>2026-05-06T18:51:12Z</time></trkpt>
<trkpt lat="50.089267" lon="4.668391"><time>2026-05-06T19:01:12Z</time></trkpt>
<trkpt lat="50.089841" lon="4.669009"><time>2026-05-06T19:11:12Z</time></trkpt>
<trkpt lat="50.090272" lon="4.669277"><time>2026-05-06T19:21:12Z</time></trkpt>
<trkpt lat="50.090812" lon="4.669183"><time>2026-05-06T19:31:12Z</time></trkpt>
<trkpt lat="50.090982" lon="4.669240"><time>2026-05-06T19:41:12Z</time></trkpt>
<trkpt lat="50.091252" lon="4.669214"><time>2026-05-06T19:51:12Z</time></trkpt>
</trkseg>
</trk>
<trk>
<name>nvvtr37</name>
<cmt>v</cmt>
<desc>Treignes Sentier n°37 Rue Trou-Maillard</desc>
<link href="https://chemins.be/treignes/sentier/37"/><trkseg>
<trkpt lat="50.094097" lon="4.667638"><time>2026-05-06T18:41:12Z</time></trkpt>
<trkpt lat="50.094213" lon="4.668184"><time>2026-05-06T18:51:12Z</time></trkpt>
<trkpt lat="50.094407" lon="4.669359"><time>2026-05-06T19:01:12Z</time></trkpt>
<trkpt lat="50.094239" lon="4.671832"><time>2026-05-06T19:11:12Z</time></trkpt>
<trkpt lat="50.094273" lon="4.672517"><time>2026-05-06T19:21:12Z</time></trkpt>
</trkseg>
</trk>
<trk>
<name>nvvtr38</name>
<cmt>v</cmt>
<desc>Treignes Sentier n°38 </desc>
<link href="https://chemins.be/treignes/sentier/38"/><trkseg>
<trkpt lat="50.094389" lon="4.669527"><time>2026-05-06T18:41:12Z</time></trkpt>
<trkpt lat="50.095213" lon="4.670538"><time>2026-05-06T18:51:12Z</time></trkpt>
<trkpt lat="50.095691" lon="4.669996"><time>2026-05-06T19:01:12Z</time></trkpt>
<trkpt lat="50.096079" lon="4.669496"><time>2026-05-06T19:11:12Z</time></trkpt>
<trkpt lat="50.097280" lon="4.667700"><time>2026-05-06T19:21:12Z</time></trkpt>
<trkpt lat="50.098181" lon="4.666993"><time>2026-05-06T19:31:12Z</time></trkpt>
<trkpt lat="50.098559" lon="4.666702"><time>2026-05-06T19:41:12Z</time></trkpt>
<trkpt lat="50.099288" lon="4.666581"><time>2026-05-06T19:51:12Z</time></trkpt>
<trkpt lat="50.100234" lon="4.665524"><time>2026-05-06T20:01:12Z</time></trkpt>
</trkseg></trk>
<trk>
<name>nvvtr38</name>
<cmt>d</cmt>
<desc>Treignes Sentier n°38 </desc>
<link href="https://chemins.be/treignes/sentier/38"/><trkseg>
<trkpt lat="50.100234" lon="4.665524"><time>2026-05-06T20:01:12Z</time></trkpt>
<trkpt lat="50.103290" lon="4.662398"><time>2026-05-06T20:11:12Z</time></trkpt>
</trkseg>
</trk>
<trk>
<name>nvvtr39</name>
<cmt>v</cmt>
<desc>Treignes Sentier n°39 </desc>
<link href="https://chemins.be/treignes/sentier/39"/><trkseg>
<trkpt lat="50.092138" lon="4.662626"><time>2026-05-06T18:41:12Z</time></trkpt>
<trkpt lat="50.092444" lon="4.662283"><time>2026-05-06T18:51:12Z</time></trkpt>
<trkpt lat="50.092763" lon="4.662152"><time>2026-05-06T19:01:12Z</time></trkpt>
<trkpt lat="50.093069" lon="4.661930"><time>2026-05-06T19:11:12Z</time></trkpt>
<trkpt lat="50.093061" lon="4.661525"><time>2026-05-06T19:21:12Z</time></trkpt>
<trkpt lat="50.093591" lon="4.661514"><time>2026-05-06T19:31:12Z</time></trkpt>
</trkseg>
</trk>
<trk>
<name>nvvtr4</name>
<cmt>r</cmt>
<desc>Treignes Chemin n°4 Rue Basse-aux-Raines / Rue de la Prelle / Rue Bourboux / Rue de la Chapelle</desc>
<link href="https://chemins.be/treignes/chemin/4"/><trkseg>
<trkpt lat="50.092138" lon="4.670617"><time>2026-05-06T18:41:12Z</time></trkpt>
<trkpt lat="50.091690" lon="4.670376"><time>2026-05-06T18:51:12Z</time></trkpt>
<trkpt lat="50.091123" lon="4.670373"><time>2026-05-06T19:01:12Z</time></trkpt>
<trkpt lat="50.088954" lon="4.671086"><time>2026-05-06T19:11:12Z</time></trkpt>
<trkpt lat="50.088299" lon="4.670802"><time>2026-05-06T19:21:12Z</time></trkpt>
<trkpt lat="50.087572" lon="4.670141"><time>2026-05-06T19:31:12Z</time></trkpt>
<trkpt lat="50.085549" lon="4.670351"><time>2026-05-06T19:41:12Z</time></trkpt>
<trkpt lat="50.084598" lon="4.669689"><time>2026-05-06T19:51:12Z</time></trkpt>
<trkpt lat="50.081536" lon="4.668105"><time>2026-05-06T20:01:12Z</time></trkpt>
<trkpt lat="50.079769" lon="4.669868"><time>2026-05-06T20:11:12Z</time></trkpt>
<trkpt lat="50.077783" lon="4.673013"><time>2026-05-06T20:21:12Z</time></trkpt>
<trkpt lat="50.076308" lon="4.673241"><time>2026-05-06T20:31:12Z</time></trkpt>
<trkpt lat="50.074161" lon="4.672375"><time>2026-05-06T20:41:12Z</time></trkpt>
<trkpt lat="50.071435" lon="4.673321"><time>2026-05-06T20:51:12Z</time></trkpt>
<trkpt lat="50.070244" lon="4.674892"><time>2026-05-06T21:01:12Z</time></trkpt>
<trkpt lat="50.068977" lon="4.674437"><time>2026-05-06T21:11:12Z</time></trkpt>
<trkpt lat="50.066353" lon="4.674211"><time>2026-05-06T21:21:12Z</time></trkpt>
<trkpt lat="50.062535" lon="4.672874"><time>2026-05-06T21:31:12Z</time></trkpt>
</trkseg></trk>
<trk>
<name>nvvtr4</name>
<cmt>v</cmt>
<desc>Treignes Chemin n°4 Rue Basse-aux-Raines / Rue de la Prelle / Rue Bourboux / Rue de la Chapelle</desc>
<link href="https://chemins.be/treignes/chemin/4"/><trkseg>
<trkpt lat="50.062535" lon="4.672874"><time>2026-05-06T21:31:12Z</time></trkpt>
<trkpt lat="50.059817" lon="4.670580"><time>2026-05-06T21:41:12Z</time></trkpt>
<trkpt lat="50.057659" lon="4.670524"><time>2026-05-06T21:51:12Z</time></trkpt>
<trkpt lat="50.055871" lon="4.670373"><time>2026-05-06T22:01:12Z</time></trkpt>
<trkpt lat="50.054892" lon="4.669753"><time>2026-05-06T22:11:12Z</time></trkpt>
<trkpt lat="50.053095" lon="4.669532"><time>2026-05-06T22:21:12Z</time></trkpt>
<trkpt lat="50.051383" lon="4.668437"><time>2026-05-06T22:31:12Z</time></trkpt>
<trkpt lat="50.050736" lon="4.667664"><time>2026-05-06T22:41:12Z</time></trkpt>
<trkpt lat="50.049782" lon="4.667682"><time>2026-05-06T22:51:12Z</time></trkpt>
<trkpt lat="50.049225" lon="4.667539"><time>2026-05-06T23:01:12Z</time></trkpt>
<trkpt lat="50.047768" lon="4.667271"><time>2026-05-06T23:11:12Z</time></trkpt>
<trkpt lat="50.046848" lon="4.667028"><time>2026-05-06T23:21:12Z</time></trkpt>
<trkpt lat="50.045105" lon="4.666927"><time>2026-05-06T23:31:12Z</time></trkpt>
</trkseg>
</trk>
<trk>
<name>nvvtr40</name>
<cmt>q</cmt>
<desc>Treignes Sentier n°40 </desc>
<link href="https://chemins.be/treignes/sentier/40"/><trkseg>
<trkpt lat="50.089897" lon="4.650340"><time>2026-05-06T18:41:12Z</time></trkpt>
<trkpt lat="50.090359" lon="4.648917"><time>2026-05-06T18:51:12Z</time></trkpt>
</trkseg>
</trk>
<trk>
<name>nvvtr41</name>
<cmt>s</cmt>
<desc>Treignes Sentier n°41 </desc>
<link href="https://chemins.be/treignes/sentier/41"/><trkseg>
<trkpt lat="50.094125" lon="4.674263"><time>2026-05-06T18:41:12Z</time></trkpt>
<trkpt lat="50.094803" lon="4.676308"><time>2026-05-06T18:51:12Z</time></trkpt>
<trkpt lat="50.095319" lon="4.678184"><time>2026-05-06T19:01:12Z</time></trkpt>
<trkpt lat="50.096251" lon="4.679364"><time>2026-05-06T19:11:12Z</time></trkpt>
<trkpt lat="50.096887" lon="4.680291"><time>2026-05-06T19:21:12Z</time></trkpt>
<trkpt lat="50.098933" lon="4.681520"><time>2026-05-06T19:31:12Z</time></trkpt>
<trkpt lat="50.100822" lon="4.684398"><time>2026-05-06T19:41:12Z</time></trkpt>
<trkpt lat="50.101863" lon="4.685104"><time>2026-05-06T19:51:12Z</time></trkpt>
</trkseg>
</trk>
<trk>
<name>nvvtr42</name>
<cmt>v</cmt>
<desc>Treignes Sentier n°42 </desc>
<link href="https://chemins.be/treignes/sentier/42"/><trkseg>
<trkpt lat="50.093137" lon="4.685992"><time>2026-05-06T18:41:12Z</time></trkpt>
<trkpt lat="50.092965" lon="4.684374"><time>2026-05-06T18:51:12Z</time></trkpt>
<trkpt lat="50.093004" lon="4.683172"><time>2026-05-06T19:01:12Z</time></trkpt>
<trkpt lat="50.093233" lon="4.681399"><time>2026-05-06T19:11:12Z</time></trkpt>
</trkseg></trk>
<trk>
<name>nvvtr42</name>
<cmt>s</cmt>
<desc>Treignes Sentier n°42 </desc>
<link href="https://chemins.be/treignes/sentier/42"/><trkseg>
<trkpt lat="50.093233" lon="4.681399"><time>2026-05-06T19:11:12Z</time></trkpt>
<trkpt lat="50.093702" lon="4.680969"><time>2026-05-06T19:21:12Z</time></trkpt>
<trkpt lat="50.094966" lon="4.679132"><time>2026-05-06T19:31:12Z</time></trkpt>
<trkpt lat="50.095200" lon="4.679050"><time>2026-05-06T19:41:12Z</time></trkpt>
<trkpt lat="50.095320" lon="4.677932"><time>2026-05-06T19:51:12Z</time></trkpt>
</trkseg>
</trk>
<trk>
<name>nvvtr43</name>
<cmt>v</cmt>
<desc>Treignes Sentier n°43 </desc>
<link href="https://chemins.be/treignes/sentier/43"/><trkseg>
<trkpt lat="50.091968" lon="4.663321"><time>2026-05-06T18:41:12Z</time></trkpt>
<trkpt lat="50.089068" lon="4.662031"><time>2026-05-06T18:51:12Z</time></trkpt>
<trkpt lat="50.088236" lon="4.660349"><time>2026-05-06T19:01:12Z</time></trkpt>
<trkpt lat="50.087332" lon="4.658779"><time>2026-05-06T19:11:12Z</time></trkpt>
<trkpt lat="50.086408" lon="4.654357"><time>2026-05-06T19:21:12Z</time></trkpt>
<trkpt lat="50.085536" lon="4.650761"><time>2026-05-06T19:31:12Z</time></trkpt>
<trkpt lat="50.085264" lon="4.647853"><time>2026-05-06T19:41:12Z</time></trkpt>
<trkpt lat="50.085102" lon="4.647782"><time>2026-05-06T19:51:12Z</time></trkpt>
<trkpt lat="50.084898" lon="4.646901"><time>2026-05-06T20:01:12Z</time></trkpt>
</trkseg>
</trk>
<trk>
<name>nvvtr44</name>
<cmt>s</cmt>
<desc>Treignes Sentier n°44 </desc>
<link href="https://chemins.be/treignes/sentier/44"/><trkseg>
<trkpt lat="50.089557" lon="4.664242"><time>2026-05-06T18:41:12Z</time></trkpt>
<trkpt lat="50.089362" lon="4.663193"><time>2026-05-06T18:51:12Z</time></trkpt>
<trkpt lat="50.089050" lon="4.662115"><time>2026-05-06T19:01:12Z</time></trkpt>
</trkseg>
</trk>
<trk>
<name>nvvtr45</name>
<cmt>r</cmt>
<desc>Treignes Sentier n°45 Rue du Gay</desc>
<link href="https://chemins.be/treignes/sentier/45"/><trkseg>
<trkpt lat="50.103994" lon="4.661382"><time>2026-05-06T18:41:12Z</time></trkpt>
<trkpt lat="50.107552" lon="4.658888"><time>2026-05-06T18:51:12Z</time></trkpt>
</trkseg>
</trk>
<trk>
<name>nvvtr46</name>
<cmt>d</cmt>
<desc>Treignes Sentier n°46 </desc>
<link href="https://chemins.be/treignes/sentier/46"/><trkseg>
<trkpt lat="50.090769" lon="4.673541"><time>2026-05-06T18:41:12Z</time></trkpt>
<trkpt lat="50.090684" lon="4.672109"><time>2026-05-06T18:51:12Z</time></trkpt>
</trkseg>
</trk>
<trk>
<name>nvvtr47</name>
<cmt>q</cmt>
<desc>Treignes Sentier n°47 Rue Bourboux</desc>
<link href="https://chemins.be/treignes/sentier/47"/><trkseg>
<trkpt lat="50.074000" lon="4.672388"><time>2026-05-06T18:41:12Z</time></trkpt>
<trkpt lat="50.070612" lon="4.671766"><time>2026-05-06T18:51:12Z</time></trkpt>
</trkseg></trk>
<trk>
<name>nvvtr47</name>
<cmt>s</cmt>
<desc>Treignes Sentier n°47 Rue Bourboux</desc>
<link href="https://chemins.be/treignes/sentier/47"/><trkseg>
<trkpt lat="50.070612" lon="4.671766"><time>2026-05-06T18:51:12Z</time></trkpt>
<trkpt lat="50.068920" lon="4.672160"><time>2026-05-06T19:01:12Z</time></trkpt>
<trkpt lat="50.064145" lon="4.672786"><time>2026-05-06T19:11:12Z</time></trkpt>
<trkpt lat="50.062490" lon="4.672845"><time>2026-05-06T19:21:12Z</time></trkpt>
<trkpt lat="50.058498" lon="4.672848"><time>2026-05-06T19:31:12Z</time></trkpt>
<trkpt lat="50.051142" lon="4.673695"><time>2026-05-06T19:41:12Z</time></trkpt>
</trkseg>
</trk>
<trk>
<name>nvvtr48</name>
<cmt>d</cmt>
<desc>Treignes Sentier n°48 </desc>
<link href="https://chemins.be/treignes/sentier/48"/><trkseg>
<trkpt lat="50.050744" lon="4.667702"><time>2026-05-06T18:41:12Z</time></trkpt>
<trkpt lat="50.052705" lon="4.667407"><time>2026-05-06T18:51:12Z</time></trkpt>
<trkpt lat="50.054988" lon="4.668187"><time>2026-05-06T19:01:12Z</time></trkpt>
</trkseg></trk>
<trk>
<name>nvvtr48</name>
<cmt>v</cmt>
<desc>Treignes Sentier n°48 </desc>
<link href="https://chemins.be/treignes/sentier/48"/><trkseg>
<trkpt lat="50.054988" lon="4.668187"><time>2026-05-06T19:01:12Z</time></trkpt>
<trkpt lat="50.055196" lon="4.668199"><time>2026-05-06T19:11:12Z</time></trkpt>
<trkpt lat="50.057637" lon="4.668667"><time>2026-05-06T19:21:12Z</time></trkpt>
<trkpt lat="50.059862" lon="4.670622"><time>2026-05-06T19:31:12Z</time></trkpt>
</trkseg>
</trk>
<trk>
<name>nvvtr49</name>
<cmt>d</cmt>
<desc>Treignes Sentier n°49 </desc>
<link href="https://chemins.be/treignes/sentier/49"/><trkseg>
<trkpt lat="50.096800" lon="4.643769"><time>2026-05-06T18:41:12Z</time></trkpt>
<trkpt lat="50.098279" lon="4.645651"><time>2026-05-06T18:51:12Z</time></trkpt>
<trkpt lat="50.099801" lon="4.648232"><time>2026-05-06T19:01:12Z</time></trkpt>
<trkpt lat="50.100564" lon="4.652527"><time>2026-05-06T19:11:12Z</time></trkpt>
</trkseg></trk>
<trk>
<name>nvvtr49</name>
<cmt>v</cmt>
<desc>Treignes Sentier n°49 </desc>
<link href="https://chemins.be/treignes/sentier/49"/><trkseg>
<trkpt lat="50.100564" lon="4.652527"><time>2026-05-06T19:11:12Z</time></trkpt>
<trkpt lat="50.101107" lon="4.654711"><time>2026-05-06T19:21:12Z</time></trkpt>
<trkpt lat="50.101923" lon="4.655666"><time>2026-05-06T19:31:12Z</time></trkpt>
</trkseg>
</trk>
<trk>
<name>nvvtr5</name>
<cmt>r</cmt>
<desc>Treignes Chemin n°5 Rue Bourboux</desc>
<link href="https://chemins.be/treignes/chemin/5"/><trkseg>
<trkpt lat="50.062427" lon="4.673110"><time>2026-05-06T18:41:12Z</time></trkpt>
<trkpt lat="50.061967" lon="4.673624"><time>2026-05-06T18:51:12Z</time></trkpt>
<trkpt lat="50.061830" lon="4.674140"><time>2026-05-06T19:01:12Z</time></trkpt>
<trkpt lat="50.061219" lon="4.674164"><time>2026-05-06T19:11:12Z</time></trkpt>
<trkpt lat="50.058207" lon="4.674354"><time>2026-05-06T19:21:12Z</time></trkpt>
<trkpt lat="50.056190" lon="4.675556"><time>2026-05-06T19:31:12Z</time></trkpt>
<trkpt lat="50.054420" lon="4.675084"><time>2026-05-06T19:41:12Z</time></trkpt>
<trkpt lat="50.051097" lon="4.673764"><time>2026-05-06T19:51:12Z</time></trkpt>
<trkpt lat="50.049535" lon="4.672721"><time>2026-05-06T20:01:12Z</time></trkpt>
<trkpt lat="50.047918" lon="4.672334"><time>2026-05-06T20:11:12Z</time></trkpt>
<trkpt lat="50.046175" lon="4.672671"><time>2026-05-06T20:21:12Z</time></trkpt>
<trkpt lat="50.044953" lon="4.673586"><time>2026-05-06T20:31:12Z</time></trkpt>
<trkpt lat="50.043538" lon="4.673408"><time>2026-05-06T20:41:12Z</time></trkpt>
</trkseg>
</trk>
<trk>
<name>nvvtr50</name>
<cmt>v</cmt>
<desc>Treignes Sentier n°50 </desc>
<link href="https://chemins.be/treignes/sentier/50"/><trkseg>
<trkpt lat="50.093052" lon="4.661483"><time>2026-05-06T18:41:12Z</time></trkpt>
<trkpt lat="50.093026" lon="4.660993"><time>2026-05-06T18:51:12Z</time></trkpt>
</trkseg></trk>
<trk>
<name>nvvtr50</name>
<cmt>b</cmt>
<desc>Treignes Sentier n°50 </desc>
<link href="https://chemins.be/treignes/sentier/50"/><trkseg>
<trkpt lat="50.093026" lon="4.660993"><time>2026-05-06T18:51:12Z</time></trkpt>
<trkpt lat="50.092991" lon="4.660560"><time>2026-05-06T19:01:12Z</time></trkpt>
<trkpt lat="50.092932" lon="4.659260"><time>2026-05-06T19:11:12Z</time></trkpt>
<trkpt lat="50.093274" lon="4.658926"><time>2026-05-06T19:21:12Z</time></trkpt>
<trkpt lat="50.093330" lon="4.658312"><time>2026-05-06T19:31:12Z</time></trkpt>
<trkpt lat="50.094088" lon="4.657184"><time>2026-05-06T19:41:12Z</time></trkpt>
<trkpt lat="50.094887" lon="4.657047"><time>2026-05-06T19:51:12Z</time></trkpt>
</trkseg></trk>
<trk>
<name>nvvtr50</name>
<cmt>v</cmt>
<desc>Treignes Sentier n°50 </desc>
<link href="https://chemins.be/treignes/sentier/50"/><trkseg>
<trkpt lat="50.094887" lon="4.657047"><time>2026-05-06T19:51:12Z</time></trkpt>
<trkpt lat="50.095267" lon="4.656521"><time>2026-05-06T20:01:12Z</time></trkpt>
<trkpt lat="50.095156" lon="4.654410"><time>2026-05-06T20:11:12Z</time></trkpt>
<trkpt lat="50.095300" lon="4.654047"><time>2026-05-06T20:21:12Z</time></trkpt>
<trkpt lat="50.095552" lon="4.654216"><time>2026-05-06T20:31:12Z</time></trkpt>
<trkpt lat="50.096157" lon="4.654109"><time>2026-05-06T20:41:12Z</time></trkpt>
<trkpt lat="50.096407" lon="4.653762"><time>2026-05-06T20:51:12Z</time></trkpt>
<trkpt lat="50.096595" lon="4.652804"><time>2026-05-06T21:01:12Z</time></trkpt>
<trkpt lat="50.097235" lon="4.651702"><time>2026-05-06T21:11:12Z</time></trkpt>
<trkpt lat="50.097786" lon="4.651448"><time>2026-05-06T21:21:12Z</time></trkpt>
<trkpt lat="50.098586" lon="4.651127"><time>2026-05-06T21:31:12Z</time></trkpt>
<trkpt lat="50.098862" lon="4.651212"><time>2026-05-06T21:41:12Z</time></trkpt>
</trkseg></trk>
<trk>
<name>nvvtr50</name>
<cmt>d</cmt>
<desc>Treignes Sentier n°50 </desc>
<link href="https://chemins.be/treignes/sentier/50"/><trkseg>
<trkpt lat="50.098862" lon="4.651212"><time>2026-05-06T21:41:12Z</time></trkpt>
<trkpt lat="50.099220" lon="4.649245"><time>2026-05-06T21:51:12Z</time></trkpt>
<trkpt lat="50.102259" lon="4.642920"><time>2026-05-06T22:01:12Z</time></trkpt>
</trkseg>
</trk>
<trk>
<name>nvvtr51</name>
<cmt>s</cmt>
<desc>Treignes Sentier n°51 </desc>
<link href="https://chemins.be/treignes/sentier/51"/><trkseg>
<trkpt lat="50.088597" lon="4.663202"><time>2026-05-06T18:41:12Z</time></trkpt>
<trkpt lat="50.085876" lon="4.662137"><time>2026-05-06T18:51:12Z</time></trkpt>
</trkseg></trk>
<trk>
<name>nvvtr51</name>
<cmt>d</cmt>
<desc>Treignes Sentier n°51 </desc>
<link href="https://chemins.be/treignes/sentier/51"/><trkseg>
<trkpt lat="50.085876" lon="4.662137"><time>2026-05-06T18:51:12Z</time></trkpt>
<trkpt lat="50.082715" lon="4.660497"><time>2026-05-06T19:01:12Z</time></trkpt>
</trkseg>
</trk>
<trk>
<name>nvvtr52</name>
<cmt>b</cmt>
<desc>Treignes Sentier n°52 </desc>
<link href="https://chemins.be/treignes/sentier/52"/><trkseg>
<trkpt lat="50.091447" lon="4.670179"><time>2026-05-06T18:41:12Z</time></trkpt>
<trkpt lat="50.091296" lon="4.669577"><time>2026-05-06T18:51:12Z</time></trkpt>
<trkpt lat="50.091288" lon="4.669242"><time>2026-05-06T19:01:12Z</time></trkpt>
</trkseg></trk>
<trk>
<name>nvvtr52</name>
<cmt>s</cmt>
<desc>Treignes Sentier n°52 </desc>
<link href="https://chemins.be/treignes/sentier/52"/><trkseg>
<trkpt lat="50.091288" lon="4.669242"><time>2026-05-06T19:01:12Z</time></trkpt>
<trkpt lat="50.088945" lon="4.667955"><time>2026-05-06T19:11:12Z</time></trkpt>
<trkpt lat="50.085257" lon="4.665208"><time>2026-05-06T19:21:12Z</time></trkpt>
</trkseg>
</trk>
<trk>
<name>nvvtr53</name>
<cmt>d</cmt>
<desc>Treignes Sentier n°53 </desc>
<link href="https://chemins.be/treignes/sentier/53"/><trkseg>
<trkpt lat="50.095339" lon="4.670511"><time>2026-05-06T18:41:12Z</time></trkpt>
<trkpt lat="50.095679" lon="4.671268"><time>2026-05-06T18:51:12Z</time></trkpt>
<trkpt lat="50.096164" lon="4.671481"><time>2026-05-06T19:01:12Z</time></trkpt>
</trkseg>
</trk>
<trk>
<name>nvvtr54</name>
<cmt>v</cmt>
<desc>Treignes Sentier n°54 </desc>
<link href="https://chemins.be/treignes/sentier/54"/><trkseg>
<trkpt lat="50.090881" lon="4.670273"><time>2026-05-06T18:41:12Z</time></trkpt>
<trkpt lat="50.090648" lon="4.669881"><time>2026-05-06T18:51:12Z</time></trkpt>
<trkpt lat="50.090136" lon="4.669598"><time>2026-05-06T19:01:12Z</time></trkpt>
<trkpt lat="50.089400" lon="4.669202"><time>2026-05-06T19:11:12Z</time></trkpt>
<trkpt lat="50.089157" lon="4.669103"><time>2026-05-06T19:21:12Z</time></trkpt>
<trkpt lat="50.088673" lon="4.668876"><time>2026-05-06T19:31:12Z</time></trkpt>
<trkpt lat="50.088493" lon="4.668791"><time>2026-05-06T19:41:12Z</time></trkpt>
<trkpt lat="50.087630" lon="4.668576"><time>2026-05-06T19:51:12Z</time></trkpt>
<trkpt lat="50.086498" lon="4.668331"><time>2026-05-06T20:01:12Z</time></trkpt>
</trkseg></trk>
<trk>
<name>nvvtr54</name>
<cmt>d</cmt>
<desc>Treignes Sentier n°54 </desc>
<link href="https://chemins.be/treignes/sentier/54"/><trkseg>
<trkpt lat="50.086498" lon="4.668331"><time>2026-05-06T20:01:12Z</time></trkpt>
<trkpt lat="50.084479" lon="4.667005"><time>2026-05-06T20:11:12Z</time></trkpt>
<trkpt lat="50.083026" lon="4.665501"><time>2026-05-06T20:21:12Z</time></trkpt>
</trkseg>
</trk>
<trk>
<name>nvvtr55</name>
<cmt>v</cmt>
<desc>Treignes Sentier n°55 </desc>
<link href="https://chemins.be/treignes/sentier/55"/><trkseg>
<trkpt lat="50.088290" lon="4.670774"><time>2026-05-06T18:41:12Z</time></trkpt>
<trkpt lat="50.086761" lon="4.671072"><time>2026-05-06T18:51:12Z</time></trkpt>
<trkpt lat="50.085089" lon="4.670726"><time>2026-05-06T19:01:12Z</time></trkpt>
<trkpt lat="50.084731" lon="4.670318"><time>2026-05-06T19:11:12Z</time></trkpt>
<trkpt lat="50.083292" lon="4.670267"><time>2026-05-06T19:21:12Z</time></trkpt>
<trkpt lat="50.082410" lon="4.670667"><time>2026-05-06T19:31:12Z</time></trkpt>
</trkseg></trk>
<trk>
<name>nvvtr55</name>
<cmt>d</cmt>
<desc>Treignes Sentier n°55 </desc>
<link href="https://chemins.be/treignes/sentier/55"/><trkseg>
<trkpt lat="50.082410" lon="4.670667"><time>2026-05-06T19:31:12Z</time></trkpt>
<trkpt lat="50.081076" lon="4.672084"><time>2026-05-06T19:41:12Z</time></trkpt>
<trkpt lat="50.079951" lon="4.672440"><time>2026-05-06T19:51:12Z</time></trkpt>
</trkseg>
</trk>
<trk>
<name>nvvtr6</name>
<cmt>r</cmt>
<desc>Treignes Chemin n°6 Rue Bourboux</desc>
<link href="https://chemins.be/treignes/chemin/6"/><trkseg>
<trkpt lat="50.069920" lon="4.674834"><time>2026-05-06T18:41:12Z</time></trkpt>
<trkpt lat="50.074344" lon="4.677894"><time>2026-05-06T18:51:12Z</time></trkpt>
</trkseg>
</trk>
<trk>
<name>nvvtr7</name>
<cmt>r</cmt>
<desc>Treignes Chemin n°7 Rue de Matignolles / Rue du Gay</desc>
<link href="https://chemins.be/treignes/chemin/7"/><trkseg>
<trkpt lat="50.103022" lon="4.658063"><time>2026-05-06T18:41:12Z</time></trkpt>
<trkpt lat="50.103814" lon="4.661577"><time>2026-05-06T18:51:12Z</time></trkpt>
<trkpt lat="50.103354" lon="4.662161"><time>2026-05-06T19:01:12Z</time></trkpt>
<trkpt lat="50.103833" lon="4.664624"><time>2026-05-06T19:11:12Z</time></trkpt>
</trkseg></trk>
<trk>
<name>nvvtr7</name>
<cmt>v</cmt>
<desc>Treignes Chemin n°7 Rue de Matignolles / Rue du Gay</desc>
<link href="https://chemins.be/treignes/chemin/7"/><trkseg>
<trkpt lat="50.103833" lon="4.664624"><time>2026-05-06T19:11:12Z</time></trkpt>
<trkpt lat="50.104550" lon="4.669004"><time>2026-05-06T19:21:12Z</time></trkpt>
<trkpt lat="50.105576" lon="4.671904"><time>2026-05-06T19:31:12Z</time></trkpt>
<trkpt lat="50.106277" lon="4.675292"><time>2026-05-06T19:41:12Z</time></trkpt>
<trkpt lat="50.106315" lon="4.677990"><time>2026-05-06T19:51:12Z</time></trkpt>
<trkpt lat="50.106476" lon="4.678410"><time>2026-05-06T20:01:12Z</time></trkpt>
<trkpt lat="50.106509" lon="4.679277"><time>2026-05-06T20:11:12Z</time></trkpt>
<trkpt lat="50.107194" lon="4.682008"><time>2026-05-06T20:21:12Z</time></trkpt>
<trkpt lat="50.106967" lon="4.683124"><time>2026-05-06T20:31:12Z</time></trkpt>
</trkseg>
</trk>
<trk>
<name>nvvtr8</name>
<cmt>s</cmt>
<desc>Treignes Chemin n°8 </desc>
<link href="https://chemins.be/treignes/chemin/8"/><trkseg>
<trkpt lat="50.106753" lon="4.685695"><time>2026-05-06T18:41:12Z</time></trkpt>
<trkpt lat="50.106640" lon="4.684115"><time>2026-05-06T18:51:12Z</time></trkpt>
</trkseg></trk>
<trk>
<name>nvvtr8</name>
<cmt>v</cmt>
<desc>Treignes Chemin n°8 </desc>
<link href="https://chemins.be/treignes/chemin/8"/><trkseg>
<trkpt lat="50.106640" lon="4.684115"><time>2026-05-06T18:51:12Z</time></trkpt>
<trkpt lat="50.107021" lon="4.683083"><time>2026-05-06T19:01:12Z</time></trkpt>
</trkseg></trk>
<trk>
<name>nvvtr8</name>
<cmt>s</cmt>
<desc>Treignes Chemin n°8 </desc>
<link href="https://chemins.be/treignes/chemin/8"/><trkseg>
<trkpt lat="50.107021" lon="4.683083"><time>2026-05-06T19:01:12Z</time></trkpt>
<trkpt lat="50.107921" lon="4.681161"><time>2026-05-06T19:11:12Z</time></trkpt>
<trkpt lat="50.108998" lon="4.676553"><time>2026-05-06T19:21:12Z</time></trkpt>
<trkpt lat="50.109127" lon="4.675338"><time>2026-05-06T19:31:12Z</time></trkpt>
</trkseg></trk>
<trk>
<name>nvvtr8</name>
<cmt>v</cmt>
<desc>Treignes Chemin n°8 </desc>
<link href="https://chemins.be/treignes/chemin/8"/><trkseg>
<trkpt lat="50.109127" lon="4.675338"><time>2026-05-06T19:31:12Z</time></trkpt>
<trkpt lat="50.109410" lon="4.673956"><time>2026-05-06T19:41:12Z</time></trkpt>
<trkpt lat="50.109807" lon="4.673399"><time>2026-05-06T19:51:12Z</time></trkpt>
</trkseg></trk>
<trk>
<name>nvvtr8</name>
<cmt>s</cmt>
<desc>Treignes Chemin n°8 </desc>
<link href="https://chemins.be/treignes/chemin/8"/><trkseg>
<trkpt lat="50.109807" lon="4.673399"><time>2026-05-06T19:51:12Z</time></trkpt>
<trkpt lat="50.110752" lon="4.670768"><time>2026-05-06T20:01:12Z</time></trkpt>
</trkseg>
</trk>
<trk>
<name>nvvtri1</name>
<cmt>v</cmt>
<desc>Treignes Chemin n°i1 Rue Trou-Maillard</desc>
<link href="https://chemins.be/treignes/chemin/i1"/><trkseg>
<trkpt lat="50.094419" lon="4.657592"><time>2026-05-06T18:41:12Z</time></trkpt>
<trkpt lat="50.094860" lon="4.657636"><time>2026-05-06T18:51:12Z</time></trkpt>
<trkpt lat="50.095741" lon="4.657670"><time>2026-05-06T19:01:12Z</time></trkpt>
<trkpt lat="50.096162" lon="4.658175"><time>2026-05-06T19:11:12Z</time></trkpt>
<trkpt lat="50.096452" lon="4.660875"><time>2026-05-06T19:21:12Z</time></trkpt>
<trkpt lat="50.097654" lon="4.665662"><time>2026-05-06T19:31:12Z</time></trkpt>
<trkpt lat="50.097958" lon="4.666181"><time>2026-05-06T19:41:12Z</time></trkpt>
<trkpt lat="50.098668" lon="4.666130"><time>2026-05-06T19:51:12Z</time></trkpt>
<trkpt lat="50.099279" lon="4.666553"><time>2026-05-06T20:01:12Z</time></trkpt>
</trkseg>
</trk>
<trk>
<name>nvvtri10</name>
<cmt>v</cmt>
<desc>Treignes Chemin n°i10 Herdal de Becqnée</desc>
<link href="https://chemins.be/treignes/chemin/i10"/><trkseg>
<trkpt lat="50.089180" lon="4.670933"><time>2026-05-06T18:41:12Z</time></trkpt>
<trkpt lat="50.089092" lon="4.670052"><time>2026-05-06T18:51:12Z</time></trkpt>
<trkpt lat="50.088887" lon="4.669394"><time>2026-05-06T19:01:12Z</time></trkpt>
<trkpt lat="50.088717" lon="4.668904"><time>2026-05-06T19:11:12Z</time></trkpt>
</trkseg>
</trk>
<trk>
<name>nvvtri11</name>
<cmt>s</cmt>
<desc>Treignes Chemin n°i11 </desc>
<link href="https://chemins.be/treignes/chemin/i11"/><trkseg>
<trkpt lat="50.085102" lon="4.647852"><time>2026-05-06T18:41:12Z</time></trkpt>
<trkpt lat="50.085475" lon="4.649894"><time>2026-05-06T18:51:12Z</time></trkpt>
<trkpt lat="50.085267" lon="4.650117"><time>2026-05-06T19:01:12Z</time></trkpt>
<trkpt lat="50.085045" lon="4.649165"><time>2026-05-06T19:11:12Z</time></trkpt>
<trkpt lat="50.084904" lon="4.647865"><time>2026-05-06T19:21:12Z</time></trkpt>
<trkpt lat="50.084556" lon="4.646871"><time>2026-05-06T19:31:12Z</time></trkpt>
</trkseg>
</trk>
<trk>
<name>nvvtri12</name>
<cmt>v</cmt>
<desc>Treignes Sentier n°i12 </desc>
<link href="https://chemins.be/treignes/sentier/i12"/><trkseg>
<trkpt lat="50.083824" lon="4.651966"><time>2026-05-06T18:41:12Z</time></trkpt>
<trkpt lat="50.084230" lon="4.651620"><time>2026-05-06T18:51:12Z</time></trkpt>
<trkpt lat="50.084430" lon="4.651386"><time>2026-05-06T19:01:12Z</time></trkpt>
<trkpt lat="50.084566" lon="4.651291"><time>2026-05-06T19:11:12Z</time></trkpt>
<trkpt lat="50.084671" lon="4.651425"><time>2026-05-06T19:21:12Z</time></trkpt>
</trkseg>
</trk>
<trk>
<name>nvvtri13</name>
<cmt>v</cmt>
<desc>Treignes Sentier n°i13 </desc>
<link href="https://chemins.be/treignes/sentier/i13"/><trkseg>
<trkpt lat="50.095673" lon="4.669968"><time>2026-05-06T18:41:12Z</time></trkpt>
<trkpt lat="50.095387" lon="4.669379"><time>2026-05-06T18:51:12Z</time></trkpt>
<trkpt lat="50.095335" lon="4.668555"><time>2026-05-06T19:01:12Z</time></trkpt>
<trkpt lat="50.095483" lon="4.667088"><time>2026-05-06T19:11:12Z</time></trkpt>
<trkpt lat="50.095602" lon="4.666194"><time>2026-05-06T19:21:12Z</time></trkpt>
<trkpt lat="50.095543" lon="4.664978"><time>2026-05-06T19:31:12Z</time></trkpt>
<trkpt lat="50.095073" lon="4.662124"><time>2026-05-06T19:41:12Z</time></trkpt>
</trkseg>
</trk>
<trk>
<name>nvvtri14</name>
<cmt>v</cmt>
<desc>Treignes Chemin n°i14 </desc>
<link href="https://chemins.be/treignes/chemin/i14"/><trkseg>
<trkpt lat="50.090377" lon="4.670424"><time>2026-05-06T18:41:12Z</time></trkpt>
<trkpt lat="50.090378" lon="4.670117"><time>2026-05-06T18:51:12Z</time></trkpt>
<trkpt lat="50.090432" lon="4.669823"><time>2026-05-06T19:01:12Z</time></trkpt>
</trkseg>
</trk>
<trk>
<name>nvvtri15</name>
<cmt>s</cmt>
<desc>Treignes Chemin n°i15 Rue Trou-Maillard</desc>
<link href="https://chemins.be/treignes/chemin/i15"/><trkseg>
<trkpt lat="50.093610" lon="4.661430"><time>2026-05-06T18:41:12Z</time></trkpt>
<trkpt lat="50.093521" lon="4.661038"><time>2026-05-06T18:51:12Z</time></trkpt>
<trkpt lat="50.093340" lon="4.661289"><time>2026-05-06T19:01:12Z</time></trkpt>
<trkpt lat="50.093151" lon="4.661441"><time>2026-05-06T19:11:12Z</time></trkpt>
<trkpt lat="50.093044" lon="4.661147"><time>2026-05-06T19:21:12Z</time></trkpt>
<trkpt lat="50.093018" lon="4.660923"><time>2026-05-06T19:31:12Z</time></trkpt>
<trkpt lat="50.092918" lon="4.661007"><time>2026-05-06T19:41:12Z</time></trkpt>
<trkpt lat="50.092596" lon="4.660641"><time>2026-05-06T19:51:12Z</time></trkpt>
<trkpt lat="50.092175" lon="4.659926"><time>2026-05-06T20:01:12Z</time></trkpt>
<trkpt lat="50.091799" lon="4.659155"><time>2026-05-06T20:11:12Z</time></trkpt>
<trkpt lat="50.091565" lon="4.659279"><time>2026-05-06T20:21:12Z</time></trkpt>
<trkpt lat="50.091439" lon="4.659432"><time>2026-05-06T20:31:12Z</time></trkpt>
<trkpt lat="50.091661" lon="4.660426"><time>2026-05-06T20:41:12Z</time></trkpt>
</trkseg>
</trk>
<trk>
<name>nvvtri16</name>
<cmt>r</cmt>
<desc>Treignes Chemin n°i16 Herdal de Becqnée</desc>
<link href="https://chemins.be/treignes/chemin/i16"/><trkseg>
<trkpt lat="50.089224" lon="4.671101"><time>2026-05-06T18:41:12Z</time></trkpt>
<trkpt lat="50.089428" lon="4.672095"><time>2026-05-06T18:51:12Z</time></trkpt>
<trkpt lat="50.089427" lon="4.672738"><time>2026-05-06T19:01:12Z</time></trkpt>
</trkseg>
</trk>
<trk>
<name>nvvtri17</name>
<cmt>v</cmt>
<desc>Treignes Chemin n°i17 </desc>
<link href="https://chemins.be/treignes/chemin/i17"/><trkseg>
<trkpt lat="50.086310" lon="4.668260"><time>2026-05-06T18:41:12Z</time></trkpt>
<trkpt lat="50.085375" lon="4.668073"><time>2026-05-06T18:51:12Z</time></trkpt>
<trkpt lat="50.082549" lon="4.665847"><time>2026-05-06T19:01:12Z</time></trkpt>
<trkpt lat="50.082066" lon="4.664880"><time>2026-05-06T19:11:12Z</time></trkpt>
<trkpt lat="50.081689" lon="4.664668"><time>2026-05-06T19:21:12Z</time></trkpt>
<trkpt lat="50.081067" lon="4.665293"><time>2026-05-06T19:31:12Z</time></trkpt>
<trkpt lat="50.081140" lon="4.664581"><time>2026-05-06T19:41:12Z</time></trkpt>
<trkpt lat="50.080533" lon="4.663250"><time>2026-05-06T19:51:12Z</time></trkpt>
<trkpt lat="50.079367" lon="4.661971"><time>2026-05-06T20:01:12Z</time></trkpt>
<trkpt lat="50.079409" lon="4.659024"><time>2026-05-06T20:11:12Z</time></trkpt>
<trkpt lat="50.080033" lon="4.656306"><time>2026-05-06T20:21:12Z</time></trkpt>
<trkpt lat="50.080648" lon="4.652995"><time>2026-05-06T20:31:12Z</time></trkpt>
<trkpt lat="50.080132" lon="4.651162"><time>2026-05-06T20:41:12Z</time></trkpt>
<trkpt lat="50.079552" lon="4.649900"><time>2026-05-06T20:51:12Z</time></trkpt>
<trkpt lat="50.079259" lon="4.649261"><time>2026-05-06T21:01:12Z</time></trkpt>
<trkpt lat="50.078061" lon="4.649529"><time>2026-05-06T21:11:12Z</time></trkpt>
<trkpt lat="50.074963" lon="4.652463"><time>2026-05-06T21:21:12Z</time></trkpt>
<trkpt lat="50.073861" lon="4.654888"><time>2026-05-06T21:31:12Z</time></trkpt>
<trkpt lat="50.072539" lon="4.655896"><time>2026-05-06T21:41:12Z</time></trkpt>
<trkpt lat="50.070749" lon="4.655617"><time>2026-05-06T21:51:12Z</time></trkpt>
</trkseg>
</trk>
<trk>
<name>nvvtri18</name>
<cmt>v</cmt>
<desc>Treignes Chemin n°i18 Rue Toine Culot</desc>
<link href="https://chemins.be/treignes/chemin/i18"/><trkseg>
<trkpt lat="50.092820" lon="4.671446"><time>2026-05-06T18:41:12Z</time></trkpt>
<trkpt lat="50.092801" lon="4.671641"><time>2026-05-06T18:51:12Z</time></trkpt>
<trkpt lat="50.092496" lon="4.671472"><time>2026-05-06T19:01:12Z</time></trkpt>
<trkpt lat="50.092496" lon="4.671374"><time>2026-05-06T19:11:12Z</time></trkpt>
<trkpt lat="50.092406" lon="4.671317"><time>2026-05-06T19:21:12Z</time></trkpt>
<trkpt lat="50.092479" lon="4.671080"><time>2026-05-06T19:31:12Z</time></trkpt>
</trkseg>
</trk>
<trk>
<name>nvvtri19</name>
<cmt>v</cmt>
<desc>Treignes Chemin n°i19 </desc>
<link href="https://chemins.be/treignes/chemin/i19"/><trkseg>
<trkpt lat="50.081364" lon="4.647048"><time>2026-05-06T18:41:12Z</time></trkpt>
<trkpt lat="50.079787" lon="4.649417"><time>2026-05-06T18:51:12Z</time></trkpt>
<trkpt lat="50.079603" lon="4.649760"><time>2026-05-06T19:01:12Z</time></trkpt>
</trkseg></trk>
<trk>
<name>nvvtri19</name>
<cmt>q</cmt>
<desc>Treignes Chemin n°i19 </desc>
<link href="https://chemins.be/treignes/chemin/i19"/><trkseg>
<trkpt lat="50.079603" lon="4.649760"><time>2026-05-06T19:01:12Z</time></trkpt>
<trkpt lat="50.078598" lon="4.651669"><time>2026-05-06T19:11:12Z</time></trkpt>
<trkpt lat="50.076808" lon="4.653150"><time>2026-05-06T19:21:12Z</time></trkpt>
</trkseg>
</trk>
<trk>
<name>nvvtri2</name>
<cmt>v</cmt>
<desc>Treignes Sentier n°i2 </desc>
<link href="https://chemins.be/treignes/sentier/i2"/><trkseg>
<trkpt lat="50.093002" lon="4.660927"><time>2026-05-06T18:41:12Z</time></trkpt>
<trkpt lat="50.092916" lon="4.660905"><time>2026-05-06T18:51:12Z</time></trkpt>
<trkpt lat="50.092813" lon="4.660723"><time>2026-05-06T19:01:12Z</time></trkpt>
<trkpt lat="50.092579" lon="4.660026"><time>2026-05-06T19:11:12Z</time></trkpt>
<trkpt lat="50.092395" lon="4.658519"><time>2026-05-06T19:21:12Z</time></trkpt>
<trkpt lat="50.092350" lon="4.658152"><time>2026-05-06T19:31:12Z</time></trkpt>
<trkpt lat="50.092136" lon="4.657368"><time>2026-05-06T19:41:12Z</time></trkpt>
<trkpt lat="50.091693" lon="4.654878"><time>2026-05-06T19:51:12Z</time></trkpt>
<trkpt lat="50.090890" lon="4.652484"><time>2026-05-06T20:01:12Z</time></trkpt>
<trkpt lat="50.090847" lon="4.651617"><time>2026-05-06T20:11:12Z</time></trkpt>
<trkpt lat="50.090517" lon="4.650497"><time>2026-05-06T20:21:12Z</time></trkpt>
<trkpt lat="50.090259" lon="4.649377"><time>2026-05-06T20:31:12Z</time></trkpt>
</trkseg>
</trk>
<trk>
<name>nvvtri20</name>
<cmt>v</cmt>
<desc>Treignes Sentier n°i20 </desc>
<link href="https://chemins.be/treignes/sentier/i20"/><trkseg>
<trkpt lat="50.089358" lon="4.647480"><time>2026-05-06T18:41:12Z</time></trkpt>
<trkpt lat="50.089750" lon="4.647737"><time>2026-05-06T18:51:12Z</time></trkpt>
<trkpt lat="50.089950" lon="4.648477"><time>2026-05-06T19:01:12Z</time></trkpt>
<trkpt lat="50.090273" lon="4.648821"><time>2026-05-06T19:11:12Z</time></trkpt>
</trkseg>
</trk>
<trk>
<name>nvvtri21</name>
<cmt>v</cmt>
<desc>Treignes Sentier n°i21 </desc>
<link href="https://chemins.be/treignes/sentier/i21"/><trkseg>
<trkpt lat="50.092499" lon="4.671475"><time>2026-05-06T18:41:12Z</time></trkpt>
<trkpt lat="50.092399" lon="4.672151"><time>2026-05-06T18:51:12Z</time></trkpt>
<trkpt lat="50.092390" lon="4.672519"><time>2026-05-06T19:01:12Z</time></trkpt>
</trkseg>
</trk>
<trk>
<name>nvvtri22</name>
<cmt>v</cmt>
<desc>Treignes Sentier n°i22 </desc>
<link href="https://chemins.be/treignes/sentier/i22"/><trkseg>
<trkpt lat="50.079524" lon="4.649763"><time>2026-05-06T18:41:12Z</time></trkpt>
<trkpt lat="50.079193" lon="4.648088"><time>2026-05-06T18:51:12Z</time></trkpt>
</trkseg>
</trk>
<trk>
<name>nvvtri23</name>
<cmt>v</cmt>
<desc>Treignes Chemin n°i23 </desc>
<link href="https://chemins.be/treignes/chemin/i23"/><trkseg>
<trkpt lat="50.096796" lon="4.658002"><time>2026-05-06T18:41:12Z</time></trkpt>
<trkpt lat="50.096721" lon="4.657319"><time>2026-05-06T18:51:12Z</time></trkpt>
<trkpt lat="50.097885" lon="4.655447"><time>2026-05-06T19:01:12Z</time></trkpt>
<trkpt lat="50.098223" lon="4.653711"><time>2026-05-06T19:11:12Z</time></trkpt>
<trkpt lat="50.098711" lon="4.654374"><time>2026-05-06T19:21:12Z</time></trkpt>
<trkpt lat="50.099086" lon="4.654159"><time>2026-05-06T19:31:12Z</time></trkpt>
<trkpt lat="50.099211" lon="4.653047"><time>2026-05-06T19:41:12Z</time></trkpt>
<trkpt lat="50.100062" lon="4.653418"><time>2026-05-06T19:51:12Z</time></trkpt>
<trkpt lat="50.100613" lon="4.655915"><time>2026-05-06T20:01:12Z</time></trkpt>
<trkpt lat="50.101013" lon="4.656598"><time>2026-05-06T20:11:12Z</time></trkpt>
</trkseg>
</trk>
<trk>
<name>nvvtri24</name>
<cmt>v</cmt>
<desc>Treignes Chemin n°i24 </desc>
<link href="https://chemins.be/treignes/chemin/i24"/><trkseg>
<trkpt lat="50.099856" lon="4.651890"><time>2026-05-06T18:41:12Z</time></trkpt>
<trkpt lat="50.099860" lon="4.651629"><time>2026-05-06T18:51:12Z</time></trkpt>
<trkpt lat="50.099528" lon="4.649215"><time>2026-05-06T19:01:12Z</time></trkpt>
<trkpt lat="50.099261" lon="4.647057"><time>2026-05-06T19:11:12Z</time></trkpt>
<trkpt lat="50.099830" lon="4.646345"><time>2026-05-06T19:21:12Z</time></trkpt>
<trkpt lat="50.099974" lon="4.645543"><time>2026-05-06T19:31:12Z</time></trkpt>
<trkpt lat="50.099730" lon="4.643759"><time>2026-05-06T19:41:12Z</time></trkpt>
<trkpt lat="50.100002" lon="4.642872"><time>2026-05-06T19:51:12Z</time></trkpt>
<trkpt lat="50.099906" lon="4.642174"><time>2026-05-06T20:01:12Z</time></trkpt>
<trkpt lat="50.100642" lon="4.639310"><time>2026-05-06T20:11:12Z</time></trkpt>
<trkpt lat="50.101469" lon="4.638859"><time>2026-05-06T20:21:12Z</time></trkpt>
</trkseg>
</trk>
<trk>
<name>nvvtri25</name>
<cmt>v</cmt>
<desc>Treignes Chemin n°i25 </desc>
<link href="https://chemins.be/treignes/chemin/i25"/><trkseg>
<trkpt lat="50.080119" lon="4.651070"><time>2026-05-06T18:41:12Z</time></trkpt>
<trkpt lat="50.079787" lon="4.649407"><time>2026-05-06T18:51:12Z</time></trkpt>
</trkseg>
</trk>
<trk>
<name>nvvtri3</name>
<cmt>v</cmt>
<desc>Treignes Chemin n°i3 </desc>
<link href="https://chemins.be/treignes/chemin/i3"/><trkseg>
<trkpt lat="50.093920" lon="4.666561"><time>2026-05-06T18:41:12Z</time></trkpt>
<trkpt lat="50.094083" lon="4.665975"><time>2026-05-06T18:51:12Z</time></trkpt>
<trkpt lat="50.093980" lon="4.664451"><time>2026-05-06T19:01:12Z</time></trkpt>
<trkpt lat="50.094100" lon="4.663110"><time>2026-05-06T19:11:12Z</time></trkpt>
<trkpt lat="50.094686" lon="4.662219"><time>2026-05-06T19:21:12Z</time></trkpt>
<trkpt lat="50.095190" lon="4.662069"><time>2026-05-06T19:31:12Z</time></trkpt>
<trkpt lat="50.095993" lon="4.661039"><time>2026-05-06T19:41:12Z</time></trkpt>
<trkpt lat="50.096583" lon="4.660987"><time>2026-05-06T19:51:12Z</time></trkpt>
<trkpt lat="50.097021" lon="4.659927"><time>2026-05-06T20:01:12Z</time></trkpt>
<trkpt lat="50.096871" lon="4.657924"><time>2026-05-06T20:11:12Z</time></trkpt>
<trkpt lat="50.100613" lon="4.657339"><time>2026-05-06T20:21:12Z</time></trkpt>
<trkpt lat="50.100988" lon="4.656539"><time>2026-05-06T20:31:12Z</time></trkpt>
<trkpt lat="50.101814" lon="4.656188"><time>2026-05-06T20:41:12Z</time></trkpt>
<trkpt lat="50.101939" lon="4.655700"><time>2026-05-06T20:51:12Z</time></trkpt>
</trkseg>
</trk>
<trk>
<name>nvvtri4</name>
<cmt>v</cmt>
<desc>Treignes Sentier n°i4 </desc>
<link href="https://chemins.be/treignes/sentier/i4"/><trkseg>
<trkpt lat="50.098869" lon="4.651220"><time>2026-05-06T18:41:12Z</time></trkpt>
<trkpt lat="50.099379" lon="4.651598"><time>2026-05-06T18:51:12Z</time></trkpt>
<trkpt lat="50.099442" lon="4.651580"><time>2026-05-06T19:01:12Z</time></trkpt>
<trkpt lat="50.099849" lon="4.651893"><time>2026-05-06T19:11:12Z</time></trkpt>
<trkpt lat="50.099859" lon="4.651997"><time>2026-05-06T19:21:12Z</time></trkpt>
<trkpt lat="50.100564" lon="4.652583"><time>2026-05-06T19:31:12Z</time></trkpt>
</trkseg>
</trk>
<trk>
<name>nvvtri5</name>
<cmt>v</cmt>
<desc>Treignes Chemin n°i5 Voye des Cravates</desc>
<link href="https://chemins.be/treignes/chemin/i5"/><trkseg>
<trkpt lat="50.043274" lon="4.677288"><time>2026-05-06T18:41:12Z</time></trkpt>
<trkpt lat="50.044075" lon="4.680546"><time>2026-05-06T18:51:12Z</time></trkpt>
</trkseg>
</trk>
<trk>
<name>nvvtri6</name>
<cmt>v</cmt>
<desc>Treignes Sentier n°i6 </desc>
<link href="https://chemins.be/treignes/sentier/i6"/><trkseg>
<trkpt lat="50.089202" lon="4.669173"><time>2026-05-06T18:41:12Z</time></trkpt>
<trkpt lat="50.089550" lon="4.670307"><time>2026-05-06T18:51:12Z</time></trkpt>
<trkpt lat="50.089622" lon="4.670335"><time>2026-05-06T19:01:12Z</time></trkpt>
<trkpt lat="50.090306" lon="4.670060"><time>2026-05-06T19:11:12Z</time></trkpt>
<trkpt lat="50.090386" lon="4.670131"><time>2026-05-06T19:21:12Z</time></trkpt>
</trkseg>
</trk>
<trk>
<name>nvvtri7</name>
<cmt>v</cmt>
<desc>Treignes Sentier n°i7 Sentier du Tienne Moessia</desc>
<link href="https://chemins.be/treignes/sentier/i7"/><trkseg>
<trkpt lat="50.091025" lon="4.673642"><time>2026-05-06T18:41:12Z</time></trkpt>
<trkpt lat="50.091519" lon="4.673827"><time>2026-05-06T18:51:12Z</time></trkpt>
<trkpt lat="50.091911" lon="4.674836"><time>2026-05-06T19:01:12Z</time></trkpt>
<trkpt lat="50.092312" lon="4.676306"><time>2026-05-06T19:11:12Z</time></trkpt>
</trkseg>
</trk>
<trk>
<name>nvvtri8</name>
<cmt>v</cmt>
<desc>Treignes Chemin n°i8 </desc>
<link href="https://chemins.be/treignes/chemin/i8"/><trkseg>
<trkpt lat="50.091108" lon="4.676032"><time>2026-05-06T18:41:12Z</time></trkpt>
<trkpt lat="50.091465" lon="4.677055"><time>2026-05-06T18:51:12Z</time></trkpt>
</trkseg>
</trk>
<trk>
<name>nvvtri9</name>
<cmt>r</cmt>
<desc>Treignes Chemin n°i9 Rue de Bruyère</desc>
<link href="https://chemins.be/treignes/chemin/i9"/><trkseg>
<trkpt lat="50.092781" lon="4.669153"><time>2026-05-06T18:41:12Z</time></trkpt>
<trkpt lat="50.092564" lon="4.669320"><time>2026-05-06T18:51:12Z</time></trkpt>
<trkpt lat="50.092339" lon="4.669696"><time>2026-05-06T19:01:12Z</time></trkpt>
</trkseg>
</trk>
<trk>
<name>nvvtrL132</name>
<cmt>t</cmt>
<desc>Treignes Chemin n°L132 </desc>
<link href="https://chemins.be/treignes/chemin/L132"/><trkseg>
<trkpt lat="50.081832" lon="4.646953"><time>2026-05-06T18:41:12Z</time></trkpt>
<trkpt lat="50.082571" lon="4.649654"><time>2026-05-06T18:51:12Z</time></trkpt>
<trkpt lat="50.082710" lon="4.659184"><time>2026-05-06T19:01:12Z</time></trkpt>
<trkpt lat="50.083010" lon="4.661393"><time>2026-05-06T19:11:12Z</time></trkpt>
<trkpt lat="50.083948" lon="4.663634"><time>2026-05-06T19:21:12Z</time></trkpt>
<trkpt lat="50.085068" lon="4.664955"><time>2026-05-06T19:31:12Z</time></trkpt>
<trkpt lat="50.086567" lon="4.666012"><time>2026-05-06T19:41:12Z</time></trkpt>
<trkpt lat="50.087895" lon="4.667082"><time>2026-05-06T19:51:12Z</time></trkpt>
<trkpt lat="50.088674" lon="4.668345"><time>2026-05-06T20:01:12Z</time></trkpt>
<trkpt lat="50.089494" lon="4.670907"><time>2026-05-06T20:11:12Z</time></trkpt>
<trkpt lat="50.089729" lon="4.677533"><time>2026-05-06T20:21:12Z</time></trkpt>
<trkpt lat="50.090675" lon="4.683338"><time>2026-05-06T20:31:12Z</time></trkpt>
<trkpt lat="50.091244" lon="4.685746"><time>2026-05-06T20:41:12Z</time></trkpt>
</trkseg>
</trk>
<trk>
<name>nvvtrr18</name>
<cmt>v</cmt>
<desc>Treignes Sentier de remembrement n°r18 Sentier "débalisé"</desc>
<link href="https://chemins.be/treignes/sentier/r18"/><trkseg>
<trkpt lat="50.085512" lon="4.650747"><time>2026-05-06T18:41:12Z</time></trkpt>
<trkpt lat="50.085212" lon="4.650941"><time>2026-05-06T18:51:12Z</time></trkpt>
<trkpt lat="50.084698" lon="4.651413"><time>2026-05-06T19:01:12Z</time></trkpt>
</trkseg>
</trk>
<trk>
<name>nvvtrr3</name>
<cmt>r</cmt>
<desc>Treignes Chemin de remembrement n°r3 Bruyère Parc Résidence Toine Culot</desc>
<link href="https://chemins.be/treignes/chemin/r3"/><trkseg>
<trkpt lat="50.089041" lon="4.664031"><time>2026-05-06T18:41:12Z</time></trkpt>
<trkpt lat="50.087857" lon="4.664024"><time>2026-05-06T18:51:12Z</time></trkpt>
</trkseg>
</trk>
<trk>
<name>nvvtrr4</name>
<cmt>v</cmt>
<desc>Treignes Chemin de remembrement n°r4 </desc>
<link href="https://chemins.be/treignes/chemin/r4"/><trkseg>
<trkpt lat="50.107908" lon="4.660204"><time>2026-05-06T18:41:12Z</time></trkpt>
<trkpt lat="50.108342" lon="4.662667"><time>2026-05-06T18:51:12Z</time></trkpt>
<trkpt lat="50.108195" lon="4.664092"><time>2026-05-06T19:01:12Z</time></trkpt>
<trkpt lat="50.108352" lon="4.665994"><time>2026-05-06T19:11:12Z</time></trkpt>
<trkpt lat="50.108294" lon="4.667322"><time>2026-05-06T19:21:12Z</time></trkpt>
<trkpt lat="50.108408" lon="4.668581"><time>2026-05-06T19:31:12Z</time></trkpt>
<trkpt lat="50.108720" lon="4.669589"><time>2026-05-06T19:41:12Z</time></trkpt>
<trkpt lat="50.109067" lon="4.670990"><time>2026-05-06T19:51:12Z</time></trkpt>
<trkpt lat="50.109656" lon="4.672671"><time>2026-05-06T20:01:12Z</time></trkpt>
<trkpt lat="50.109816" lon="4.673343"><time>2026-05-06T20:11:12Z</time></trkpt>
</trkseg>
</trk>
<trk>
<name>nvvtrr5</name>
<cmt>r</cmt>
<desc>Treignes Chemin de remembrement n°r5 Unnamed Road</desc>
<link href="https://chemins.be/treignes/chemin/r5"/><trkseg>
<trkpt lat="50.108012" lon="4.675624"><time>2026-05-06T18:41:12Z</time></trkpt>
<trkpt lat="50.109136" lon="4.675408"><time>2026-05-06T18:51:12Z</time></trkpt>
</trkseg>
</trk>
<trk>
<name>nvvtrr6</name>
<cmt>r</cmt>
<desc>Treignes Chemin de remembrement n°r6 Rue Grands-Champs</desc>
<link href="https://chemins.be/treignes/chemin/r6"/><trkseg>
<trkpt lat="50.096573" lon="4.679841"><time>2026-05-06T18:41:12Z</time></trkpt>
<trkpt lat="50.097495" lon="4.681273"><time>2026-05-06T18:51:12Z</time></trkpt>
<trkpt lat="50.098401" lon="4.682215"><time>2026-05-06T19:01:12Z</time></trkpt>
<trkpt lat="50.099063" lon="4.683450"><time>2026-05-06T19:11:12Z</time></trkpt>
<trkpt lat="50.099805" lon="4.684810"><time>2026-05-06T19:21:12Z</time></trkpt>
<trkpt lat="50.101038" lon="4.684539"><time>2026-05-06T19:31:12Z</time></trkpt>
</trkseg>
</trk>
<trk>
<name>nvvtrr7</name>
<cmt>v</cmt>
<desc>Treignes Sentier de remembrement n°r7 </desc>
<link href="https://chemins.be/treignes/sentier/r7"/><trkseg>
<trkpt lat="50.100894" lon="4.684356"><time>2026-05-06T18:41:12Z</time></trkpt>
<trkpt lat="50.100931" lon="4.683979"><time>2026-05-06T18:51:12Z</time></trkpt>
<trkpt lat="50.101608" lon="4.683061"><time>2026-05-06T19:01:12Z</time></trkpt>
</trkseg>
</trk>
<trk>
<name>nvvtrr8</name>
<cmt>v</cmt>
<desc>Treignes Sentier de remembrement n°r8 </desc>
<link href="https://chemins.be/treignes/sentier/r8"/><trkseg>
<trkpt lat="50.090823" lon="4.678406"><time>2026-05-06T18:41:12Z</time></trkpt>
<trkpt lat="50.090806" lon="4.677889"><time>2026-05-06T18:51:12Z</time></trkpt>
<trkpt lat="50.089738" lon="4.677435"><time>2026-05-06T19:01:12Z</time></trkpt>
</trkseg>
</trk>
<trk>
<name>nvvtrr9</name>
<cmt>v</cmt>
<desc>Treignes Chemin de remembrement n°r9 </desc>
<link href="https://chemins.be/treignes/chemin/r9"/><trkseg>
<trkpt lat="50.095277" lon="4.677136"><time>2026-05-06T18:41:12Z</time></trkpt>
<trkpt lat="50.095355" lon="4.678086"><time>2026-05-06T18:51:12Z</time></trkpt>
<trkpt lat="50.095335" lon="4.678785"><time>2026-05-06T19:01:12Z</time></trkpt>
</trkseg>
</trk>
<trk>
<name>nvvvr1</name>
<cmt>r</cmt>
<desc>Vierves-sur-Viroin Chemin n°1 Rue de la Chapelle / rue de Vierves / Route de Vierves</desc>
<link href="https://chemins.be/vierves/chemin/1"/><trkseg>
<trkpt lat="50.080261" lon="4.634299"><time>2026-05-06T18:41:12Z</time></trkpt>
<trkpt lat="50.080242" lon="4.634914"><time>2026-05-06T18:51:12Z</time></trkpt>
<trkpt lat="50.080088" lon="4.635234"><time>2026-05-06T19:01:12Z</time></trkpt>
<trkpt lat="50.079621" lon="4.635176"><time>2026-05-06T19:11:12Z</time></trkpt>
<trkpt lat="50.079405" lon="4.635105"><time>2026-05-06T19:21:12Z</time></trkpt>
<trkpt lat="50.079027" lon="4.635270"><time>2026-05-06T19:31:12Z</time></trkpt>
<trkpt lat="50.078882" lon="4.635912"><time>2026-05-06T19:41:12Z</time></trkpt>
<trkpt lat="50.078576" lon="4.635840"><time>2026-05-06T19:51:12Z</time></trkpt>
<trkpt lat="50.077498" lon="4.635639"><time>2026-05-06T20:01:12Z</time></trkpt>
</trkseg></trk>
<trk>
<name>nvvvr1</name>
<cmt>v</cmt>
<desc>Vierves-sur-Viroin Chemin n°1 Rue de la Chapelle / rue de Vierves / Route de Vierves</desc>
<link href="https://chemins.be/vierves/chemin/1"/><trkseg>
<trkpt lat="50.077498" lon="4.635639"><time>2026-05-06T20:01:12Z</time></trkpt>
<trkpt lat="50.077014" lon="4.634882"><time>2026-05-06T20:11:12Z</time></trkpt>
</trkseg></trk>
<trk>
<name>nvvvr1</name>
<cmt>s</cmt>
<desc>Vierves-sur-Viroin Chemin n°1 Rue de la Chapelle / rue de Vierves / Route de Vierves</desc>
<link href="https://chemins.be/vierves/chemin/1"/><trkseg>
<trkpt lat="50.077014" lon="4.634882"><time>2026-05-06T20:11:12Z</time></trkpt>
<trkpt lat="50.076441" lon="4.634124"><time>2026-05-06T20:21:12Z</time></trkpt>
</trkseg></trk>
<trk>
<name>nvvvr1</name>
<cmt>v</cmt>
<desc>Vierves-sur-Viroin Chemin n°1 Rue de la Chapelle / rue de Vierves / Route de Vierves</desc>
<link href="https://chemins.be/vierves/chemin/1"/><trkseg>
<trkpt lat="50.076441" lon="4.634124"><time>2026-05-06T20:21:12Z</time></trkpt>
<trkpt lat="50.076092" lon="4.633480"><time>2026-05-06T20:31:12Z</time></trkpt>
<trkpt lat="50.075947" lon="4.633632"><time>2026-05-06T20:41:12Z</time></trkpt>
<trkpt lat="50.075710" lon="4.635308"><time>2026-05-06T20:51:12Z</time></trkpt>
<trkpt lat="50.075479" lon="4.637695"><time>2026-05-06T21:01:12Z</time></trkpt>
<trkpt lat="50.074799" lon="4.636378"><time>2026-05-06T21:11:12Z</time></trkpt>
<trkpt lat="50.073507" lon="4.635267"><time>2026-05-06T21:21:12Z</time></trkpt>
<trkpt lat="50.072830" lon="4.636067"><time>2026-05-06T21:31:12Z</time></trkpt>
<trkpt lat="50.070893" lon="4.638354"><time>2026-05-06T21:41:12Z</time></trkpt>
<trkpt lat="50.068717" lon="4.639204"><time>2026-05-06T21:51:12Z</time></trkpt>
<trkpt lat="50.068156" lon="4.639805"><time>2026-05-06T22:01:12Z</time></trkpt>
<trkpt lat="50.066897" lon="4.639798"><time>2026-05-06T22:11:12Z</time></trkpt>
<trkpt lat="50.065630" lon="4.639763"><time>2026-05-06T22:21:12Z</time></trkpt>
<trkpt lat="50.063309" lon="4.640378"><time>2026-05-06T22:31:12Z</time></trkpt>
<trkpt lat="50.061726" lon="4.640634"><time>2026-05-06T22:41:12Z</time></trkpt>
<trkpt lat="50.059657" lon="4.641111"><time>2026-05-06T22:51:12Z</time></trkpt>
<trkpt lat="50.057755" lon="4.643042"><time>2026-05-06T23:01:12Z</time></trkpt>
<trkpt lat="50.056493" lon="4.644445"><time>2026-05-06T23:11:12Z</time></trkpt>
<trkpt lat="50.055683" lon="4.644747"><time>2026-05-06T23:21:12Z</time></trkpt>
<trkpt lat="50.052239" lon="4.644993"><time>2026-05-06T23:31:12Z</time></trkpt>
<trkpt lat="50.051404" lon="4.644653"><time>2026-05-06T23:41:12Z</time></trkpt>
<trkpt lat="50.049550" lon="4.645368"><time>2026-05-06T23:51:12Z</time></trkpt>
<trkpt lat="50.048844" lon="4.647249"><time>2026-05-07T00:01:12Z</time></trkpt>
<trkpt lat="50.048067" lon="4.648724"><time>2026-05-07T00:11:12Z</time></trkpt>
<trkpt lat="50.047174" lon="4.649948"><time>2026-05-07T00:21:12Z</time></trkpt>
<trkpt lat="50.044832" lon="4.652000"><time>2026-05-07T00:31:12Z</time></trkpt>
<trkpt lat="50.043490" lon="4.652830"><time>2026-05-07T00:41:12Z</time></trkpt>
</trkseg>
</trk>
<trk>
<name>nvvvr10</name>
<cmt>v</cmt>
<desc>Vierves-sur-Viroin Chemin n°10 </desc>
<link href="https://chemins.be/vierves/chemin/10"/><trkseg>
<trkpt lat="50.062141" lon="4.632243"><time>2026-05-06T18:41:12Z</time></trkpt>
<trkpt lat="50.061066" lon="4.634318"><time>2026-05-06T18:51:12Z</time></trkpt>
<trkpt lat="50.061144" lon="4.635464"><time>2026-05-06T19:01:12Z</time></trkpt>
<trkpt lat="50.061194" lon="4.637237"><time>2026-05-06T19:11:12Z</time></trkpt>
<trkpt lat="50.061073" lon="4.639290"><time>2026-05-06T19:21:12Z</time></trkpt>
<trkpt lat="50.059675" lon="4.640944"><time>2026-05-06T19:31:12Z</time></trkpt>
</trkseg>
</trk>
<trk>
<name>nvvvr11</name>
<cmt>v</cmt>
<desc>Vierves-sur-Viroin Chemin n°11 </desc>
<link href="https://chemins.be/vierves/chemin/11"/><trkseg>
<trkpt lat="50.065982" lon="4.639763"><time>2026-05-06T18:41:12Z</time></trkpt>
<trkpt lat="50.065415" lon="4.640706"><time>2026-05-06T18:51:12Z</time></trkpt>
<trkpt lat="50.063932" lon="4.642728"><time>2026-05-06T19:01:12Z</time></trkpt>
<trkpt lat="50.063175" lon="4.643771"><time>2026-05-06T19:11:12Z</time></trkpt>
<trkpt lat="50.061862" lon="4.643694"><time>2026-05-06T19:21:12Z</time></trkpt>
<trkpt lat="50.058811" lon="4.645128"><time>2026-05-06T19:31:12Z</time></trkpt>
<trkpt lat="50.055889" lon="4.645570"><time>2026-05-06T19:41:12Z</time></trkpt>
<trkpt lat="50.052323" lon="4.647367"><time>2026-05-06T19:51:12Z</time></trkpt>
<trkpt lat="50.050865" lon="4.647959"><time>2026-05-06T20:01:12Z</time></trkpt>
<trkpt lat="50.049822" lon="4.647953"><time>2026-05-06T20:11:12Z</time></trkpt>
<trkpt lat="50.048959" lon="4.648269"><time>2026-05-06T20:21:12Z</time></trkpt>
<trkpt lat="50.047291" lon="4.649879"><time>2026-05-06T20:31:12Z</time></trkpt>
</trkseg>
</trk>
<trk>
<name>nvvvr12</name>
<cmt>q</cmt>
<desc>Vierves-sur-Viroin Chemin n°12 </desc>
<link href="https://chemins.be/vierves/chemin/12"/><trkseg>
<trkpt lat="50.079881" lon="4.631754"><time>2026-05-06T18:41:12Z</time></trkpt>
<trkpt lat="50.079792" lon="4.631237"><time>2026-05-06T18:51:12Z</time></trkpt>
</trkseg>
</trk>
<trk>
<name>nvvvr13</name>
<cmt>r</cmt>
<desc>Vierves-sur-Viroin Chemin n°13 Rue du Vignoble</desc>
<link href="https://chemins.be/vierves/chemin/13"/><trkseg>
<trkpt lat="50.080106" lon="4.631518"><time>2026-05-06T18:41:12Z</time></trkpt>
<trkpt lat="50.080025" lon="4.631266"><time>2026-05-06T18:51:12Z</time></trkpt>
</trkseg>
</trk>
<trk>
<name>nvvvr14</name>
<cmt>r</cmt>
<desc>Vierves-sur-Viroin Chemin n°14 Rue des Lavandières / ?</desc>
<link href="https://chemins.be/vierves/chemin/14"/><trkseg>
<trkpt lat="50.080649" lon="4.633840"><time>2026-05-06T18:41:12Z</time></trkpt>
<trkpt lat="50.080381" lon="4.632986"><time>2026-05-06T18:51:12Z</time></trkpt>
<trkpt lat="50.080365" lon="4.632120"><time>2026-05-06T19:01:12Z</time></trkpt>
</trkseg></trk>
<trk>
<name>nvvvr14</name>
<cmt>v</cmt>
<desc>Vierves-sur-Viroin Chemin n°14 Rue des Lavandières / ?</desc>
<link href="https://chemins.be/vierves/chemin/14"/><trkseg>
<trkpt lat="50.080365" lon="4.632120"><time>2026-05-06T19:01:12Z</time></trkpt>
<trkpt lat="50.079306" lon="4.631388"><time>2026-05-06T19:11:12Z</time></trkpt>
<trkpt lat="50.078992" lon="4.631051"><time>2026-05-06T19:21:12Z</time></trkpt>
</trkseg>
</trk>
<trk>
<name>nvvvr16</name>
<cmt>r</cmt>
<desc>Vierves-sur-Viroin Chemin n°16 Rue de la Chapelle</desc>
<link href="https://chemins.be/vierves/chemin/16"/><trkseg>
<trkpt lat="50.077174" lon="4.635735"><time>2026-05-06T18:41:12Z</time></trkpt>
<trkpt lat="50.076794" lon="4.636739"><time>2026-05-06T18:51:12Z</time></trkpt>
<trkpt lat="50.077259" lon="4.638082"><time>2026-05-06T19:01:12Z</time></trkpt>
<trkpt lat="50.078279" lon="4.643677"><time>2026-05-06T19:11:12Z</time></trkpt>
<trkpt lat="50.078744" lon="4.644951"><time>2026-05-06T19:21:12Z</time></trkpt>
<trkpt lat="50.077757" lon="4.647655"><time>2026-05-06T19:31:12Z</time></trkpt>
<trkpt lat="50.074546" lon="4.651869"><time>2026-05-06T19:41:12Z</time></trkpt>
<trkpt lat="50.072434" lon="4.655224"><time>2026-05-06T19:51:12Z</time></trkpt>
<trkpt lat="50.069749" lon="4.653894"><time>2026-05-06T20:01:12Z</time></trkpt>
<trkpt lat="50.068041" lon="4.653954"><time>2026-05-06T20:11:12Z</time></trkpt>
</trkseg>
</trk>
<trk>
<name>nvvvr17</name>
<cmt>v</cmt>
<desc>Vierves-sur-Viroin Chemin n°17 </desc>
<link href="https://chemins.be/vierves/chemin/17"/><trkseg>
<trkpt lat="50.078816" lon="4.645021"><time>2026-05-06T18:41:12Z</time></trkpt>
<trkpt lat="50.080018" lon="4.645782"><time>2026-05-06T18:51:12Z</time></trkpt>
<trkpt lat="50.081052" lon="4.645844"><time>2026-05-06T19:01:12Z</time></trkpt>
<trkpt lat="50.081196" lon="4.646013"><time>2026-05-06T19:11:12Z</time></trkpt>
<trkpt lat="50.081456" lon="4.646056"><time>2026-05-06T19:21:12Z</time></trkpt>
<trkpt lat="50.082129" lon="4.646535"><time>2026-05-06T19:31:12Z</time></trkpt>
<trkpt lat="50.082371" lon="4.646970"><time>2026-05-06T19:41:12Z</time></trkpt>
</trkseg>
</trk>
<trk>
<name>nvvvr18</name>
<cmt>r</cmt>
<desc>Vierves-sur-Viroin Chemin n°18 Chemin du Paradis</desc>
<link href="https://chemins.be/vierves/chemin/18"/><trkseg>
<trkpt lat="50.083108" lon="4.632051"><time>2026-05-06T18:41:12Z</time></trkpt>
<trkpt lat="50.084449" lon="4.631290"><time>2026-05-06T18:51:12Z</time></trkpt>
<trkpt lat="50.084567" lon="4.630774"><time>2026-05-06T19:01:12Z</time></trkpt>
<trkpt lat="50.084892" lon="4.629951"><time>2026-05-06T19:11:12Z</time></trkpt>
<trkpt lat="50.085581" lon="4.631618"><time>2026-05-06T19:21:12Z</time></trkpt>
<trkpt lat="50.085778" lon="4.631885"><time>2026-05-06T19:31:12Z</time></trkpt>
<trkpt lat="50.085976" lon="4.631914"><time>2026-05-06T19:41:12Z</time></trkpt>
<trkpt lat="50.086812" lon="4.631918"><time>2026-05-06T19:51:12Z</time></trkpt>
<trkpt lat="50.088091" lon="4.630975"><time>2026-05-06T20:01:12Z</time></trkpt>
<trkpt lat="50.089135" lon="4.630603"><time>2026-05-06T20:11:12Z</time></trkpt>
<trkpt lat="50.090831" lon="4.627999"><time>2026-05-06T20:21:12Z</time></trkpt>
</trkseg>
</trk>
<trk>
<name>nvvvr2</name>
<cmt>v</cmt>
<desc>Vierves-sur-Viroin Chemin n°2 rue de Vierves</desc>
<link href="https://chemins.be/vierves/chemin/2"/><trkseg>
<trkpt lat="50.049307" lon="4.645339"><time>2026-05-06T18:41:12Z</time></trkpt>
<trkpt lat="50.047220" lon="4.646081"><time>2026-05-06T18:51:12Z</time></trkpt>
<trkpt lat="50.046850" lon="4.646637"><time>2026-05-06T19:01:12Z</time></trkpt>
<trkpt lat="50.046130" lon="4.646730"><time>2026-05-06T19:11:12Z</time></trkpt>
<trkpt lat="50.045283" lon="4.647438"><time>2026-05-06T19:21:12Z</time></trkpt>
<trkpt lat="50.044219" lon="4.647448"><time>2026-05-06T19:31:12Z</time></trkpt>
<trkpt lat="50.043234" lon="4.647216"><time>2026-05-06T19:41:12Z</time></trkpt>
<trkpt lat="50.041938" lon="4.647697"><time>2026-05-06T19:51:12Z</time></trkpt>
</trkseg>
</trk>
<trk>
<name>nvvvr20</name>
<cmt>v</cmt>
<desc>Vierves-sur-Viroin Chemin n°20 </desc>
<link href="https://chemins.be/vierves/chemin/20"/><trkseg>
<trkpt lat="50.055746" lon="4.644748"><time>2026-05-06T18:41:12Z</time></trkpt>
<trkpt lat="50.055879" lon="4.645405"><time>2026-05-06T18:51:12Z</time></trkpt>
</trkseg>
</trk>
<trk>
<name>nvvvr21</name>
<cmt>v</cmt>
<desc>Vierves-sur-Viroin Chemin n°21 </desc>
<link href="https://chemins.be/vierves/chemin/21"/><trkseg>
<trkpt lat="50.078925" lon="4.636737"><time>2026-05-06T18:41:12Z</time></trkpt>
<trkpt lat="50.078843" lon="4.637113"><time>2026-05-06T18:51:12Z</time></trkpt>
<trkpt lat="50.078806" lon="4.637588"><time>2026-05-06T19:01:12Z</time></trkpt>
</trkseg>
</trk>
<trk>
<name>nvvvr22</name>
<cmt>r</cmt>
<desc>Vierves-sur-Viroin Chemin n°22 Rue des Ecoles</desc>
<link href="https://chemins.be/vierves/chemin/22"/><trkseg>
<trkpt lat="50.080250" lon="4.635319"><time>2026-05-06T18:41:12Z</time></trkpt>
<trkpt lat="50.080258" lon="4.635892"><time>2026-05-06T18:51:12Z</time></trkpt>
<trkpt lat="50.080177" lon="4.635905"><time>2026-05-06T19:01:12Z</time></trkpt>
<trkpt lat="50.080059" lon="4.636310"><time>2026-05-06T19:11:12Z</time></trkpt>
<trkpt lat="50.079707" lon="4.636853"><time>2026-05-06T19:21:12Z</time></trkpt>
<trkpt lat="50.079464" lon="4.636921"><time>2026-05-06T19:31:12Z</time></trkpt>
<trkpt lat="50.079292" lon="4.637256"><time>2026-05-06T19:41:12Z</time></trkpt>
<trkpt lat="50.079345" lon="4.637913"><time>2026-05-06T19:51:12Z</time></trkpt>
<trkpt lat="50.079577" lon="4.638794"><time>2026-05-06T20:01:12Z</time></trkpt>
</trkseg>
</trk>
<trk>
<name>nvvvr23</name>
<cmt>v</cmt>
<desc>Vierves-sur-Viroin Chemin n°23 </desc>
<link href="https://chemins.be/vierves/chemin/23"/><trkseg>
<trkpt lat="50.080121" lon="4.636478"><time>2026-05-06T18:41:12Z</time></trkpt>
<trkpt lat="50.080318" lon="4.637024"><time>2026-05-06T18:51:12Z</time></trkpt>
<trkpt lat="50.081315" lon="4.637267"><time>2026-05-06T19:01:12Z</time></trkpt>
</trkseg>
</trk>
<trk>
<name>nvvvr24</name>
<cmt>v</cmt>
<desc>Vierves-sur-Viroin Chemin n°24 </desc>
<link href="https://chemins.be/vierves/chemin/24"/><trkseg>
<trkpt lat="50.079446" lon="4.636935"><time>2026-05-06T18:41:12Z</time></trkpt>
<trkpt lat="50.079150" lon="4.636640"><time>2026-05-06T18:51:12Z</time></trkpt>
<trkpt lat="50.078961" lon="4.636653"><time>2026-05-06T19:01:12Z</time></trkpt>
</trkseg>
</trk>
<trk>
<name>nvvvr25</name>
<cmt>r</cmt>
<desc>Vierves-sur-Viroin Chemin n°25 Rue du Pont</desc>
<link href="https://chemins.be/vierves/chemin/25"/><trkseg>
<trkpt lat="50.078936" lon="4.636052"><time>2026-05-06T18:41:12Z</time></trkpt>
<trkpt lat="50.078995" lon="4.637505"><time>2026-05-06T18:51:12Z</time></trkpt>
<trkpt lat="50.079200" lon="4.638387"><time>2026-05-06T19:01:12Z</time></trkpt>
<trkpt lat="50.079297" lon="4.638988"><time>2026-05-06T19:11:12Z</time></trkpt>
<trkpt lat="50.079413" lon="4.639687"><time>2026-05-06T19:21:12Z</time></trkpt>
</trkseg>
</trk>
<trk>
<name>nvvvr26</name>
<cmt>v</cmt>
<desc>Vierves-sur-Viroin Chemin n°26 Rue des Fossés</desc>
<link href="https://chemins.be/vierves/chemin/26"/><trkseg>
<trkpt lat="50.078971" lon="4.636080"><time>2026-05-06T18:41:12Z</time></trkpt>
<trkpt lat="50.079205" lon="4.636096"><time>2026-05-06T18:51:12Z</time></trkpt>
<trkpt lat="50.079413" lon="4.635845"><time>2026-05-06T19:01:12Z</time></trkpt>
<trkpt lat="50.079404" lon="4.635677"><time>2026-05-06T19:11:12Z</time></trkpt>
<trkpt lat="50.079467" lon="4.635566"><time>2026-05-06T19:21:12Z</time></trkpt>
<trkpt lat="50.079647" lon="4.635371"><time>2026-05-06T19:31:12Z</time></trkpt>
</trkseg>
</trk>
<trk>
<name>nvvvr27</name>
<cmt>v</cmt>
<desc>Vierves-sur-Viroin Chemin n°27 Rue des Fossés</desc>
<link href="https://chemins.be/vierves/chemin/27"/><trkseg>
<trkpt lat="50.079413" lon="4.635817"><time>2026-05-06T18:41:12Z</time></trkpt>
<trkpt lat="50.079683" lon="4.635749"><time>2026-05-06T18:51:12Z</time></trkpt>
</trkseg>
</trk>
<trk>
<name>nvvvr28</name>
<cmt>v</cmt>
<desc>Vierves-sur-Viroin Chemin n°28 Rue des Fossés</desc>
<link href="https://chemins.be/vierves/chemin/28"/><trkseg>
<trkpt lat="50.079322" lon="4.635984"><time>2026-05-06T18:41:12Z</time></trkpt>
<trkpt lat="50.079358" lon="4.636082"><time>2026-05-06T18:51:12Z</time></trkpt>
</trkseg>
</trk>
<trk>
<name>nvvvr29</name>
<cmt>v</cmt>
<desc>Vierves-sur-Viroin Chemin n°29 Rue des Fossés / ?</desc>
<link href="https://chemins.be/vierves/chemin/29"/><trkseg>
<trkpt lat="50.079702" lon="4.635218"><time>2026-05-06T18:41:12Z</time></trkpt>
<trkpt lat="50.079692" lon="4.635428"><time>2026-05-06T18:51:12Z</time></trkpt>
<trkpt lat="50.079701" lon="4.635735"><time>2026-05-06T19:01:12Z</time></trkpt>
<trkpt lat="50.079754" lon="4.636001"><time>2026-05-06T19:11:12Z</time></trkpt>
</trkseg>
</trk>
<trk>
<name>nvvvr30</name>
<cmt>v</cmt>
<desc>Vierves-sur-Viroin Chemin n°30 Rue des Fossés</desc>
<link href="https://chemins.be/vierves/chemin/30"/><trkseg>
<trkpt lat="50.079009" lon="4.635605"><time>2026-05-06T18:41:12Z</time></trkpt>
<trkpt lat="50.079116" lon="4.635732"><time>2026-05-06T18:51:12Z</time></trkpt>
<trkpt lat="50.079224" lon="4.635718"><time>2026-05-06T19:01:12Z</time></trkpt>
</trkseg></trk>
<trk>
<name>nvvvr30</name>
<cmt>r</cmt>
<desc>Vierves-sur-Viroin Chemin n°30 Rue des Fossés</desc>
<link href="https://chemins.be/vierves/chemin/30"/><trkseg>
<trkpt lat="50.079224" lon="4.635718"><time>2026-05-06T19:01:12Z</time></trkpt>
<trkpt lat="50.079404" lon="4.635664"><time>2026-05-06T19:11:12Z</time></trkpt>
</trkseg>
</trk>
<trk>
<name>nvvvr31</name>
<cmt>s</cmt>
<desc>Vierves-sur-Viroin Chemin n°31 </desc>
<link href="https://chemins.be/vierves/chemin/31"/><trkseg>
<trkpt lat="50.079027" lon="4.635242"><time>2026-05-06T18:41:12Z</time></trkpt>
<trkpt lat="50.078812" lon="4.635199"><time>2026-05-06T18:51:12Z</time></trkpt>
</trkseg>
</trk>
<trk>
<name>nvvvr32</name>
<cmt>v</cmt>
<desc>Vierves-sur-Viroin Chemin n°32 </desc>
<link href="https://chemins.be/vierves/chemin/32"/><trkseg>
<trkpt lat="50.079189" lon="4.635299"><time>2026-05-06T18:41:12Z</time></trkpt>
<trkpt lat="50.079215" lon="4.635690"><time>2026-05-06T18:51:12Z</time></trkpt>
</trkseg>
</trk>
<trk>
<name>nvvvr33</name>
<cmt>v</cmt>
<desc>Vierves-sur-Viroin Chemin n°33 </desc>
<link href="https://chemins.be/vierves/chemin/33"/><trkseg>
<trkpt lat="50.079936" lon="4.635177"><time>2026-05-06T18:41:12Z</time></trkpt>
<trkpt lat="50.079711" lon="4.634967"><time>2026-05-06T18:51:12Z</time></trkpt>
<trkpt lat="50.079585" lon="4.634994"><time>2026-05-06T19:01:12Z</time></trkpt>
<trkpt lat="50.079468" lon="4.635091"><time>2026-05-06T19:11:12Z</time></trkpt>
</trkseg>
</trk>
<trk>
<name>nvvvr33bis</name>
<cmt>b</cmt>
<desc>Vierves-sur-Viroin Sentier n°33bis </desc>
<link href="https://chemins.be/vierves/sentier/33bis"/><trkseg>
<trkpt lat="50.079819" lon="4.635009"><time>2026-05-06T18:41:12Z</time></trkpt>
<trkpt lat="50.079810" lon="4.634855"><time>2026-05-06T18:51:12Z</time></trkpt>
<trkpt lat="50.079711" lon="4.634925"><time>2026-05-06T19:01:12Z</time></trkpt>
</trkseg>
</trk>
<trk>
<name>nvvvr35</name>
<cmt>v</cmt>
<desc>Vierves-sur-Viroin Chemin n°35 </desc>
<link href="https://chemins.be/vierves/chemin/35"/><trkseg>
<trkpt lat="50.079809" lon="4.634326"><time>2026-05-06T18:41:12Z</time></trkpt>
<trkpt lat="50.079506" lon="4.634535"><time>2026-05-06T18:51:12Z</time></trkpt>
</trkseg></trk>
<trk>
<name>nvvvr35</name>
<cmt>d</cmt>
<desc>Vierves-sur-Viroin Chemin n°35 </desc>
<link href="https://chemins.be/vierves/chemin/35"/><trkseg>
<trkpt lat="50.079506" lon="4.634535"><time>2026-05-06T18:51:12Z</time></trkpt>
<trkpt lat="50.079389" lon="4.634600"><time>2026-05-06T19:01:12Z</time></trkpt>
<trkpt lat="50.079383" lon="4.634863"><time>2026-05-06T19:11:12Z</time></trkpt>
</trkseg></trk>
<trk>
<name>nvvvr35</name>
<cmt>s</cmt>
<desc>Vierves-sur-Viroin Chemin n°35 </desc>
<link href="https://chemins.be/vierves/chemin/35"/><trkseg>
<trkpt lat="50.079383" lon="4.634863"><time>2026-05-06T19:11:12Z</time></trkpt>
<trkpt lat="50.079410" lon="4.635093"><time>2026-05-06T19:21:12Z</time></trkpt>
</trkseg>
</trk>
<trk>
<name>nvvvr39</name>
<cmt>v</cmt>
<desc>Vierves-sur-Viroin Chemin n°39 </desc>
<link href="https://chemins.be/vierves/chemin/39"/><trkseg>
<trkpt lat="50.080672" lon="4.633863"><time>2026-05-06T18:41:12Z</time></trkpt>
<trkpt lat="50.080845" lon="4.633767"><time>2026-05-06T18:51:12Z</time></trkpt>
<trkpt lat="50.081092" lon="4.633761"><time>2026-05-06T19:01:12Z</time></trkpt>
<trkpt lat="50.081307" lon="4.633689"><time>2026-05-06T19:11:12Z</time></trkpt>
</trkseg>
</trk>
<trk>
<name>nvvvr4</name>
<cmt>r</cmt>
<desc>Vierves-sur-Viroin Chemin n°4 Chemin de Matagne-la-Petite</desc>
<link href="https://chemins.be/vierves/chemin/4"/><trkseg>
<trkpt lat="50.086852" lon="4.641756"><time>2026-05-06T18:41:12Z</time></trkpt>
<trkpt lat="50.089078" lon="4.643431"><time>2026-05-06T18:51:12Z</time></trkpt>
</trkseg></trk>
<trk>
<name>nvvvr4</name>
<cmt>v</cmt>
<desc>Vierves-sur-Viroin Chemin n°4 Chemin de Matagne-la-Petite</desc>
<link href="https://chemins.be/vierves/chemin/4"/><trkseg>
<trkpt lat="50.089078" lon="4.643431"><time>2026-05-06T18:51:12Z</time></trkpt>
<trkpt lat="50.089195" lon="4.643334"><time>2026-05-06T19:01:12Z</time></trkpt>
<trkpt lat="50.089304" lon="4.642818"><time>2026-05-06T19:11:12Z</time></trkpt>
<trkpt lat="50.089197" lon="4.642216"><time>2026-05-06T19:21:12Z</time></trkpt>
<trkpt lat="50.089191" lon="4.641224"><time>2026-05-06T19:31:12Z</time></trkpt>
</trkseg></trk>
<trk>
<name>nvvvr4</name>
<cmt>q</cmt>
<desc>Vierves-sur-Viroin Chemin n°4 Chemin de Matagne-la-Petite</desc>
<link href="https://chemins.be/vierves/chemin/4"/><trkseg>
<trkpt lat="50.089191" lon="4.641224"><time>2026-05-06T19:31:12Z</time></trkpt>
<trkpt lat="50.091395" lon="4.640748"><time>2026-05-06T19:41:12Z</time></trkpt>
</trkseg></trk>
<trk>
<name>nvvvr4</name>
<cmt>r</cmt>
<desc>Vierves-sur-Viroin Chemin n°4 Chemin de Matagne-la-Petite</desc>
<link href="https://chemins.be/vierves/chemin/4"/><trkseg>
<trkpt lat="50.091395" lon="4.640748"><time>2026-05-06T19:41:12Z</time></trkpt>
<trkpt lat="50.097277" lon="4.636029"><time>2026-05-06T19:51:12Z</time></trkpt>
</trkseg>
</trk>
<trk>
<name>nvvvr41</name>
<cmt>v</cmt>
<desc>Vierves-sur-Viroin Chemin n°41 </desc>
<link href="https://chemins.be/vierves/chemin/41"/><trkseg>
<trkpt lat="50.081124" lon="4.634290"><time>2026-05-06T18:41:12Z</time></trkpt>
<trkpt lat="50.081556" lon="4.634334"><time>2026-05-06T18:51:12Z</time></trkpt>
</trkseg>
</trk>
<trk>
<name>nvvvr48</name>
<cmt>r</cmt>
<desc>Vierves-sur-Viroin Sentier n°48 Fontaine Saint-Joseph / ?</desc>
<link href="https://chemins.be/vierves/sentier/48"/><trkseg>
<trkpt lat="50.081894" lon="4.639492"><time>2026-05-06T18:41:12Z</time></trkpt>
<trkpt lat="50.082509" lon="4.641801"><time>2026-05-06T18:51:12Z</time></trkpt>
</trkseg></trk>
<trk>
<name>nvvvr48</name>
<cmt>v</cmt>
<desc>Vierves-sur-Viroin Sentier n°48 Fontaine Saint-Joseph / ?</desc>
<link href="https://chemins.be/vierves/sentier/48"/><trkseg>
<trkpt lat="50.082509" lon="4.641801"><time>2026-05-06T18:51:12Z</time></trkpt>
<trkpt lat="50.083234" lon="4.643342"><time>2026-05-06T19:01:12Z</time></trkpt>
<trkpt lat="50.084754" lon="4.646676"><time>2026-05-06T19:11:12Z</time></trkpt>
</trkseg>
</trk>
<trk>
<name>nvvvr49</name>
<cmt>v</cmt>
<desc>Vierves-sur-Viroin Sentier n°49 </desc>
<link href="https://chemins.be/vierves/sentier/49"/><trkseg>
<trkpt lat="50.081850" lon="4.639226"><time>2026-05-06T18:41:12Z</time></trkpt>
<trkpt lat="50.082575" lon="4.640683"><time>2026-05-06T18:51:12Z</time></trkpt>
<trkpt lat="50.083955" lon="4.640601"><time>2026-05-06T19:01:12Z</time></trkpt>
<trkpt lat="50.084186" lon="4.640773"><time>2026-05-06T19:11:12Z</time></trkpt>
<trkpt lat="50.086642" lon="4.641614"><time>2026-05-06T19:21:12Z</time></trkpt>
</trkseg></trk>
<trk>
<name>nvvvr49</name>
<cmt>d</cmt>
<desc>Vierves-sur-Viroin Sentier n°49 </desc>
<link href="https://chemins.be/vierves/sentier/49"/><trkseg>
<trkpt lat="50.086642" lon="4.641614"><time>2026-05-06T19:21:12Z</time></trkpt>
<trkpt lat="50.087051" lon="4.641226"><time>2026-05-06T19:31:12Z</time></trkpt>
<trkpt lat="50.088049" lon="4.641036"><time>2026-05-06T19:41:12Z</time></trkpt>
<trkpt lat="50.088489" lon="4.641486"><time>2026-05-06T19:51:12Z</time></trkpt>
<trkpt lat="50.089182" lon="4.641182"><time>2026-05-06T20:01:12Z</time></trkpt>
</trkseg>
</trk>
<trk>
<name>nvvvr5</name>
<cmt>r</cmt>
<desc>Vierves-sur-Viroin Chemin n°5 Chemin du Paradis / ?</desc>
<link href="https://chemins.be/vierves/chemin/5"/><trkseg>
<trkpt lat="50.081504" lon="4.633384"><time>2026-05-06T18:41:12Z</time></trkpt>
<trkpt lat="50.083063" lon="4.631981"><time>2026-05-06T18:51:12Z</time></trkpt>
<trkpt lat="50.082825" lon="4.629619"><time>2026-05-06T19:01:12Z</time></trkpt>
<trkpt lat="50.082970" lon="4.629242"><time>2026-05-06T19:11:12Z</time></trkpt>
</trkseg>
</trk>
<trk>
<name>nvvvr50</name>
<cmt>d</cmt>
<desc>Vierves-sur-Viroin Sentier n°50 </desc>
<link href="https://chemins.be/vierves/sentier/50"/><trkseg>
<trkpt lat="50.084521" lon="4.631375"><time>2026-05-06T18:41:12Z</time></trkpt>
<trkpt lat="50.085230" lon="4.631672"><time>2026-05-06T18:51:12Z</time></trkpt>
<trkpt lat="50.085679" lon="4.632121"><time>2026-05-06T19:01:12Z</time></trkpt>
<trkpt lat="50.085967" lon="4.631969"><time>2026-05-06T19:11:12Z</time></trkpt>
</trkseg>
</trk>
<trk>
<name>nvvvr51</name>
<cmt>v</cmt>
<desc>Vierves-sur-Viroin Sentier n°51 Rue des Ecoles</desc>
<link href="https://chemins.be/vierves/sentier/51"/><trkseg>
<trkpt lat="50.079585" lon="4.638822"><time>2026-05-06T18:41:12Z</time></trkpt>
<trkpt lat="50.079774" lon="4.638991"><time>2026-05-06T18:51:12Z</time></trkpt>
<trkpt lat="50.080062" lon="4.638937"><time>2026-05-06T19:01:12Z</time></trkpt>
<trkpt lat="50.080305" lon="4.638714"><time>2026-05-06T19:11:12Z</time></trkpt>
<trkpt lat="50.080700" lon="4.638786"><time>2026-05-06T19:21:12Z</time></trkpt>
<trkpt lat="50.080835" lon="4.638983"><time>2026-05-06T19:31:12Z</time></trkpt>
<trkpt lat="50.081537" lon="4.638484"><time>2026-05-06T19:41:12Z</time></trkpt>
</trkseg>
</trk>
<trk>
<name>nvvvr52</name>
<cmt>b</cmt>
<desc>Vierves-sur-Viroin Sentier n°52 </desc>
<link href="https://chemins.be/vierves/sentier/52"/><trkseg>
<trkpt lat="50.079594" lon="4.638850"><time>2026-05-06T18:41:12Z</time></trkpt>
<trkpt lat="50.080257" lon="4.640181"><time>2026-05-06T18:51:12Z</time></trkpt>
</trkseg>
</trk>
<trk>
<name>nvvvr53</name>
<cmt>s</cmt>
<desc>Vierves-sur-Viroin Sentier n°53 Rue des Lavandieres</desc>
<link href="https://chemins.be/vierves/sentier/53"/><trkseg>
<trkpt lat="50.080285" lon="4.631840"><time>2026-05-06T18:41:12Z</time></trkpt>
<trkpt lat="50.080169" lon="4.631630"><time>2026-05-06T18:51:12Z</time></trkpt>
<trkpt lat="50.080052" lon="4.631559"><time>2026-05-06T19:01:12Z</time></trkpt>
</trkseg>
</trk>
<trk>
<name>nvvvr54</name>
<cmt>r</cmt>
<desc>Vierves-sur-Viroin Sentier n°54 Rue de la Chapelle</desc>
<link href="https://chemins.be/vierves/sentier/54"/><trkseg>
<trkpt lat="50.077390" lon="4.635652"><time>2026-05-06T18:41:12Z</time></trkpt>
<trkpt lat="50.076986" lon="4.635440"><time>2026-05-06T18:51:12Z</time></trkpt>
</trkseg></trk>
<trk>
<name>nvvvr54</name>
<cmt>s</cmt>
<desc>Vierves-sur-Viroin Sentier n°54 Rue de la Chapelle</desc>
<link href="https://chemins.be/vierves/sentier/54"/><trkseg>
<trkpt lat="50.076986" lon="4.635440"><time>2026-05-06T18:51:12Z</time></trkpt>
<trkpt lat="50.076681" lon="4.635341"><time>2026-05-06T19:01:12Z</time></trkpt>
<trkpt lat="50.076465" lon="4.635228"><time>2026-05-06T19:11:12Z</time></trkpt>
<trkpt lat="50.076098" lon="4.634723"><time>2026-05-06T19:21:12Z</time></trkpt>
<trkpt lat="50.075801" lon="4.634554"><time>2026-05-06T19:31:12Z</time></trkpt>
</trkseg>
</trk>
<trk>
<name>nvvvr55</name>
<cmt>r</cmt>
<desc>Vierves-sur-Viroin Sentier n°55 Roche Madou / Roche Madoux / ?</desc>
<link href="https://chemins.be/vierves/sentier/55"/><trkseg>
<trkpt lat="50.080649" lon="4.633798"><time>2026-05-06T18:41:12Z</time></trkpt>
<trkpt lat="50.080670" lon="4.632667"><time>2026-05-06T18:51:12Z</time></trkpt>
<trkpt lat="50.081123" lon="4.630881"><time>2026-05-06T19:01:12Z</time></trkpt>
<trkpt lat="50.081000" lon="4.629902"><time>2026-05-06T19:11:12Z</time></trkpt>
</trkseg></trk>
<trk>
<name>nvvvr55</name>
<cmt>v</cmt>
<desc>Vierves-sur-Viroin Sentier n°55 Roche Madou / Roche Madoux / ?</desc>
<link href="https://chemins.be/vierves/sentier/55"/><trkseg>
<trkpt lat="50.081000" lon="4.629902"><time>2026-05-06T19:11:12Z</time></trkpt>
<trkpt lat="50.080911" lon="4.629371"><time>2026-05-06T19:21:12Z</time></trkpt>
</trkseg>
</trk>
<trk>
<name>nvvvr56</name>
<cmt>v</cmt>
<desc>Vierves-sur-Viroin Sentier n°56 </desc>
<link href="https://chemins.be/vierves/sentier/56"/><trkseg>
<trkpt lat="50.088952" lon="4.643501"><time>2026-05-06T18:41:12Z</time></trkpt>
<trkpt lat="50.089633" lon="4.646128"><time>2026-05-06T18:51:12Z</time></trkpt>
</trkseg></trk>
<trk>
<name>nvvvr56</name>
<cmt>d</cmt>
<desc>Vierves-sur-Viroin Sentier n°56 </desc>
<link href="https://chemins.be/vierves/sentier/56"/><trkseg>
<trkpt lat="50.089633" lon="4.646128"><time>2026-05-06T18:51:12Z</time></trkpt>
<trkpt lat="50.090067" lon="4.648027"><time>2026-05-06T19:01:12Z</time></trkpt>
<trkpt lat="50.090261" lon="4.648777"><time>2026-05-06T19:11:12Z</time></trkpt>
</trkseg>
</trk>
<trk>
<name>nvvvr57</name>
<cmt>s</cmt>
<desc>Vierves-sur-Viroin Sentier n°57 </desc>
<link href="https://chemins.be/vierves/sentier/57"/><trkseg>
<trkpt lat="50.089392" lon="4.643797"><time>2026-05-06T18:41:12Z</time></trkpt>
<trkpt lat="50.090522" lon="4.644601"><time>2026-05-06T18:51:12Z</time></trkpt>
</trkseg></trk>
<trk>
<name>nvvvr57</name>
<cmt>q</cmt>
<desc>Vierves-sur-Viroin Sentier n°57 </desc>
<link href="https://chemins.be/vierves/sentier/57"/><trkseg>
<trkpt lat="50.090522" lon="4.644601"><time>2026-05-06T18:51:12Z</time></trkpt>
<trkpt lat="50.090899" lon="4.644994"><time>2026-05-06T19:01:12Z</time></trkpt>
<trkpt lat="50.091578" lon="4.646611"><time>2026-05-06T19:11:12Z</time></trkpt>
<trkpt lat="50.092950" lon="4.648177"><time>2026-05-06T19:21:12Z</time></trkpt>
</trkseg>
</trk>
<trk>
<name>nvvvr58</name>
<cmt>q</cmt>
<desc>Vierves-sur-Viroin Sentier n°58 </desc>
<link href="https://chemins.be/vierves/sentier/58"/><trkseg>
<trkpt lat="50.090776" lon="4.643902"><time>2026-05-06T18:41:12Z</time></trkpt>
<trkpt lat="50.093301" lon="4.644252"><time>2026-05-06T18:51:12Z</time></trkpt>
<trkpt lat="50.094487" lon="4.644734"><time>2026-05-06T19:01:12Z</time></trkpt>
</trkseg>
</trk>
<trk>
<name>nvvvr59</name>
<cmt>d</cmt>
<desc>Vierves-sur-Viroin Sentier n°59 </desc>
<link href="https://chemins.be/vierves/sentier/59"/><trkseg>
<trkpt lat="50.089182" lon="4.641196"><time>2026-05-06T18:41:12Z</time></trkpt>
<trkpt lat="50.089329" lon="4.639730"><time>2026-05-06T18:51:12Z</time></trkpt>
<trkpt lat="50.088415" lon="4.634624"><time>2026-05-06T19:01:12Z</time></trkpt>
<trkpt lat="50.087622" lon="4.631475"><time>2026-05-06T19:11:12Z</time></trkpt>
</trkseg>
</trk>
<trk>
<name>nvvvr6</name>
<cmt>v</cmt>
<desc>Vierves-sur-Viroin Chemin n°6 </desc>
<link href="https://chemins.be/vierves/chemin/6"/><trkseg>
<trkpt lat="50.084184" lon="4.629193"><time>2026-05-06T18:41:12Z</time></trkpt>
<trkpt lat="50.084458" lon="4.631207"><time>2026-05-06T18:51:12Z</time></trkpt>
<trkpt lat="50.085135" lon="4.634061"><time>2026-05-06T19:01:12Z</time></trkpt>
<trkpt lat="50.086745" lon="4.641322"><time>2026-05-06T19:11:12Z</time></trkpt>
<trkpt lat="50.086789" lon="4.641700"><time>2026-05-06T19:21:12Z</time></trkpt>
</trkseg>
</trk>
<trk>
<name>nvvvr60</name>
<cmt>q</cmt>
<desc>Vierves-sur-Viroin Sentier n°60 </desc>
<link href="https://chemins.be/vierves/sentier/60"/><trkseg>
<trkpt lat="50.092340" lon="4.628418"><time>2026-05-06T18:41:12Z</time></trkpt>
<trkpt lat="50.090909" lon="4.629177"><time>2026-05-06T18:51:12Z</time></trkpt>
<trkpt lat="50.090262" lon="4.629520"><time>2026-05-06T19:01:12Z</time></trkpt>
<trkpt lat="50.089390" lon="4.630399"><time>2026-05-06T19:11:12Z</time></trkpt>
</trkseg>
</trk>
<trk>
<name>nvvvr61</name>
<cmt>q</cmt>
<desc>Vierves-sur-Viroin Sentier n°61 </desc>
<link href="https://chemins.be/vierves/sentier/61"/><trkseg>
<trkpt lat="50.093267" lon="4.639326"><time>2026-05-06T18:41:12Z</time></trkpt>
<trkpt lat="50.094470" lon="4.638947"><time>2026-05-06T18:51:12Z</time></trkpt>
<trkpt lat="50.097245" lon="4.638338"><time>2026-05-06T19:01:12Z</time></trkpt>
</trkseg>
</trk>
<trk>
<name>nvvvr7</name>
<cmt>v</cmt>
<desc>Vierves-sur-Viroin Chemin n°7 Rue de Matagne-la-Petite / ?</desc>
<link href="https://chemins.be/vierves/chemin/7"/><trkseg>
<trkpt lat="50.089309" lon="4.648296"><time>2026-05-06T18:41:12Z</time></trkpt>
<trkpt lat="50.089345" lon="4.647527"><time>2026-05-06T18:51:12Z</time></trkpt>
<trkpt lat="50.089385" lon="4.646703"><time>2026-05-06T19:01:12Z</time></trkpt>
<trkpt lat="50.089773" lon="4.646063"><time>2026-05-06T19:11:12Z</time></trkpt>
</trkseg></trk>
<trk>
<name>nvvvr7</name>
<cmt>d</cmt>
<desc>Vierves-sur-Viroin Chemin n°7 Rue de Matagne-la-Petite / ?</desc>
<link href="https://chemins.be/vierves/chemin/7"/><trkseg>
<trkpt lat="50.089773" lon="4.646063"><time>2026-05-06T19:11:12Z</time></trkpt>
<trkpt lat="50.090350" lon="4.645214"><time>2026-05-06T19:21:12Z</time></trkpt>
<trkpt lat="50.090767" lon="4.643763"><time>2026-05-06T19:31:12Z</time></trkpt>
</trkseg></trk>
<trk>
<name>nvvvr7</name>
<cmt>r</cmt>
<desc>Vierves-sur-Viroin Chemin n°7 Rue de Matagne-la-Petite / ?</desc>
<link href="https://chemins.be/vierves/chemin/7"/><trkseg>
<trkpt lat="50.090767" lon="4.643763"><time>2026-05-06T19:31:12Z</time></trkpt>
<trkpt lat="50.091440" lon="4.640538"><time>2026-05-06T19:41:12Z</time></trkpt>
<trkpt lat="50.091478" lon="4.639826"><time>2026-05-06T19:51:12Z</time></trkpt>
<trkpt lat="50.090882" lon="4.636804"><time>2026-05-06T20:01:12Z</time></trkpt>
<trkpt lat="50.091047" lon="4.629800"><time>2026-05-06T20:11:12Z</time></trkpt>
<trkpt lat="50.090840" lon="4.628027"><time>2026-05-06T20:21:12Z</time></trkpt>
</trkseg>
</trk>
<trk>
<name>nvvvr8</name>
<cmt>r</cmt>
<desc>Vierves-sur-Viroin Chemin n°8 Rue du Vert-Tienne</desc>
<link href="https://chemins.be/vierves/chemin/8"/><trkseg>
<trkpt lat="50.091659" lon="4.627599"><time>2026-05-06T18:41:12Z</time></trkpt>
<trkpt lat="50.091963" lon="4.628145"><time>2026-05-06T18:51:12Z</time></trkpt>
<trkpt lat="50.092385" lon="4.628357"><time>2026-05-06T19:01:12Z</time></trkpt>
<trkpt lat="50.094447" lon="4.627195"><time>2026-05-06T19:11:12Z</time></trkpt>
</trkseg>
</trk>
<trk>
<name>nvvvr9</name>
<cmt>r</cmt>
<desc>Vierves-sur-Viroin Chemin n°9 </desc>
<link href="https://chemins.be/vierves/chemin/9"/><trkseg>
<trkpt lat="50.097659" lon="4.633809"><time>2026-05-06T18:41:12Z</time></trkpt>
<trkpt lat="50.096477" lon="4.632055"><time>2026-05-06T18:51:12Z</time></trkpt>
</trkseg></trk>
<trk>
<name>nvvvr9</name>
<cmt>s</cmt>
<desc>Vierves-sur-Viroin Chemin n°9 </desc>
<link href="https://chemins.be/vierves/chemin/9"/><trkseg>
<trkpt lat="50.096477" lon="4.632055"><time>2026-05-06T18:51:12Z</time></trkpt>
<trkpt lat="50.093653" lon="4.628546"><time>2026-05-06T19:01:12Z</time></trkpt>
<trkpt lat="50.092538" lon="4.628358"><time>2026-05-06T19:11:12Z</time></trkpt>
</trkseg>
</trk>
<trk>
<name>nvvvri1</name>
<cmt>v</cmt>
<desc>Vierves-sur-Viroin Sentier n°i1 </desc>
<link href="https://chemins.be/vierves/sentier/i1"/><trkseg>
<trkpt lat="50.080384" lon="4.631841"><time>2026-05-06T18:41:12Z</time></trkpt>
<trkpt lat="50.080493" lon="4.631352"><time>2026-05-06T18:51:12Z</time></trkpt>
<trkpt lat="50.080521" lon="4.631003"><time>2026-05-06T19:01:12Z</time></trkpt>
<trkpt lat="50.080550" lon="4.630081"><time>2026-05-06T19:11:12Z</time></trkpt>
</trkseg></trk>
<trk>
<name>nvvvri1</name>
<cmt>q</cmt>
<desc>Vierves-sur-Viroin Sentier n°i1 </desc>
<link href="https://chemins.be/vierves/sentier/i1"/><trkseg>
<trkpt lat="50.080550" lon="4.630081"><time>2026-05-06T19:11:12Z</time></trkpt>
<trkpt lat="50.080875" lon="4.629175"><time>2026-05-06T19:21:12Z</time></trkpt>
</trkseg></trk>
<trk>
<name>nvvvri1</name>
<cmt>v</cmt>
<desc>Vierves-sur-Viroin Sentier n°i1 </desc>
<link href="https://chemins.be/vierves/sentier/i1"/><trkseg>
<trkpt lat="50.080875" lon="4.629175"><time>2026-05-06T19:21:12Z</time></trkpt>
<trkpt lat="50.081469" lon="4.628969"><time>2026-05-06T19:31:12Z</time></trkpt>
<trkpt lat="50.082089" lon="4.629335"><time>2026-05-06T19:41:12Z</time></trkpt>
<trkpt lat="50.082385" lon="4.629407"><time>2026-05-06T19:51:12Z</time></trkpt>
<trkpt lat="50.082850" lon="4.630709"><time>2026-05-06T20:01:12Z</time></trkpt>
</trkseg>
</trk>
<trk>
<name>nvvvri10</name>
<cmt>v</cmt>
<desc>Vierves-sur-Viroin Sentier n°i10 </desc>
<link href="https://chemins.be/vierves/sentier/i10"/><trkseg>
<trkpt lat="50.077453" lon="4.635597"><time>2026-05-06T18:41:12Z</time></trkpt>
<trkpt lat="50.077643" lon="4.633354"><time>2026-05-06T18:51:12Z</time></trkpt>
<trkpt lat="50.077007" lon="4.630215"><time>2026-05-06T19:01:12Z</time></trkpt>
<trkpt lat="50.076685" lon="4.629403"><time>2026-05-06T19:11:12Z</time></trkpt>
<trkpt lat="50.075913" lon="4.629010"><time>2026-05-06T19:21:12Z</time></trkpt>
<trkpt lat="50.075272" lon="4.628541"><time>2026-05-06T19:31:12Z</time></trkpt>
<trkpt lat="50.072912" lon="4.628056"><time>2026-05-06T19:41:12Z</time></trkpt>
<trkpt lat="50.071997" lon="4.627296"><time>2026-05-06T19:51:12Z</time></trkpt>
</trkseg>
</trk>
<trk>
<name>nvvvri11</name>
<cmt>v</cmt>
<desc>Vierves-sur-Viroin Sentier n°i11 </desc>
<link href="https://chemins.be/vierves/sentier/i11"/><trkseg>
<trkpt lat="50.075757" lon="4.634120"><time>2026-05-06T18:41:12Z</time></trkpt>
<trkpt lat="50.075398" lon="4.634174"><time>2026-05-06T18:51:12Z</time></trkpt>
<trkpt lat="50.075149" lon="4.632957"><time>2026-05-06T19:01:12Z</time></trkpt>
<trkpt lat="50.073411" lon="4.630224"><time>2026-05-06T19:11:12Z</time></trkpt>
<trkpt lat="50.072478" lon="4.629241"><time>2026-05-06T19:21:12Z</time></trkpt>
<trkpt lat="50.071247" lon="4.628871"><time>2026-05-06T19:31:12Z</time></trkpt>
<trkpt lat="50.070978" lon="4.628548"><time>2026-05-06T19:41:12Z</time></trkpt>
<trkpt lat="50.069790" lon="4.628933"><time>2026-05-06T19:51:12Z</time></trkpt>
<trkpt lat="50.069419" lon="4.630160"><time>2026-05-06T20:01:12Z</time></trkpt>
<trkpt lat="50.068989" lon="4.629613"><time>2026-05-06T20:11:12Z</time></trkpt>
<trkpt lat="50.067968" lon="4.630317"><time>2026-05-06T20:21:12Z</time></trkpt>
<trkpt lat="50.067340" lon="4.631140"><time>2026-05-06T20:31:12Z</time></trkpt>
<trkpt lat="50.067107" lon="4.630874"><time>2026-05-06T20:41:12Z</time></trkpt>
<trkpt lat="50.065180" lon="4.631985"><time>2026-05-06T20:51:12Z</time></trkpt>
<trkpt lat="50.063775" lon="4.633530"><time>2026-05-06T21:01:12Z</time></trkpt>
<trkpt lat="50.063187" lon="4.633473"><time>2026-05-06T21:11:12Z</time></trkpt>
<trkpt lat="50.062143" lon="4.632299"><time>2026-05-06T21:21:12Z</time></trkpt>
<trkpt lat="50.058066" lon="4.629278"><time>2026-05-06T21:31:12Z</time></trkpt>
<trkpt lat="50.056016" lon="4.628077"><time>2026-05-06T21:41:12Z</time></trkpt>
<trkpt lat="50.051828" lon="4.626326"><time>2026-05-06T21:51:12Z</time></trkpt>
</trkseg>
</trk>
<trk>
<name>nvvvri12</name>
<cmt>v</cmt>
<desc>Vierves-sur-Viroin Chemin n°i12 </desc>
<link href="https://chemins.be/vierves/chemin/i12"/><trkseg>
<trkpt lat="50.078653" lon="4.629659"><time>2026-05-06T18:41:12Z</time></trkpt>
<trkpt lat="50.078395" lon="4.629589"><time>2026-05-06T18:51:12Z</time></trkpt>
<trkpt lat="50.076681" lon="4.627448"><time>2026-05-06T19:01:12Z</time></trkpt>
<trkpt lat="50.075988" lon="4.627597"><time>2026-05-06T19:11:12Z</time></trkpt>
</trkseg>
</trk>
<trk>
<name>nvvvri13</name>
<cmt>v</cmt>
<desc>Vierves-sur-Viroin Sentier n°i13 Ruisseau des Fossés</desc>
<link href="https://chemins.be/vierves/sentier/i13"/><trkseg>
<trkpt lat="50.080132" lon="4.635905"><time>2026-05-06T18:41:12Z</time></trkpt>
<trkpt lat="50.079934" lon="4.635918"><time>2026-05-06T18:51:12Z</time></trkpt>
<trkpt lat="50.079511" lon="4.636125"><time>2026-05-06T19:01:12Z</time></trkpt>
<trkpt lat="50.079232" lon="4.636096"><time>2026-05-06T19:11:12Z</time></trkpt>
</trkseg>
</trk>
<trk>
<name>nvvvri14</name>
<cmt>v</cmt>
<desc>Vierves-sur-Viroin Chemin n°i14 </desc>
<link href="https://chemins.be/vierves/chemin/i14"/><trkseg>
<trkpt lat="50.079433" lon="4.638737"><time>2026-05-06T18:41:12Z</time></trkpt>
<trkpt lat="50.079415" lon="4.638877"><time>2026-05-06T18:51:12Z</time></trkpt>
<trkpt lat="50.079333" lon="4.638932"><time>2026-05-06T19:01:12Z</time></trkpt>
</trkseg>
</trk>
<trk>
<name>nvvvri15</name>
<cmt>v</cmt>
<desc>Vierves-sur-Viroin Chemin n°i15 </desc>
<link href="https://chemins.be/vierves/chemin/i15"/><trkseg>
<trkpt lat="50.079032" lon="4.637170"><time>2026-05-06T18:41:12Z</time></trkpt>
<trkpt lat="50.079076" lon="4.637366"><time>2026-05-06T18:51:12Z</time></trkpt>
<trkpt lat="50.079292" lon="4.637311"><time>2026-05-06T19:01:12Z</time></trkpt>
</trkseg>
</trk>
<trk>
<name>nvvvri16</name>
<cmt>v</cmt>
<desc>Vierves-sur-Viroin Sentier n°i16 </desc>
<link href="https://chemins.be/vierves/sentier/i16"/><trkseg>
<trkpt lat="50.079738" lon="4.635134"><time>2026-05-06T18:41:12Z</time></trkpt>
<trkpt lat="50.079747" lon="4.635023"><time>2026-05-06T18:51:12Z</time></trkpt>
</trkseg>
</trk>
<trk>
<name>nvvvri17</name>
<cmt>v</cmt>
<desc>Vierves-sur-Viroin Chemin n°i17 </desc>
<link href="https://chemins.be/vierves/chemin/i17"/><trkseg>
<trkpt lat="50.078717" lon="4.644937"><time>2026-05-06T18:41:12Z</time></trkpt>
<trkpt lat="50.075532" lon="4.645882"><time>2026-05-06T18:51:12Z</time></trkpt>
<trkpt lat="50.073355" lon="4.646540"><time>2026-05-06T19:01:12Z</time></trkpt>
<trkpt lat="50.072441" lon="4.645110"><time>2026-05-06T19:11:12Z</time></trkpt>
<trkpt lat="50.071809" lon="4.642228"><time>2026-05-06T19:21:12Z</time></trkpt>
<trkpt lat="50.072111" lon="4.640233"><time>2026-05-06T19:31:12Z</time></trkpt>
<trkpt lat="50.074056" lon="4.638958"><time>2026-05-06T19:41:12Z</time></trkpt>
<trkpt lat="50.075371" lon="4.637904"><time>2026-05-06T19:51:12Z</time></trkpt>
</trkseg>
</trk>
<trk>
<name>nvvvri18</name>
<cmt>v</cmt>
<desc>Vierves-sur-Viroin Sentier n°i18 </desc>
<link href="https://chemins.be/vierves/sentier/i18"/><trkseg>
<trkpt lat="50.080801" lon="4.634134"><time>2026-05-06T18:41:12Z</time></trkpt>
<trkpt lat="50.081092" lon="4.633960"><time>2026-05-06T18:51:12Z</time></trkpt>
</trkseg>
</trk>
<trk>
<name>nvvvri19</name>
<cmt>d</cmt>
<desc>Vierves-sur-Viroin Chemin n°i19 </desc>
<link href="https://chemins.be/vierves/chemin/i19"/><trkseg>
<trkpt lat="50.081940" lon="4.639352"><time>2026-05-06T18:41:12Z</time></trkpt>
<trkpt lat="50.082227" lon="4.639452"><time>2026-05-06T18:51:12Z</time></trkpt>
<trkpt lat="50.082424" lon="4.639830"><time>2026-05-06T19:01:12Z</time></trkpt>
<trkpt lat="50.082504" lon="4.640166"><time>2026-05-06T19:11:12Z</time></trkpt>
<trkpt lat="50.082512" lon="4.640557"><time>2026-05-06T19:21:12Z</time></trkpt>
</trkseg>
</trk>
<trk>
<name>nvvvri2</name>
<cmt>v</cmt>
<desc>Vierves-sur-Viroin Sentier n°i2 </desc>
<link href="https://chemins.be/vierves/sentier/i2"/><trkseg>
<trkpt lat="50.076163" lon="4.633564"><time>2026-05-06T18:41:12Z</time></trkpt>
<trkpt lat="50.076014" lon="4.632180"><time>2026-05-06T18:51:12Z</time></trkpt>
<trkpt lat="50.075487" lon="4.630612"><time>2026-05-06T19:01:12Z</time></trkpt>
<trkpt lat="50.074448" lon="4.628874"><time>2026-05-06T19:11:12Z</time></trkpt>
<trkpt lat="50.075919" lon="4.629074"><time>2026-05-06T19:21:12Z</time></trkpt>
</trkseg>
</trk>
<trk>
<name>nvvvri20</name>
<cmt>v</cmt>
<desc>Vierves-sur-Viroin Chemin n°i20 Rue de l'Ancienne Poste</desc>
<link href="https://chemins.be/vierves/chemin/i20"/><trkseg>
<trkpt lat="50.080962" lon="4.634750"><time>2026-05-06T18:41:12Z</time></trkpt>
<trkpt lat="50.081016" lon="4.634722"><time>2026-05-06T18:51:12Z</time></trkpt>
</trkseg>
</trk>
<trk>
<name>nvvvri21</name>
<cmt>v</cmt>
<desc>Vierves-sur-Viroin Chemin n°i21 Rue de la Gendarmerie</desc>
<link href="https://chemins.be/vierves/chemin/i21"/><trkseg>
<trkpt lat="50.081115" lon="4.634360"><time>2026-05-06T18:41:12Z</time></trkpt>
<trkpt lat="50.081124" lon="4.634597"><time>2026-05-06T18:51:12Z</time></trkpt>
</trkseg>
</trk>
<trk>
<name>nvvvri22</name>
<cmt>r</cmt>
<desc>Vierves-sur-Viroin Chemin n°i22 Rue de l'Ancienne-Poste</desc>
<link href="https://chemins.be/vierves/chemin/i22"/><trkseg>
<trkpt lat="50.080926" lon="4.634540"><time>2026-05-06T18:41:12Z</time></trkpt>
<trkpt lat="50.081106" lon="4.634667"><time>2026-05-06T18:51:12Z</time></trkpt>
</trkseg>
</trk>
<trk>
<name>nvvvri23</name>
<cmt>v</cmt>
<desc>Vierves-sur-Viroin Sentier n°i23 </desc>
<link href="https://chemins.be/vierves/sentier/i23"/><trkseg>
<trkpt lat="50.078771" lon="4.645035"><time>2026-05-06T18:41:12Z</time></trkpt>
<trkpt lat="50.079001" lon="4.646293"><time>2026-05-06T18:51:12Z</time></trkpt>
<trkpt lat="50.079403" lon="4.647423"><time>2026-05-06T19:01:12Z</time></trkpt>
<trkpt lat="50.079190" lon="4.648088"><time>2026-05-06T19:11:12Z</time></trkpt>
</trkseg>
</trk>
<trk>
<name>nvvvri24</name>
<cmt>v</cmt>
<desc>Vierves-sur-Viroin Chemin n°i24 </desc>
<link href="https://chemins.be/vierves/chemin/i24"/><trkseg>
<trkpt lat="50.081393" lon="4.646042"><time>2026-05-06T18:41:12Z</time></trkpt>
<trkpt lat="50.081474" lon="4.646378"><time>2026-05-06T18:51:12Z</time></trkpt>
<trkpt lat="50.081391" lon="4.647006"><time>2026-05-06T19:01:12Z</time></trkpt>
</trkseg>
</trk>
<trk>
<name>nvvvri25</name>
<cmt>v</cmt>
<desc>Vierves-sur-Viroin Chemin n°i25 </desc>
<link href="https://chemins.be/vierves/chemin/i25"/><trkseg>
<trkpt lat="50.079506" lon="4.634532"><time>2026-05-06T18:41:12Z</time></trkpt>
<trkpt lat="50.079496" lon="4.634770"><time>2026-05-06T18:51:12Z</time></trkpt>
<trkpt lat="50.079576" lon="4.634994"><time>2026-05-06T19:01:12Z</time></trkpt>
</trkseg>
</trk>
<trk>
<name>nvvvri26</name>
<cmt>v</cmt>
<desc>Vierves-sur-Viroin Sentier n°i26 </desc>
<link href="https://chemins.be/vierves/sentier/i26"/><trkseg>
<trkpt lat="50.082768" lon="4.630395"><time>2026-05-06T18:41:12Z</time></trkpt>
<trkpt lat="50.082869" lon="4.630427"><time>2026-05-06T18:51:12Z</time></trkpt>
</trkseg>
</trk>
<trk>
<name>nvvvri27</name>
<cmt>r</cmt>
<desc>Vierves-sur-Viroin Chemin n°i27 </desc>
<link href="https://chemins.be/vierves/chemin/i27"/><trkseg>
<trkpt lat="50.090738" lon="4.643878"><time>2026-05-06T18:41:12Z</time></trkpt>
<trkpt lat="50.092583" lon="4.650173"><time>2026-05-06T18:51:12Z</time></trkpt>
<trkpt lat="50.092596" lon="4.651210"><time>2026-05-06T19:01:12Z</time></trkpt>
</trkseg></trk>
<trk>
<name>nvvvri27</name>
<cmt>v</cmt>
<desc>Vierves-sur-Viroin Chemin n°i27 </desc>
<link href="https://chemins.be/vierves/chemin/i27"/><trkseg>
<trkpt lat="50.092596" lon="4.651210"><time>2026-05-06T19:01:12Z</time></trkpt>
<trkpt lat="50.092294" lon="4.651775"><time>2026-05-06T19:11:12Z</time></trkpt>
<trkpt lat="50.091027" lon="4.652647"><time>2026-05-06T19:21:12Z</time></trkpt>
</trkseg>
</trk>
<trk>
<name>nvvvri28</name>
<cmt>v</cmt>
<desc>Vierves-sur-Viroin Chemin n°i28 </desc>
<link href="https://chemins.be/vierves/chemin/i28"/><trkseg>
<trkpt lat="50.074817" lon="4.636361"><time>2026-05-06T18:41:12Z</time></trkpt>
<trkpt lat="50.074096" lon="4.634666"><time>2026-05-06T18:51:12Z</time></trkpt>
<trkpt lat="50.073853" lon="4.634594"><time>2026-05-06T19:01:12Z</time></trkpt>
<trkpt lat="50.073889" lon="4.635634"><time>2026-05-06T19:11:12Z</time></trkpt>
<trkpt lat="50.073673" lon="4.636518"><time>2026-05-06T19:21:12Z</time></trkpt>
<trkpt lat="50.073403" lon="4.636812"><time>2026-05-06T19:31:12Z</time></trkpt>
<trkpt lat="50.073068" lon="4.636819"><time>2026-05-06T19:41:12Z</time></trkpt>
<trkpt lat="50.072796" lon="4.636067"><time>2026-05-06T19:51:12Z</time></trkpt>
<trkpt lat="50.072076" lon="4.633478"><time>2026-05-06T20:01:12Z</time></trkpt>
<trkpt lat="50.071736" lon="4.633722"><time>2026-05-06T20:11:12Z</time></trkpt>
<trkpt lat="50.068611" lon="4.639310"><time>2026-05-06T20:21:12Z</time></trkpt>
</trkseg>
</trk>
<trk>
<name>nvvvri29</name>
<cmt>v</cmt>
<desc>Vierves-sur-Viroin Chemin n°i29 </desc>
<link href="https://chemins.be/vierves/chemin/i29"/><trkseg>
<trkpt lat="50.065205" lon="4.639851"><time>2026-05-06T18:41:12Z</time></trkpt>
<trkpt lat="50.064700" lon="4.638122"><time>2026-05-06T18:51:12Z</time></trkpt>
<trkpt lat="50.064565" lon="4.637411"><time>2026-05-06T19:01:12Z</time></trkpt>
<trkpt lat="50.061185" lon="4.636896"><time>2026-05-06T19:11:12Z</time></trkpt>
</trkseg>
</trk>
<trk>
<name>nvvvri3</name>
<cmt>v</cmt>
<desc>Vierves-sur-Viroin Sentier n°i3 </desc>
<link href="https://chemins.be/vierves/sentier/i3"/><trkseg>
<trkpt lat="50.081749" lon="4.633807"><time>2026-05-06T18:41:12Z</time></trkpt>
<trkpt lat="50.081849" lon="4.633908"><time>2026-05-06T18:51:12Z</time></trkpt>
<trkpt lat="50.082039" lon="4.633938"><time>2026-05-06T19:01:12Z</time></trkpt>
<trkpt lat="50.082339" lon="4.634468"><time>2026-05-06T19:11:12Z</time></trkpt>
</trkseg>
</trk>
<trk>
<name>nvvvri30</name>
<cmt>v</cmt>
<desc>Vierves-sur-Viroin Chemin n°i30 </desc>
<link href="https://chemins.be/vierves/chemin/i30"/><trkseg>
<trkpt lat="50.094356" lon="4.638390"><time>2026-05-06T18:41:12Z</time></trkpt>
<trkpt lat="50.095617" lon="4.646113"><time>2026-05-06T18:51:12Z</time></trkpt>
</trkseg>
</trk>
<trk>
<name>nvvvri31</name>
<cmt>v</cmt>
<desc>Vierves-sur-Viroin Chemin n°i31 </desc>
<link href="https://chemins.be/vierves/chemin/i31"/><trkseg>
<trkpt lat="50.045908" lon="4.646981"><time>2026-05-06T18:41:12Z</time></trkpt>
<trkpt lat="50.046006" lon="4.644224"><time>2026-05-06T18:51:12Z</time></trkpt>
<trkpt lat="50.046239" lon="4.633849"><time>2026-05-06T19:01:12Z</time></trkpt>
<trkpt lat="50.046055" lon="4.632447"><time>2026-05-06T19:11:12Z</time></trkpt>
<trkpt lat="50.046640" lon="4.629315"><time>2026-05-06T19:21:12Z</time></trkpt>
<trkpt lat="50.047010" lon="4.626524"><time>2026-05-06T19:31:12Z</time></trkpt>
</trkseg>
</trk>
<trk>
<name>nvvvri32</name>
<cmt>q</cmt>
<desc>Vierves-sur-Viroin Chemin n°i32 Chemin de l'Avion</desc>
<link href="https://chemins.be/vierves/chemin/i32"/><trkseg>
<trkpt lat="50.044227" lon="4.647480"><time>2026-05-06T18:41:12Z</time></trkpt>
<trkpt lat="50.045141" lon="4.651785"><time>2026-05-06T18:51:12Z</time></trkpt>
<trkpt lat="50.045201" lon="4.653109"><time>2026-05-06T19:01:12Z</time></trkpt>
<trkpt lat="50.046058" lon="4.655553"><time>2026-05-06T19:11:12Z</time></trkpt>
</trkseg>
</trk>
<trk>
<name>nvvvri4</name>
<cmt>v</cmt>
<desc>Vierves-sur-Viroin Sentier n°i4 </desc>
<link href="https://chemins.be/vierves/sentier/i4"/><trkseg>
<trkpt lat="50.081154" lon="4.634138"><time>2026-05-06T18:41:12Z</time></trkpt>
<trkpt lat="50.081124" lon="4.633948"><time>2026-05-06T18:51:12Z</time></trkpt>
<trkpt lat="50.081088" lon="4.633753"><time>2026-05-06T19:01:12Z</time></trkpt>
<trkpt lat="50.081164" lon="4.632739"><time>2026-05-06T19:11:12Z</time></trkpt>
<trkpt lat="50.081678" lon="4.632267"><time>2026-05-06T19:21:12Z</time></trkpt>
<trkpt lat="50.082157" lon="4.631152"><time>2026-05-06T19:31:12Z</time></trkpt>
<trkpt lat="50.082578" lon="4.631615"><time>2026-05-06T19:41:12Z</time></trkpt>
<trkpt lat="50.082876" lon="4.631226"><time>2026-05-06T19:51:12Z</time></trkpt>
</trkseg>
</trk>
<trk>
<name>nvvvri5</name>
<cmt>v</cmt>
<desc>Vierves-sur-Viroin Sentier n°i5 </desc>
<link href="https://chemins.be/vierves/sentier/i5"/><trkseg>
<trkpt lat="50.083804" lon="4.634291"><time>2026-05-06T18:41:12Z</time></trkpt>
<trkpt lat="50.083229" lon="4.633868"><time>2026-05-06T18:51:12Z</time></trkpt>
<trkpt lat="50.082680" lon="4.634131"><time>2026-05-06T19:01:12Z</time></trkpt>
<trkpt lat="50.082185" lon="4.634631"><time>2026-05-06T19:11:12Z</time></trkpt>
<trkpt lat="50.082246" lon="4.635079"><time>2026-05-06T19:21:12Z</time></trkpt>
<trkpt lat="50.082353" lon="4.635624"><time>2026-05-06T19:31:12Z</time></trkpt>
<trkpt lat="50.082640" lon="4.635947"><time>2026-05-06T19:41:12Z</time></trkpt>
<trkpt lat="50.083672" lon="4.640620"><time>2026-05-06T19:51:12Z</time></trkpt>
</trkseg>
</trk>
<trk>
<name>nvvvri6</name>
<cmt>v</cmt>
<desc>Vierves-sur-Viroin Sentier n°i6 </desc>
<link href="https://chemins.be/vierves/sentier/i6"/><trkseg>
<trkpt lat="50.081572" lon="4.635340"><time>2026-05-06T18:41:12Z</time></trkpt>
<trkpt lat="50.081588" lon="4.636039"><time>2026-05-06T18:51:12Z</time></trkpt>
<trkpt lat="50.081939" lon="4.635831"><time>2026-05-06T19:01:12Z</time></trkpt>
<trkpt lat="50.082326" lon="4.635638"><time>2026-05-06T19:11:12Z</time></trkpt>
</trkseg>
</trk>
<trk>
<name>nvvvri7</name>
<cmt>v</cmt>
<desc>Vierves-sur-Viroin Sentier n°i7 </desc>
<link href="https://chemins.be/vierves/sentier/i7"/><trkseg>
<trkpt lat="50.080683" lon="4.642447"><time>2026-05-06T18:41:12Z</time></trkpt>
<trkpt lat="50.080675" lon="4.642000"><time>2026-05-06T18:51:12Z</time></trkpt>
<trkpt lat="50.081107" lon="4.641723"><time>2026-05-06T19:01:12Z</time></trkpt>
<trkpt lat="50.081376" lon="4.642158"><time>2026-05-06T19:11:12Z</time></trkpt>
<trkpt lat="50.081817" lon="4.641797"><time>2026-05-06T19:21:12Z</time></trkpt>
<trkpt lat="50.082345" lon="4.642987"><time>2026-05-06T19:31:12Z</time></trkpt>
<trkpt lat="50.083000" lon="4.643550"><time>2026-05-06T19:41:12Z</time></trkpt>
<trkpt lat="50.083225" lon="4.643356"><time>2026-05-06T19:51:12Z</time></trkpt>
</trkseg>
</trk>
<trk>
<name>nvvvri8</name>
<cmt>v</cmt>
<desc>Vierves-sur-Viroin Sentier n°i8 </desc>
<link href="https://chemins.be/vierves/sentier/i8"/><trkseg>
<trkpt lat="50.079448" lon="4.639771"><time>2026-05-06T18:41:12Z</time></trkpt>
<trkpt lat="50.080199" lon="4.641801"><time>2026-05-06T18:51:12Z</time></trkpt>
<trkpt lat="50.080719" lon="4.642503"><time>2026-05-06T19:01:12Z</time></trkpt>
<trkpt lat="50.081211" lon="4.643344"><time>2026-05-06T19:11:12Z</time></trkpt>
<trkpt lat="50.081569" lon="4.643947"><time>2026-05-06T19:21:12Z</time></trkpt>
<trkpt lat="50.082825" lon="4.645058"><time>2026-05-06T19:31:12Z</time></trkpt>
<trkpt lat="50.083455" lon="4.644992"><time>2026-05-06T19:41:12Z</time></trkpt>
<trkpt lat="50.084556" lon="4.646829"><time>2026-05-06T19:51:12Z</time></trkpt>
</trkseg>
</trk>
<trk>
<name>nvvvri9</name>
<cmt>v</cmt>
<desc>Vierves-sur-Viroin Sentier n°i9 </desc>
<link href="https://chemins.be/vierves/sentier/i9"/><trkseg>
<trkpt lat="50.076959" lon="4.635398"><time>2026-05-06T18:41:12Z</time></trkpt>
<trkpt lat="50.076672" lon="4.635215"><time>2026-05-06T18:51:12Z</time></trkpt>
<trkpt lat="50.076474" lon="4.635340"><time>2026-05-06T19:01:12Z</time></trkpt>
<trkpt lat="50.076569" lon="4.636891"><time>2026-05-06T19:11:12Z</time></trkpt>
<trkpt lat="50.076558" lon="4.637911"><time>2026-05-06T19:21:12Z</time></trkpt>
<trkpt lat="50.076431" lon="4.638273"><time>2026-05-06T19:31:12Z</time></trkpt>
<trkpt lat="50.076198" lon="4.637979"><time>2026-05-06T19:41:12Z</time></trkpt>
<trkpt lat="50.075847" lon="4.638005"><time>2026-05-06T19:51:12Z</time></trkpt>
<trkpt lat="50.075560" lon="4.637807"><time>2026-05-06T20:01:12Z</time></trkpt>
</trkseg>
</trk>
<trk>
<name>nvvvrL132</name>
<cmt>t</cmt>
<desc>Vierves-sur-Viroin Chemin n°L132 </desc>
<link href="https://chemins.be/vierves/chemin/L132"/><trkseg>
<trkpt lat="50.076113" lon="4.628171"><time>2026-05-06T18:41:12Z</time></trkpt>
<trkpt lat="50.077070" lon="4.630174"><time>2026-05-06T18:51:12Z</time></trkpt>
<trkpt lat="50.077655" lon="4.632326"><time>2026-05-06T19:01:12Z</time></trkpt>
<trkpt lat="50.078199" lon="4.635950"><time>2026-05-06T19:11:12Z</time></trkpt>
<trkpt lat="50.078776" lon="4.638859"><time>2026-05-06T19:21:12Z</time></trkpt>
<trkpt lat="50.081529" lon="4.645889"><time>2026-05-06T19:31:12Z</time></trkpt>
<trkpt lat="50.081841" lon="4.646897"><time>2026-05-06T19:41:12Z</time></trkpt>
</trkseg>
</trk>
</gpx>